<?xml version="1.0" encoding="UTF-8" standalone="no" ?>
<gpx xmlns="http://www.topografix.com/GPX/1/1" xmlns:xsi="http://www.w3.org/2001/XMLSchema-instance" xsi:schemaLocation="http://www.topografix.com/GPX/1/1 http://www.topografix.com/GPX/1/1/gpx.xsd" version="1.1" creator="VisuGPX - https://www.visugpx.com">
  <metadata>
    <name>Journée visite La Rochelle</name>
    <desc><![CDATA[Visite de la Rochelle en mode piéton
Départ le l'hotel du chateau de Lagord]]></desc>
  </metadata>
  <trk>
    <name><![CDATA[SityTrail - Journée visite La Rochelle]]></name>
    <trkseg>
      <trkpt lat="46.18474" lon="-1.17399">
        <ele>26</ele>
        <time>2023-07-15T07:10:42.029+00:00</time>
      </trkpt>
      <trkpt lat="46.18473" lon="-1.17396">
        <ele>26</ele>
        <time>2023-07-15T07:10:42.029+00:00</time>
      </trkpt>
      <trkpt lat="46.18475" lon="-1.17404">
        <ele>26</ele>
        <time>2023-07-15T07:12:00.931+00:00</time>
      </trkpt>
      <trkpt lat="46.18477" lon="-1.1741">
        <ele>26</ele>
        <time>2023-07-15T07:12:05.121+00:00</time>
      </trkpt>
      <trkpt lat="46.18479" lon="-1.17411">
        <ele>26</ele>
        <time>2023-07-15T07:12:10.214+00:00</time>
      </trkpt>
      <trkpt lat="46.18479" lon="-1.17398">
        <ele>26</ele>
        <time>2023-07-15T07:12:13.737+00:00</time>
      </trkpt>
      <trkpt lat="46.18477" lon="-1.17398">
        <ele>26</ele>
        <time>2023-07-15T07:12:19.210+00:00</time>
      </trkpt>
      <trkpt lat="46.18477" lon="-1.17398">
        <ele>26</ele>
        <time>2023-07-15T07:14:05.924+00:00</time>
      </trkpt>
      <trkpt lat="46.18472" lon="-1.17396">
        <ele>26</ele>
        <time>2023-07-15T07:14:10.713+00:00</time>
      </trkpt>
      <trkpt lat="46.18469" lon="-1.174">
        <ele>26</ele>
        <time>2023-07-15T07:14:15.261+00:00</time>
      </trkpt>
      <trkpt lat="46.18473" lon="-1.17403">
        <ele>26</ele>
        <time>2023-07-15T07:14:19.951+00:00</time>
      </trkpt>
      <trkpt lat="46.18476" lon="-1.17406">
        <ele>26</ele>
        <time>2023-07-15T07:14:23.998+00:00</time>
      </trkpt>
      <trkpt lat="46.18478" lon="-1.17409">
        <ele>26</ele>
        <time>2023-07-15T07:14:27.948+00:00</time>
      </trkpt>
      <trkpt lat="46.18479" lon="-1.17411">
        <ele>26</ele>
        <time>2023-07-15T07:14:32.017+00:00</time>
      </trkpt>
      <trkpt lat="46.1848" lon="-1.17421">
        <ele>26</ele>
        <time>2023-07-15T07:14:36.887+00:00</time>
      </trkpt>
      <trkpt lat="46.18485" lon="-1.17426">
        <ele>26</ele>
        <time>2023-07-15T07:14:40.871+00:00</time>
      </trkpt>
      <trkpt lat="46.1848" lon="-1.1743">
        <ele>26</ele>
        <time>2023-07-15T07:14:45.621+00:00</time>
      </trkpt>
      <trkpt lat="46.18477" lon="-1.17437">
        <ele>27</ele>
        <time>2023-07-15T07:15:54.004+00:00</time>
      </trkpt>
      <trkpt lat="46.18471" lon="-1.17443">
        <ele>27</ele>
        <time>2023-07-15T07:15:58.025+00:00</time>
      </trkpt>
      <trkpt lat="46.18466" lon="-1.17447">
        <ele>27</ele>
        <time>2023-07-15T07:16:02.573+00:00</time>
      </trkpt>
      <trkpt lat="46.1846" lon="-1.17448">
        <ele>27</ele>
        <time>2023-07-15T07:16:06.947+00:00</time>
      </trkpt>
      <trkpt lat="46.18455" lon="-1.17447">
        <ele>25</ele>
        <time>2023-07-15T07:16:11.479+00:00</time>
      </trkpt>
      <trkpt lat="46.18449" lon="-1.17443">
        <ele>25</ele>
        <time>2023-07-15T07:16:16.150+00:00</time>
      </trkpt>
      <trkpt lat="46.18445" lon="-1.17445">
        <ele>25</ele>
        <time>2023-07-15T07:16:20.581+00:00</time>
      </trkpt>
      <trkpt lat="46.1844" lon="-1.17444">
        <ele>25</ele>
        <time>2023-07-15T07:16:25.065+00:00</time>
      </trkpt>
      <trkpt lat="46.18434" lon="-1.17441">
        <ele>25</ele>
        <time>2023-07-15T07:16:28.971+00:00</time>
      </trkpt>
      <trkpt lat="46.18428" lon="-1.17435">
        <ele>25</ele>
        <time>2023-07-15T07:16:33.442+00:00</time>
      </trkpt>
      <trkpt lat="46.18425" lon="-1.17429">
        <ele>25</ele>
        <time>2023-07-15T07:16:38.285+00:00</time>
      </trkpt>
      <trkpt lat="46.1842" lon="-1.17425">
        <ele>25</ele>
        <time>2023-07-15T07:16:42.428+00:00</time>
      </trkpt>
      <trkpt lat="46.18415" lon="-1.17423">
        <ele>25</ele>
        <time>2023-07-15T07:16:46.737+00:00</time>
      </trkpt>
      <trkpt lat="46.1841" lon="-1.17421">
        <ele>25</ele>
        <time>2023-07-15T07:16:51.603+00:00</time>
      </trkpt>
      <trkpt lat="46.18405" lon="-1.17418">
        <ele>25</ele>
        <time>2023-07-15T07:16:55.630+00:00</time>
      </trkpt>
      <trkpt lat="46.184" lon="-1.17416">
        <ele>25</ele>
        <time>2023-07-15T07:17:00.251+00:00</time>
      </trkpt>
      <trkpt lat="46.18395" lon="-1.17413">
        <ele>25</ele>
        <time>2023-07-15T07:17:04.213+00:00</time>
      </trkpt>
      <trkpt lat="46.1839" lon="-1.1741">
        <ele>25</ele>
        <time>2023-07-15T07:17:08.608+00:00</time>
      </trkpt>
      <trkpt lat="46.18384" lon="-1.17406">
        <ele>25</ele>
        <time>2023-07-15T07:17:13.048+00:00</time>
      </trkpt>
      <trkpt lat="46.1838" lon="-1.17405">
        <ele>25</ele>
        <time>2023-07-15T07:17:17.102+00:00</time>
      </trkpt>
      <trkpt lat="46.18373" lon="-1.17401">
        <ele>25</ele>
        <time>2023-07-15T07:17:22.163+00:00</time>
      </trkpt>
      <trkpt lat="46.18369" lon="-1.174">
        <ele>25</ele>
        <time>2023-07-15T07:17:25.961+00:00</time>
      </trkpt>
      <trkpt lat="46.18362" lon="-1.17397">
        <ele>25</ele>
        <time>2023-07-15T07:17:31.245+00:00</time>
      </trkpt>
      <trkpt lat="46.18357" lon="-1.17394">
        <ele>25</ele>
        <time>2023-07-15T07:17:35.269+00:00</time>
      </trkpt>
      <trkpt lat="46.18351" lon="-1.17391">
        <ele>25</ele>
        <time>2023-07-15T07:17:39.851+00:00</time>
      </trkpt>
      <trkpt lat="46.18345" lon="-1.1739">
        <ele>25</ele>
        <time>2023-07-15T07:17:44.237+00:00</time>
      </trkpt>
      <trkpt lat="46.18339" lon="-1.17388">
        <ele>25</ele>
        <time>2023-07-15T07:17:48.569+00:00</time>
      </trkpt>
      <trkpt lat="46.18333" lon="-1.17385">
        <ele>25</ele>
        <time>2023-07-15T07:17:52.647+00:00</time>
      </trkpt>
      <trkpt lat="46.18328" lon="-1.17382">
        <ele>25</ele>
        <time>2023-07-15T07:17:56.717+00:00</time>
      </trkpt>
      <trkpt lat="46.18323" lon="-1.17379">
        <ele>25</ele>
        <time>2023-07-15T07:18:01.130+00:00</time>
      </trkpt>
      <trkpt lat="46.18318" lon="-1.17373">
        <ele>26</ele>
        <time>2023-07-15T07:18:05.227+00:00</time>
      </trkpt>
      <trkpt lat="46.18316" lon="-1.17364">
        <ele>26</ele>
        <time>2023-07-15T07:18:09.170+00:00</time>
      </trkpt>
      <trkpt lat="46.18313" lon="-1.17356">
        <ele>26</ele>
        <time>2023-07-15T07:18:13.841+00:00</time>
      </trkpt>
      <trkpt lat="46.1831" lon="-1.17349">
        <ele>26</ele>
        <time>2023-07-15T07:18:18.392+00:00</time>
      </trkpt>
      <trkpt lat="46.18307" lon="-1.17343">
        <ele>27</ele>
        <time>2023-07-15T07:18:22.829+00:00</time>
      </trkpt>
      <trkpt lat="46.18302" lon="-1.17338">
        <ele>27</ele>
        <time>2023-07-15T07:18:27.078+00:00</time>
      </trkpt>
      <trkpt lat="46.18296" lon="-1.17335">
        <ele>27</ele>
        <time>2023-07-15T07:18:31.149+00:00</time>
      </trkpt>
      <trkpt lat="46.18292" lon="-1.1733">
        <ele>27</ele>
        <time>2023-07-15T07:18:35.200+00:00</time>
      </trkpt>
      <trkpt lat="46.18287" lon="-1.17325">
        <ele>27</ele>
        <time>2023-07-15T07:18:39.737+00:00</time>
      </trkpt>
      <trkpt lat="46.18283" lon="-1.1732">
        <ele>27</ele>
        <time>2023-07-15T07:18:44.183+00:00</time>
      </trkpt>
      <trkpt lat="46.18279" lon="-1.17313">
        <ele>27</ele>
        <time>2023-07-15T07:18:48.249+00:00</time>
      </trkpt>
      <trkpt lat="46.18277" lon="-1.17306">
        <ele>27</ele>
        <time>2023-07-15T07:18:51.839+00:00</time>
      </trkpt>
      <trkpt lat="46.18274" lon="-1.17299">
        <ele>27</ele>
        <time>2023-07-15T07:18:56.973+00:00</time>
      </trkpt>
      <trkpt lat="46.18273" lon="-1.1729">
        <ele>27</ele>
        <time>2023-07-15T07:19:00.938+00:00</time>
      </trkpt>
      <trkpt lat="46.18271" lon="-1.17282">
        <ele>27</ele>
        <time>2023-07-15T07:19:05.589+00:00</time>
      </trkpt>
      <trkpt lat="46.18271" lon="-1.17273">
        <ele>27</ele>
        <time>2023-07-15T07:19:10.243+00:00</time>
      </trkpt>
      <trkpt lat="46.18273" lon="-1.17263">
        <ele>26</ele>
        <time>2023-07-15T07:19:14.452+00:00</time>
      </trkpt>
      <trkpt lat="46.18275" lon="-1.17254">
        <ele>26</ele>
        <time>2023-07-15T07:19:19.002+00:00</time>
      </trkpt>
      <trkpt lat="46.18277" lon="-1.17247">
        <ele>26</ele>
        <time>2023-07-15T07:19:24.104+00:00</time>
      </trkpt>
      <trkpt lat="46.18279" lon="-1.1724">
        <ele>26</ele>
        <time>2023-07-15T07:19:28.486+00:00</time>
      </trkpt>
      <trkpt lat="46.18281" lon="-1.17232">
        <ele>25</ele>
        <time>2023-07-15T07:19:33.025+00:00</time>
      </trkpt>
      <trkpt lat="46.18281" lon="-1.17224">
        <ele>25</ele>
        <time>2023-07-15T07:19:37.082+00:00</time>
      </trkpt>
      <trkpt lat="46.18281" lon="-1.17217">
        <ele>25</ele>
        <time>2023-07-15T07:19:41.737+00:00</time>
      </trkpt>
      <trkpt lat="46.1828" lon="-1.17209">
        <ele>25</ele>
        <time>2023-07-15T07:19:45.737+00:00</time>
      </trkpt>
      <trkpt lat="46.1828" lon="-1.17204">
        <ele>25</ele>
        <time>2023-07-15T07:19:49.736+00:00</time>
      </trkpt>
      <trkpt lat="46.18278" lon="-1.17201">
        <ele>25</ele>
        <time>2023-07-15T07:19:54.243+00:00</time>
      </trkpt>
      <trkpt lat="46.18272" lon="-1.17203">
        <ele>25</ele>
        <time>2023-07-15T07:19:58.677+00:00</time>
      </trkpt>
      <trkpt lat="46.18266" lon="-1.17204">
        <ele>25</ele>
        <time>2023-07-15T07:20:03.263+00:00</time>
      </trkpt>
      <trkpt lat="46.1826" lon="-1.17206">
        <ele>23</ele>
        <time>2023-07-15T07:20:07.737+00:00</time>
      </trkpt>
      <trkpt lat="46.18255" lon="-1.17209">
        <ele>24</ele>
        <time>2023-07-15T07:20:12.160+00:00</time>
      </trkpt>
      <trkpt lat="46.18249" lon="-1.17211">
        <ele>24</ele>
        <time>2023-07-15T07:20:17.235+00:00</time>
      </trkpt>
      <trkpt lat="46.18243" lon="-1.17213">
        <ele>24</ele>
        <time>2023-07-15T07:20:21.737+00:00</time>
      </trkpt>
      <trkpt lat="46.18239" lon="-1.17216">
        <ele>24</ele>
        <time>2023-07-15T07:20:25.836+00:00</time>
      </trkpt>
      <trkpt lat="46.18233" lon="-1.1722">
        <ele>24</ele>
        <time>2023-07-15T07:20:30.385+00:00</time>
      </trkpt>
      <trkpt lat="46.18227" lon="-1.17223">
        <ele>24</ele>
        <time>2023-07-15T07:20:35.016+00:00</time>
      </trkpt>
      <trkpt lat="46.18223" lon="-1.17224">
        <ele>24</ele>
        <time>2023-07-15T07:20:39.629+00:00</time>
      </trkpt>
      <trkpt lat="46.1822" lon="-1.1723">
        <ele>24</ele>
        <time>2023-07-15T07:20:44.178+00:00</time>
      </trkpt>
      <trkpt lat="46.1822" lon="-1.17239">
        <ele>25</ele>
        <time>2023-07-15T07:20:48.240+00:00</time>
      </trkpt>
      <trkpt lat="46.18221" lon="-1.17248">
        <ele>25</ele>
        <time>2023-07-15T07:20:52.909+00:00</time>
      </trkpt>
      <trkpt lat="46.18218" lon="-1.17256">
        <ele>25</ele>
        <time>2023-07-15T07:20:56.986+00:00</time>
      </trkpt>
      <trkpt lat="46.18212" lon="-1.17259">
        <ele>25</ele>
        <time>2023-07-15T07:21:02.047+00:00</time>
      </trkpt>
      <trkpt lat="46.18207" lon="-1.17262">
        <ele>25</ele>
        <time>2023-07-15T07:21:06.085+00:00</time>
      </trkpt>
      <trkpt lat="46.18202" lon="-1.17267">
        <ele>26</ele>
        <time>2023-07-15T07:21:10.034+00:00</time>
      </trkpt>
      <trkpt lat="46.18195" lon="-1.17263">
        <ele>25</ele>
        <time>2023-07-15T07:21:13.985+00:00</time>
      </trkpt>
      <trkpt lat="46.18191" lon="-1.17257">
        <ele>25</ele>
        <time>2023-07-15T07:21:18.055+00:00</time>
      </trkpt>
      <trkpt lat="46.18185" lon="-1.17254">
        <ele>25</ele>
        <time>2023-07-15T07:21:22.844+00:00</time>
      </trkpt>
      <trkpt lat="46.18181" lon="-1.17254">
        <ele>25</ele>
        <time>2023-07-15T07:21:27.394+00:00</time>
      </trkpt>
      <trkpt lat="46.18176" lon="-1.17258">
        <ele>25</ele>
        <time>2023-07-15T07:21:31.943+00:00</time>
      </trkpt>
      <trkpt lat="46.1817" lon="-1.1726">
        <ele>25</ele>
        <time>2023-07-15T07:21:36.135+00:00</time>
      </trkpt>
      <trkpt lat="46.18164" lon="-1.17259">
        <ele>25</ele>
        <time>2023-07-15T07:21:40.159+00:00</time>
      </trkpt>
      <trkpt lat="46.18159" lon="-1.17261">
        <ele>25</ele>
        <time>2023-07-15T07:21:44.829+00:00</time>
      </trkpt>
      <trkpt lat="46.18154" lon="-1.17264">
        <ele>25</ele>
        <time>2023-07-15T07:21:49.378+00:00</time>
      </trkpt>
      <trkpt lat="46.18149" lon="-1.17266">
        <ele>26</ele>
        <time>2023-07-15T07:21:53.970+00:00</time>
      </trkpt>
      <trkpt lat="46.18144" lon="-1.17269">
        <ele>26</ele>
        <time>2023-07-15T07:21:57.995+00:00</time>
      </trkpt>
      <trkpt lat="46.18139" lon="-1.17271">
        <ele>26</ele>
        <time>2023-07-15T07:22:01.824+00:00</time>
      </trkpt>
      <trkpt lat="46.18133" lon="-1.17273">
        <ele>26</ele>
        <time>2023-07-15T07:22:06.832+00:00</time>
      </trkpt>
      <trkpt lat="46.18126" lon="-1.17276">
        <ele>26</ele>
        <time>2023-07-15T07:22:11.241+00:00</time>
      </trkpt>
      <trkpt lat="46.18121" lon="-1.17277">
        <ele>26</ele>
        <time>2023-07-15T07:22:15.260+00:00</time>
      </trkpt>
      <trkpt lat="46.18119" lon="-1.17279">
        <ele>26</ele>
        <time>2023-07-15T07:22:20.259+00:00</time>
      </trkpt>
      <trkpt lat="46.18116" lon="-1.17283">
        <ele>26</ele>
        <time>2023-07-15T07:22:24.787+00:00</time>
      </trkpt>
      <trkpt lat="46.18112" lon="-1.17285">
        <ele>26</ele>
        <time>2023-07-15T07:22:29.349+00:00</time>
      </trkpt>
      <trkpt lat="46.18107" lon="-1.17287">
        <ele>26</ele>
        <time>2023-07-15T07:22:33.737+00:00</time>
      </trkpt>
      <trkpt lat="46.18102" lon="-1.17288">
        <ele>26</ele>
        <time>2023-07-15T07:22:38.224+00:00</time>
      </trkpt>
      <trkpt lat="46.18096" lon="-1.17291">
        <ele>23</ele>
        <time>2023-07-15T07:22:42.264+00:00</time>
      </trkpt>
      <trkpt lat="46.18091" lon="-1.17294">
        <ele>25</ele>
        <time>2023-07-15T07:22:46.334+00:00</time>
      </trkpt>
      <trkpt lat="46.18087" lon="-1.17295">
        <ele>25</ele>
        <time>2023-07-15T07:22:50.865+00:00</time>
      </trkpt>
      <trkpt lat="46.18081" lon="-1.17298">
        <ele>25</ele>
        <time>2023-07-15T07:22:55.386+00:00</time>
      </trkpt>
      <trkpt lat="46.18073" lon="-1.17301">
        <ele>25</ele>
        <time>2023-07-15T07:22:59.845+00:00</time>
      </trkpt>
      <trkpt lat="46.18065" lon="-1.17303">
        <ele>24</ele>
        <time>2023-07-15T07:23:04.275+00:00</time>
      </trkpt>
      <trkpt lat="46.18058" lon="-1.17304">
        <ele>24</ele>
        <time>2023-07-15T07:23:08.791+00:00</time>
      </trkpt>
      <trkpt lat="46.18052" lon="-1.17306">
        <ele>24</ele>
        <time>2023-07-15T07:23:13.187+00:00</time>
      </trkpt>
      <trkpt lat="46.18046" lon="-1.17309">
        <ele>24</ele>
        <time>2023-07-15T07:23:17.665+00:00</time>
      </trkpt>
      <trkpt lat="46.1804" lon="-1.17314">
        <ele>23</ele>
        <time>2023-07-15T07:23:22.189+00:00</time>
      </trkpt>
      <trkpt lat="46.18035" lon="-1.17316">
        <ele>23</ele>
        <time>2023-07-15T07:23:26.523+00:00</time>
      </trkpt>
      <trkpt lat="46.1803" lon="-1.17318">
        <ele>23</ele>
        <time>2023-07-15T07:23:31.072+00:00</time>
      </trkpt>
      <trkpt lat="46.18026" lon="-1.17321">
        <ele>24</ele>
        <time>2023-07-15T07:23:35.684+00:00</time>
      </trkpt>
      <trkpt lat="46.18022" lon="-1.17324">
        <ele>24</ele>
        <time>2023-07-15T07:23:40.170+00:00</time>
      </trkpt>
      <trkpt lat="46.18016" lon="-1.17326">
        <ele>24</ele>
        <time>2023-07-15T07:23:44.701+00:00</time>
      </trkpt>
      <trkpt lat="46.18012" lon="-1.17328">
        <ele>24</ele>
        <time>2023-07-15T07:23:48.794+00:00</time>
      </trkpt>
      <trkpt lat="46.18009" lon="-1.17331">
        <ele>24</ele>
        <time>2023-07-15T07:23:52.840+00:00</time>
      </trkpt>
      <trkpt lat="46.18004" lon="-1.17334">
        <ele>24</ele>
        <time>2023-07-15T07:23:56.790+00:00</time>
      </trkpt>
      <trkpt lat="46.18001" lon="-1.1734">
        <ele>24</ele>
        <time>2023-07-15T07:24:00.803+00:00</time>
      </trkpt>
      <trkpt lat="46.17994" lon="-1.17342">
        <ele>24</ele>
        <time>2023-07-15T07:24:05.470+00:00</time>
      </trkpt>
      <trkpt lat="46.17986" lon="-1.1734">
        <ele>23</ele>
        <time>2023-07-15T07:24:10.258+00:00</time>
      </trkpt>
      <trkpt lat="46.17982" lon="-1.17341">
        <ele>23</ele>
        <time>2023-07-15T07:24:14.276+00:00</time>
      </trkpt>
      <trkpt lat="46.17975" lon="-1.17347">
        <ele>23</ele>
        <time>2023-07-15T07:24:18.875+00:00</time>
      </trkpt>
      <trkpt lat="46.1797" lon="-1.17351">
        <ele>24</ele>
        <time>2023-07-15T07:24:23.064+00:00</time>
      </trkpt>
      <trkpt lat="46.17964" lon="-1.17355">
        <ele>24</ele>
        <time>2023-07-15T07:24:27.612+00:00</time>
      </trkpt>
      <trkpt lat="46.17959" lon="-1.17358">
        <ele>24</ele>
        <time>2023-07-15T07:24:32.279+00:00</time>
      </trkpt>
      <trkpt lat="46.17953" lon="-1.1736">
        <ele>22</ele>
        <time>2023-07-15T07:24:36.737+00:00</time>
      </trkpt>
      <trkpt lat="46.17948" lon="-1.17363">
        <ele>22</ele>
        <time>2023-07-15T07:24:41.347+00:00</time>
      </trkpt>
      <trkpt lat="46.17944" lon="-1.17365">
        <ele>22</ele>
        <time>2023-07-15T07:24:45.885+00:00</time>
      </trkpt>
      <trkpt lat="46.17939" lon="-1.17368">
        <ele>22</ele>
        <time>2023-07-15T07:24:50.270+00:00</time>
      </trkpt>
      <trkpt lat="46.17933" lon="-1.1737">
        <ele>22</ele>
        <time>2023-07-15T07:24:54.260+00:00</time>
      </trkpt>
      <trkpt lat="46.17927" lon="-1.17371">
        <ele>21</ele>
        <time>2023-07-15T07:24:58.448+00:00</time>
      </trkpt>
      <trkpt lat="46.17919" lon="-1.17369">
        <ele>21</ele>
        <time>2023-07-15T07:25:02.996+00:00</time>
      </trkpt>
      <trkpt lat="46.17912" lon="-1.17365">
        <ele>21</ele>
        <time>2023-07-15T07:25:07.646+00:00</time>
      </trkpt>
      <trkpt lat="46.17906" lon="-1.17361">
        <ele>21</ele>
        <time>2023-07-15T07:25:12.194+00:00</time>
      </trkpt>
      <trkpt lat="46.17901" lon="-1.17357">
        <ele>21</ele>
        <time>2023-07-15T07:25:16.737+00:00</time>
      </trkpt>
      <trkpt lat="46.17896" lon="-1.17351">
        <ele>21</ele>
        <time>2023-07-15T07:25:21.237+00:00</time>
      </trkpt>
      <trkpt lat="46.17892" lon="-1.17347">
        <ele>21</ele>
        <time>2023-07-15T07:25:25.236+00:00</time>
      </trkpt>
      <trkpt lat="46.17886" lon="-1.17342">
        <ele>21</ele>
        <time>2023-07-15T07:25:29.663+00:00</time>
      </trkpt>
      <trkpt lat="46.17881" lon="-1.17339">
        <ele>21</ele>
        <time>2023-07-15T07:25:34.210+00:00</time>
      </trkpt>
      <trkpt lat="46.17875" lon="-1.17336">
        <ele>22</ele>
        <time>2023-07-15T07:25:38.878+00:00</time>
      </trkpt>
      <trkpt lat="46.17868" lon="-1.17333">
        <ele>22</ele>
        <time>2023-07-15T07:25:43.258+00:00</time>
      </trkpt>
      <trkpt lat="46.17862" lon="-1.1733">
        <ele>22</ele>
        <time>2023-07-15T07:25:47.766+00:00</time>
      </trkpt>
      <trkpt lat="46.17857" lon="-1.17327">
        <ele>22</ele>
        <time>2023-07-15T07:25:52.242+00:00</time>
      </trkpt>
      <trkpt lat="46.17851" lon="-1.17324">
        <ele>22</ele>
        <time>2023-07-15T07:25:57.071+00:00</time>
      </trkpt>
      <trkpt lat="46.17845" lon="-1.17321">
        <ele>21</ele>
        <time>2023-07-15T07:26:01.453+00:00</time>
      </trkpt>
      <trkpt lat="46.17839" lon="-1.17319">
        <ele>21</ele>
        <time>2023-07-15T07:26:05.981+00:00</time>
      </trkpt>
      <trkpt lat="46.17834" lon="-1.17317">
        <ele>21</ele>
        <time>2023-07-15T07:26:10.287+00:00</time>
      </trkpt>
      <trkpt lat="46.17829" lon="-1.17314">
        <ele>21</ele>
        <time>2023-07-15T07:26:14.834+00:00</time>
      </trkpt>
      <trkpt lat="46.17823" lon="-1.17311">
        <ele>21</ele>
        <time>2023-07-15T07:26:18.902+00:00</time>
      </trkpt>
      <trkpt lat="46.17817" lon="-1.17308">
        <ele>21</ele>
        <time>2023-07-15T07:26:23.329+00:00</time>
      </trkpt>
      <trkpt lat="46.17812" lon="-1.17306">
        <ele>21</ele>
        <time>2023-07-15T07:26:27.875+00:00</time>
      </trkpt>
      <trkpt lat="46.17809" lon="-1.17305">
        <ele>21</ele>
        <time>2023-07-15T07:26:32.424+00:00</time>
      </trkpt>
      <trkpt lat="46.17802" lon="-1.17301">
        <ele>21</ele>
        <time>2023-07-15T07:26:36.930+00:00</time>
      </trkpt>
      <trkpt lat="46.17797" lon="-1.17298">
        <ele>21</ele>
        <time>2023-07-15T07:26:40.797+00:00</time>
      </trkpt>
      <trkpt lat="46.17791" lon="-1.17294">
        <ele>23</ele>
        <time>2023-07-15T07:26:45.444+00:00</time>
      </trkpt>
      <trkpt lat="46.17785" lon="-1.17292">
        <ele>23</ele>
        <time>2023-07-15T07:26:50.110+00:00</time>
      </trkpt>
      <trkpt lat="46.17779" lon="-1.17289">
        <ele>22</ele>
        <time>2023-07-15T07:26:54.536+00:00</time>
      </trkpt>
      <trkpt lat="46.17773" lon="-1.17286">
        <ele>22</ele>
        <time>2023-07-15T07:26:59.202+00:00</time>
      </trkpt>
      <trkpt lat="46.17768" lon="-1.17284">
        <ele>22</ele>
        <time>2023-07-15T07:27:04.081+00:00</time>
      </trkpt>
      <trkpt lat="46.17763" lon="-1.17282">
        <ele>21</ele>
        <time>2023-07-15T07:27:08.510+00:00</time>
      </trkpt>
      <trkpt lat="46.1776" lon="-1.17279">
        <ele>21</ele>
        <time>2023-07-15T07:27:12.582+00:00</time>
      </trkpt>
      <trkpt lat="46.17756" lon="-1.17278">
        <ele>21</ele>
        <time>2023-07-15T07:27:17.128+00:00</time>
      </trkpt>
      <trkpt lat="46.1775" lon="-1.17281">
        <ele>21</ele>
        <time>2023-07-15T07:27:21.196+00:00</time>
      </trkpt>
      <trkpt lat="46.17742" lon="-1.17279">
        <ele>21</ele>
        <time>2023-07-15T07:27:25.864+00:00</time>
      </trkpt>
      <trkpt lat="46.17736" lon="-1.17274">
        <ele>20</ele>
        <time>2023-07-15T07:27:30.052+00:00</time>
      </trkpt>
      <trkpt lat="46.1773" lon="-1.17271">
        <ele>20</ele>
        <time>2023-07-15T07:27:34.737+00:00</time>
      </trkpt>
      <trkpt lat="46.17724" lon="-1.17267">
        <ele>20</ele>
        <time>2023-07-15T07:27:39.261+00:00</time>
      </trkpt>
      <trkpt lat="46.17718" lon="-1.17265">
        <ele>20</ele>
        <time>2023-07-15T07:27:43.158+00:00</time>
      </trkpt>
      <trkpt lat="46.17711" lon="-1.17263">
        <ele>20</ele>
        <time>2023-07-15T07:27:47.551+00:00</time>
      </trkpt>
      <trkpt lat="46.17706" lon="-1.17262">
        <ele>21</ele>
        <time>2023-07-15T07:27:52.012+00:00</time>
      </trkpt>
      <trkpt lat="46.177" lon="-1.1726">
        <ele>21</ele>
        <time>2023-07-15T07:27:56.429+00:00</time>
      </trkpt>
      <trkpt lat="46.17694" lon="-1.17258">
        <ele>21</ele>
        <time>2023-07-15T07:28:00.830+00:00</time>
      </trkpt>
      <trkpt lat="46.17688" lon="-1.17256">
        <ele>21</ele>
        <time>2023-07-15T07:28:05.259+00:00</time>
      </trkpt>
      <trkpt lat="46.17681" lon="-1.17255">
        <ele>21</ele>
        <time>2023-07-15T07:28:09.730+00:00</time>
      </trkpt>
      <trkpt lat="46.17675" lon="-1.17255">
        <ele>23</ele>
        <time>2023-07-15T07:28:14.109+00:00</time>
      </trkpt>
      <trkpt lat="46.17669" lon="-1.17254">
        <ele>23</ele>
        <time>2023-07-15T07:28:18.524+00:00</time>
      </trkpt>
      <trkpt lat="46.17663" lon="-1.17252">
        <ele>23</ele>
        <time>2023-07-15T07:28:23.006+00:00</time>
      </trkpt>
      <trkpt lat="46.17662" lon="-1.17248">
        <ele>23</ele>
        <time>2023-07-15T07:28:27.420+00:00</time>
      </trkpt>
      <trkpt lat="46.17654" lon="-1.17249">
        <ele>23</ele>
        <time>2023-07-15T07:28:31.829+00:00</time>
      </trkpt>
      <trkpt lat="46.17648" lon="-1.17248">
        <ele>23</ele>
        <time>2023-07-15T07:28:35.794+00:00</time>
      </trkpt>
      <trkpt lat="46.17641" lon="-1.17248">
        <ele>23</ele>
        <time>2023-07-15T07:28:40.284+00:00</time>
      </trkpt>
      <trkpt lat="46.17635" lon="-1.17247">
        <ele>23</ele>
        <time>2023-07-15T07:28:44.169+00:00</time>
      </trkpt>
      <trkpt lat="46.17628" lon="-1.17244">
        <ele>23</ele>
        <time>2023-07-15T07:28:48.737+00:00</time>
      </trkpt>
      <trkpt lat="46.17622" lon="-1.17242">
        <ele>20</ele>
        <time>2023-07-15T07:28:52.737+00:00</time>
      </trkpt>
      <trkpt lat="46.17617" lon="-1.17239">
        <ele>20</ele>
        <time>2023-07-15T07:28:57.253+00:00</time>
      </trkpt>
      <trkpt lat="46.17612" lon="-1.17236">
        <ele>20</ele>
        <time>2023-07-15T07:29:01.251+00:00</time>
      </trkpt>
      <trkpt lat="46.17606" lon="-1.17234">
        <ele>20</ele>
        <time>2023-07-15T07:29:05.258+00:00</time>
      </trkpt>
      <trkpt lat="46.17601" lon="-1.17232">
        <ele>20</ele>
        <time>2023-07-15T07:29:09.331+00:00</time>
      </trkpt>
      <trkpt lat="46.17596" lon="-1.17231">
        <ele>18</ele>
        <time>2023-07-15T07:29:13.766+00:00</time>
      </trkpt>
      <trkpt lat="46.1759" lon="-1.1723">
        <ele>18</ele>
        <time>2023-07-15T07:29:17.719+00:00</time>
      </trkpt>
      <trkpt lat="46.17584" lon="-1.17229">
        <ele>18</ele>
        <time>2023-07-15T07:29:21.737+00:00</time>
      </trkpt>
      <trkpt lat="46.17579" lon="-1.17228">
        <ele>18</ele>
        <time>2023-07-15T07:29:26.288+00:00</time>
      </trkpt>
      <trkpt lat="46.17573" lon="-1.17229">
        <ele>18</ele>
        <time>2023-07-15T07:29:30.824+00:00</time>
      </trkpt>
      <trkpt lat="46.17568" lon="-1.17229">
        <ele>20</ele>
        <time>2023-07-15T07:29:34.778+00:00</time>
      </trkpt>
      <trkpt lat="46.17564" lon="-1.1723">
        <ele>20</ele>
        <time>2023-07-15T07:29:39.284+00:00</time>
      </trkpt>
      <trkpt lat="46.17558" lon="-1.17231">
        <ele>20</ele>
        <time>2023-07-15T07:29:43.688+00:00</time>
      </trkpt>
      <trkpt lat="46.17553" lon="-1.17232">
        <ele>20</ele>
        <time>2023-07-15T07:29:48.106+00:00</time>
      </trkpt>
      <trkpt lat="46.17547" lon="-1.17234">
        <ele>20</ele>
        <time>2023-07-15T07:29:52.468+00:00</time>
      </trkpt>
      <trkpt lat="46.17541" lon="-1.17238">
        <ele>20</ele>
        <time>2023-07-15T07:29:56.887+00:00</time>
      </trkpt>
      <trkpt lat="46.17539" lon="-1.17245">
        <ele>20</ele>
        <time>2023-07-15T07:30:01.324+00:00</time>
      </trkpt>
      <trkpt lat="46.17539" lon="-1.17254">
        <ele>20</ele>
        <time>2023-07-15T07:30:05.726+00:00</time>
      </trkpt>
      <trkpt lat="46.1754" lon="-1.17262">
        <ele>20</ele>
        <time>2023-07-15T07:30:10.147+00:00</time>
      </trkpt>
      <trkpt lat="46.1754" lon="-1.17269">
        <ele>20</ele>
        <time>2023-07-15T07:30:14.609+00:00</time>
      </trkpt>
      <trkpt lat="46.17541" lon="-1.17276">
        <ele>20</ele>
        <time>2023-07-15T07:30:18.966+00:00</time>
      </trkpt>
      <trkpt lat="46.1754" lon="-1.17284">
        <ele>20</ele>
        <time>2023-07-15T07:30:23.258+00:00</time>
      </trkpt>
      <trkpt lat="46.17541" lon="-1.17292">
        <ele>21</ele>
        <time>2023-07-15T07:30:27.349+00:00</time>
      </trkpt>
      <trkpt lat="46.17543" lon="-1.173">
        <ele>21</ele>
        <time>2023-07-15T07:30:31.883+00:00</time>
      </trkpt>
      <trkpt lat="46.17545" lon="-1.17308">
        <ele>21</ele>
        <time>2023-07-15T07:30:35.851+00:00</time>
      </trkpt>
      <trkpt lat="46.17546" lon="-1.17318">
        <ele>21</ele>
        <time>2023-07-15T07:30:40.257+00:00</time>
      </trkpt>
      <trkpt lat="46.17549" lon="-1.17327">
        <ele>21</ele>
        <time>2023-07-15T07:30:44.737+00:00</time>
      </trkpt>
      <trkpt lat="46.1755" lon="-1.17334">
        <ele>21</ele>
        <time>2023-07-15T07:30:49.270+00:00</time>
      </trkpt>
      <trkpt lat="46.17552" lon="-1.17342">
        <ele>21</ele>
        <time>2023-07-15T07:30:53.445+00:00</time>
      </trkpt>
      <trkpt lat="46.17552" lon="-1.1735">
        <ele>21</ele>
        <time>2023-07-15T07:30:57.634+00:00</time>
      </trkpt>
      <trkpt lat="46.1755" lon="-1.17357">
        <ele>21</ele>
        <time>2023-07-15T07:31:02.043+00:00</time>
      </trkpt>
      <trkpt lat="46.17551" lon="-1.17365">
        <ele>21</ele>
        <time>2023-07-15T07:31:06.232+00:00</time>
      </trkpt>
      <trkpt lat="46.17552" lon="-1.17376">
        <ele>22</ele>
        <time>2023-07-15T07:31:10.179+00:00</time>
      </trkpt>
      <trkpt lat="46.17554" lon="-1.17387">
        <ele>22</ele>
        <time>2023-07-15T07:31:14.189+00:00</time>
      </trkpt>
      <trkpt lat="46.17556" lon="-1.17394">
        <ele>22</ele>
        <time>2023-07-15T07:31:18.258+00:00</time>
      </trkpt>
      <trkpt lat="46.17559" lon="-1.17403">
        <ele>22</ele>
        <time>2023-07-15T07:31:22.787+00:00</time>
      </trkpt>
      <trkpt lat="46.1756" lon="-1.17412">
        <ele>22</ele>
        <time>2023-07-15T07:31:27.259+00:00</time>
      </trkpt>
      <trkpt lat="46.17561" lon="-1.1742">
        <ele>22</ele>
        <time>2023-07-15T07:31:31.725+00:00</time>
      </trkpt>
      <trkpt lat="46.17561" lon="-1.17429">
        <ele>22</ele>
        <time>2023-07-15T07:31:36.259+00:00</time>
      </trkpt>
      <trkpt lat="46.17561" lon="-1.17437">
        <ele>22</ele>
        <time>2023-07-15T07:31:40.821+00:00</time>
      </trkpt>
      <trkpt lat="46.17561" lon="-1.17448">
        <ele>22</ele>
        <time>2023-07-15T07:31:45.369+00:00</time>
      </trkpt>
      <trkpt lat="46.1756" lon="-1.17458">
        <ele>22</ele>
        <time>2023-07-15T07:31:49.439+00:00</time>
      </trkpt>
      <trkpt lat="46.17559" lon="-1.17466">
        <ele>22</ele>
        <time>2023-07-15T07:31:53.981+00:00</time>
      </trkpt>
      <trkpt lat="46.17558" lon="-1.17475">
        <ele>22</ele>
        <time>2023-07-15T07:31:58.039+00:00</time>
      </trkpt>
      <trkpt lat="46.17557" lon="-1.17483">
        <ele>22</ele>
        <time>2023-07-15T07:32:02.587+00:00</time>
      </trkpt>
      <trkpt lat="46.17555" lon="-1.17491">
        <ele>22</ele>
        <time>2023-07-15T07:32:06.895+00:00</time>
      </trkpt>
      <trkpt lat="46.17548" lon="-1.17495">
        <ele>22</ele>
        <time>2023-07-15T07:32:11.406+00:00</time>
      </trkpt>
      <trkpt lat="46.17544" lon="-1.17502">
        <ele>22</ele>
        <time>2023-07-15T07:32:15.835+00:00</time>
      </trkpt>
      <trkpt lat="46.17541" lon="-1.17508">
        <ele>20</ele>
        <time>2023-07-15T07:32:19.737+00:00</time>
      </trkpt>
      <trkpt lat="46.17534" lon="-1.17507">
        <ele>20</ele>
        <time>2023-07-15T07:32:24.215+00:00</time>
      </trkpt>
      <trkpt lat="46.17528" lon="-1.17507">
        <ele>20</ele>
        <time>2023-07-15T07:32:28.627+00:00</time>
      </trkpt>
      <trkpt lat="46.17522" lon="-1.17507">
        <ele>20</ele>
        <time>2023-07-15T07:32:32.715+00:00</time>
      </trkpt>
      <trkpt lat="46.17516" lon="-1.17508">
        <ele>20</ele>
        <time>2023-07-15T07:32:37.228+00:00</time>
      </trkpt>
      <trkpt lat="46.17509" lon="-1.17509">
        <ele>19</ele>
        <time>2023-07-15T07:32:41.670+00:00</time>
      </trkpt>
      <trkpt lat="46.17504" lon="-1.1751">
        <ele>19</ele>
        <time>2023-07-15T07:32:45.589+00:00</time>
      </trkpt>
      <trkpt lat="46.17497" lon="-1.17511">
        <ele>19</ele>
        <time>2023-07-15T07:32:50.540+00:00</time>
      </trkpt>
      <trkpt lat="46.17491" lon="-1.17511">
        <ele>19</ele>
        <time>2023-07-15T07:32:54.431+00:00</time>
      </trkpt>
      <trkpt lat="46.17485" lon="-1.17511">
        <ele>20</ele>
        <time>2023-07-15T07:33:00.005+00:00</time>
      </trkpt>
      <trkpt lat="46.17481" lon="-1.1751">
        <ele>20</ele>
        <time>2023-07-15T07:33:04.323+00:00</time>
      </trkpt>
      <trkpt lat="46.17475" lon="-1.17514">
        <ele>20</ele>
        <time>2023-07-15T07:33:09.247+00:00</time>
      </trkpt>
      <trkpt lat="46.17471" lon="-1.1752">
        <ele>19</ele>
        <time>2023-07-15T07:33:13.692+00:00</time>
      </trkpt>
      <trkpt lat="46.17467" lon="-1.17528">
        <ele>19</ele>
        <time>2023-07-15T07:33:18.238+00:00</time>
      </trkpt>
      <trkpt lat="46.17464" lon="-1.17535">
        <ele>19</ele>
        <time>2023-07-15T07:33:22.240+00:00</time>
      </trkpt>
      <trkpt lat="46.17462" lon="-1.17544">
        <ele>18</ele>
        <time>2023-07-15T07:33:26.866+00:00</time>
      </trkpt>
      <trkpt lat="46.17459" lon="-1.17553">
        <ele>18</ele>
        <time>2023-07-15T07:33:31.369+00:00</time>
      </trkpt>
      <trkpt lat="46.17457" lon="-1.17561">
        <ele>18</ele>
        <time>2023-07-15T07:33:35.849+00:00</time>
      </trkpt>
      <trkpt lat="46.17455" lon="-1.1757">
        <ele>17</ele>
        <time>2023-07-15T07:33:40.640+00:00</time>
      </trkpt>
      <trkpt lat="46.17454" lon="-1.17579">
        <ele>17</ele>
        <time>2023-07-15T07:33:44.737+00:00</time>
      </trkpt>
      <trkpt lat="46.17454" lon="-1.17587">
        <ele>17</ele>
        <time>2023-07-15T07:33:49.382+00:00</time>
      </trkpt>
      <trkpt lat="46.17453" lon="-1.17596">
        <ele>17</ele>
        <time>2023-07-15T07:33:53.774+00:00</time>
      </trkpt>
      <trkpt lat="46.17451" lon="-1.17605">
        <ele>17</ele>
        <time>2023-07-15T07:33:58.254+00:00</time>
      </trkpt>
      <trkpt lat="46.17451" lon="-1.17614">
        <ele>17</ele>
        <time>2023-07-15T07:34:02.252+00:00</time>
      </trkpt>
      <trkpt lat="46.1745" lon="-1.17623">
        <ele>17</ele>
        <time>2023-07-15T07:34:06.328+00:00</time>
      </trkpt>
      <trkpt lat="46.17449" lon="-1.17632">
        <ele>17</ele>
        <time>2023-07-15T07:34:10.883+00:00</time>
      </trkpt>
      <trkpt lat="46.1745" lon="-1.17641">
        <ele>17</ele>
        <time>2023-07-15T07:34:15.324+00:00</time>
      </trkpt>
      <trkpt lat="46.17451" lon="-1.1765">
        <ele>17</ele>
        <time>2023-07-15T07:34:19.667+00:00</time>
      </trkpt>
      <trkpt lat="46.17452" lon="-1.17658">
        <ele>18</ele>
        <time>2023-07-15T07:34:23.676+00:00</time>
      </trkpt>
      <trkpt lat="46.17451" lon="-1.17667">
        <ele>18</ele>
        <time>2023-07-15T07:34:28.228+00:00</time>
      </trkpt>
      <trkpt lat="46.17452" lon="-1.17676">
        <ele>18</ele>
        <time>2023-07-15T07:34:32.181+00:00</time>
      </trkpt>
      <trkpt lat="46.17453" lon="-1.17684">
        <ele>19</ele>
        <time>2023-07-15T07:34:36.744+00:00</time>
      </trkpt>
      <trkpt lat="46.17454" lon="-1.17691">
        <ele>19</ele>
        <time>2023-07-15T07:34:41.105+00:00</time>
      </trkpt>
      <trkpt lat="46.17456" lon="-1.17698">
        <ele>19</ele>
        <time>2023-07-15T07:34:45.549+00:00</time>
      </trkpt>
      <trkpt lat="46.17458" lon="-1.17707">
        <ele>19</ele>
        <time>2023-07-15T07:34:49.450+00:00</time>
      </trkpt>
      <trkpt lat="46.17459" lon="-1.17716">
        <ele>18</ele>
        <time>2023-07-15T07:34:53.763+00:00</time>
      </trkpt>
      <trkpt lat="46.17462" lon="-1.17724">
        <ele>18</ele>
        <time>2023-07-15T07:34:58.267+00:00</time>
      </trkpt>
      <trkpt lat="46.17464" lon="-1.17731">
        <ele>18</ele>
        <time>2023-07-15T07:35:02.862+00:00</time>
      </trkpt>
      <trkpt lat="46.17466" lon="-1.1774">
        <ele>17</ele>
        <time>2023-07-15T07:35:07.651+00:00</time>
      </trkpt>
      <trkpt lat="46.17469" lon="-1.17748">
        <ele>17</ele>
        <time>2023-07-15T07:35:12.007+00:00</time>
      </trkpt>
      <trkpt lat="46.17471" lon="-1.17757">
        <ele>17</ele>
        <time>2023-07-15T07:35:16.390+00:00</time>
      </trkpt>
      <trkpt lat="46.17473" lon="-1.17766">
        <ele>16</ele>
        <time>2023-07-15T07:35:20.801+00:00</time>
      </trkpt>
      <trkpt lat="46.17476" lon="-1.17773">
        <ele>16</ele>
        <time>2023-07-15T07:35:25.231+00:00</time>
      </trkpt>
      <trkpt lat="46.17478" lon="-1.17782">
        <ele>16</ele>
        <time>2023-07-15T07:35:29.586+00:00</time>
      </trkpt>
      <trkpt lat="46.17481" lon="-1.17789">
        <ele>16</ele>
        <time>2023-07-15T07:35:33.984+00:00</time>
      </trkpt>
      <trkpt lat="46.17483" lon="-1.17797">
        <ele>15</ele>
        <time>2023-07-15T07:35:38.384+00:00</time>
      </trkpt>
      <trkpt lat="46.17484" lon="-1.17805">
        <ele>15</ele>
        <time>2023-07-15T07:35:42.792+00:00</time>
      </trkpt>
      <trkpt lat="46.17485" lon="-1.17815">
        <ele>15</ele>
        <time>2023-07-15T07:35:46.737+00:00</time>
      </trkpt>
      <trkpt lat="46.17485" lon="-1.17824">
        <ele>15</ele>
        <time>2023-07-15T07:35:51.341+00:00</time>
      </trkpt>
      <trkpt lat="46.17486" lon="-1.17833">
        <ele>15</ele>
        <time>2023-07-15T07:35:55.771+00:00</time>
      </trkpt>
      <trkpt lat="46.17486" lon="-1.17852">
        <ele>15</ele>
        <time>2023-07-15T07:36:00.259+00:00</time>
      </trkpt>
      <trkpt lat="46.17486" lon="-1.17853">
        <ele>15</ele>
        <time>2023-07-15T07:36:04.737+00:00</time>
      </trkpt>
      <trkpt lat="46.17485" lon="-1.17861">
        <ele>15</ele>
        <time>2023-07-15T07:36:26.737+00:00</time>
      </trkpt>
      <trkpt lat="46.17484" lon="-1.17869">
        <ele>15</ele>
        <time>2023-07-15T07:36:31.737+00:00</time>
      </trkpt>
      <trkpt lat="46.17482" lon="-1.17878">
        <ele>16</ele>
        <time>2023-07-15T07:36:36.213+00:00</time>
      </trkpt>
      <trkpt lat="46.1748" lon="-1.17886">
        <ele>16</ele>
        <time>2023-07-15T07:36:40.727+00:00</time>
      </trkpt>
      <trkpt lat="46.17477" lon="-1.17895">
        <ele>16</ele>
        <time>2023-07-15T07:36:44.593+00:00</time>
      </trkpt>
      <trkpt lat="46.17474" lon="-1.17902">
        <ele>16</ele>
        <time>2023-07-15T07:36:49.141+00:00</time>
      </trkpt>
      <trkpt lat="46.1747" lon="-1.17908">
        <ele>16</ele>
        <time>2023-07-15T07:36:53.737+00:00</time>
      </trkpt>
      <trkpt lat="46.17467" lon="-1.17914">
        <ele>16</ele>
        <time>2023-07-15T07:36:58.262+00:00</time>
      </trkpt>
      <trkpt lat="46.17464" lon="-1.17921">
        <ele>16</ele>
        <time>2023-07-15T07:37:02.665+00:00</time>
      </trkpt>
      <trkpt lat="46.17461" lon="-1.17925">
        <ele>16</ele>
        <time>2023-07-15T07:37:06.734+00:00</time>
      </trkpt>
      <trkpt lat="46.17462" lon="-1.17931">
        <ele>17</ele>
        <time>2023-07-15T07:37:11.163+00:00</time>
      </trkpt>
      <trkpt lat="46.1746" lon="-1.17938">
        <ele>17</ele>
        <time>2023-07-15T07:37:15.664+00:00</time>
      </trkpt>
      <trkpt lat="46.17453" lon="-1.17944">
        <ele>18</ele>
        <time>2023-07-15T07:37:19.737+00:00</time>
      </trkpt>
      <trkpt lat="46.17448" lon="-1.17948">
        <ele>18</ele>
        <time>2023-07-15T07:37:24.211+00:00</time>
      </trkpt>
      <trkpt lat="46.17444" lon="-1.17949">
        <ele>18</ele>
        <time>2023-07-15T07:37:28.647+00:00</time>
      </trkpt>
      <trkpt lat="46.1744" lon="-1.17953">
        <ele>18</ele>
        <time>2023-07-15T07:37:32.592+00:00</time>
      </trkpt>
      <trkpt lat="46.17439" lon="-1.17952">
        <ele>18</ele>
        <time>2023-07-15T07:37:37.022+00:00</time>
      </trkpt>
      <trkpt lat="46.17434" lon="-1.17959">
        <ele>18</ele>
        <time>2023-07-15T07:37:40.972+00:00</time>
      </trkpt>
      <trkpt lat="46.17428" lon="-1.17965">
        <ele>17</ele>
        <time>2023-07-15T07:37:45.402+00:00</time>
      </trkpt>
      <trkpt lat="46.17423" lon="-1.17971">
        <ele>17</ele>
        <time>2023-07-15T07:37:49.951+00:00</time>
      </trkpt>
      <trkpt lat="46.17418" lon="-1.17976">
        <ele>17</ele>
        <time>2023-07-15T07:37:54.207+00:00</time>
      </trkpt>
      <trkpt lat="46.17414" lon="-1.17982">
        <ele>17</ele>
        <time>2023-07-15T07:37:58.653+00:00</time>
      </trkpt>
      <trkpt lat="46.17411" lon="-1.17989">
        <ele>16</ele>
        <time>2023-07-15T07:38:02.964+00:00</time>
      </trkpt>
      <trkpt lat="46.17406" lon="-1.17994">
        <ele>16</ele>
        <time>2023-07-15T07:38:07.425+00:00</time>
      </trkpt>
      <trkpt lat="46.17408" lon="-1.17996">
        <ele>16</ele>
        <time>2023-07-15T07:38:11.823+00:00</time>
      </trkpt>
      <trkpt lat="46.17409" lon="-1.17999">
        <ele>16</ele>
        <time>2023-07-15T07:38:25.115+00:00</time>
      </trkpt>
      <trkpt lat="46.17409" lon="-1.18003">
        <ele>16</ele>
        <time>2023-07-15T07:38:29.668+00:00</time>
      </trkpt>
      <trkpt lat="46.17408" lon="-1.18012">
        <ele>16</ele>
        <time>2023-07-15T07:38:34.215+00:00</time>
      </trkpt>
      <trkpt lat="46.17404" lon="-1.18015">
        <ele>15</ele>
        <time>2023-07-15T07:38:38.244+00:00</time>
      </trkpt>
      <trkpt lat="46.17397" lon="-1.18009">
        <ele>16</ele>
        <time>2023-07-15T07:38:42.717+00:00</time>
      </trkpt>
      <trkpt lat="46.17394" lon="-1.18008">
        <ele>16</ele>
        <time>2023-07-15T07:38:46.737+00:00</time>
      </trkpt>
      <trkpt lat="46.17392" lon="-1.18009">
        <ele>16</ele>
        <time>2023-07-15T07:38:51.180+00:00</time>
      </trkpt>
      <trkpt lat="46.17386" lon="-1.18006">
        <ele>16</ele>
        <time>2023-07-15T07:38:55.051+00:00</time>
      </trkpt>
      <trkpt lat="46.17381" lon="-1.18005">
        <ele>16</ele>
        <time>2023-07-15T07:38:59.243+00:00</time>
      </trkpt>
      <trkpt lat="46.17375" lon="-1.18006">
        <ele>16</ele>
        <time>2023-07-15T07:39:03.754+00:00</time>
      </trkpt>
      <trkpt lat="46.1737" lon="-1.18007">
        <ele>16</ele>
        <time>2023-07-15T07:39:08.405+00:00</time>
      </trkpt>
      <trkpt lat="46.17364" lon="-1.18007">
        <ele>16</ele>
        <time>2023-07-15T07:39:12.958+00:00</time>
      </trkpt>
      <trkpt lat="46.17358" lon="-1.18009">
        <ele>16</ele>
        <time>2023-07-15T07:39:17.630+00:00</time>
      </trkpt>
      <trkpt lat="46.17353" lon="-1.18012">
        <ele>16</ele>
        <time>2023-07-15T07:39:22.182+00:00</time>
      </trkpt>
      <trkpt lat="46.17349" lon="-1.18017">
        <ele>16</ele>
        <time>2023-07-15T07:39:26.734+00:00</time>
      </trkpt>
      <trkpt lat="46.17347" lon="-1.18022">
        <ele>17</ele>
        <time>2023-07-15T07:39:31.247+00:00</time>
      </trkpt>
      <trkpt lat="46.17343" lon="-1.18036">
        <ele>17</ele>
        <time>2023-07-15T07:39:35.798+00:00</time>
      </trkpt>
      <trkpt lat="46.17342" lon="-1.18044">
        <ele>18</ele>
        <time>2023-07-15T07:39:39.871+00:00</time>
      </trkpt>
      <trkpt lat="46.17341" lon="-1.18053">
        <ele>18</ele>
        <time>2023-07-15T07:39:47.859+00:00</time>
      </trkpt>
      <trkpt lat="46.17342" lon="-1.1806">
        <ele>18</ele>
        <time>2023-07-15T07:39:52.050+00:00</time>
      </trkpt>
      <trkpt lat="46.17343" lon="-1.18067">
        <ele>18</ele>
        <time>2023-07-15T07:39:56.583+00:00</time>
      </trkpt>
      <trkpt lat="46.17345" lon="-1.18074">
        <ele>18</ele>
        <time>2023-07-15T07:40:01.114+00:00</time>
      </trkpt>
      <trkpt lat="46.17347" lon="-1.18081">
        <ele>18</ele>
        <time>2023-07-15T07:40:05.067+00:00</time>
      </trkpt>
      <trkpt lat="46.17348" lon="-1.18088">
        <ele>16</ele>
        <time>2023-07-15T07:40:09.021+00:00</time>
      </trkpt>
      <trkpt lat="46.1735" lon="-1.18093">
        <ele>16</ele>
        <time>2023-07-15T07:40:13.553+00:00</time>
      </trkpt>
      <trkpt lat="46.1735" lon="-1.18093">
        <ele>16</ele>
        <time>2023-07-15T07:40:17.737+00:00</time>
      </trkpt>
      <trkpt lat="46.17351" lon="-1.181">
        <ele>17</ele>
        <time>2023-07-15T07:40:21.937+00:00</time>
      </trkpt>
      <trkpt lat="46.17349" lon="-1.18108">
        <ele>17</ele>
        <time>2023-07-15T07:40:26.608+00:00</time>
      </trkpt>
      <trkpt lat="46.17349" lon="-1.18109">
        <ele>17</ele>
        <time>2023-07-15T07:40:31.253+00:00</time>
      </trkpt>
      <trkpt lat="46.17349" lon="-1.18109">
        <ele>17</ele>
        <time>2023-07-15T07:40:48.928+00:00</time>
      </trkpt>
      <trkpt lat="46.17347" lon="-1.18116">
        <ele>17</ele>
        <time>2023-07-15T07:40:53.001+00:00</time>
      </trkpt>
      <trkpt lat="46.17341" lon="-1.18119">
        <ele>17</ele>
        <time>2023-07-15T07:40:57.554+00:00</time>
      </trkpt>
      <trkpt lat="46.17341" lon="-1.18119">
        <ele>17</ele>
        <time>2023-07-15T07:41:01.508+00:00</time>
      </trkpt>
      <trkpt lat="46.17346" lon="-1.18116">
        <ele>17</ele>
        <time>2023-07-15T07:41:06.060+00:00</time>
      </trkpt>
      <trkpt lat="46.17347" lon="-1.18113">
        <ele>17</ele>
        <time>2023-07-15T07:41:10.253+00:00</time>
      </trkpt>
      <trkpt lat="46.17349" lon="-1.18104">
        <ele>17</ele>
        <time>2023-07-15T07:41:14.795+00:00</time>
      </trkpt>
      <trkpt lat="46.17346" lon="-1.18096">
        <ele>18</ele>
        <time>2023-07-15T07:41:18.860+00:00</time>
      </trkpt>
      <trkpt lat="46.17344" lon="-1.18088">
        <ele>18</ele>
        <time>2023-07-15T07:41:22.914+00:00</time>
      </trkpt>
      <trkpt lat="46.17343" lon="-1.18081">
        <ele>18</ele>
        <time>2023-07-15T07:41:27.545+00:00</time>
      </trkpt>
      <trkpt lat="46.17339" lon="-1.18071">
        <ele>18</ele>
        <time>2023-07-15T07:41:31.977+00:00</time>
      </trkpt>
      <trkpt lat="46.17336" lon="-1.18063">
        <ele>18</ele>
        <time>2023-07-15T07:41:36.051+00:00</time>
      </trkpt>
      <trkpt lat="46.17335" lon="-1.18055">
        <ele>18</ele>
        <time>2023-07-15T07:41:40.737+00:00</time>
      </trkpt>
      <trkpt lat="46.17334" lon="-1.18049">
        <ele>18</ele>
        <time>2023-07-15T07:41:45.238+00:00</time>
      </trkpt>
      <trkpt lat="46.17335" lon="-1.18041">
        <ele>17</ele>
        <time>2023-07-15T07:41:49.333+00:00</time>
      </trkpt>
      <trkpt lat="46.17339" lon="-1.18032">
        <ele>17</ele>
        <time>2023-07-15T07:41:53.847+00:00</time>
      </trkpt>
      <trkpt lat="46.17341" lon="-1.18023">
        <ele>17</ele>
        <time>2023-07-15T07:41:58.250+00:00</time>
      </trkpt>
      <trkpt lat="46.17344" lon="-1.18016">
        <ele>17</ele>
        <time>2023-07-15T07:42:02.335+00:00</time>
      </trkpt>
      <trkpt lat="46.17347" lon="-1.18009">
        <ele>16</ele>
        <time>2023-07-15T07:42:06.869+00:00</time>
      </trkpt>
      <trkpt lat="46.17353" lon="-1.18004">
        <ele>16</ele>
        <time>2023-07-15T07:42:11.662+00:00</time>
      </trkpt>
      <trkpt lat="46.17361" lon="-1.18001">
        <ele>16</ele>
        <time>2023-07-15T07:42:15.576+00:00</time>
      </trkpt>
      <trkpt lat="46.17365" lon="-1.18001">
        <ele>16</ele>
        <time>2023-07-15T07:42:20.142+00:00</time>
      </trkpt>
      <trkpt lat="46.17372" lon="-1.17999">
        <ele>16</ele>
        <time>2023-07-15T07:42:23.823+00:00</time>
      </trkpt>
      <trkpt lat="46.17378" lon="-1.17998">
        <ele>16</ele>
        <time>2023-07-15T07:42:28.256+00:00</time>
      </trkpt>
      <trkpt lat="46.17384" lon="-1.17998">
        <ele>16</ele>
        <time>2023-07-15T07:42:32.873+00:00</time>
      </trkpt>
      <trkpt lat="46.1739" lon="-1.17996">
        <ele>16</ele>
        <time>2023-07-15T07:42:37.202+00:00</time>
      </trkpt>
      <trkpt lat="46.1739" lon="-1.17988">
        <ele>16</ele>
        <time>2023-07-15T07:42:41.055+00:00</time>
      </trkpt>
      <trkpt lat="46.1739" lon="-1.17987">
        <ele>16</ele>
        <time>2023-07-15T07:42:45.847+00:00</time>
      </trkpt>
      <trkpt lat="46.17394" lon="-1.17994">
        <ele>16</ele>
        <time>2023-07-15T07:42:51.260+00:00</time>
      </trkpt>
      <trkpt lat="46.17398" lon="-1.18">
        <ele>16</ele>
        <time>2023-07-15T07:42:55.265+00:00</time>
      </trkpt>
      <trkpt lat="46.17402" lon="-1.18002">
        <ele>16</ele>
        <time>2023-07-15T07:42:59.265+00:00</time>
      </trkpt>
      <trkpt lat="46.17406" lon="-1.18003">
        <ele>16</ele>
        <time>2023-07-15T07:43:04.057+00:00</time>
      </trkpt>
      <trkpt lat="46.17406" lon="-1.18">
        <ele>16</ele>
        <time>2023-07-15T07:43:08.202+00:00</time>
      </trkpt>
      <trkpt lat="46.17403" lon="-1.17995">
        <ele>16</ele>
        <time>2023-07-15T07:43:12.082+00:00</time>
      </trkpt>
      <trkpt lat="46.17396" lon="-1.17989">
        <ele>16</ele>
        <time>2023-07-15T07:43:16.154+00:00</time>
      </trkpt>
      <trkpt lat="46.1739" lon="-1.17984">
        <ele>16</ele>
        <time>2023-07-15T07:43:20.226+00:00</time>
      </trkpt>
      <trkpt lat="46.17386" lon="-1.17983">
        <ele>16</ele>
        <time>2023-07-15T07:43:24.737+00:00</time>
      </trkpt>
      <trkpt lat="46.17381" lon="-1.17981">
        <ele>16</ele>
        <time>2023-07-15T07:43:29.450+00:00</time>
      </trkpt>
      <trkpt lat="46.17376" lon="-1.17972">
        <ele>16</ele>
        <time>2023-07-15T07:43:33.480+00:00</time>
      </trkpt>
      <trkpt lat="46.17373" lon="-1.17965">
        <ele>16</ele>
        <time>2023-07-15T07:43:37.792+00:00</time>
      </trkpt>
      <trkpt lat="46.1737" lon="-1.17958">
        <ele>16</ele>
        <time>2023-07-15T07:43:42.921+00:00</time>
      </trkpt>
      <trkpt lat="46.17366" lon="-1.17951">
        <ele>16</ele>
        <time>2023-07-15T07:43:47.472+00:00</time>
      </trkpt>
      <trkpt lat="46.17363" lon="-1.17944">
        <ele>16</ele>
        <time>2023-07-15T07:43:51.424+00:00</time>
      </trkpt>
      <trkpt lat="46.1736" lon="-1.17937">
        <ele>16</ele>
        <time>2023-07-15T07:43:56.095+00:00</time>
      </trkpt>
      <trkpt lat="46.17356" lon="-1.17935">
        <ele>16</ele>
        <time>2023-07-15T07:44:00.649+00:00</time>
      </trkpt>
      <trkpt lat="46.1735" lon="-1.17938">
        <ele>16</ele>
        <time>2023-07-15T07:44:05.130+00:00</time>
      </trkpt>
      <trkpt lat="46.17344" lon="-1.17939">
        <ele>16</ele>
        <time>2023-07-15T07:44:09.469+00:00</time>
      </trkpt>
      <trkpt lat="46.17337" lon="-1.17941">
        <ele>16</ele>
        <time>2023-07-15T07:44:13.776+00:00</time>
      </trkpt>
      <trkpt lat="46.17332" lon="-1.17942">
        <ele>16</ele>
        <time>2023-07-15T07:44:17.847+00:00</time>
      </trkpt>
      <trkpt lat="46.17325" lon="-1.17943">
        <ele>16</ele>
        <time>2023-07-15T07:44:22.248+00:00</time>
      </trkpt>
      <trkpt lat="46.17319" lon="-1.17945">
        <ele>17</ele>
        <time>2023-07-15T07:44:26.229+00:00</time>
      </trkpt>
      <trkpt lat="46.17313" lon="-1.17946">
        <ele>17</ele>
        <time>2023-07-15T07:44:30.781+00:00</time>
      </trkpt>
      <trkpt lat="46.17308" lon="-1.17947">
        <ele>17</ele>
        <time>2023-07-15T07:44:35.450+00:00</time>
      </trkpt>
      <trkpt lat="46.17302" lon="-1.17948">
        <ele>17</ele>
        <time>2023-07-15T07:44:39.999+00:00</time>
      </trkpt>
      <trkpt lat="46.17296" lon="-1.17949">
        <ele>17</ele>
        <time>2023-07-15T07:44:44.429+00:00</time>
      </trkpt>
      <trkpt lat="46.17289" lon="-1.17951">
        <ele>18</ele>
        <time>2023-07-15T07:44:48.978+00:00</time>
      </trkpt>
      <trkpt lat="46.17283" lon="-1.17951">
        <ele>18</ele>
        <time>2023-07-15T07:44:53.390+00:00</time>
      </trkpt>
      <trkpt lat="46.17276" lon="-1.17951">
        <ele>18</ele>
        <time>2023-07-15T07:44:57.829+00:00</time>
      </trkpt>
      <trkpt lat="46.1727" lon="-1.17954">
        <ele>18</ele>
        <time>2023-07-15T07:45:02.266+00:00</time>
      </trkpt>
      <trkpt lat="46.17265" lon="-1.17957">
        <ele>18</ele>
        <time>2023-07-15T07:45:06.198+00:00</time>
      </trkpt>
      <trkpt lat="46.1726" lon="-1.17958">
        <ele>19</ele>
        <time>2023-07-15T07:45:10.462+00:00</time>
      </trkpt>
      <trkpt lat="46.17252" lon="-1.17956">
        <ele>19</ele>
        <time>2023-07-15T07:45:14.939+00:00</time>
      </trkpt>
      <trkpt lat="46.17247" lon="-1.17958">
        <ele>19</ele>
        <time>2023-07-15T07:45:19.302+00:00</time>
      </trkpt>
      <trkpt lat="46.17241" lon="-1.17961">
        <ele>19</ele>
        <time>2023-07-15T07:45:24.261+00:00</time>
      </trkpt>
      <trkpt lat="46.17236" lon="-1.17964">
        <ele>19</ele>
        <time>2023-07-15T07:45:28.681+00:00</time>
      </trkpt>
      <trkpt lat="46.1723" lon="-1.17966">
        <ele>19</ele>
        <time>2023-07-15T07:45:33.017+00:00</time>
      </trkpt>
      <trkpt lat="46.17226" lon="-1.17967">
        <ele>19</ele>
        <time>2023-07-15T07:45:37.206+00:00</time>
      </trkpt>
      <trkpt lat="46.17219" lon="-1.17969">
        <ele>19</ele>
        <time>2023-07-15T07:45:41.699+00:00</time>
      </trkpt>
      <trkpt lat="46.17213" lon="-1.1797">
        <ele>19</ele>
        <time>2023-07-15T07:45:46.194+00:00</time>
      </trkpt>
      <trkpt lat="46.17209" lon="-1.17973">
        <ele>19</ele>
        <time>2023-07-15T07:45:50.147+00:00</time>
      </trkpt>
      <trkpt lat="46.17204" lon="-1.17974">
        <ele>17</ele>
        <time>2023-07-15T07:45:54.221+00:00</time>
      </trkpt>
      <trkpt lat="46.17198" lon="-1.17974">
        <ele>17</ele>
        <time>2023-07-15T07:45:58.173+00:00</time>
      </trkpt>
      <trkpt lat="46.17191" lon="-1.17975">
        <ele>17</ele>
        <time>2023-07-15T07:46:02.846+00:00</time>
      </trkpt>
      <trkpt lat="46.17184" lon="-1.17978">
        <ele>17</ele>
        <time>2023-07-15T07:46:07.457+00:00</time>
      </trkpt>
      <trkpt lat="46.17177" lon="-1.17982">
        <ele>15</ele>
        <time>2023-07-15T07:46:12.248+00:00</time>
      </trkpt>
      <trkpt lat="46.17173" lon="-1.17984">
        <ele>15</ele>
        <time>2023-07-15T07:46:17.244+00:00</time>
      </trkpt>
      <trkpt lat="46.17171" lon="-1.17985">
        <ele>15</ele>
        <time>2023-07-15T07:46:21.726+00:00</time>
      </trkpt>
      <trkpt lat="46.1717" lon="-1.17985">
        <ele>15</ele>
        <time>2023-07-15T07:46:26.247+00:00</time>
      </trkpt>
      <trkpt lat="46.17162" lon="-1.17986">
        <ele>15</ele>
        <time>2023-07-15T07:46:31.038+00:00</time>
      </trkpt>
      <trkpt lat="46.17157" lon="-1.17984">
        <ele>15</ele>
        <time>2023-07-15T07:46:35.469+00:00</time>
      </trkpt>
      <trkpt lat="46.17152" lon="-1.17985">
        <ele>15</ele>
        <time>2023-07-15T07:46:40.383+00:00</time>
      </trkpt>
      <trkpt lat="46.17147" lon="-1.17986">
        <ele>15</ele>
        <time>2023-07-15T07:46:44.824+00:00</time>
      </trkpt>
      <trkpt lat="46.1714" lon="-1.17985">
        <ele>15</ele>
        <time>2023-07-15T07:46:49.124+00:00</time>
      </trkpt>
      <trkpt lat="46.17135" lon="-1.17985">
        <ele>15</ele>
        <time>2023-07-15T07:46:53.197+00:00</time>
      </trkpt>
      <trkpt lat="46.17128" lon="-1.1799">
        <ele>15</ele>
        <time>2023-07-15T07:46:57.630+00:00</time>
      </trkpt>
      <trkpt lat="46.17122" lon="-1.17994">
        <ele>15</ele>
        <time>2023-07-15T07:47:02.063+00:00</time>
      </trkpt>
      <trkpt lat="46.17115" lon="-1.17995">
        <ele>15</ele>
        <time>2023-07-15T07:47:06.240+00:00</time>
      </trkpt>
      <trkpt lat="46.17109" lon="-1.17997">
        <ele>15</ele>
        <time>2023-07-15T07:47:10.737+00:00</time>
      </trkpt>
      <trkpt lat="46.17103" lon="-1.17998">
        <ele>15</ele>
        <time>2023-07-15T07:47:15.258+00:00</time>
      </trkpt>
      <trkpt lat="46.17096" lon="-1.17999">
        <ele>15</ele>
        <time>2023-07-15T07:47:19.737+00:00</time>
      </trkpt>
      <trkpt lat="46.17091" lon="-1.18002">
        <ele>15</ele>
        <time>2023-07-15T07:47:24.212+00:00</time>
      </trkpt>
      <trkpt lat="46.17085" lon="-1.18002">
        <ele>15</ele>
        <time>2023-07-15T07:47:28.737+00:00</time>
      </trkpt>
      <trkpt lat="46.17079" lon="-1.18002">
        <ele>15</ele>
        <time>2023-07-15T07:47:33.091+00:00</time>
      </trkpt>
      <trkpt lat="46.17073" lon="-1.18006">
        <ele>15</ele>
        <time>2023-07-15T07:47:37.643+00:00</time>
      </trkpt>
      <trkpt lat="46.17068" lon="-1.18006">
        <ele>15</ele>
        <time>2023-07-15T07:47:41.715+00:00</time>
      </trkpt>
      <trkpt lat="46.17063" lon="-1.18006">
        <ele>15</ele>
        <time>2023-07-15T07:47:46.348+00:00</time>
      </trkpt>
      <trkpt lat="46.17056" lon="-1.18006">
        <ele>15</ele>
        <time>2023-07-15T07:47:50.961+00:00</time>
      </trkpt>
      <trkpt lat="46.1705" lon="-1.18005">
        <ele>15</ele>
        <time>2023-07-15T07:47:55.035+00:00</time>
      </trkpt>
      <trkpt lat="46.17045" lon="-1.18008">
        <ele>15</ele>
        <time>2023-07-15T07:47:59.708+00:00</time>
      </trkpt>
      <trkpt lat="46.17038" lon="-1.1801">
        <ele>14</ele>
        <time>2023-07-15T07:48:04.225+00:00</time>
      </trkpt>
      <trkpt lat="46.17032" lon="-1.18011">
        <ele>14</ele>
        <time>2023-07-15T07:48:08.195+00:00</time>
      </trkpt>
      <trkpt lat="46.17026" lon="-1.18013">
        <ele>14</ele>
        <time>2023-07-15T07:48:12.806+00:00</time>
      </trkpt>
      <trkpt lat="46.17021" lon="-1.18015">
        <ele>15</ele>
        <time>2023-07-15T07:48:16.763+00:00</time>
      </trkpt>
      <trkpt lat="46.17015" lon="-1.18016">
        <ele>15</ele>
        <time>2023-07-15T07:48:21.253+00:00</time>
      </trkpt>
      <trkpt lat="46.17009" lon="-1.18018">
        <ele>15</ele>
        <time>2023-07-15T07:48:25.351+00:00</time>
      </trkpt>
      <trkpt lat="46.17004" lon="-1.18019">
        <ele>15</ele>
        <time>2023-07-15T07:48:29.966+00:00</time>
      </trkpt>
      <trkpt lat="46.16998" lon="-1.1802">
        <ele>15</ele>
        <time>2023-07-15T07:48:34.334+00:00</time>
      </trkpt>
      <trkpt lat="46.16991" lon="-1.18021">
        <ele>15</ele>
        <time>2023-07-15T07:48:38.765+00:00</time>
      </trkpt>
      <trkpt lat="46.16984" lon="-1.18023">
        <ele>17</ele>
        <time>2023-07-15T07:48:42.717+00:00</time>
      </trkpt>
      <trkpt lat="46.16979" lon="-1.18024">
        <ele>17</ele>
        <time>2023-07-15T07:48:47.500+00:00</time>
      </trkpt>
      <trkpt lat="46.16974" lon="-1.18025">
        <ele>17</ele>
        <time>2023-07-15T07:48:51.939+00:00</time>
      </trkpt>
      <trkpt lat="46.16968" lon="-1.18025">
        <ele>17</ele>
        <time>2023-07-15T07:48:56.369+00:00</time>
      </trkpt>
      <trkpt lat="46.16963" lon="-1.18027">
        <ele>17</ele>
        <time>2023-07-15T07:49:01.040+00:00</time>
      </trkpt>
      <trkpt lat="46.16956" lon="-1.1803">
        <ele>18</ele>
        <time>2023-07-15T07:49:05.601+00:00</time>
      </trkpt>
      <trkpt lat="46.1695" lon="-1.1803">
        <ele>18</ele>
        <time>2023-07-15T07:49:09.661+00:00</time>
      </trkpt>
      <trkpt lat="46.16944" lon="-1.18031">
        <ele>18</ele>
        <time>2023-07-15T07:49:14.212+00:00</time>
      </trkpt>
      <trkpt lat="46.16938" lon="-1.18033">
        <ele>18</ele>
        <time>2023-07-15T07:49:18.239+00:00</time>
      </trkpt>
      <trkpt lat="46.16932" lon="-1.18034">
        <ele>18</ele>
        <time>2023-07-15T07:49:22.407+00:00</time>
      </trkpt>
      <trkpt lat="46.16926" lon="-1.18034">
        <ele>17</ele>
        <time>2023-07-15T07:49:26.842+00:00</time>
      </trkpt>
      <trkpt lat="46.1692" lon="-1.18036">
        <ele>17</ele>
        <time>2023-07-15T07:49:30.940+00:00</time>
      </trkpt>
      <trkpt lat="46.16916" lon="-1.18038">
        <ele>17</ele>
        <time>2023-07-15T07:49:35.012+00:00</time>
      </trkpt>
      <trkpt lat="46.16911" lon="-1.18036">
        <ele>17</ele>
        <time>2023-07-15T07:49:39.466+00:00</time>
      </trkpt>
      <trkpt lat="46.16904" lon="-1.18037">
        <ele>17</ele>
        <time>2023-07-15T07:49:43.396+00:00</time>
      </trkpt>
      <trkpt lat="46.16898" lon="-1.18039">
        <ele>14</ele>
        <time>2023-07-15T07:49:48.068+00:00</time>
      </trkpt>
      <trkpt lat="46.16894" lon="-1.18037">
        <ele>14</ele>
        <time>2023-07-15T07:49:51.899+00:00</time>
      </trkpt>
      <trkpt lat="46.1689" lon="-1.18033">
        <ele>14</ele>
        <time>2023-07-15T07:49:56.870+00:00</time>
      </trkpt>
      <trkpt lat="46.16884" lon="-1.1803">
        <ele>14</ele>
        <time>2023-07-15T07:50:00.638+00:00</time>
      </trkpt>
      <trkpt lat="46.16881" lon="-1.18025">
        <ele>14</ele>
        <time>2023-07-15T07:50:05.262+00:00</time>
      </trkpt>
      <trkpt lat="46.16879" lon="-1.1802">
        <ele>14</ele>
        <time>2023-07-15T07:50:09.695+00:00</time>
      </trkpt>
      <trkpt lat="46.16877" lon="-1.18011">
        <ele>14</ele>
        <time>2023-07-15T07:50:14.227+00:00</time>
      </trkpt>
      <trkpt lat="46.16876" lon="-1.18002">
        <ele>14</ele>
        <time>2023-07-15T07:50:18.196+00:00</time>
      </trkpt>
      <trkpt lat="46.16872" lon="-1.17993">
        <ele>13</ele>
        <time>2023-07-15T07:50:22.688+00:00</time>
      </trkpt>
      <trkpt lat="46.16866" lon="-1.17985">
        <ele>14</ele>
        <time>2023-07-15T07:50:26.641+00:00</time>
      </trkpt>
      <trkpt lat="46.16861" lon="-1.17979">
        <ele>14</ele>
        <time>2023-07-15T07:50:31.284+00:00</time>
      </trkpt>
      <trkpt lat="46.16858" lon="-1.17974">
        <ele>14</ele>
        <time>2023-07-15T07:50:35.726+00:00</time>
      </trkpt>
      <trkpt lat="46.16852" lon="-1.17971">
        <ele>14</ele>
        <time>2023-07-15T07:50:40.174+00:00</time>
      </trkpt>
      <trkpt lat="46.16845" lon="-1.17969">
        <ele>15</ele>
        <time>2023-07-15T07:50:44.126+00:00</time>
      </trkpt>
      <trkpt lat="46.16841" lon="-1.17968">
        <ele>15</ele>
        <time>2023-07-15T07:50:48.557+00:00</time>
      </trkpt>
      <trkpt lat="46.16836" lon="-1.17966">
        <ele>15</ele>
        <time>2023-07-15T07:50:53.240+00:00</time>
      </trkpt>
      <trkpt lat="46.1683" lon="-1.17966">
        <ele>15</ele>
        <time>2023-07-15T07:50:57.249+00:00</time>
      </trkpt>
      <trkpt lat="46.16824" lon="-1.17964">
        <ele>15</ele>
        <time>2023-07-15T07:51:01.793+00:00</time>
      </trkpt>
      <trkpt lat="46.16818" lon="-1.17963">
        <ele>16</ele>
        <time>2023-07-15T07:51:06.206+00:00</time>
      </trkpt>
      <trkpt lat="46.16813" lon="-1.17962">
        <ele>16</ele>
        <time>2023-07-15T07:51:10.220+00:00</time>
      </trkpt>
      <trkpt lat="46.16807" lon="-1.1796">
        <ele>16</ele>
        <time>2023-07-15T07:51:14.770+00:00</time>
      </trkpt>
      <trkpt lat="46.16802" lon="-1.17957">
        <ele>16</ele>
        <time>2023-07-15T07:51:18.844+00:00</time>
      </trkpt>
      <trkpt lat="46.168" lon="-1.17949">
        <ele>16</ele>
        <time>2023-07-15T07:51:22.918+00:00</time>
      </trkpt>
      <trkpt lat="46.16797" lon="-1.17943">
        <ele>16</ele>
        <time>2023-07-15T07:51:27.301+00:00</time>
      </trkpt>
      <trkpt lat="46.16791" lon="-1.17942">
        <ele>18</ele>
        <time>2023-07-15T07:51:31.304+00:00</time>
      </trkpt>
      <trkpt lat="46.16785" lon="-1.17942">
        <ele>18</ele>
        <time>2023-07-15T07:51:35.736+00:00</time>
      </trkpt>
      <trkpt lat="46.16779" lon="-1.17942">
        <ele>18</ele>
        <time>2023-07-15T07:51:40.239+00:00</time>
      </trkpt>
      <trkpt lat="46.16774" lon="-1.17941">
        <ele>18</ele>
        <time>2023-07-15T07:51:44.721+00:00</time>
      </trkpt>
      <trkpt lat="46.16769" lon="-1.17941">
        <ele>18</ele>
        <time>2023-07-15T07:51:49.154+00:00</time>
      </trkpt>
      <trkpt lat="46.16762" lon="-1.17939">
        <ele>21</ele>
        <time>2023-07-15T07:51:53.548+00:00</time>
      </trkpt>
      <trkpt lat="46.16756" lon="-1.1794">
        <ele>21</ele>
        <time>2023-07-15T07:51:57.980+00:00</time>
      </trkpt>
      <trkpt lat="46.16752" lon="-1.17939">
        <ele>21</ele>
        <time>2023-07-15T07:52:02.526+00:00</time>
      </trkpt>
      <trkpt lat="46.16746" lon="-1.17934">
        <ele>21</ele>
        <time>2023-07-15T07:52:06.825+00:00</time>
      </trkpt>
      <trkpt lat="46.16741" lon="-1.17932">
        <ele>21</ele>
        <time>2023-07-15T07:52:11.364+00:00</time>
      </trkpt>
      <trkpt lat="46.16736" lon="-1.17934">
        <ele>21</ele>
        <time>2023-07-15T07:52:15.395+00:00</time>
      </trkpt>
      <trkpt lat="46.16732" lon="-1.1793">
        <ele>23</ele>
        <time>2023-07-15T07:52:19.829+00:00</time>
      </trkpt>
      <trkpt lat="46.16728" lon="-1.17924">
        <ele>23</ele>
        <time>2023-07-15T07:52:23.782+00:00</time>
      </trkpt>
      <trkpt lat="46.16724" lon="-1.17918">
        <ele>23</ele>
        <time>2023-07-15T07:52:28.210+00:00</time>
      </trkpt>
      <trkpt lat="46.16721" lon="-1.1791">
        <ele>23</ele>
        <time>2023-07-15T07:52:32.553+00:00</time>
      </trkpt>
      <trkpt lat="46.1672" lon="-1.17903">
        <ele>21</ele>
        <time>2023-07-15T07:52:36.459+00:00</time>
      </trkpt>
      <trkpt lat="46.16719" lon="-1.17894">
        <ele>21</ele>
        <time>2023-07-15T07:52:40.764+00:00</time>
      </trkpt>
      <trkpt lat="46.16718" lon="-1.17885">
        <ele>21</ele>
        <time>2023-07-15T07:52:45.083+00:00</time>
      </trkpt>
      <trkpt lat="46.16717" lon="-1.17883">
        <ele>21</ele>
        <time>2023-07-15T07:52:48.917+00:00</time>
      </trkpt>
      <trkpt lat="46.16715" lon="-1.17877">
        <ele>21</ele>
        <time>2023-07-15T07:52:53.586+00:00</time>
      </trkpt>
      <trkpt lat="46.16712" lon="-1.17873">
        <ele>21</ele>
        <time>2023-07-15T07:52:57.538+00:00</time>
      </trkpt>
      <trkpt lat="46.16709" lon="-1.1787">
        <ele>21</ele>
        <time>2023-07-15T07:53:01.969+00:00</time>
      </trkpt>
      <trkpt lat="46.16702" lon="-1.17869">
        <ele>22</ele>
        <time>2023-07-15T07:53:06.042+00:00</time>
      </trkpt>
      <trkpt lat="46.16696" lon="-1.17867">
        <ele>22</ele>
        <time>2023-07-15T07:53:11.107+00:00</time>
      </trkpt>
      <trkpt lat="46.1669" lon="-1.17866">
        <ele>22</ele>
        <time>2023-07-15T07:53:15.384+00:00</time>
      </trkpt>
      <trkpt lat="46.16685" lon="-1.17866">
        <ele>22</ele>
        <time>2023-07-15T07:53:19.336+00:00</time>
      </trkpt>
      <trkpt lat="46.16681" lon="-1.17867">
        <ele>22</ele>
        <time>2023-07-15T07:53:23.410+00:00</time>
      </trkpt>
      <trkpt lat="46.16674" lon="-1.17866">
        <ele>24</ele>
        <time>2023-07-15T07:53:27.947+00:00</time>
      </trkpt>
      <trkpt lat="46.16668" lon="-1.17865">
        <ele>24</ele>
        <time>2023-07-15T07:53:32.017+00:00</time>
      </trkpt>
      <trkpt lat="46.16664" lon="-1.17866">
        <ele>24</ele>
        <time>2023-07-15T07:53:36.423+00:00</time>
      </trkpt>
      <trkpt lat="46.1666" lon="-1.17867">
        <ele>24</ele>
        <time>2023-07-15T07:53:40.764+00:00</time>
      </trkpt>
      <trkpt lat="46.16655" lon="-1.17868">
        <ele>24</ele>
        <time>2023-07-15T07:53:45.248+00:00</time>
      </trkpt>
      <trkpt lat="46.16649" lon="-1.17867">
        <ele>24</ele>
        <time>2023-07-15T07:53:49.511+00:00</time>
      </trkpt>
      <trkpt lat="46.16644" lon="-1.17867">
        <ele>24</ele>
        <time>2023-07-15T07:53:53.944+00:00</time>
      </trkpt>
      <trkpt lat="46.1664" lon="-1.17868">
        <ele>24</ele>
        <time>2023-07-15T07:53:58.478+00:00</time>
      </trkpt>
      <trkpt lat="46.16636" lon="-1.17869">
        <ele>24</ele>
        <time>2023-07-15T07:54:02.864+00:00</time>
      </trkpt>
      <trkpt lat="46.16624" lon="-1.17867">
        <ele>24</ele>
        <time>2023-07-15T07:54:06.866+00:00</time>
      </trkpt>
      <trkpt lat="46.16618" lon="-1.17866">
        <ele>24</ele>
        <time>2023-07-15T07:54:11.245+00:00</time>
      </trkpt>
      <trkpt lat="46.16616" lon="-1.1786">
        <ele>24</ele>
        <time>2023-07-15T07:54:28.219+00:00</time>
      </trkpt>
      <trkpt lat="46.16613" lon="-1.17858">
        <ele>24</ele>
        <time>2023-07-15T07:54:32.609+00:00</time>
      </trkpt>
      <trkpt lat="46.16611" lon="-1.17859">
        <ele>24</ele>
        <time>2023-07-15T07:54:36.737+00:00</time>
      </trkpt>
      <trkpt lat="46.16605" lon="-1.17859">
        <ele>24</ele>
        <time>2023-07-15T07:54:40.737+00:00</time>
      </trkpt>
      <trkpt lat="46.16599" lon="-1.17859">
        <ele>24</ele>
        <time>2023-07-15T07:54:44.737+00:00</time>
      </trkpt>
      <trkpt lat="46.16593" lon="-1.17858">
        <ele>24</ele>
        <time>2023-07-15T07:54:49.207+00:00</time>
      </trkpt>
      <trkpt lat="46.16586" lon="-1.17855">
        <ele>24</ele>
        <time>2023-07-15T07:54:53.060+00:00</time>
      </trkpt>
      <trkpt lat="46.16578" lon="-1.17853">
        <ele>24</ele>
        <time>2023-07-15T07:54:57.255+00:00</time>
      </trkpt>
      <trkpt lat="46.16573" lon="-1.1785">
        <ele>24</ele>
        <time>2023-07-15T07:55:01.810+00:00</time>
      </trkpt>
      <trkpt lat="46.16571" lon="-1.17847">
        <ele>24</ele>
        <time>2023-07-15T07:55:06.365+00:00</time>
      </trkpt>
      <trkpt lat="46.16566" lon="-1.17844">
        <ele>24</ele>
        <time>2023-07-15T07:55:10.882+00:00</time>
      </trkpt>
      <trkpt lat="46.16559" lon="-1.17838">
        <ele>24</ele>
        <time>2023-07-15T07:55:15.858+00:00</time>
      </trkpt>
      <trkpt lat="46.16555" lon="-1.17829">
        <ele>24</ele>
        <time>2023-07-15T07:55:19.814+00:00</time>
      </trkpt>
      <trkpt lat="46.16554" lon="-1.17823">
        <ele>24</ele>
        <time>2023-07-15T07:55:24.241+00:00</time>
      </trkpt>
      <trkpt lat="46.16552" lon="-1.17817">
        <ele>25</ele>
        <time>2023-07-15T07:55:28.327+00:00</time>
      </trkpt>
      <trkpt lat="46.1655" lon="-1.17811">
        <ele>25</ele>
        <time>2023-07-15T07:55:32.823+00:00</time>
      </trkpt>
      <trkpt lat="46.16548" lon="-1.17803">
        <ele>25</ele>
        <time>2023-07-15T07:55:36.880+00:00</time>
      </trkpt>
      <trkpt lat="46.16546" lon="-1.17795">
        <ele>25</ele>
        <time>2023-07-15T07:55:40.956+00:00</time>
      </trkpt>
      <trkpt lat="46.16545" lon="-1.17788">
        <ele>24</ele>
        <time>2023-07-15T07:55:45.512+00:00</time>
      </trkpt>
      <trkpt lat="46.16543" lon="-1.17781">
        <ele>24</ele>
        <time>2023-07-15T07:55:50.189+00:00</time>
      </trkpt>
      <trkpt lat="46.16542" lon="-1.17775">
        <ele>24</ele>
        <time>2023-07-15T07:55:54.505+00:00</time>
      </trkpt>
      <trkpt lat="46.1654" lon="-1.17772">
        <ele>24</ele>
        <time>2023-07-15T07:55:58.262+00:00</time>
      </trkpt>
      <trkpt lat="46.16538" lon="-1.17764">
        <ele>24</ele>
        <time>2023-07-15T07:56:02.337+00:00</time>
      </trkpt>
      <trkpt lat="46.16536" lon="-1.17759">
        <ele>23</ele>
        <time>2023-07-15T07:56:06.943+00:00</time>
      </trkpt>
      <trkpt lat="46.16533" lon="-1.1775">
        <ele>23</ele>
        <time>2023-07-15T07:56:11.149+00:00</time>
      </trkpt>
      <trkpt lat="46.16532" lon="-1.17741">
        <ele>23</ele>
        <time>2023-07-15T07:56:14.921+00:00</time>
      </trkpt>
      <trkpt lat="46.1653" lon="-1.1773">
        <ele>22</ele>
        <time>2023-07-15T07:56:19.595+00:00</time>
      </trkpt>
      <trkpt lat="46.16527" lon="-1.17717">
        <ele>22</ele>
        <time>2023-07-15T07:56:23.371+00:00</time>
      </trkpt>
      <trkpt lat="46.16525" lon="-1.17708">
        <ele>21</ele>
        <time>2023-07-15T07:56:28.029+00:00</time>
      </trkpt>
      <trkpt lat="46.16525" lon="-1.17698">
        <ele>21</ele>
        <time>2023-07-15T07:56:31.879+00:00</time>
      </trkpt>
      <trkpt lat="46.16523" lon="-1.1769">
        <ele>21</ele>
        <time>2023-07-15T07:56:36.554+00:00</time>
      </trkpt>
      <trkpt lat="46.16522" lon="-1.17682">
        <ele>21</ele>
        <time>2023-07-15T07:56:40.631+00:00</time>
      </trkpt>
      <trkpt lat="46.16523" lon="-1.17674">
        <ele>20</ele>
        <time>2023-07-15T07:56:45.011+00:00</time>
      </trkpt>
      <trkpt lat="46.16521" lon="-1.17663">
        <ele>20</ele>
        <time>2023-07-15T07:56:49.250+00:00</time>
      </trkpt>
      <trkpt lat="46.16521" lon="-1.17654">
        <ele>20</ele>
        <time>2023-07-15T07:56:53.737+00:00</time>
      </trkpt>
      <trkpt lat="46.16524" lon="-1.17645">
        <ele>20</ele>
        <time>2023-07-15T07:56:58.824+00:00</time>
      </trkpt>
      <trkpt lat="46.16525" lon="-1.17637">
        <ele>20</ele>
        <time>2023-07-15T07:57:02.737+00:00</time>
      </trkpt>
      <trkpt lat="46.16523" lon="-1.17631">
        <ele>20</ele>
        <time>2023-07-15T07:57:07.877+00:00</time>
      </trkpt>
      <trkpt lat="46.16521" lon="-1.17625">
        <ele>19</ele>
        <time>2023-07-15T07:57:12.505+00:00</time>
      </trkpt>
      <trkpt lat="46.16519" lon="-1.17617">
        <ele>19</ele>
        <time>2023-07-15T07:57:16.509+00:00</time>
      </trkpt>
      <trkpt lat="46.16523" lon="-1.17603">
        <ele>19</ele>
        <time>2023-07-15T07:57:20.464+00:00</time>
      </trkpt>
      <trkpt lat="46.16522" lon="-1.17593">
        <ele>19</ele>
        <time>2023-07-15T07:57:25.019+00:00</time>
      </trkpt>
      <trkpt lat="46.16522" lon="-1.17584">
        <ele>19</ele>
        <time>2023-07-15T07:57:29.332+00:00</time>
      </trkpt>
      <trkpt lat="46.16519" lon="-1.17572">
        <ele>19</ele>
        <time>2023-07-15T07:57:33.732+00:00</time>
      </trkpt>
      <trkpt lat="46.16519" lon="-1.17562">
        <ele>18</ele>
        <time>2023-07-15T07:57:37.805+00:00</time>
      </trkpt>
      <trkpt lat="46.16515" lon="-1.17551">
        <ele>18</ele>
        <time>2023-07-15T07:57:41.799+00:00</time>
      </trkpt>
      <trkpt lat="46.16513" lon="-1.17542">
        <ele>19</ele>
        <time>2023-07-15T07:57:45.737+00:00</time>
      </trkpt>
      <trkpt lat="46.16513" lon="-1.17535">
        <ele>18</ele>
        <time>2023-07-15T07:57:50.244+00:00</time>
      </trkpt>
      <trkpt lat="46.16505" lon="-1.17535">
        <ele>18</ele>
        <time>2023-07-15T07:57:54.737+00:00</time>
      </trkpt>
      <trkpt lat="46.16498" lon="-1.17535">
        <ele>18</ele>
        <time>2023-07-15T07:57:59.259+00:00</time>
      </trkpt>
      <trkpt lat="46.16491" lon="-1.17536">
        <ele>18</ele>
        <time>2023-07-15T07:58:03.254+00:00</time>
      </trkpt>
      <trkpt lat="46.16486" lon="-1.17539">
        <ele>20</ele>
        <time>2023-07-15T07:58:07.449+00:00</time>
      </trkpt>
      <trkpt lat="46.16481" lon="-1.17541">
        <ele>20</ele>
        <time>2023-07-15T07:58:11.826+00:00</time>
      </trkpt>
      <trkpt lat="46.16475" lon="-1.17543">
        <ele>19</ele>
        <time>2023-07-15T07:58:15.737+00:00</time>
      </trkpt>
      <trkpt lat="46.1647" lon="-1.17548">
        <ele>19</ele>
        <time>2023-07-15T07:58:20.403+00:00</time>
      </trkpt>
      <trkpt lat="46.16465" lon="-1.17551">
        <ele>19</ele>
        <time>2023-07-15T07:58:24.730+00:00</time>
      </trkpt>
      <trkpt lat="46.1646" lon="-1.17553">
        <ele>19</ele>
        <time>2023-07-15T07:58:28.946+00:00</time>
      </trkpt>
      <trkpt lat="46.16459" lon="-1.17556">
        <ele>19</ele>
        <time>2023-07-15T07:58:32.788+00:00</time>
      </trkpt>
      <trkpt lat="46.16453" lon="-1.17555">
        <ele>19</ele>
        <time>2023-07-15T07:58:37.343+00:00</time>
      </trkpt>
      <trkpt lat="46.16447" lon="-1.17556">
        <ele>19</ele>
        <time>2023-07-15T07:58:41.418+00:00</time>
      </trkpt>
      <trkpt lat="46.16441" lon="-1.17559">
        <ele>19</ele>
        <time>2023-07-15T07:58:45.853+00:00</time>
      </trkpt>
      <trkpt lat="46.16435" lon="-1.17554">
        <ele>19</ele>
        <time>2023-07-15T07:58:50.351+00:00</time>
      </trkpt>
      <trkpt lat="46.16428" lon="-1.17551">
        <ele>19</ele>
        <time>2023-07-15T07:58:54.463+00:00</time>
      </trkpt>
      <trkpt lat="46.16418" lon="-1.17534">
        <ele>20</ele>
        <time>2023-07-15T07:58:58.757+00:00</time>
      </trkpt>
      <trkpt lat="46.16418" lon="-1.17534">
        <ele>20</ele>
        <time>2023-07-15T07:59:03.237+00:00</time>
      </trkpt>
      <trkpt lat="46.16418" lon="-1.17533">
        <ele>20</ele>
        <time>2023-07-15T08:00:05.247+00:00</time>
      </trkpt>
      <trkpt lat="46.16418" lon="-1.17533">
        <ele>20</ele>
        <time>2023-07-15T08:00:09.259+00:00</time>
      </trkpt>
      <trkpt lat="46.16418" lon="-1.17533">
        <ele>20</ele>
        <time>2023-07-15T08:00:14.234+00:00</time>
      </trkpt>
      <trkpt lat="46.16418" lon="-1.17533">
        <ele>20</ele>
        <time>2023-07-15T08:00:18.237+00:00</time>
      </trkpt>
      <trkpt lat="46.16419" lon="-1.17533">
        <ele>20</ele>
        <time>2023-07-15T08:00:23.246+00:00</time>
      </trkpt>
      <trkpt lat="46.16418" lon="-1.17533">
        <ele>20</ele>
        <time>2023-07-15T08:00:32.228+00:00</time>
      </trkpt>
      <trkpt lat="46.16416" lon="-1.17529">
        <ele>20</ele>
        <time>2023-07-15T08:00:36.252+00:00</time>
      </trkpt>
      <trkpt lat="46.16414" lon="-1.17516">
        <ele>20</ele>
        <time>2023-07-15T08:00:41.250+00:00</time>
      </trkpt>
      <trkpt lat="46.16412" lon="-1.17507">
        <ele>20</ele>
        <time>2023-07-15T08:00:45.254+00:00</time>
      </trkpt>
      <trkpt lat="46.1641" lon="-1.17499">
        <ele>20</ele>
        <time>2023-07-15T08:00:49.788+00:00</time>
      </trkpt>
      <trkpt lat="46.16409" lon="-1.17493">
        <ele>20</ele>
        <time>2023-07-15T08:00:54.325+00:00</time>
      </trkpt>
      <trkpt lat="46.16408" lon="-1.17485">
        <ele>18</ele>
        <time>2023-07-15T08:00:58.399+00:00</time>
      </trkpt>
      <trkpt lat="46.16407" lon="-1.17476">
        <ele>18</ele>
        <time>2023-07-15T08:01:02.954+00:00</time>
      </trkpt>
      <trkpt lat="46.16407" lon="-1.17469">
        <ele>18</ele>
        <time>2023-07-15T08:01:07.390+00:00</time>
      </trkpt>
      <trkpt lat="46.16407" lon="-1.17461">
        <ele>18</ele>
        <time>2023-07-15T08:01:11.737+00:00</time>
      </trkpt>
      <trkpt lat="46.16405" lon="-1.17451">
        <ele>16</ele>
        <time>2023-07-15T08:01:16.135+00:00</time>
      </trkpt>
      <trkpt lat="46.16404" lon="-1.17443">
        <ele>16</ele>
        <time>2023-07-15T08:01:20.567+00:00</time>
      </trkpt>
      <trkpt lat="46.16404" lon="-1.17433">
        <ele>16</ele>
        <time>2023-07-15T08:01:25.240+00:00</time>
      </trkpt>
      <trkpt lat="46.16404" lon="-1.17426">
        <ele>16</ele>
        <time>2023-07-15T08:01:29.672+00:00</time>
      </trkpt>
      <trkpt lat="46.16404" lon="-1.17417">
        <ele>16</ele>
        <time>2023-07-15T08:01:34.226+00:00</time>
      </trkpt>
      <trkpt lat="46.16403" lon="-1.17411">
        <ele>16</ele>
        <time>2023-07-15T08:01:38.737+00:00</time>
      </trkpt>
      <trkpt lat="46.16402" lon="-1.17407">
        <ele>15</ele>
        <time>2023-07-15T08:01:43.229+00:00</time>
      </trkpt>
      <trkpt lat="46.16402" lon="-1.17403">
        <ele>15</ele>
        <time>2023-07-15T08:01:47.226+00:00</time>
      </trkpt>
      <trkpt lat="46.164" lon="-1.17395">
        <ele>15</ele>
        <time>2023-07-15T08:01:51.737+00:00</time>
      </trkpt>
      <trkpt lat="46.164" lon="-1.17387">
        <ele>15</ele>
        <time>2023-07-15T08:01:56.451+00:00</time>
      </trkpt>
      <trkpt lat="46.164" lon="-1.17387">
        <ele>15</ele>
        <time>2023-07-15T08:02:00.844+00:00</time>
      </trkpt>
      <trkpt lat="46.164" lon="-1.17386">
        <ele>15</ele>
        <time>2023-07-15T08:02:10.234+00:00</time>
      </trkpt>
      <trkpt lat="46.16399" lon="-1.17378">
        <ele>15</ele>
        <time>2023-07-15T08:02:14.228+00:00</time>
      </trkpt>
      <trkpt lat="46.16399" lon="-1.17366">
        <ele>15</ele>
        <time>2023-07-15T08:02:18.737+00:00</time>
      </trkpt>
      <trkpt lat="46.16398" lon="-1.1736">
        <ele>15</ele>
        <time>2023-07-15T08:02:22.950+00:00</time>
      </trkpt>
      <trkpt lat="46.16397" lon="-1.17352">
        <ele>15</ele>
        <time>2023-07-15T08:02:27.334+00:00</time>
      </trkpt>
      <trkpt lat="46.16396" lon="-1.17344">
        <ele>14</ele>
        <time>2023-07-15T08:02:31.427+00:00</time>
      </trkpt>
      <trkpt lat="46.16395" lon="-1.17335">
        <ele>14</ele>
        <time>2023-07-15T08:02:35.982+00:00</time>
      </trkpt>
      <trkpt lat="46.16394" lon="-1.17326">
        <ele>14</ele>
        <time>2023-07-15T08:02:40.055+00:00</time>
      </trkpt>
      <trkpt lat="46.16393" lon="-1.17318">
        <ele>14</ele>
        <time>2023-07-15T08:02:43.969+00:00</time>
      </trkpt>
      <trkpt lat="46.16393" lon="-1.17311">
        <ele>14</ele>
        <time>2023-07-15T08:02:48.628+00:00</time>
      </trkpt>
      <trkpt lat="46.16391" lon="-1.17302">
        <ele>14</ele>
        <time>2023-07-15T08:02:53.179+00:00</time>
      </trkpt>
      <trkpt lat="46.16391" lon="-1.17295">
        <ele>14</ele>
        <time>2023-07-15T08:02:56.957+00:00</time>
      </trkpt>
      <trkpt lat="46.1639" lon="-1.17288">
        <ele>13</ele>
        <time>2023-07-15T08:03:01.511+00:00</time>
      </trkpt>
      <trkpt lat="46.1639" lon="-1.17281">
        <ele>13</ele>
        <time>2023-07-15T08:03:05.466+00:00</time>
      </trkpt>
      <trkpt lat="46.16389" lon="-1.17272">
        <ele>13</ele>
        <time>2023-07-15T08:03:10.122+00:00</time>
      </trkpt>
      <trkpt lat="46.16389" lon="-1.17264">
        <ele>13</ele>
        <time>2023-07-15T08:03:14.426+00:00</time>
      </trkpt>
      <trkpt lat="46.16388" lon="-1.17258">
        <ele>13</ele>
        <time>2023-07-15T08:03:18.289+00:00</time>
      </trkpt>
      <trkpt lat="46.16387" lon="-1.17249">
        <ele>13</ele>
        <time>2023-07-15T08:03:22.963+00:00</time>
      </trkpt>
      <trkpt lat="46.16386" lon="-1.17239">
        <ele>13</ele>
        <time>2023-07-15T08:03:27.037+00:00</time>
      </trkpt>
      <trkpt lat="46.16385" lon="-1.17232">
        <ele>12</ele>
        <time>2023-07-15T08:03:31.532+00:00</time>
      </trkpt>
      <trkpt lat="46.16384" lon="-1.17224">
        <ele>12</ele>
        <time>2023-07-15T08:03:36.089+00:00</time>
      </trkpt>
      <trkpt lat="46.16385" lon="-1.17217">
        <ele>12</ele>
        <time>2023-07-15T08:03:39.944+00:00</time>
      </trkpt>
      <trkpt lat="46.16384" lon="-1.1721">
        <ele>12</ele>
        <time>2023-07-15T08:03:44.459+00:00</time>
      </trkpt>
      <trkpt lat="46.16382" lon="-1.172">
        <ele>12</ele>
        <time>2023-07-15T08:03:48.654+00:00</time>
      </trkpt>
      <trkpt lat="46.1638" lon="-1.17196">
        <ele>12</ele>
        <time>2023-07-15T08:03:53.254+00:00</time>
      </trkpt>
      <trkpt lat="46.16381" lon="-1.17183">
        <ele>12</ele>
        <time>2023-07-15T08:03:57.737+00:00</time>
      </trkpt>
      <trkpt lat="46.1638" lon="-1.17176">
        <ele>13</ele>
        <time>2023-07-15T08:04:02.243+00:00</time>
      </trkpt>
      <trkpt lat="46.16377" lon="-1.17168">
        <ele>13</ele>
        <time>2023-07-15T08:04:06.856+00:00</time>
      </trkpt>
      <trkpt lat="46.16375" lon="-1.17163">
        <ele>13</ele>
        <time>2023-07-15T08:04:11.335+00:00</time>
      </trkpt>
      <trkpt lat="46.16375" lon="-1.17163">
        <ele>12</ele>
        <time>2023-07-15T08:04:15.773+00:00</time>
      </trkpt>
      <trkpt lat="46.16375" lon="-1.1715">
        <ele>12</ele>
        <time>2023-07-15T08:04:20.256+00:00</time>
      </trkpt>
      <trkpt lat="46.16374" lon="-1.17141">
        <ele>12</ele>
        <time>2023-07-15T08:04:24.766+00:00</time>
      </trkpt>
      <trkpt lat="46.16375" lon="-1.17129">
        <ele>12</ele>
        <time>2023-07-15T08:04:29.442+00:00</time>
      </trkpt>
      <trkpt lat="46.16374" lon="-1.1712">
        <ele>12</ele>
        <time>2023-07-15T08:04:33.598+00:00</time>
      </trkpt>
      <trkpt lat="46.16374" lon="-1.17109">
        <ele>12</ele>
        <time>2023-07-15T08:04:38.064+00:00</time>
      </trkpt>
      <trkpt lat="46.16373" lon="-1.17101">
        <ele>12</ele>
        <time>2023-07-15T08:04:41.967+00:00</time>
      </trkpt>
      <trkpt lat="46.16372" lon="-1.17093">
        <ele>10</ele>
        <time>2023-07-15T08:04:46.621+00:00</time>
      </trkpt>
      <trkpt lat="46.16371" lon="-1.17083">
        <ele>10</ele>
        <time>2023-07-15T08:04:51.085+00:00</time>
      </trkpt>
      <trkpt lat="46.16369" lon="-1.17074">
        <ele>10</ele>
        <time>2023-07-15T08:04:54.987+00:00</time>
      </trkpt>
      <trkpt lat="46.16368" lon="-1.17065">
        <ele>9</ele>
        <time>2023-07-15T08:04:59.585+00:00</time>
      </trkpt>
      <trkpt lat="46.16365" lon="-1.17062">
        <ele>9</ele>
        <time>2023-07-15T08:05:03.616+00:00</time>
      </trkpt>
      <trkpt lat="46.16361" lon="-1.17061">
        <ele>9</ele>
        <time>2023-07-15T08:05:08.171+00:00</time>
      </trkpt>
      <trkpt lat="46.16364" lon="-1.17043">
        <ele>9</ele>
        <time>2023-07-15T08:05:12.737+00:00</time>
      </trkpt>
      <trkpt lat="46.16364" lon="-1.17032">
        <ele>9</ele>
        <time>2023-07-15T08:05:16.679+00:00</time>
      </trkpt>
      <trkpt lat="46.16364" lon="-1.17022">
        <ele>9</ele>
        <time>2023-07-15T08:05:21.592+00:00</time>
      </trkpt>
      <trkpt lat="46.16362" lon="-1.17013">
        <ele>8</ele>
        <time>2023-07-15T08:05:26.106+00:00</time>
      </trkpt>
      <trkpt lat="46.1636" lon="-1.17005">
        <ele>8</ele>
        <time>2023-07-15T08:05:30.641+00:00</time>
      </trkpt>
      <trkpt lat="46.16361" lon="-1.16997">
        <ele>8</ele>
        <time>2023-07-15T08:05:35.187+00:00</time>
      </trkpt>
      <trkpt lat="46.1636" lon="-1.16989">
        <ele>8</ele>
        <time>2023-07-15T08:05:39.604+00:00</time>
      </trkpt>
      <trkpt lat="46.1636" lon="-1.16982">
        <ele>7</ele>
        <time>2023-07-15T08:05:44.153+00:00</time>
      </trkpt>
      <trkpt lat="46.1636" lon="-1.16975">
        <ele>7</ele>
        <time>2023-07-15T08:05:48.464+00:00</time>
      </trkpt>
      <trkpt lat="46.1636" lon="-1.16967">
        <ele>7</ele>
        <time>2023-07-15T08:05:53.009+00:00</time>
      </trkpt>
      <trkpt lat="46.16358" lon="-1.16961">
        <ele>7</ele>
        <time>2023-07-15T08:05:57.429+00:00</time>
      </trkpt>
      <trkpt lat="46.16357" lon="-1.16951">
        <ele>7</ele>
        <time>2023-07-15T08:06:01.737+00:00</time>
      </trkpt>
      <trkpt lat="46.16357" lon="-1.16943">
        <ele>7</ele>
        <time>2023-07-15T08:06:05.737+00:00</time>
      </trkpt>
      <trkpt lat="46.16356" lon="-1.16935">
        <ele>7</ele>
        <time>2023-07-15T08:06:10.260+00:00</time>
      </trkpt>
      <trkpt lat="46.16355" lon="-1.16925">
        <ele>6</ele>
        <time>2023-07-15T08:06:14.453+00:00</time>
      </trkpt>
      <trkpt lat="46.16355" lon="-1.16917">
        <ele>6</ele>
        <time>2023-07-15T08:06:19.126+00:00</time>
      </trkpt>
      <trkpt lat="46.16354" lon="-1.16911">
        <ele>6</ele>
        <time>2023-07-15T08:06:23.525+00:00</time>
      </trkpt>
      <trkpt lat="46.16352" lon="-1.16903">
        <ele>6</ele>
        <time>2023-07-15T08:06:28.255+00:00</time>
      </trkpt>
      <trkpt lat="46.16352" lon="-1.16893">
        <ele>6</ele>
        <time>2023-07-15T08:06:32.186+00:00</time>
      </trkpt>
      <trkpt lat="46.16351" lon="-1.16885">
        <ele>6</ele>
        <time>2023-07-15T08:06:36.140+00:00</time>
      </trkpt>
      <trkpt lat="46.1635" lon="-1.16877">
        <ele>6</ele>
        <time>2023-07-15T08:06:40.692+00:00</time>
      </trkpt>
      <trkpt lat="46.16349" lon="-1.16871">
        <ele>7</ele>
        <time>2023-07-15T08:06:45.186+00:00</time>
      </trkpt>
      <trkpt lat="46.16349" lon="-1.16862">
        <ele>7</ele>
        <time>2023-07-15T08:06:49.859+00:00</time>
      </trkpt>
      <trkpt lat="46.16348" lon="-1.16855">
        <ele>7</ele>
        <time>2023-07-15T08:06:54.267+00:00</time>
      </trkpt>
      <trkpt lat="46.16348" lon="-1.16846">
        <ele>8</ele>
        <time>2023-07-15T08:06:58.566+00:00</time>
      </trkpt>
      <trkpt lat="46.16347" lon="-1.16836">
        <ele>7</ele>
        <time>2023-07-15T08:07:02.863+00:00</time>
      </trkpt>
      <trkpt lat="46.16346" lon="-1.16829">
        <ele>7</ele>
        <time>2023-07-15T08:07:06.954+00:00</time>
      </trkpt>
      <trkpt lat="46.16346" lon="-1.1682">
        <ele>7</ele>
        <time>2023-07-15T08:07:11.027+00:00</time>
      </trkpt>
      <trkpt lat="46.16345" lon="-1.16811">
        <ele>7</ele>
        <time>2023-07-15T08:07:15.580+00:00</time>
      </trkpt>
      <trkpt lat="46.16344" lon="-1.16801">
        <ele>7</ele>
        <time>2023-07-15T08:07:20.131+00:00</time>
      </trkpt>
      <trkpt lat="46.16344" lon="-1.16795">
        <ele>7</ele>
        <time>2023-07-15T08:07:24.749+00:00</time>
      </trkpt>
      <trkpt lat="46.16345" lon="-1.16786">
        <ele>7</ele>
        <time>2023-07-15T08:07:29.201+00:00</time>
      </trkpt>
      <trkpt lat="46.16344" lon="-1.16776">
        <ele>7</ele>
        <time>2023-07-15T08:07:33.071+00:00</time>
      </trkpt>
      <trkpt lat="46.16343" lon="-1.16766">
        <ele>7</ele>
        <time>2023-07-15T08:07:37.427+00:00</time>
      </trkpt>
      <trkpt lat="46.16341" lon="-1.16762">
        <ele>7</ele>
        <time>2023-07-15T08:07:41.769+00:00</time>
      </trkpt>
      <trkpt lat="46.1634" lon="-1.16756">
        <ele>7</ele>
        <time>2023-07-15T08:07:46.203+00:00</time>
      </trkpt>
      <trkpt lat="46.16338" lon="-1.16748">
        <ele>7</ele>
        <time>2023-07-15T08:07:50.668+00:00</time>
      </trkpt>
      <trkpt lat="46.16337" lon="-1.16737">
        <ele>7</ele>
        <time>2023-07-15T08:07:54.889+00:00</time>
      </trkpt>
      <trkpt lat="46.16337" lon="-1.16728">
        <ele>8</ele>
        <time>2023-07-15T08:07:59.351+00:00</time>
      </trkpt>
      <trkpt lat="46.16337" lon="-1.1672">
        <ele>8</ele>
        <time>2023-07-15T08:08:03.764+00:00</time>
      </trkpt>
      <trkpt lat="46.16337" lon="-1.16712">
        <ele>8</ele>
        <time>2023-07-15T08:08:07.837+00:00</time>
      </trkpt>
      <trkpt lat="46.16336" lon="-1.16704">
        <ele>8</ele>
        <time>2023-07-15T08:08:12.242+00:00</time>
      </trkpt>
      <trkpt lat="46.16334" lon="-1.16695">
        <ele>8</ele>
        <time>2023-07-15T08:08:16.802+00:00</time>
      </trkpt>
      <trkpt lat="46.16332" lon="-1.16688">
        <ele>8</ele>
        <time>2023-07-15T08:08:21.234+00:00</time>
      </trkpt>
      <trkpt lat="46.16331" lon="-1.16679">
        <ele>8</ele>
        <time>2023-07-15T08:08:25.785+00:00</time>
      </trkpt>
      <trkpt lat="46.16329" lon="-1.1667">
        <ele>8</ele>
        <time>2023-07-15T08:08:30.457+00:00</time>
      </trkpt>
      <trkpt lat="46.16329" lon="-1.16661">
        <ele>8</ele>
        <time>2023-07-15T08:08:34.992+00:00</time>
      </trkpt>
      <trkpt lat="46.16328" lon="-1.16653">
        <ele>8</ele>
        <time>2023-07-15T08:08:39.546+00:00</time>
      </trkpt>
      <trkpt lat="46.16329" lon="-1.16647">
        <ele>7</ele>
        <time>2023-07-15T08:08:43.861+00:00</time>
      </trkpt>
      <trkpt lat="46.16328" lon="-1.16639">
        <ele>7</ele>
        <time>2023-07-15T08:08:48.176+00:00</time>
      </trkpt>
      <trkpt lat="46.16327" lon="-1.1663">
        <ele>7</ele>
        <time>2023-07-15T08:08:52.711+00:00</time>
      </trkpt>
      <trkpt lat="46.16326" lon="-1.1662">
        <ele>7</ele>
        <time>2023-07-15T08:08:57.274+00:00</time>
      </trkpt>
      <trkpt lat="46.16326" lon="-1.16612">
        <ele>7</ele>
        <time>2023-07-15T08:09:01.343+00:00</time>
      </trkpt>
      <trkpt lat="46.16325" lon="-1.16604">
        <ele>7</ele>
        <time>2023-07-15T08:09:05.810+00:00</time>
      </trkpt>
      <trkpt lat="46.16324" lon="-1.16598">
        <ele>7</ele>
        <time>2023-07-15T08:09:09.852+00:00</time>
      </trkpt>
      <trkpt lat="46.16323" lon="-1.16591">
        <ele>8</ele>
        <time>2023-07-15T08:09:14.408+00:00</time>
      </trkpt>
      <trkpt lat="46.16322" lon="-1.16582">
        <ele>8</ele>
        <time>2023-07-15T08:09:18.667+00:00</time>
      </trkpt>
      <trkpt lat="46.1632" lon="-1.16573">
        <ele>8</ele>
        <time>2023-07-15T08:09:23.017+00:00</time>
      </trkpt>
      <trkpt lat="46.16319" lon="-1.16563">
        <ele>7</ele>
        <time>2023-07-15T08:09:27.326+00:00</time>
      </trkpt>
      <trkpt lat="46.16318" lon="-1.16555">
        <ele>7</ele>
        <time>2023-07-15T08:09:31.649+00:00</time>
      </trkpt>
      <trkpt lat="46.16317" lon="-1.16547">
        <ele>7</ele>
        <time>2023-07-15T08:09:36.008+00:00</time>
      </trkpt>
      <trkpt lat="46.16316" lon="-1.16539">
        <ele>7</ele>
        <time>2023-07-15T08:09:40.250+00:00</time>
      </trkpt>
      <trkpt lat="46.16315" lon="-1.16529">
        <ele>7</ele>
        <time>2023-07-15T08:09:44.737+00:00</time>
      </trkpt>
      <trkpt lat="46.16315" lon="-1.1652">
        <ele>7</ele>
        <time>2023-07-15T08:09:49.245+00:00</time>
      </trkpt>
      <trkpt lat="46.16316" lon="-1.16519">
        <ele>7</ele>
        <time>2023-07-15T08:09:53.700+00:00</time>
      </trkpt>
      <trkpt lat="46.16315" lon="-1.16517">
        <ele>7</ele>
        <time>2023-07-15T08:09:58.246+00:00</time>
      </trkpt>
      <trkpt lat="46.16314" lon="-1.16511">
        <ele>7</ele>
        <time>2023-07-15T08:10:02.805+00:00</time>
      </trkpt>
      <trkpt lat="46.16313" lon="-1.16502">
        <ele>7</ele>
        <time>2023-07-15T08:10:06.751+00:00</time>
      </trkpt>
      <trkpt lat="46.16312" lon="-1.16492">
        <ele>7</ele>
        <time>2023-07-15T08:10:11.307+00:00</time>
      </trkpt>
      <trkpt lat="46.1631" lon="-1.16484">
        <ele>7</ele>
        <time>2023-07-15T08:10:15.384+00:00</time>
      </trkpt>
      <trkpt lat="46.16309" lon="-1.16477">
        <ele>7</ele>
        <time>2023-07-15T08:10:19.940+00:00</time>
      </trkpt>
      <trkpt lat="46.16309" lon="-1.16468">
        <ele>7</ele>
        <time>2023-07-15T08:10:24.017+00:00</time>
      </trkpt>
      <trkpt lat="46.1631" lon="-1.16461">
        <ele>7</ele>
        <time>2023-07-15T08:10:28.056+00:00</time>
      </trkpt>
      <trkpt lat="46.16309" lon="-1.16454">
        <ele>8</ele>
        <time>2023-07-15T08:10:32.852+00:00</time>
      </trkpt>
      <trkpt lat="46.16306" lon="-1.16446">
        <ele>8</ele>
        <time>2023-07-15T08:10:37.461+00:00</time>
      </trkpt>
      <trkpt lat="46.16304" lon="-1.16438">
        <ele>8</ele>
        <time>2023-07-15T08:10:41.384+00:00</time>
      </trkpt>
      <trkpt lat="46.16306" lon="-1.16431">
        <ele>8</ele>
        <time>2023-07-15T08:10:45.942+00:00</time>
      </trkpt>
      <trkpt lat="46.16305" lon="-1.16424">
        <ele>8</ele>
        <time>2023-07-15T08:10:50.013+00:00</time>
      </trkpt>
      <trkpt lat="46.16305" lon="-1.16413">
        <ele>8</ele>
        <time>2023-07-15T08:10:54.388+00:00</time>
      </trkpt>
      <trkpt lat="46.16304" lon="-1.16406">
        <ele>8</ele>
        <time>2023-07-15T08:10:58.385+00:00</time>
      </trkpt>
      <trkpt lat="46.16304" lon="-1.164">
        <ele>7</ele>
        <time>2023-07-15T08:11:02.986+00:00</time>
      </trkpt>
      <trkpt lat="46.16303" lon="-1.16393">
        <ele>7</ele>
        <time>2023-07-15T08:11:07.236+00:00</time>
      </trkpt>
      <trkpt lat="46.16301" lon="-1.16385">
        <ele>7</ele>
        <time>2023-07-15T08:11:11.526+00:00</time>
      </trkpt>
      <trkpt lat="46.163" lon="-1.16376">
        <ele>7</ele>
        <time>2023-07-15T08:11:15.408+00:00</time>
      </trkpt>
      <trkpt lat="46.163" lon="-1.16367">
        <ele>7</ele>
        <time>2023-07-15T08:11:19.964+00:00</time>
      </trkpt>
      <trkpt lat="46.16299" lon="-1.16357">
        <ele>7</ele>
        <time>2023-07-15T08:11:24.061+00:00</time>
      </trkpt>
      <trkpt lat="46.16297" lon="-1.16349">
        <ele>7</ele>
        <time>2023-07-15T08:11:28.590+00:00</time>
      </trkpt>
      <trkpt lat="46.16296" lon="-1.16342">
        <ele>6</ele>
        <time>2023-07-15T08:11:32.987+00:00</time>
      </trkpt>
      <trkpt lat="46.16294" lon="-1.16334">
        <ele>6</ele>
        <time>2023-07-15T08:11:36.809+00:00</time>
      </trkpt>
      <trkpt lat="46.16294" lon="-1.16326">
        <ele>6</ele>
        <time>2023-07-15T08:11:41.250+00:00</time>
      </trkpt>
      <trkpt lat="46.16293" lon="-1.16318">
        <ele>6</ele>
        <time>2023-07-15T08:11:45.322+00:00</time>
      </trkpt>
      <trkpt lat="46.16294" lon="-1.1631">
        <ele>6</ele>
        <time>2023-07-15T08:11:49.997+00:00</time>
      </trkpt>
      <trkpt lat="46.16293" lon="-1.16304">
        <ele>6</ele>
        <time>2023-07-15T08:11:53.954+00:00</time>
      </trkpt>
      <trkpt lat="46.16292" lon="-1.16296">
        <ele>6</ele>
        <time>2023-07-15T08:11:59.152+00:00</time>
      </trkpt>
      <trkpt lat="46.16291" lon="-1.16288">
        <ele>5</ele>
        <time>2023-07-15T08:12:02.944+00:00</time>
      </trkpt>
      <trkpt lat="46.16291" lon="-1.16279">
        <ele>5</ele>
        <time>2023-07-15T08:12:07.982+00:00</time>
      </trkpt>
      <trkpt lat="46.1629" lon="-1.16271">
        <ele>5</ele>
        <time>2023-07-15T08:12:11.794+00:00</time>
      </trkpt>
      <trkpt lat="46.16289" lon="-1.16264">
        <ele>5</ele>
        <time>2023-07-15T08:12:16.469+00:00</time>
      </trkpt>
      <trkpt lat="46.16289" lon="-1.16256">
        <ele>5</ele>
        <time>2023-07-15T08:12:20.904+00:00</time>
      </trkpt>
      <trkpt lat="46.16288" lon="-1.16247">
        <ele>5</ele>
        <time>2023-07-15T08:12:25.401+00:00</time>
      </trkpt>
      <trkpt lat="46.16287" lon="-1.16239">
        <ele>5</ele>
        <time>2023-07-15T08:12:29.457+00:00</time>
      </trkpt>
      <trkpt lat="46.16286" lon="-1.16231">
        <ele>5</ele>
        <time>2023-07-15T08:12:34.133+00:00</time>
      </trkpt>
      <trkpt lat="46.16285" lon="-1.16222">
        <ele>5</ele>
        <time>2023-07-15T08:12:38.569+00:00</time>
      </trkpt>
      <trkpt lat="46.16283" lon="-1.16213">
        <ele>5</ele>
        <time>2023-07-15T08:12:42.645+00:00</time>
      </trkpt>
      <trkpt lat="46.16282" lon="-1.16204">
        <ele>4</ele>
        <time>2023-07-15T08:12:47.200+00:00</time>
      </trkpt>
      <trkpt lat="46.16282" lon="-1.16195">
        <ele>4</ele>
        <time>2023-07-15T08:12:51.197+00:00</time>
      </trkpt>
      <trkpt lat="46.16281" lon="-1.16187">
        <ele>4</ele>
        <time>2023-07-15T08:12:55.531+00:00</time>
      </trkpt>
      <trkpt lat="46.16281" lon="-1.16179">
        <ele>4</ele>
        <time>2023-07-15T08:12:59.930+00:00</time>
      </trkpt>
      <trkpt lat="46.1628" lon="-1.1617">
        <ele>4</ele>
        <time>2023-07-15T08:13:04.381+00:00</time>
      </trkpt>
      <trkpt lat="46.16278" lon="-1.16162">
        <ele>4</ele>
        <time>2023-07-15T08:13:08.456+00:00</time>
      </trkpt>
      <trkpt lat="46.16277" lon="-1.16155">
        <ele>4</ele>
        <time>2023-07-15T08:13:12.651+00:00</time>
      </trkpt>
      <trkpt lat="46.16276" lon="-1.16148">
        <ele>5</ele>
        <time>2023-07-15T08:13:17.245+00:00</time>
      </trkpt>
      <trkpt lat="46.16275" lon="-1.16141">
        <ele>5</ele>
        <time>2023-07-15T08:13:21.267+00:00</time>
      </trkpt>
      <trkpt lat="46.16273" lon="-1.16127">
        <ele>5</ele>
        <time>2023-07-15T08:13:25.772+00:00</time>
      </trkpt>
      <trkpt lat="46.16274" lon="-1.16126">
        <ele>5</ele>
        <time>2023-07-15T08:13:30.386+00:00</time>
      </trkpt>
      <trkpt lat="46.16274" lon="-1.16125">
        <ele>5</ele>
        <time>2023-07-15T08:13:47.509+00:00</time>
      </trkpt>
      <trkpt lat="46.16274" lon="-1.16122">
        <ele>5</ele>
        <time>2023-07-15T08:13:52.030+00:00</time>
      </trkpt>
      <trkpt lat="46.16274" lon="-1.16117">
        <ele>5</ele>
        <time>2023-07-15T08:13:57.182+00:00</time>
      </trkpt>
      <trkpt lat="46.16273" lon="-1.16102">
        <ele>5</ele>
        <time>2023-07-15T08:14:01.737+00:00</time>
      </trkpt>
      <trkpt lat="46.16274" lon="-1.16096">
        <ele>5</ele>
        <time>2023-07-15T08:14:05.737+00:00</time>
      </trkpt>
      <trkpt lat="46.16271" lon="-1.16086">
        <ele>5</ele>
        <time>2023-07-15T08:14:23.186+00:00</time>
      </trkpt>
      <trkpt lat="46.16269" lon="-1.16077">
        <ele>5</ele>
        <time>2023-07-15T08:14:27.601+00:00</time>
      </trkpt>
      <trkpt lat="46.16268" lon="-1.16068">
        <ele>5</ele>
        <time>2023-07-15T08:14:31.923+00:00</time>
      </trkpt>
      <trkpt lat="46.16267" lon="-1.1606">
        <ele>5</ele>
        <time>2023-07-15T08:14:36.002+00:00</time>
      </trkpt>
      <trkpt lat="46.16266" lon="-1.16051">
        <ele>5</ele>
        <time>2023-07-15T08:14:40.345+00:00</time>
      </trkpt>
      <trkpt lat="46.16265" lon="-1.16043">
        <ele>5</ele>
        <time>2023-07-15T08:14:44.387+00:00</time>
      </trkpt>
      <trkpt lat="46.16262" lon="-1.16033">
        <ele>6</ele>
        <time>2023-07-15T08:14:48.340+00:00</time>
      </trkpt>
      <trkpt lat="46.16262" lon="-1.16025">
        <ele>6</ele>
        <time>2023-07-15T08:14:52.966+00:00</time>
      </trkpt>
      <trkpt lat="46.16262" lon="-1.16017">
        <ele>6</ele>
        <time>2023-07-15T08:14:57.443+00:00</time>
      </trkpt>
      <trkpt lat="46.16263" lon="-1.16008">
        <ele>5</ele>
        <time>2023-07-15T08:15:01.397+00:00</time>
      </trkpt>
      <trkpt lat="46.16263" lon="-1.16">
        <ele>5</ele>
        <time>2023-07-15T08:15:06.021+00:00</time>
      </trkpt>
      <trkpt lat="46.16262" lon="-1.15991">
        <ele>5</ele>
        <time>2023-07-15T08:15:10.381+00:00</time>
      </trkpt>
      <trkpt lat="46.16261" lon="-1.15982">
        <ele>5</ele>
        <time>2023-07-15T08:15:15.008+00:00</time>
      </trkpt>
      <trkpt lat="46.1626" lon="-1.15974">
        <ele>5</ele>
        <time>2023-07-15T08:15:19.328+00:00</time>
      </trkpt>
      <trkpt lat="46.1626" lon="-1.15966">
        <ele>5</ele>
        <time>2023-07-15T08:15:23.737+00:00</time>
      </trkpt>
      <trkpt lat="46.16259" lon="-1.15957">
        <ele>5</ele>
        <time>2023-07-15T08:15:28.074+00:00</time>
      </trkpt>
      <trkpt lat="46.16258" lon="-1.1595">
        <ele>5</ele>
        <time>2023-07-15T08:15:31.986+00:00</time>
      </trkpt>
      <trkpt lat="46.16258" lon="-1.15941">
        <ele>5</ele>
        <time>2023-07-15T08:15:36.659+00:00</time>
      </trkpt>
      <trkpt lat="46.16257" lon="-1.15932">
        <ele>5</ele>
        <time>2023-07-15T08:15:40.613+00:00</time>
      </trkpt>
      <trkpt lat="46.16255" lon="-1.15922">
        <ele>5</ele>
        <time>2023-07-15T08:15:45.529+00:00</time>
      </trkpt>
      <trkpt lat="46.16254" lon="-1.15914">
        <ele>5</ele>
        <time>2023-07-15T08:15:49.960+00:00</time>
      </trkpt>
      <trkpt lat="46.16253" lon="-1.15905">
        <ele>5</ele>
        <time>2023-07-15T08:15:54.605+00:00</time>
      </trkpt>
      <trkpt lat="46.16252" lon="-1.15899">
        <ele>5</ele>
        <time>2023-07-15T08:15:58.902+00:00</time>
      </trkpt>
      <trkpt lat="46.16252" lon="-1.15892">
        <ele>5</ele>
        <time>2023-07-15T08:16:03.246+00:00</time>
      </trkpt>
      <trkpt lat="46.16251" lon="-1.15883">
        <ele>5</ele>
        <time>2023-07-15T08:16:07.490+00:00</time>
      </trkpt>
      <trkpt lat="46.16251" lon="-1.15879">
        <ele>5</ele>
        <time>2023-07-15T08:16:11.848+00:00</time>
      </trkpt>
      <trkpt lat="46.1625" lon="-1.15871">
        <ele>5</ele>
        <time>2023-07-15T08:16:16.401+00:00</time>
      </trkpt>
      <trkpt lat="46.16249" lon="-1.15863">
        <ele>5</ele>
        <time>2023-07-15T08:16:21.015+00:00</time>
      </trkpt>
      <trkpt lat="46.16249" lon="-1.15857">
        <ele>5</ele>
        <time>2023-07-15T08:16:25.420+00:00</time>
      </trkpt>
      <trkpt lat="46.1625" lon="-1.15854">
        <ele>5</ele>
        <time>2023-07-15T08:16:29.860+00:00</time>
      </trkpt>
      <trkpt lat="46.1625" lon="-1.15846">
        <ele>4</ele>
        <time>2023-07-15T08:16:33.737+00:00</time>
      </trkpt>
      <trkpt lat="46.16255" lon="-1.15836">
        <ele>4</ele>
        <time>2023-07-15T08:16:38.245+00:00</time>
      </trkpt>
      <trkpt lat="46.16254" lon="-1.15828">
        <ele>4</ele>
        <time>2023-07-15T08:16:42.253+00:00</time>
      </trkpt>
      <trkpt lat="46.16251" lon="-1.15819">
        <ele>4</ele>
        <time>2023-07-15T08:16:46.793+00:00</time>
      </trkpt>
      <trkpt lat="46.16249" lon="-1.15812">
        <ele>4</ele>
        <time>2023-07-15T08:16:51.425+00:00</time>
      </trkpt>
      <trkpt lat="46.16247" lon="-1.15805">
        <ele>4</ele>
        <time>2023-07-15T08:16:55.857+00:00</time>
      </trkpt>
      <trkpt lat="46.16245" lon="-1.15796">
        <ele>4</ele>
        <time>2023-07-15T08:17:00.602+00:00</time>
      </trkpt>
      <trkpt lat="46.16243" lon="-1.15788">
        <ele>4</ele>
        <time>2023-07-15T08:17:04.602+00:00</time>
      </trkpt>
      <trkpt lat="46.16242" lon="-1.15779">
        <ele>4</ele>
        <time>2023-07-15T08:17:08.811+00:00</time>
      </trkpt>
      <trkpt lat="46.16241" lon="-1.15773">
        <ele>4</ele>
        <time>2023-07-15T08:17:12.851+00:00</time>
      </trkpt>
      <trkpt lat="46.16239" lon="-1.15763">
        <ele>5</ele>
        <time>2023-07-15T08:17:16.805+00:00</time>
      </trkpt>
      <trkpt lat="46.16238" lon="-1.15756">
        <ele>5</ele>
        <time>2023-07-15T08:17:21.357+00:00</time>
      </trkpt>
      <trkpt lat="46.16237" lon="-1.15747">
        <ele>5</ele>
        <time>2023-07-15T08:17:25.801+00:00</time>
      </trkpt>
      <trkpt lat="46.16236" lon="-1.15738">
        <ele>5</ele>
        <time>2023-07-15T08:17:30.147+00:00</time>
      </trkpt>
      <trkpt lat="46.16235" lon="-1.15729">
        <ele>6</ele>
        <time>2023-07-15T08:17:34.962+00:00</time>
      </trkpt>
      <trkpt lat="46.16234" lon="-1.15721">
        <ele>6</ele>
        <time>2023-07-15T08:17:39.264+00:00</time>
      </trkpt>
      <trkpt lat="46.16234" lon="-1.15712">
        <ele>6</ele>
        <time>2023-07-15T08:17:43.607+00:00</time>
      </trkpt>
      <trkpt lat="46.16233" lon="-1.15704">
        <ele>7</ele>
        <time>2023-07-15T08:17:48.255+00:00</time>
      </trkpt>
      <trkpt lat="46.16231" lon="-1.15695">
        <ele>7</ele>
        <time>2023-07-15T08:17:52.526+00:00</time>
      </trkpt>
      <trkpt lat="46.1623" lon="-1.15688">
        <ele>7</ele>
        <time>2023-07-15T08:17:56.446+00:00</time>
      </trkpt>
      <trkpt lat="46.1623" lon="-1.15679">
        <ele>7</ele>
        <time>2023-07-15T08:18:01.241+00:00</time>
      </trkpt>
      <trkpt lat="46.1623" lon="-1.15671">
        <ele>7</ele>
        <time>2023-07-15T08:18:05.737+00:00</time>
      </trkpt>
      <trkpt lat="46.1623" lon="-1.15663">
        <ele>7</ele>
        <time>2023-07-15T08:18:10.242+00:00</time>
      </trkpt>
      <trkpt lat="46.16229" lon="-1.15655">
        <ele>7</ele>
        <time>2023-07-15T08:18:14.265+00:00</time>
      </trkpt>
      <trkpt lat="46.16229" lon="-1.15647">
        <ele>6</ele>
        <time>2023-07-15T08:18:18.802+00:00</time>
      </trkpt>
      <trkpt lat="46.16228" lon="-1.15638">
        <ele>6</ele>
        <time>2023-07-15T08:18:23.265+00:00</time>
      </trkpt>
      <trkpt lat="46.16227" lon="-1.15631">
        <ele>6</ele>
        <time>2023-07-15T08:18:27.826+00:00</time>
      </trkpt>
      <trkpt lat="46.16226" lon="-1.15623">
        <ele>5</ele>
        <time>2023-07-15T08:18:32.978+00:00</time>
      </trkpt>
      <trkpt lat="46.16226" lon="-1.15616">
        <ele>5</ele>
        <time>2023-07-15T08:18:36.812+00:00</time>
      </trkpt>
      <trkpt lat="46.16226" lon="-1.15608">
        <ele>5</ele>
        <time>2023-07-15T08:18:41.365+00:00</time>
      </trkpt>
      <trkpt lat="46.16225" lon="-1.156">
        <ele>5</ele>
        <time>2023-07-15T08:18:45.319+00:00</time>
      </trkpt>
      <trkpt lat="46.16224" lon="-1.15592">
        <ele>5</ele>
        <time>2023-07-15T08:18:49.954+00:00</time>
      </trkpt>
      <trkpt lat="46.16223" lon="-1.15585">
        <ele>5</ele>
        <time>2023-07-15T08:18:54.548+00:00</time>
      </trkpt>
      <trkpt lat="46.16223" lon="-1.15578">
        <ele>5</ele>
        <time>2023-07-15T08:18:58.863+00:00</time>
      </trkpt>
      <trkpt lat="46.16222" lon="-1.15568">
        <ele>5</ele>
        <time>2023-07-15T08:19:03.238+00:00</time>
      </trkpt>
      <trkpt lat="46.16221" lon="-1.1556">
        <ele>5</ele>
        <time>2023-07-15T08:19:07.253+00:00</time>
      </trkpt>
      <trkpt lat="46.16221" lon="-1.15552">
        <ele>5</ele>
        <time>2023-07-15T08:19:12.235+00:00</time>
      </trkpt>
      <trkpt lat="46.16223" lon="-1.15545">
        <ele>5</ele>
        <time>2023-07-15T08:19:16.083+00:00</time>
      </trkpt>
      <trkpt lat="46.16222" lon="-1.15537">
        <ele>6</ele>
        <time>2023-07-15T08:19:21.187+00:00</time>
      </trkpt>
      <trkpt lat="46.16218" lon="-1.1553">
        <ele>6</ele>
        <time>2023-07-15T08:19:25.192+00:00</time>
      </trkpt>
      <trkpt lat="46.16216" lon="-1.15523">
        <ele>6</ele>
        <time>2023-07-15T08:19:29.223+00:00</time>
      </trkpt>
      <trkpt lat="46.16216" lon="-1.15519">
        <ele>6</ele>
        <time>2023-07-15T08:19:33.057+00:00</time>
      </trkpt>
      <trkpt lat="46.16216" lon="-1.15521">
        <ele>6</ele>
        <time>2023-07-15T08:19:37.442+00:00</time>
      </trkpt>
      <trkpt lat="46.16216" lon="-1.15522">
        <ele>6</ele>
        <time>2023-07-15T08:19:42.243+00:00</time>
      </trkpt>
      <trkpt lat="46.16211" lon="-1.15521">
        <ele>6</ele>
        <time>2023-07-15T08:19:47.037+00:00</time>
      </trkpt>
      <trkpt lat="46.16205" lon="-1.15525">
        <ele>6</ele>
        <time>2023-07-15T08:19:52.188+00:00</time>
      </trkpt>
      <trkpt lat="46.16203" lon="-1.15519">
        <ele>6</ele>
        <time>2023-07-15T08:19:57.252+00:00</time>
      </trkpt>
      <trkpt lat="46.16201" lon="-1.15516">
        <ele>6</ele>
        <time>2023-07-15T08:20:01.766+00:00</time>
      </trkpt>
      <trkpt lat="46.16199" lon="-1.15512">
        <ele>7</ele>
        <time>2023-07-15T08:20:51.171+00:00</time>
      </trkpt>
      <trkpt lat="46.16202" lon="-1.15505">
        <ele>7</ele>
        <time>2023-07-15T08:20:55.798+00:00</time>
      </trkpt>
      <trkpt lat="46.16207" lon="-1.15498">
        <ele>7</ele>
        <time>2023-07-15T08:20:59.681+00:00</time>
      </trkpt>
      <trkpt lat="46.16207" lon="-1.15489">
        <ele>7</ele>
        <time>2023-07-15T08:21:04.269+00:00</time>
      </trkpt>
      <trkpt lat="46.16207" lon="-1.15481">
        <ele>8</ele>
        <time>2023-07-15T08:21:08.248+00:00</time>
      </trkpt>
      <trkpt lat="46.16205" lon="-1.15473">
        <ele>8</ele>
        <time>2023-07-15T08:21:11.981+00:00</time>
      </trkpt>
      <trkpt lat="46.16205" lon="-1.15465">
        <ele>8</ele>
        <time>2023-07-15T08:21:16.533+00:00</time>
      </trkpt>
      <trkpt lat="46.16204" lon="-1.15455">
        <ele>7</ele>
        <time>2023-07-15T08:21:21.085+00:00</time>
      </trkpt>
      <trkpt lat="46.16204" lon="-1.15448">
        <ele>7</ele>
        <time>2023-07-15T08:21:25.542+00:00</time>
      </trkpt>
      <trkpt lat="46.162" lon="-1.15443">
        <ele>7</ele>
        <time>2023-07-15T08:21:29.353+00:00</time>
      </trkpt>
      <trkpt lat="46.16193" lon="-1.15438">
        <ele>7</ele>
        <time>2023-07-15T08:21:33.808+00:00</time>
      </trkpt>
      <trkpt lat="46.16192" lon="-1.15439">
        <ele>7</ele>
        <time>2023-07-15T08:21:38.009+00:00</time>
      </trkpt>
      <trkpt lat="46.16195" lon="-1.15438">
        <ele>7</ele>
        <time>2023-07-15T08:21:42.521+00:00</time>
      </trkpt>
      <trkpt lat="46.16197" lon="-1.15434">
        <ele>7</ele>
        <time>2023-07-15T08:21:47.032+00:00</time>
      </trkpt>
      <trkpt lat="46.16196" lon="-1.15427">
        <ele>8</ele>
        <time>2023-07-15T08:21:52.053+00:00</time>
      </trkpt>
      <trkpt lat="46.16196" lon="-1.15417">
        <ele>8</ele>
        <time>2023-07-15T08:21:57.073+00:00</time>
      </trkpt>
      <trkpt lat="46.16194" lon="-1.15407">
        <ele>8</ele>
        <time>2023-07-15T08:22:01.090+00:00</time>
      </trkpt>
      <trkpt lat="46.16192" lon="-1.15401">
        <ele>9</ele>
        <time>2023-07-15T08:22:05.106+00:00</time>
      </trkpt>
      <trkpt lat="46.16191" lon="-1.15393">
        <ele>9</ele>
        <time>2023-07-15T08:22:09.627+00:00</time>
      </trkpt>
      <trkpt lat="46.1619" lon="-1.15386">
        <ele>9</ele>
        <time>2023-07-15T08:22:13.840+00:00</time>
      </trkpt>
      <trkpt lat="46.1619" lon="-1.1538">
        <ele>9</ele>
        <time>2023-07-15T08:22:17.953+00:00</time>
      </trkpt>
      <trkpt lat="46.16192" lon="-1.15374">
        <ele>10</ele>
        <time>2023-07-15T08:22:21.965+00:00</time>
      </trkpt>
      <trkpt lat="46.16189" lon="-1.15366">
        <ele>10</ele>
        <time>2023-07-15T08:22:26.985+00:00</time>
      </trkpt>
      <trkpt lat="46.16192" lon="-1.15357">
        <ele>10</ele>
        <time>2023-07-15T08:22:31.994+00:00</time>
      </trkpt>
      <trkpt lat="46.1619" lon="-1.15352">
        <ele>10</ele>
        <time>2023-07-15T08:22:35.999+00:00</time>
      </trkpt>
      <trkpt lat="46.16188" lon="-1.15342">
        <ele>11</ele>
        <time>2023-07-15T08:22:40.604+00:00</time>
      </trkpt>
      <trkpt lat="46.16186" lon="-1.15339">
        <ele>11</ele>
        <time>2023-07-15T08:22:45.109+00:00</time>
      </trkpt>
      <trkpt lat="46.16185" lon="-1.15337">
        <ele>11</ele>
        <time>2023-07-15T08:22:49.230+00:00</time>
      </trkpt>
      <trkpt lat="46.16184" lon="-1.15334">
        <ele>11</ele>
        <time>2023-07-15T08:22:53.891+00:00</time>
      </trkpt>
      <trkpt lat="46.16179" lon="-1.15341">
        <ele>14</ele>
        <time>2023-07-15T08:22:58.410+00:00</time>
      </trkpt>
      <trkpt lat="46.16164" lon="-1.15348">
        <ele>12</ele>
        <time>2023-07-15T08:23:02.412+00:00</time>
      </trkpt>
      <trkpt lat="46.16148" lon="-1.15357">
        <ele>16</ele>
        <time>2023-07-15T08:23:07.144+00:00</time>
      </trkpt>
      <trkpt lat="46.16141" lon="-1.15361">
        <ele>16</ele>
        <time>2023-07-15T08:23:11.223+00:00</time>
      </trkpt>
      <trkpt lat="46.16138" lon="-1.15366">
        <ele>16</ele>
        <time>2023-07-15T08:23:15.570+00:00</time>
      </trkpt>
      <trkpt lat="46.16138" lon="-1.15367">
        <ele>16</ele>
        <time>2023-07-15T08:23:19.930+00:00</time>
      </trkpt>
      <trkpt lat="46.16145" lon="-1.15394">
        <ele>13</ele>
        <time>2023-07-15T08:23:27.951+00:00</time>
      </trkpt>
      <trkpt lat="46.1612" lon="-1.154">
        <ele>13</ele>
        <time>2023-07-15T08:23:32.970+00:00</time>
      </trkpt>
      <trkpt lat="46.16113" lon="-1.15458">
        <ele>7</ele>
        <time>2023-07-15T08:23:48.245+00:00</time>
      </trkpt>
      <trkpt lat="46.16129" lon="-1.15474">
        <ele>7</ele>
        <time>2023-07-15T08:23:53.506+00:00</time>
      </trkpt>
      <trkpt lat="46.16164" lon="-1.15511">
        <ele>7</ele>
        <time>2023-07-15T08:24:02.124+00:00</time>
      </trkpt>
      <trkpt lat="46.16199" lon="-1.15402">
        <ele>9</ele>
        <time>2023-07-15T08:24:06.319+00:00</time>
      </trkpt>
      <trkpt lat="46.16182" lon="-1.1534">
        <ele>11</ele>
        <time>2023-07-15T08:24:11.083+00:00</time>
      </trkpt>
      <trkpt lat="46.16175" lon="-1.15308">
        <ele>14</ele>
        <time>2023-07-15T08:24:15.190+00:00</time>
      </trkpt>
      <trkpt lat="46.16143" lon="-1.15321">
        <ele>16</ele>
        <time>2023-07-15T08:24:19.195+00:00</time>
      </trkpt>
      <trkpt lat="46.16138" lon="-1.15309">
        <ele>16</ele>
        <time>2023-07-15T08:24:23.316+00:00</time>
      </trkpt>
      <trkpt lat="46.16132" lon="-1.15316">
        <ele>16</ele>
        <time>2023-07-15T08:24:27.827+00:00</time>
      </trkpt>
      <trkpt lat="46.16112" lon="-1.15314">
        <ele>16</ele>
        <time>2023-07-15T08:24:32.335+00:00</time>
      </trkpt>
      <trkpt lat="46.16185" lon="-1.15311">
        <ele>12</ele>
        <time>2023-07-15T08:24:36.342+00:00</time>
      </trkpt>
      <trkpt lat="46.16205" lon="-1.15305">
        <ele>12</ele>
        <time>2023-07-15T08:24:40.846+00:00</time>
      </trkpt>
      <trkpt lat="46.16212" lon="-1.15364">
        <ele>9</ele>
        <time>2023-07-15T08:24:44.848+00:00</time>
      </trkpt>
      <trkpt lat="46.16225" lon="-1.15387">
        <ele>8</ele>
        <time>2023-07-15T08:24:49.768+00:00</time>
      </trkpt>
      <trkpt lat="46.16229" lon="-1.15399">
        <ele>8</ele>
        <time>2023-07-15T08:24:53.727+00:00</time>
      </trkpt>
      <trkpt lat="46.16228" lon="-1.15414">
        <ele>8</ele>
        <time>2023-07-15T08:24:57.737+00:00</time>
      </trkpt>
      <trkpt lat="46.16207" lon="-1.15408">
        <ele>8</ele>
        <time>2023-07-15T08:25:02.224+00:00</time>
      </trkpt>
      <trkpt lat="46.16133" lon="-1.15346">
        <ele>16</ele>
        <time>2023-07-15T08:25:37.358+00:00</time>
      </trkpt>
      <trkpt lat="46.16121" lon="-1.15337">
        <ele>17</ele>
        <time>2023-07-15T08:25:41.371+00:00</time>
      </trkpt>
      <trkpt lat="46.16116" lon="-1.15346">
        <ele>17</ele>
        <time>2023-07-15T08:25:45.984+00:00</time>
      </trkpt>
      <trkpt lat="46.16116" lon="-1.15325">
        <ele>17</ele>
        <time>2023-07-15T08:25:50.495+00:00</time>
      </trkpt>
      <trkpt lat="46.16129" lon="-1.15308">
        <ele>16</ele>
        <time>2023-07-15T08:25:56.009+00:00</time>
      </trkpt>
      <trkpt lat="46.16139" lon="-1.15301">
        <ele>16</ele>
        <time>2023-07-15T08:26:01.026+00:00</time>
      </trkpt>
      <trkpt lat="46.1614" lon="-1.15297">
        <ele>16</ele>
        <time>2023-07-15T08:26:05.039+00:00</time>
      </trkpt>
      <trkpt lat="46.16141" lon="-1.15295">
        <ele>16</ele>
        <time>2023-07-15T08:26:09.050+00:00</time>
      </trkpt>
      <trkpt lat="46.16148" lon="-1.15294">
        <ele>16</ele>
        <time>2023-07-15T08:26:13.660+00:00</time>
      </trkpt>
      <trkpt lat="46.16154" lon="-1.15294">
        <ele>14</ele>
        <time>2023-07-15T08:26:17.668+00:00</time>
      </trkpt>
      <trkpt lat="46.16156" lon="-1.15294">
        <ele>14</ele>
        <time>2023-07-15T08:26:21.678+00:00</time>
      </trkpt>
      <trkpt lat="46.16141" lon="-1.15306">
        <ele>16</ele>
        <time>2023-07-15T08:26:26.187+00:00</time>
      </trkpt>
      <trkpt lat="46.1614" lon="-1.15307">
        <ele>16</ele>
        <time>2023-07-15T08:26:30.696+00:00</time>
      </trkpt>
      <trkpt lat="46.16137" lon="-1.15319">
        <ele>16</ele>
        <time>2023-07-15T08:26:55.846+00:00</time>
      </trkpt>
      <trkpt lat="46.1614" lon="-1.15334">
        <ele>16</ele>
        <time>2023-07-15T08:26:59.886+00:00</time>
      </trkpt>
      <trkpt lat="46.16142" lon="-1.15341">
        <ele>16</ele>
        <time>2023-07-15T08:27:03.894+00:00</time>
      </trkpt>
      <trkpt lat="46.16143" lon="-1.15344">
        <ele>16</ele>
        <time>2023-07-15T08:27:08.419+00:00</time>
      </trkpt>
      <trkpt lat="46.16143" lon="-1.15347">
        <ele>16</ele>
        <time>2023-07-15T08:27:12.929+00:00</time>
      </trkpt>
      <trkpt lat="46.16133" lon="-1.15389">
        <ele>13</ele>
        <time>2023-07-15T08:27:16.941+00:00</time>
      </trkpt>
      <trkpt lat="46.1613" lon="-1.15416">
        <ele>10</ele>
        <time>2023-07-15T08:27:21.955+00:00</time>
      </trkpt>
      <trkpt lat="46.16121" lon="-1.15434">
        <ele>7</ele>
        <time>2023-07-15T08:27:27.199+00:00</time>
      </trkpt>
      <trkpt lat="46.16126" lon="-1.15427">
        <ele>10</ele>
        <time>2023-07-15T08:27:30.746+00:00</time>
      </trkpt>
      <trkpt lat="46.16133" lon="-1.15412">
        <ele>10</ele>
        <time>2023-07-15T08:27:48.802+00:00</time>
      </trkpt>
      <trkpt lat="46.16149" lon="-1.15382">
        <ele>13</ele>
        <time>2023-07-15T08:27:53.919+00:00</time>
      </trkpt>
      <trkpt lat="46.16162" lon="-1.15356">
        <ele>12</ele>
        <time>2023-07-15T08:27:58.433+00:00</time>
      </trkpt>
      <trkpt lat="46.16171" lon="-1.15343">
        <ele>14</ele>
        <time>2023-07-15T08:28:02.440+00:00</time>
      </trkpt>
      <trkpt lat="46.16179" lon="-1.15338">
        <ele>14</ele>
        <time>2023-07-15T08:28:06.447+00:00</time>
      </trkpt>
      <trkpt lat="46.16181" lon="-1.1533">
        <ele>11</ele>
        <time>2023-07-15T08:28:10.954+00:00</time>
      </trkpt>
      <trkpt lat="46.16178" lon="-1.15308">
        <ele>14</ele>
        <time>2023-07-15T08:28:15.459+00:00</time>
      </trkpt>
      <trkpt lat="46.16178" lon="-1.15292">
        <ele>14</ele>
        <time>2023-07-15T08:28:19.964+00:00</time>
      </trkpt>
      <trkpt lat="46.16177" lon="-1.15288">
        <ele>14</ele>
        <time>2023-07-15T08:28:23.968+00:00</time>
      </trkpt>
      <trkpt lat="46.16176" lon="-1.15279">
        <ele>14</ele>
        <time>2023-07-15T08:28:40.598+00:00</time>
      </trkpt>
      <trkpt lat="46.16178" lon="-1.15276">
        <ele>14</ele>
        <time>2023-07-15T08:28:45.102+00:00</time>
      </trkpt>
      <trkpt lat="46.16178" lon="-1.15271">
        <ele>14</ele>
        <time>2023-07-15T08:28:49.605+00:00</time>
      </trkpt>
      <trkpt lat="46.16177" lon="-1.1527">
        <ele>14</ele>
        <time>2023-07-15T08:28:54.108+00:00</time>
      </trkpt>
      <trkpt lat="46.16176" lon="-1.15273">
        <ele>14</ele>
        <time>2023-07-15T08:28:58.711+00:00</time>
      </trkpt>
      <trkpt lat="46.16179" lon="-1.15257">
        <ele>14</ele>
        <time>2023-07-15T08:29:02.714+00:00</time>
      </trkpt>
      <trkpt lat="46.16181" lon="-1.15234">
        <ele>14</ele>
        <time>2023-07-15T08:29:07.218+00:00</time>
      </trkpt>
      <trkpt lat="46.16182" lon="-1.15215">
        <ele>14</ele>
        <time>2023-07-15T08:29:11.221+00:00</time>
      </trkpt>
      <trkpt lat="46.1618" lon="-1.1522">
        <ele>14</ele>
        <time>2023-07-15T08:29:15.725+00:00</time>
      </trkpt>
      <trkpt lat="46.1618" lon="-1.15226">
        <ele>14</ele>
        <time>2023-07-15T08:29:19.730+00:00</time>
      </trkpt>
      <trkpt lat="46.1618" lon="-1.15227">
        <ele>14</ele>
        <time>2023-07-15T08:29:24.736+00:00</time>
      </trkpt>
      <trkpt lat="46.16179" lon="-1.15229">
        <ele>14</ele>
        <time>2023-07-15T08:29:29.242+00:00</time>
      </trkpt>
      <trkpt lat="46.16179" lon="-1.15258">
        <ele>14</ele>
        <time>2023-07-15T08:29:33.745+00:00</time>
      </trkpt>
      <trkpt lat="46.16179" lon="-1.15258">
        <ele>14</ele>
        <time>2023-07-15T08:29:37.787+00:00</time>
      </trkpt>
      <trkpt lat="46.1618" lon="-1.15258">
        <ele>14</ele>
        <time>2023-07-15T08:32:50.190+00:00</time>
      </trkpt>
      <trkpt lat="46.16179" lon="-1.15259">
        <ele>14</ele>
        <time>2023-07-15T08:32:55.213+00:00</time>
      </trkpt>
      <trkpt lat="46.16085" lon="-1.15255">
        <ele>12</ele>
        <time>2023-07-15T08:33:00.420+00:00</time>
      </trkpt>
      <trkpt lat="46.16081" lon="-1.15255">
        <ele>12</ele>
        <time>2023-07-15T08:33:05.430+00:00</time>
      </trkpt>
      <trkpt lat="46.16093" lon="-1.15256">
        <ele>12</ele>
        <time>2023-07-15T08:33:10.206+00:00</time>
      </trkpt>
      <trkpt lat="46.16095" lon="-1.15256">
        <ele>12</ele>
        <time>2023-07-15T08:33:14.201+00:00</time>
      </trkpt>
      <trkpt lat="46.16111" lon="-1.1523">
        <ele>12</ele>
        <time>2023-07-15T08:33:19.200+00:00</time>
      </trkpt>
      <trkpt lat="46.16118" lon="-1.15214">
        <ele>12</ele>
        <time>2023-07-15T08:33:23.207+00:00</time>
      </trkpt>
      <trkpt lat="46.16124" lon="-1.1521">
        <ele>12</ele>
        <time>2023-07-15T08:33:45.202+00:00</time>
      </trkpt>
      <trkpt lat="46.16178" lon="-1.15258">
        <ele>14</ele>
        <time>2023-07-15T08:33:53.019+00:00</time>
      </trkpt>
      <trkpt lat="46.16182" lon="-1.15261">
        <ele>14</ele>
        <time>2023-07-15T08:33:58.106+00:00</time>
      </trkpt>
      <trkpt lat="46.16179" lon="-1.15258">
        <ele>14</ele>
        <time>2023-07-15T08:34:34.580+00:00</time>
      </trkpt>
      <trkpt lat="46.16179" lon="-1.15259">
        <ele>14</ele>
        <time>2023-07-15T08:34:39.648+00:00</time>
      </trkpt>
      <trkpt lat="46.1619" lon="-1.15266">
        <ele>13</ele>
        <time>2023-07-15T08:53:16.267+00:00</time>
      </trkpt>
      <trkpt lat="46.16188" lon="-1.15288">
        <ele>13</ele>
        <time>2023-07-15T08:53:21.246+00:00</time>
      </trkpt>
      <trkpt lat="46.16189" lon="-1.15296">
        <ele>12</ele>
        <time>2023-07-15T08:53:27.969+00:00</time>
      </trkpt>
      <trkpt lat="46.16189" lon="-1.15298">
        <ele>12</ele>
        <time>2023-07-15T08:53:31.978+00:00</time>
      </trkpt>
      <trkpt lat="46.16188" lon="-1.15291">
        <ele>13</ele>
        <time>2023-07-15T08:53:35.989+00:00</time>
      </trkpt>
      <trkpt lat="46.1619" lon="-1.15288">
        <ele>13</ele>
        <time>2023-07-15T08:53:39.998+00:00</time>
      </trkpt>
      <trkpt lat="46.16188" lon="-1.15285">
        <ele>13</ele>
        <time>2023-07-15T08:53:44.514+00:00</time>
      </trkpt>
      <trkpt lat="46.16187" lon="-1.15282">
        <ele>13</ele>
        <time>2023-07-15T08:53:49.024+00:00</time>
      </trkpt>
      <trkpt lat="46.16178" lon="-1.15279">
        <ele>14</ele>
        <time>2023-07-15T08:53:54.044+00:00</time>
      </trkpt>
      <trkpt lat="46.16178" lon="-1.15279">
        <ele>14</ele>
        <time>2023-07-15T08:53:59.047+00:00</time>
      </trkpt>
      <trkpt lat="46.16176" lon="-1.15279">
        <ele>14</ele>
        <time>2023-07-15T08:54:43.224+00:00</time>
      </trkpt>
      <trkpt lat="46.16176" lon="-1.15279">
        <ele>14</ele>
        <time>2023-07-15T08:54:47.230+00:00</time>
      </trkpt>
      <trkpt lat="46.16174" lon="-1.15277">
        <ele>14</ele>
        <time>2023-07-15T08:54:51.789+00:00</time>
      </trkpt>
      <trkpt lat="46.16171" lon="-1.15279">
        <ele>14</ele>
        <time>2023-07-15T08:54:56.585+00:00</time>
      </trkpt>
      <trkpt lat="46.16164" lon="-1.15281">
        <ele>14</ele>
        <time>2023-07-15T08:55:01.264+00:00</time>
      </trkpt>
      <trkpt lat="46.16159" lon="-1.15283">
        <ele>14</ele>
        <time>2023-07-15T08:56:08.234+00:00</time>
      </trkpt>
      <trkpt lat="46.16155" lon="-1.15285">
        <ele>14</ele>
        <time>2023-07-15T08:56:12.250+00:00</time>
      </trkpt>
      <trkpt lat="46.16153" lon="-1.15285">
        <ele>14</ele>
        <time>2023-07-15T08:56:16.359+00:00</time>
      </trkpt>
      <trkpt lat="46.16152" lon="-1.15285">
        <ele>15</ele>
        <time>2023-07-15T08:56:21.033+00:00</time>
      </trkpt>
      <trkpt lat="46.16149" lon="-1.15287">
        <ele>15</ele>
        <time>2023-07-15T08:56:25.443+00:00</time>
      </trkpt>
      <trkpt lat="46.16144" lon="-1.1529">
        <ele>15</ele>
        <time>2023-07-15T08:56:29.428+00:00</time>
      </trkpt>
      <trkpt lat="46.16136" lon="-1.15297">
        <ele>16</ele>
        <time>2023-07-15T08:56:33.986+00:00</time>
      </trkpt>
      <trkpt lat="46.16144" lon="-1.15311">
        <ele>16</ele>
        <time>2023-07-15T08:56:38.794+00:00</time>
      </trkpt>
      <trkpt lat="46.16146" lon="-1.15311">
        <ele>16</ele>
        <time>2023-07-15T08:56:43.805+00:00</time>
      </trkpt>
      <trkpt lat="46.16138" lon="-1.15301">
        <ele>16</ele>
        <time>2023-07-15T08:56:51.826+00:00</time>
      </trkpt>
      <trkpt lat="46.16136" lon="-1.15299">
        <ele>16</ele>
        <time>2023-07-15T08:56:56.840+00:00</time>
      </trkpt>
      <trkpt lat="46.16123" lon="-1.15306">
        <ele>16</ele>
        <time>2023-07-15T08:57:01.857+00:00</time>
      </trkpt>
      <trkpt lat="46.16116" lon="-1.15307">
        <ele>16</ele>
        <time>2023-07-15T08:57:06.371+00:00</time>
      </trkpt>
      <trkpt lat="46.16112" lon="-1.15307">
        <ele>16</ele>
        <time>2023-07-15T08:57:10.885+00:00</time>
      </trkpt>
      <trkpt lat="46.16109" lon="-1.15308">
        <ele>16</ele>
        <time>2023-07-15T08:57:15.899+00:00</time>
      </trkpt>
      <trkpt lat="46.16105" lon="-1.15309">
        <ele>16</ele>
        <time>2023-07-15T08:57:20.443+00:00</time>
      </trkpt>
      <trkpt lat="46.16101" lon="-1.15311">
        <ele>16</ele>
        <time>2023-07-15T08:57:24.540+00:00</time>
      </trkpt>
      <trkpt lat="46.16097" lon="-1.15314">
        <ele>15</ele>
        <time>2023-07-15T08:57:29.051+00:00</time>
      </trkpt>
      <trkpt lat="46.16095" lon="-1.15315">
        <ele>15</ele>
        <time>2023-07-15T08:57:33.061+00:00</time>
      </trkpt>
      <trkpt lat="46.16092" lon="-1.15315">
        <ele>15</ele>
        <time>2023-07-15T08:57:38.174+00:00</time>
      </trkpt>
      <trkpt lat="46.16086" lon="-1.15311">
        <ele>15</ele>
        <time>2023-07-15T08:57:42.186+00:00</time>
      </trkpt>
      <trkpt lat="46.16091" lon="-1.15312">
        <ele>15</ele>
        <time>2023-07-15T08:57:46.698+00:00</time>
      </trkpt>
      <trkpt lat="46.16093" lon="-1.15312">
        <ele>15</ele>
        <time>2023-07-15T08:58:26.897+00:00</time>
      </trkpt>
      <trkpt lat="46.16102" lon="-1.15311">
        <ele>16</ele>
        <time>2023-07-15T08:58:30.904+00:00</time>
      </trkpt>
      <trkpt lat="46.16107" lon="-1.15305">
        <ele>16</ele>
        <time>2023-07-15T08:58:35.410+00:00</time>
      </trkpt>
      <trkpt lat="46.161" lon="-1.15302">
        <ele>16</ele>
        <time>2023-07-15T08:58:39.414+00:00</time>
      </trkpt>
      <trkpt lat="46.1609" lon="-1.15306">
        <ele>15</ele>
        <time>2023-07-15T08:58:44.198+00:00</time>
      </trkpt>
      <trkpt lat="46.16076" lon="-1.15314">
        <ele>15</ele>
        <time>2023-07-15T08:58:49.004+00:00</time>
      </trkpt>
      <trkpt lat="46.16066" lon="-1.15317">
        <ele>14</ele>
        <time>2023-07-15T08:58:53.214+00:00</time>
      </trkpt>
      <trkpt lat="46.16057" lon="-1.15313">
        <ele>14</ele>
        <time>2023-07-15T08:58:58.204+00:00</time>
      </trkpt>
      <trkpt lat="46.16066" lon="-1.15311">
        <ele>14</ele>
        <time>2023-07-15T08:59:03.203+00:00</time>
      </trkpt>
      <trkpt lat="46.16075" lon="-1.15308">
        <ele>15</ele>
        <time>2023-07-15T09:00:06.243+00:00</time>
      </trkpt>
      <trkpt lat="46.16094" lon="-1.15299">
        <ele>15</ele>
        <time>2023-07-15T09:00:11.216+00:00</time>
      </trkpt>
      <trkpt lat="46.16104" lon="-1.15291">
        <ele>14</ele>
        <time>2023-07-15T09:00:15.229+00:00</time>
      </trkpt>
      <trkpt lat="46.16103" lon="-1.1529">
        <ele>14</ele>
        <time>2023-07-15T09:00:20.219+00:00</time>
      </trkpt>
      <trkpt lat="46.16102" lon="-1.15291">
        <ele>14</ele>
        <time>2023-07-15T09:00:24.234+00:00</time>
      </trkpt>
      <trkpt lat="46.16101" lon="-1.15291">
        <ele>14</ele>
        <time>2023-07-15T09:01:10.244+00:00</time>
      </trkpt>
      <trkpt lat="46.16097" lon="-1.15292">
        <ele>16</ele>
        <time>2023-07-15T09:01:15.219+00:00</time>
      </trkpt>
      <trkpt lat="46.16095" lon="-1.15293">
        <ele>15</ele>
        <time>2023-07-15T09:01:19.239+00:00</time>
      </trkpt>
      <trkpt lat="46.16087" lon="-1.15297">
        <ele>15</ele>
        <time>2023-07-15T09:01:24.231+00:00</time>
      </trkpt>
      <trkpt lat="46.16086" lon="-1.15303">
        <ele>15</ele>
        <time>2023-07-15T09:01:29.238+00:00</time>
      </trkpt>
      <trkpt lat="46.16084" lon="-1.1531">
        <ele>15</ele>
        <time>2023-07-15T09:02:19.699+00:00</time>
      </trkpt>
      <trkpt lat="46.16083" lon="-1.15312">
        <ele>15</ele>
        <time>2023-07-15T09:02:23.839+00:00</time>
      </trkpt>
      <trkpt lat="46.16081" lon="-1.15313">
        <ele>15</ele>
        <time>2023-07-15T09:02:27.856+00:00</time>
      </trkpt>
      <trkpt lat="46.16079" lon="-1.15311">
        <ele>15</ele>
        <time>2023-07-15T09:02:32.636+00:00</time>
      </trkpt>
      <trkpt lat="46.16081" lon="-1.15308">
        <ele>15</ele>
        <time>2023-07-15T09:02:36.813+00:00</time>
      </trkpt>
      <trkpt lat="46.1608" lon="-1.15306">
        <ele>15</ele>
        <time>2023-07-15T09:02:45.088+00:00</time>
      </trkpt>
      <trkpt lat="46.16076" lon="-1.15305">
        <ele>15</ele>
        <time>2023-07-15T09:02:49.644+00:00</time>
      </trkpt>
      <trkpt lat="46.16074" lon="-1.15302">
        <ele>15</ele>
        <time>2023-07-15T09:02:54.241+00:00</time>
      </trkpt>
      <trkpt lat="46.16073" lon="-1.15298">
        <ele>15</ele>
        <time>2023-07-15T09:02:58.259+00:00</time>
      </trkpt>
      <trkpt lat="46.16073" lon="-1.1529">
        <ele>14</ele>
        <time>2023-07-15T09:03:03.053+00:00</time>
      </trkpt>
      <trkpt lat="46.16079" lon="-1.15281">
        <ele>14</ele>
        <time>2023-07-15T09:03:07.204+00:00</time>
      </trkpt>
      <trkpt lat="46.16111" lon="-1.153">
        <ele>16</ele>
        <time>2023-07-15T09:03:11.207+00:00</time>
      </trkpt>
      <trkpt lat="46.16082" lon="-1.15313">
        <ele>15</ele>
        <time>2023-07-15T09:03:16.211+00:00</time>
      </trkpt>
      <trkpt lat="46.16083" lon="-1.15314">
        <ele>15</ele>
        <time>2023-07-15T09:03:21.218+00:00</time>
      </trkpt>
      <trkpt lat="46.16087" lon="-1.15332">
        <ele>17</ele>
        <time>2023-07-15T09:05:40.821+00:00</time>
      </trkpt>
      <trkpt lat="46.16086" lon="-1.15342">
        <ele>17</ele>
        <time>2023-07-15T09:05:45.862+00:00</time>
      </trkpt>
      <trkpt lat="46.16057" lon="-1.15347">
        <ele>15</ele>
        <time>2023-07-15T09:06:10.217+00:00</time>
      </trkpt>
      <trkpt lat="46.16079" lon="-1.15343">
        <ele>17</ele>
        <time>2023-07-15T09:06:15.202+00:00</time>
      </trkpt>
      <trkpt lat="46.16078" lon="-1.15339">
        <ele>17</ele>
        <time>2023-07-15T09:06:26.200+00:00</time>
      </trkpt>
      <trkpt lat="46.1608" lon="-1.15342">
        <ele>17</ele>
        <time>2023-07-15T09:06:54.233+00:00</time>
      </trkpt>
      <trkpt lat="46.16085" lon="-1.15339">
        <ele>17</ele>
        <time>2023-07-15T09:06:58.214+00:00</time>
      </trkpt>
      <trkpt lat="46.16086" lon="-1.15339">
        <ele>17</ele>
        <time>2023-07-15T09:07:03.207+00:00</time>
      </trkpt>
      <trkpt lat="46.16088" lon="-1.15321">
        <ele>17</ele>
        <time>2023-07-15T09:07:07.209+00:00</time>
      </trkpt>
      <trkpt lat="46.16084" lon="-1.15313">
        <ele>15</ele>
        <time>2023-07-15T09:07:11.229+00:00</time>
      </trkpt>
      <trkpt lat="46.16091" lon="-1.1531">
        <ele>15</ele>
        <time>2023-07-15T09:11:02.243+00:00</time>
      </trkpt>
      <trkpt lat="46.16092" lon="-1.15303">
        <ele>15</ele>
        <time>2023-07-15T09:11:07.215+00:00</time>
      </trkpt>
      <trkpt lat="46.16067" lon="-1.15301">
        <ele>14</ele>
        <time>2023-07-15T09:11:12.232+00:00</time>
      </trkpt>
      <trkpt lat="46.16074" lon="-1.15336">
        <ele>17</ele>
        <time>2023-07-15T09:11:16.235+00:00</time>
      </trkpt>
      <trkpt lat="46.16076" lon="-1.15326">
        <ele>17</ele>
        <time>2023-07-15T09:11:21.225+00:00</time>
      </trkpt>
      <trkpt lat="46.16078" lon="-1.1532">
        <ele>17</ele>
        <time>2023-07-15T09:17:03.185+00:00</time>
      </trkpt>
      <trkpt lat="46.16081" lon="-1.15318">
        <ele>15</ele>
        <time>2023-07-15T09:17:07.966+00:00</time>
      </trkpt>
      <trkpt lat="46.16081" lon="-1.15316">
        <ele>15</ele>
        <time>2023-07-15T09:17:13.223+00:00</time>
      </trkpt>
      <trkpt lat="46.16081" lon="-1.15317">
        <ele>15</ele>
        <time>2023-07-15T09:17:17.217+00:00</time>
      </trkpt>
      <trkpt lat="46.16079" lon="-1.1532">
        <ele>17</ele>
        <time>2023-07-15T09:17:20.778+00:00</time>
      </trkpt>
      <trkpt lat="46.1607" lon="-1.15322">
        <ele>17</ele>
        <time>2023-07-15T09:17:24.971+00:00</time>
      </trkpt>
      <trkpt lat="46.16066" lon="-1.15317">
        <ele>14</ele>
        <time>2023-07-15T09:17:29.762+00:00</time>
      </trkpt>
      <trkpt lat="46.1607" lon="-1.1531">
        <ele>15</ele>
        <time>2023-07-15T09:17:34.239+00:00</time>
      </trkpt>
      <trkpt lat="46.16072" lon="-1.15303">
        <ele>15</ele>
        <time>2023-07-15T09:17:39.240+00:00</time>
      </trkpt>
      <trkpt lat="46.16079" lon="-1.15301">
        <ele>15</ele>
        <time>2023-07-15T09:17:44.216+00:00</time>
      </trkpt>
      <trkpt lat="46.16081" lon="-1.15302">
        <ele>15</ele>
        <time>2023-07-15T09:17:48.229+00:00</time>
      </trkpt>
      <trkpt lat="46.16086" lon="-1.15299">
        <ele>15</ele>
        <time>2023-07-15T09:17:53.224+00:00</time>
      </trkpt>
      <trkpt lat="46.16086" lon="-1.15298">
        <ele>15</ele>
        <time>2023-07-15T09:17:58.214+00:00</time>
      </trkpt>
      <trkpt lat="46.16086" lon="-1.15302">
        <ele>15</ele>
        <time>2023-07-15T09:19:35.578+00:00</time>
      </trkpt>
      <trkpt lat="46.16087" lon="-1.15309">
        <ele>15</ele>
        <time>2023-07-15T09:19:39.763+00:00</time>
      </trkpt>
      <trkpt lat="46.16085" lon="-1.15311">
        <ele>15</ele>
        <time>2023-07-15T09:19:43.723+00:00</time>
      </trkpt>
      <trkpt lat="46.16084" lon="-1.15311">
        <ele>15</ele>
        <time>2023-07-15T09:19:48.938+00:00</time>
      </trkpt>
      <trkpt lat="46.16078" lon="-1.15329">
        <ele>17</ele>
        <time>2023-07-15T09:19:53.133+00:00</time>
      </trkpt>
      <trkpt lat="46.16077" lon="-1.15369">
        <ele>16</ele>
        <time>2023-07-15T09:19:54.912+00:00</time>
      </trkpt>
      <trkpt lat="46.16068" lon="-1.15404">
        <ele>13</ele>
        <time>2023-07-15T09:20:03.889+00:00</time>
      </trkpt>
      <trkpt lat="46.16077" lon="-1.15334">
        <ele>17</ele>
        <time>2023-07-15T09:20:08.210+00:00</time>
      </trkpt>
      <trkpt lat="46.16073" lon="-1.15326">
        <ele>17</ele>
        <time>2023-07-15T09:20:27.878+00:00</time>
      </trkpt>
      <trkpt lat="46.1607" lon="-1.15323">
        <ele>17</ele>
        <time>2023-07-15T09:23:21.988+00:00</time>
      </trkpt>
      <trkpt lat="46.16066" lon="-1.15324">
        <ele>15</ele>
        <time>2023-07-15T09:23:25.942+00:00</time>
      </trkpt>
      <trkpt lat="46.16062" lon="-1.15326">
        <ele>15</ele>
        <time>2023-07-15T09:23:29.977+00:00</time>
      </trkpt>
      <trkpt lat="46.16044" lon="-1.1533">
        <ele>15</ele>
        <time>2023-07-15T09:23:34.649+00:00</time>
      </trkpt>
      <trkpt lat="46.16041" lon="-1.15335">
        <ele>14</ele>
        <time>2023-07-15T09:23:38.846+00:00</time>
      </trkpt>
      <trkpt lat="46.16035" lon="-1.1534">
        <ele>14</ele>
        <time>2023-07-15T09:23:57.207+00:00</time>
      </trkpt>
      <trkpt lat="46.16031" lon="-1.15343">
        <ele>14</ele>
        <time>2023-07-15T09:24:01.209+00:00</time>
      </trkpt>
      <trkpt lat="46.16027" lon="-1.15345">
        <ele>14</ele>
        <time>2023-07-15T09:24:06.207+00:00</time>
      </trkpt>
      <trkpt lat="46.16027" lon="-1.15342">
        <ele>14</ele>
        <time>2023-07-15T09:24:10.206+00:00</time>
      </trkpt>
      <trkpt lat="46.16024" lon="-1.1534">
        <ele>14</ele>
        <time>2023-07-15T09:24:14.981+00:00</time>
      </trkpt>
      <trkpt lat="46.16021" lon="-1.15341">
        <ele>14</ele>
        <time>2023-07-15T09:24:19.211+00:00</time>
      </trkpt>
      <trkpt lat="46.16019" lon="-1.15343">
        <ele>14</ele>
        <time>2023-07-15T09:24:24.214+00:00</time>
      </trkpt>
      <trkpt lat="46.16016" lon="-1.15346">
        <ele>14</ele>
        <time>2023-07-15T09:24:29.213+00:00</time>
      </trkpt>
      <trkpt lat="46.16012" lon="-1.15358">
        <ele>14</ele>
        <time>2023-07-15T09:24:33.171+00:00</time>
      </trkpt>
      <trkpt lat="46.16005" lon="-1.15358">
        <ele>14</ele>
        <time>2023-07-15T09:24:37.685+00:00</time>
      </trkpt>
      <trkpt lat="46.15997" lon="-1.15359">
        <ele>14</ele>
        <time>2023-07-15T09:25:14.677+00:00</time>
      </trkpt>
      <trkpt lat="46.15994" lon="-1.15356">
        <ele>14</ele>
        <time>2023-07-15T09:25:19.190+00:00</time>
      </trkpt>
      <trkpt lat="46.15981" lon="-1.15358">
        <ele>13</ele>
        <time>2023-07-15T09:25:23.703+00:00</time>
      </trkpt>
      <trkpt lat="46.15975" lon="-1.15356">
        <ele>13</ele>
        <time>2023-07-15T09:25:27.715+00:00</time>
      </trkpt>
      <trkpt lat="46.15971" lon="-1.15357">
        <ele>13</ele>
        <time>2023-07-15T09:25:32.731+00:00</time>
      </trkpt>
      <trkpt lat="46.15964" lon="-1.15359">
        <ele>13</ele>
        <time>2023-07-15T09:26:22.623+00:00</time>
      </trkpt>
      <trkpt lat="46.15959" lon="-1.15362">
        <ele>13</ele>
        <time>2023-07-15T09:26:27.140+00:00</time>
      </trkpt>
      <trkpt lat="46.15956" lon="-1.15363">
        <ele>12</ele>
        <time>2023-07-15T09:26:31.153+00:00</time>
      </trkpt>
      <trkpt lat="46.15955" lon="-1.15361">
        <ele>12</ele>
        <time>2023-07-15T09:26:35.167+00:00</time>
      </trkpt>
      <trkpt lat="46.15956" lon="-1.15361">
        <ele>12</ele>
        <time>2023-07-15T09:26:39.179+00:00</time>
      </trkpt>
      <trkpt lat="46.15956" lon="-1.15361">
        <ele>12</ele>
        <time>2023-07-15T09:26:43.793+00:00</time>
      </trkpt>
      <trkpt lat="46.15959" lon="-1.15356">
        <ele>13</ele>
        <time>2023-07-15T09:26:48.815+00:00</time>
      </trkpt>
      <trkpt lat="46.15965" lon="-1.15351">
        <ele>13</ele>
        <time>2023-07-15T09:26:53.832+00:00</time>
      </trkpt>
      <trkpt lat="46.15968" lon="-1.15353">
        <ele>13</ele>
        <time>2023-07-15T09:26:57.846+00:00</time>
      </trkpt>
      <trkpt lat="46.15967" lon="-1.15355">
        <ele>13</ele>
        <time>2023-07-15T09:27:02.880+00:00</time>
      </trkpt>
      <trkpt lat="46.15968" lon="-1.15356">
        <ele>13</ele>
        <time>2023-07-15T09:27:06.894+00:00</time>
      </trkpt>
      <trkpt lat="46.15967" lon="-1.15357">
        <ele>13</ele>
        <time>2023-07-15T09:27:10.909+00:00</time>
      </trkpt>
      <trkpt lat="46.1595" lon="-1.1536">
        <ele>12</ele>
        <time>2023-07-15T09:27:15.929+00:00</time>
      </trkpt>
      <trkpt lat="46.15946" lon="-1.15362">
        <ele>12</ele>
        <time>2023-07-15T09:27:20.946+00:00</time>
      </trkpt>
      <trkpt lat="46.15942" lon="-1.15364">
        <ele>12</ele>
        <time>2023-07-15T09:27:25.481+00:00</time>
      </trkpt>
      <trkpt lat="46.15938" lon="-1.15367">
        <ele>12</ele>
        <time>2023-07-15T09:27:29.576+00:00</time>
      </trkpt>
      <trkpt lat="46.15937" lon="-1.1537">
        <ele>12</ele>
        <time>2023-07-15T09:27:34.091+00:00</time>
      </trkpt>
      <trkpt lat="46.15934" lon="-1.15377">
        <ele>13</ele>
        <time>2023-07-15T09:27:38.104+00:00</time>
      </trkpt>
      <trkpt lat="46.15931" lon="-1.1538">
        <ele>13</ele>
        <time>2023-07-15T09:27:42.115+00:00</time>
      </trkpt>
      <trkpt lat="46.1593" lon="-1.15379">
        <ele>13</ele>
        <time>2023-07-15T09:27:51.146+00:00</time>
      </trkpt>
      <trkpt lat="46.15928" lon="-1.15373">
        <ele>13</ele>
        <time>2023-07-15T09:27:55.161+00:00</time>
      </trkpt>
      <trkpt lat="46.15926" lon="-1.15362">
        <ele>13</ele>
        <time>2023-07-15T09:27:59.676+00:00</time>
      </trkpt>
      <trkpt lat="46.15928" lon="-1.15359">
        <ele>13</ele>
        <time>2023-07-15T09:28:04.196+00:00</time>
      </trkpt>
      <trkpt lat="46.15927" lon="-1.15364">
        <ele>13</ele>
        <time>2023-07-15T09:28:07.804+00:00</time>
      </trkpt>
      <trkpt lat="46.15923" lon="-1.15372">
        <ele>13</ele>
        <time>2023-07-15T09:28:12.823+00:00</time>
      </trkpt>
      <trkpt lat="46.1592" lon="-1.15371">
        <ele>13</ele>
        <time>2023-07-15T09:28:17.842+00:00</time>
      </trkpt>
      <trkpt lat="46.15912" lon="-1.15377">
        <ele>13</ele>
        <time>2023-07-15T09:28:22.858+00:00</time>
      </trkpt>
      <trkpt lat="46.15911" lon="-1.1538">
        <ele>13</ele>
        <time>2023-07-15T09:28:27.373+00:00</time>
      </trkpt>
      <trkpt lat="46.15912" lon="-1.15383">
        <ele>13</ele>
        <time>2023-07-15T09:28:36.905+00:00</time>
      </trkpt>
      <trkpt lat="46.1591" lon="-1.15385">
        <ele>13</ele>
        <time>2023-07-15T09:28:40.915+00:00</time>
      </trkpt>
      <trkpt lat="46.15907" lon="-1.15385">
        <ele>13</ele>
        <time>2023-07-15T09:28:44.927+00:00</time>
      </trkpt>
      <trkpt lat="46.15905" lon="-1.15393">
        <ele>13</ele>
        <time>2023-07-15T09:28:49.944+00:00</time>
      </trkpt>
      <trkpt lat="46.15905" lon="-1.15393">
        <ele>13</ele>
        <time>2023-07-15T09:28:53.958+00:00</time>
      </trkpt>
      <trkpt lat="46.15905" lon="-1.15394">
        <ele>13</ele>
        <time>2023-07-15T09:29:34.174+00:00</time>
      </trkpt>
      <trkpt lat="46.15903" lon="-1.15397">
        <ele>13</ele>
        <time>2023-07-15T09:29:41.252+00:00</time>
      </trkpt>
      <trkpt lat="46.15904" lon="-1.15397">
        <ele>13</ele>
        <time>2023-07-15T09:29:46.293+00:00</time>
      </trkpt>
      <trkpt lat="46.15906" lon="-1.15395">
        <ele>13</ele>
        <time>2023-07-15T09:29:50.986+00:00</time>
      </trkpt>
      <trkpt lat="46.15906" lon="-1.15394">
        <ele>13</ele>
        <time>2023-07-15T09:29:56.284+00:00</time>
      </trkpt>
      <trkpt lat="46.15905" lon="-1.15392">
        <ele>13</ele>
        <time>2023-07-15T09:32:06.282+00:00</time>
      </trkpt>
      <trkpt lat="46.159" lon="-1.15391">
        <ele>12</ele>
        <time>2023-07-15T09:32:10.475+00:00</time>
      </trkpt>
      <trkpt lat="46.15893" lon="-1.1539">
        <ele>12</ele>
        <time>2023-07-15T09:32:17.039+00:00</time>
      </trkpt>
      <trkpt lat="46.15888" lon="-1.15392">
        <ele>12</ele>
        <time>2023-07-15T09:32:21.083+00:00</time>
      </trkpt>
      <trkpt lat="46.1589" lon="-1.15401">
        <ele>12</ele>
        <time>2023-07-15T09:32:24.999+00:00</time>
      </trkpt>
      <trkpt lat="46.15898" lon="-1.15454">
        <ele>11</ele>
        <time>2023-07-15T09:33:06.091+00:00</time>
      </trkpt>
      <trkpt lat="46.15916" lon="-1.15512">
        <ele>10</ele>
        <time>2023-07-15T09:33:11.202+00:00</time>
      </trkpt>
      <trkpt lat="46.15925" lon="-1.156">
        <ele>8</ele>
        <time>2023-07-15T09:33:16.194+00:00</time>
      </trkpt>
      <trkpt lat="46.15893" lon="-1.15389">
        <ele>12</ele>
        <time>2023-07-15T09:33:20.196+00:00</time>
      </trkpt>
      <trkpt lat="46.15893" lon="-1.15389">
        <ele>12</ele>
        <time>2023-07-15T09:33:25.195+00:00</time>
      </trkpt>
      <trkpt lat="46.15893" lon="-1.15389">
        <ele>12</ele>
        <time>2023-07-15T09:34:15.023+00:00</time>
      </trkpt>
      <trkpt lat="46.15893" lon="-1.15388">
        <ele>12</ele>
        <time>2023-07-15T09:34:20.053+00:00</time>
      </trkpt>
      <trkpt lat="46.15893" lon="-1.15387">
        <ele>12</ele>
        <time>2023-07-15T09:34:25.060+00:00</time>
      </trkpt>
      <trkpt lat="46.15891" lon="-1.15373">
        <ele>13</ele>
        <time>2023-07-15T09:34:30.065+00:00</time>
      </trkpt>
      <trkpt lat="46.15894" lon="-1.15379">
        <ele>12</ele>
        <time>2023-07-15T09:34:35.156+00:00</time>
      </trkpt>
      <trkpt lat="46.15893" lon="-1.15384">
        <ele>12</ele>
        <time>2023-07-15T09:34:52.202+00:00</time>
      </trkpt>
      <trkpt lat="46.15886" lon="-1.15382">
        <ele>12</ele>
        <time>2023-07-15T09:34:57.200+00:00</time>
      </trkpt>
      <trkpt lat="46.15882" lon="-1.15386">
        <ele>12</ele>
        <time>2023-07-15T09:35:01.231+00:00</time>
      </trkpt>
      <trkpt lat="46.15875" lon="-1.15393">
        <ele>12</ele>
        <time>2023-07-15T09:35:05.232+00:00</time>
      </trkpt>
      <trkpt lat="46.15872" lon="-1.15393">
        <ele>12</ele>
        <time>2023-07-15T09:35:09.361+00:00</time>
      </trkpt>
      <trkpt lat="46.15869" lon="-1.15394">
        <ele>12</ele>
        <time>2023-07-15T09:35:13.864+00:00</time>
      </trkpt>
      <trkpt lat="46.15866" lon="-1.15392">
        <ele>12</ele>
        <time>2023-07-15T09:35:17.925+00:00</time>
      </trkpt>
      <trkpt lat="46.15866" lon="-1.15383">
        <ele>12</ele>
        <time>2023-07-15T09:35:21.928+00:00</time>
      </trkpt>
      <trkpt lat="46.15869" lon="-1.15392">
        <ele>12</ele>
        <time>2023-07-15T09:35:26.752+00:00</time>
      </trkpt>
      <trkpt lat="46.15866" lon="-1.15397">
        <ele>12</ele>
        <time>2023-07-15T09:35:31.267+00:00</time>
      </trkpt>
      <trkpt lat="46.15862" lon="-1.15394">
        <ele>12</ele>
        <time>2023-07-15T09:35:36.211+00:00</time>
      </trkpt>
      <trkpt lat="46.1586" lon="-1.15393">
        <ele>12</ele>
        <time>2023-07-15T09:35:40.814+00:00</time>
      </trkpt>
      <trkpt lat="46.15859" lon="-1.15395">
        <ele>12</ele>
        <time>2023-07-15T09:35:44.843+00:00</time>
      </trkpt>
      <trkpt lat="46.15857" lon="-1.15395">
        <ele>12</ele>
        <time>2023-07-15T09:35:49.858+00:00</time>
      </trkpt>
      <trkpt lat="46.15854" lon="-1.15391">
        <ele>12</ele>
        <time>2023-07-15T09:35:54.872+00:00</time>
      </trkpt>
      <trkpt lat="46.15851" lon="-1.15387">
        <ele>12</ele>
        <time>2023-07-15T09:35:58.883+00:00</time>
      </trkpt>
      <trkpt lat="46.1585" lon="-1.15385">
        <ele>12</ele>
        <time>2023-07-15T09:36:03.898+00:00</time>
      </trkpt>
      <trkpt lat="46.15847" lon="-1.15382">
        <ele>12</ele>
        <time>2023-07-15T09:36:08.915+00:00</time>
      </trkpt>
      <trkpt lat="46.15845" lon="-1.15384">
        <ele>11</ele>
        <time>2023-07-15T09:36:12.929+00:00</time>
      </trkpt>
      <trkpt lat="46.15843" lon="-1.15384">
        <ele>11</ele>
        <time>2023-07-15T09:36:25.566+00:00</time>
      </trkpt>
      <trkpt lat="46.15841" lon="-1.15384">
        <ele>11</ele>
        <time>2023-07-15T09:36:29.677+00:00</time>
      </trkpt>
      <trkpt lat="46.1584" lon="-1.15384">
        <ele>11</ele>
        <time>2023-07-15T09:36:34.186+00:00</time>
      </trkpt>
      <trkpt lat="46.15828" lon="-1.15379">
        <ele>11</ele>
        <time>2023-07-15T09:36:39.194+00:00</time>
      </trkpt>
      <trkpt lat="46.15827" lon="-1.15378">
        <ele>11</ele>
        <time>2023-07-15T09:36:43.210+00:00</time>
      </trkpt>
      <trkpt lat="46.15826" lon="-1.15377">
        <ele>11</ele>
        <time>2023-07-15T09:37:18.973+00:00</time>
      </trkpt>
      <trkpt lat="46.15824" lon="-1.15374">
        <ele>10</ele>
        <time>2023-07-15T09:37:22.978+00:00</time>
      </trkpt>
      <trkpt lat="46.15823" lon="-1.15369">
        <ele>10</ele>
        <time>2023-07-15T09:37:26.982+00:00</time>
      </trkpt>
      <trkpt lat="46.1582" lon="-1.15363">
        <ele>10</ele>
        <time>2023-07-15T09:37:31.486+00:00</time>
      </trkpt>
      <trkpt lat="46.15819" lon="-1.15362">
        <ele>8</ele>
        <time>2023-07-15T09:37:35.991+00:00</time>
      </trkpt>
      <trkpt lat="46.15816" lon="-1.15361">
        <ele>8</ele>
        <time>2023-07-15T09:37:40.697+00:00</time>
      </trkpt>
      <trkpt lat="46.15811" lon="-1.15358">
        <ele>8</ele>
        <time>2023-07-15T09:37:44.802+00:00</time>
      </trkpt>
      <trkpt lat="46.15807" lon="-1.15356">
        <ele>8</ele>
        <time>2023-07-15T09:37:48.807+00:00</time>
      </trkpt>
      <trkpt lat="46.15803" lon="-1.15346">
        <ele>7</ele>
        <time>2023-07-15T09:37:57.838+00:00</time>
      </trkpt>
      <trkpt lat="46.15798" lon="-1.15339">
        <ele>7</ele>
        <time>2023-07-15T09:38:02.353+00:00</time>
      </trkpt>
      <trkpt lat="46.15795" lon="-1.15332">
        <ele>7</ele>
        <time>2023-07-15T09:38:06.866+00:00</time>
      </trkpt>
      <trkpt lat="46.1579" lon="-1.15327">
        <ele>5</ele>
        <time>2023-07-15T09:38:11.881+00:00</time>
      </trkpt>
      <trkpt lat="46.15781" lon="-1.15322">
        <ele>5</ele>
        <time>2023-07-15T09:38:15.892+00:00</time>
      </trkpt>
      <trkpt lat="46.15776" lon="-1.15316">
        <ele>3</ele>
        <time>2023-07-15T09:38:20.405+00:00</time>
      </trkpt>
      <trkpt lat="46.15774" lon="-1.15312">
        <ele>3</ele>
        <time>2023-07-15T09:38:24.416+00:00</time>
      </trkpt>
      <trkpt lat="46.15774" lon="-1.15307">
        <ele>3</ele>
        <time>2023-07-15T09:38:28.931+00:00</time>
      </trkpt>
      <trkpt lat="46.15777" lon="-1.15306">
        <ele>3</ele>
        <time>2023-07-15T09:38:32.942+00:00</time>
      </trkpt>
      <trkpt lat="46.15777" lon="-1.15311">
        <ele>3</ele>
        <time>2023-07-15T09:38:40.963+00:00</time>
      </trkpt>
      <trkpt lat="46.15775" lon="-1.15317">
        <ele>3</ele>
        <time>2023-07-15T09:38:45.476+00:00</time>
      </trkpt>
      <trkpt lat="46.15768" lon="-1.15321">
        <ele>5</ele>
        <time>2023-07-15T09:38:49.989+00:00</time>
      </trkpt>
      <trkpt lat="46.15764" lon="-1.15325">
        <ele>4</ele>
        <time>2023-07-15T09:38:54.022+00:00</time>
      </trkpt>
      <trkpt lat="46.1576" lon="-1.1533">
        <ele>4</ele>
        <time>2023-07-15T09:38:59.036+00:00</time>
      </trkpt>
      <trkpt lat="46.15758" lon="-1.15335">
        <ele>4</ele>
        <time>2023-07-15T09:39:03.048+00:00</time>
      </trkpt>
      <trkpt lat="46.15754" lon="-1.15335">
        <ele>4</ele>
        <time>2023-07-15T09:39:07.661+00:00</time>
      </trkpt>
      <trkpt lat="46.15751" lon="-1.15337">
        <ele>4</ele>
        <time>2023-07-15T09:39:11.771+00:00</time>
      </trkpt>
      <trkpt lat="46.15748" lon="-1.1534">
        <ele>4</ele>
        <time>2023-07-15T09:39:16.283+00:00</time>
      </trkpt>
      <trkpt lat="46.15744" lon="-1.15342">
        <ele>4</ele>
        <time>2023-07-15T09:39:20.394+00:00</time>
      </trkpt>
      <trkpt lat="46.1574" lon="-1.15345">
        <ele>4</ele>
        <time>2023-07-15T09:39:24.907+00:00</time>
      </trkpt>
      <trkpt lat="46.15737" lon="-1.15341">
        <ele>4</ele>
        <time>2023-07-15T09:39:28.919+00:00</time>
      </trkpt>
      <trkpt lat="46.15739" lon="-1.1534">
        <ele>4</ele>
        <time>2023-07-15T09:39:33.432+00:00</time>
      </trkpt>
      <trkpt lat="46.15745" lon="-1.15336">
        <ele>4</ele>
        <time>2023-07-15T09:39:56.007+00:00</time>
      </trkpt>
      <trkpt lat="46.15751" lon="-1.15335">
        <ele>4</ele>
        <time>2023-07-15T09:40:00.020+00:00</time>
      </trkpt>
      <trkpt lat="46.15754" lon="-1.15332">
        <ele>4</ele>
        <time>2023-07-15T09:40:04.635+00:00</time>
      </trkpt>
      <trkpt lat="46.15759" lon="-1.15331">
        <ele>4</ele>
        <time>2023-07-15T09:40:09.249+00:00</time>
      </trkpt>
      <trkpt lat="46.15762" lon="-1.15328">
        <ele>4</ele>
        <time>2023-07-15T09:40:13.761+00:00</time>
      </trkpt>
      <trkpt lat="46.15766" lon="-1.15327">
        <ele>5</ele>
        <time>2023-07-15T09:40:18.272+00:00</time>
      </trkpt>
      <trkpt lat="46.1577" lon="-1.15322">
        <ele>5</ele>
        <time>2023-07-15T09:40:22.784+00:00</time>
      </trkpt>
      <trkpt lat="46.15773" lon="-1.15318">
        <ele>3</ele>
        <time>2023-07-15T09:40:26.793+00:00</time>
      </trkpt>
      <trkpt lat="46.15777" lon="-1.15315">
        <ele>3</ele>
        <time>2023-07-15T09:40:31.305+00:00</time>
      </trkpt>
      <trkpt lat="46.15781" lon="-1.15312">
        <ele>3</ele>
        <time>2023-07-15T09:40:35.817+00:00</time>
      </trkpt>
      <trkpt lat="46.15783" lon="-1.15312">
        <ele>3</ele>
        <time>2023-07-15T09:40:39.829+00:00</time>
      </trkpt>
      <trkpt lat="46.15787" lon="-1.15309">
        <ele>3</ele>
        <time>2023-07-15T09:40:43.840+00:00</time>
      </trkpt>
      <trkpt lat="46.15791" lon="-1.15304">
        <ele>3</ele>
        <time>2023-07-15T09:40:47.853+00:00</time>
      </trkpt>
      <trkpt lat="46.15793" lon="-1.15297">
        <ele>5</ele>
        <time>2023-07-15T09:40:51.868+00:00</time>
      </trkpt>
      <trkpt lat="46.15794" lon="-1.15296">
        <ele>5</ele>
        <time>2023-07-15T09:40:56.383+00:00</time>
      </trkpt>
      <trkpt lat="46.15796" lon="-1.15292">
        <ele>5</ele>
        <time>2023-07-15T09:41:00.907+00:00</time>
      </trkpt>
      <trkpt lat="46.158" lon="-1.15287">
        <ele>5</ele>
        <time>2023-07-15T09:41:04.922+00:00</time>
      </trkpt>
      <trkpt lat="46.15803" lon="-1.15282">
        <ele>5</ele>
        <time>2023-07-15T09:41:09.438+00:00</time>
      </trkpt>
      <trkpt lat="46.15806" lon="-1.15275">
        <ele>5</ele>
        <time>2023-07-15T09:41:13.551+00:00</time>
      </trkpt>
      <trkpt lat="46.15805" lon="-1.15269">
        <ele>5</ele>
        <time>2023-07-15T09:41:18.065+00:00</time>
      </trkpt>
      <trkpt lat="46.15808" lon="-1.15264">
        <ele>4</ele>
        <time>2023-07-15T09:41:22.576+00:00</time>
      </trkpt>
      <trkpt lat="46.15809" lon="-1.15261">
        <ele>4</ele>
        <time>2023-07-15T09:41:26.587+00:00</time>
      </trkpt>
      <trkpt lat="46.1581" lon="-1.15256">
        <ele>4</ele>
        <time>2023-07-15T09:41:31.100+00:00</time>
      </trkpt>
      <trkpt lat="46.15811" lon="-1.15247">
        <ele>4</ele>
        <time>2023-07-15T09:41:35.115+00:00</time>
      </trkpt>
      <trkpt lat="46.15811" lon="-1.15239">
        <ele>4</ele>
        <time>2023-07-15T09:41:39.633+00:00</time>
      </trkpt>
      <trkpt lat="46.15812" lon="-1.15232">
        <ele>4</ele>
        <time>2023-07-15T09:41:43.748+00:00</time>
      </trkpt>
      <trkpt lat="46.15811" lon="-1.15226">
        <ele>4</ele>
        <time>2023-07-15T09:41:47.762+00:00</time>
      </trkpt>
      <trkpt lat="46.15812" lon="-1.1522">
        <ele>4</ele>
        <time>2023-07-15T09:41:52.279+00:00</time>
      </trkpt>
      <trkpt lat="46.15812" lon="-1.15213">
        <ele>4</ele>
        <time>2023-07-15T09:41:56.295+00:00</time>
      </trkpt>
      <trkpt lat="46.15812" lon="-1.15206">
        <ele>4</ele>
        <time>2023-07-15T09:42:00.811+00:00</time>
      </trkpt>
      <trkpt lat="46.15812" lon="-1.15199">
        <ele>4</ele>
        <time>2023-07-15T09:42:04.926+00:00</time>
      </trkpt>
      <trkpt lat="46.15812" lon="-1.15194">
        <ele>4</ele>
        <time>2023-07-15T09:42:09.442+00:00</time>
      </trkpt>
      <trkpt lat="46.15812" lon="-1.15189">
        <ele>4</ele>
        <time>2023-07-15T09:42:14.058+00:00</time>
      </trkpt>
      <trkpt lat="46.15812" lon="-1.15183">
        <ele>4</ele>
        <time>2023-07-15T09:42:18.070+00:00</time>
      </trkpt>
      <trkpt lat="46.15812" lon="-1.15178">
        <ele>4</ele>
        <time>2023-07-15T09:42:22.084+00:00</time>
      </trkpt>
      <trkpt lat="46.15815" lon="-1.15173">
        <ele>4</ele>
        <time>2023-07-15T09:42:26.598+00:00</time>
      </trkpt>
      <trkpt lat="46.15812" lon="-1.15167">
        <ele>4</ele>
        <time>2023-07-15T09:42:30.710+00:00</time>
      </trkpt>
      <trkpt lat="46.15813" lon="-1.15161">
        <ele>4</ele>
        <time>2023-07-15T09:42:34.723+00:00</time>
      </trkpt>
      <trkpt lat="46.15815" lon="-1.15158">
        <ele>4</ele>
        <time>2023-07-15T09:42:38.737+00:00</time>
      </trkpt>
      <trkpt lat="46.15814" lon="-1.15154">
        <ele>4</ele>
        <time>2023-07-15T09:42:42.750+00:00</time>
      </trkpt>
      <trkpt lat="46.15813" lon="-1.15146">
        <ele>3</ele>
        <time>2023-07-15T09:42:47.265+00:00</time>
      </trkpt>
      <trkpt lat="46.15813" lon="-1.1514">
        <ele>3</ele>
        <time>2023-07-15T09:42:51.781+00:00</time>
      </trkpt>
      <trkpt lat="46.15812" lon="-1.15133">
        <ele>3</ele>
        <time>2023-07-15T09:42:55.793+00:00</time>
      </trkpt>
      <trkpt lat="46.15811" lon="-1.15127">
        <ele>3</ele>
        <time>2023-07-15T09:43:00.308+00:00</time>
      </trkpt>
      <trkpt lat="46.15809" lon="-1.1512">
        <ele>1</ele>
        <time>2023-07-15T09:43:04.821+00:00</time>
      </trkpt>
      <trkpt lat="46.15808" lon="-1.15113">
        <ele>1</ele>
        <time>2023-07-15T09:43:08.933+00:00</time>
      </trkpt>
      <trkpt lat="46.15807" lon="-1.15107">
        <ele>1</ele>
        <time>2023-07-15T09:43:12.945+00:00</time>
      </trkpt>
      <trkpt lat="46.15806" lon="-1.15102">
        <ele>1</ele>
        <time>2023-07-15T09:43:17.559+00:00</time>
      </trkpt>
      <trkpt lat="46.15805" lon="-1.15097">
        <ele>2</ele>
        <time>2023-07-15T09:43:21.570+00:00</time>
      </trkpt>
      <trkpt lat="46.15802" lon="-1.1509">
        <ele>2</ele>
        <time>2023-07-15T09:43:26.083+00:00</time>
      </trkpt>
      <trkpt lat="46.158" lon="-1.15084">
        <ele>2</ele>
        <time>2023-07-15T09:43:30.094+00:00</time>
      </trkpt>
      <trkpt lat="46.15798" lon="-1.15082">
        <ele>2</ele>
        <time>2023-07-15T09:43:34.707+00:00</time>
      </trkpt>
      <trkpt lat="46.15798" lon="-1.15083">
        <ele>2</ele>
        <time>2023-07-15T09:43:38.717+00:00</time>
      </trkpt>
      <trkpt lat="46.15796" lon="-1.1508">
        <ele>2</ele>
        <time>2023-07-15T09:43:42.829+00:00</time>
      </trkpt>
      <trkpt lat="46.15788" lon="-1.15079">
        <ele>2</ele>
        <time>2023-07-15T09:43:46.845+00:00</time>
      </trkpt>
      <trkpt lat="46.15783" lon="-1.1508">
        <ele>2</ele>
        <time>2023-07-15T09:43:50.858+00:00</time>
      </trkpt>
      <trkpt lat="46.15779" lon="-1.15082">
        <ele>2</ele>
        <time>2023-07-15T09:43:55.374+00:00</time>
      </trkpt>
      <trkpt lat="46.15778" lon="-1.15087">
        <ele>2</ele>
        <time>2023-07-15T09:43:59.386+00:00</time>
      </trkpt>
      <trkpt lat="46.15774" lon="-1.15087">
        <ele>2</ele>
        <time>2023-07-15T09:44:03.401+00:00</time>
      </trkpt>
      <trkpt lat="46.1577" lon="-1.15088">
        <ele>2</ele>
        <time>2023-07-15T09:44:07.918+00:00</time>
      </trkpt>
      <trkpt lat="46.15765" lon="-1.15092">
        <ele>2</ele>
        <time>2023-07-15T09:44:12.435+00:00</time>
      </trkpt>
      <trkpt lat="46.15763" lon="-1.15097">
        <ele>3</ele>
        <time>2023-07-15T09:44:16.951+00:00</time>
      </trkpt>
      <trkpt lat="46.15757" lon="-1.15102">
        <ele>2</ele>
        <time>2023-07-15T09:44:21.968+00:00</time>
      </trkpt>
      <trkpt lat="46.15753" lon="-1.15105">
        <ele>2</ele>
        <time>2023-07-15T09:44:26.987+00:00</time>
      </trkpt>
      <trkpt lat="46.15748" lon="-1.15108">
        <ele>2</ele>
        <time>2023-07-15T09:44:32.003+00:00</time>
      </trkpt>
      <trkpt lat="46.15743" lon="-1.15112">
        <ele>2</ele>
        <time>2023-07-15T09:44:36.015+00:00</time>
      </trkpt>
      <trkpt lat="46.15741" lon="-1.15113">
        <ele>2</ele>
        <time>2023-07-15T09:44:41.024+00:00</time>
      </trkpt>
      <trkpt lat="46.15741" lon="-1.15111">
        <ele>2</ele>
        <time>2023-07-15T09:44:45.534+00:00</time>
      </trkpt>
      <trkpt lat="46.15739" lon="-1.15111">
        <ele>2</ele>
        <time>2023-07-15T09:44:50.053+00:00</time>
      </trkpt>
      <trkpt lat="46.15734" lon="-1.15121">
        <ele>2</ele>
        <time>2023-07-15T09:44:54.572+00:00</time>
      </trkpt>
      <trkpt lat="46.15731" lon="-1.15129">
        <ele>2</ele>
        <time>2023-07-15T09:44:58.603+00:00</time>
      </trkpt>
      <trkpt lat="46.15732" lon="-1.1513">
        <ele>2</ele>
        <time>2023-07-15T09:45:03.120+00:00</time>
      </trkpt>
      <trkpt lat="46.15732" lon="-1.1513">
        <ele>2</ele>
        <time>2023-07-15T09:45:07.133+00:00</time>
      </trkpt>
      <trkpt lat="46.15732" lon="-1.15131">
        <ele>2</ele>
        <time>2023-07-15T09:45:12.150+00:00</time>
      </trkpt>
      <trkpt lat="46.15726" lon="-1.15131">
        <ele>2</ele>
        <time>2023-07-15T09:45:17.167+00:00</time>
      </trkpt>
      <trkpt lat="46.1572" lon="-1.15133">
        <ele>2</ele>
        <time>2023-07-15T09:45:22.186+00:00</time>
      </trkpt>
      <trkpt lat="46.15715" lon="-1.15139">
        <ele>2</ele>
        <time>2023-07-15T09:45:27.215+00:00</time>
      </trkpt>
      <trkpt lat="46.1571" lon="-1.15147">
        <ele>2</ele>
        <time>2023-07-15T09:45:31.217+00:00</time>
      </trkpt>
      <trkpt lat="46.15705" lon="-1.15153">
        <ele>1</ele>
        <time>2023-07-15T09:45:35.329+00:00</time>
      </trkpt>
      <trkpt lat="46.15699" lon="-1.15158">
        <ele>1</ele>
        <time>2023-07-15T09:45:39.841+00:00</time>
      </trkpt>
      <trkpt lat="46.15694" lon="-1.15163">
        <ele>1</ele>
        <time>2023-07-15T09:45:44.354+00:00</time>
      </trkpt>
      <trkpt lat="46.15691" lon="-1.15165">
        <ele>1</ele>
        <time>2023-07-15T09:45:48.865+00:00</time>
      </trkpt>
      <trkpt lat="46.15687" lon="-1.15164">
        <ele>1</ele>
        <time>2023-07-15T09:45:53.896+00:00</time>
      </trkpt>
      <trkpt lat="46.15687" lon="-1.15159">
        <ele>1</ele>
        <time>2023-07-15T09:45:57.907+00:00</time>
      </trkpt>
      <trkpt lat="46.15684" lon="-1.15161">
        <ele>1</ele>
        <time>2023-07-15T09:46:02.420+00:00</time>
      </trkpt>
      <trkpt lat="46.15679" lon="-1.15166">
        <ele>1</ele>
        <time>2023-07-15T09:46:06.949+00:00</time>
      </trkpt>
      <trkpt lat="46.15675" lon="-1.15172">
        <ele>1</ele>
        <time>2023-07-15T09:46:10.963+00:00</time>
      </trkpt>
      <trkpt lat="46.15671" lon="-1.15175">
        <ele>1</ele>
        <time>2023-07-15T09:46:15.979+00:00</time>
      </trkpt>
      <trkpt lat="46.15667" lon="-1.15179">
        <ele>1</ele>
        <time>2023-07-15T09:46:20.994+00:00</time>
      </trkpt>
      <trkpt lat="46.15662" lon="-1.15182">
        <ele>1</ele>
        <time>2023-07-15T09:46:25.507+00:00</time>
      </trkpt>
      <trkpt lat="46.15658" lon="-1.15185">
        <ele>1</ele>
        <time>2023-07-15T09:46:30.020+00:00</time>
      </trkpt>
      <trkpt lat="46.15654" lon="-1.15186">
        <ele>1</ele>
        <time>2023-07-15T09:46:34.033+00:00</time>
      </trkpt>
      <trkpt lat="46.15653" lon="-1.15188">
        <ele>1.6</ele>
        <time>2023-07-15T09:46:38.548+00:00</time>
      </trkpt>
      <trkpt lat="46.15651" lon="-1.15187">
        <ele>1.6</ele>
        <time>2023-07-15T09:46:43.061+00:00</time>
      </trkpt>
      <trkpt lat="46.15646" lon="-1.15184">
        <ele>1.4</ele>
        <time>2023-07-15T09:46:48.077+00:00</time>
      </trkpt>
      <trkpt lat="46.15642" lon="-1.15183">
        <ele>1.1</ele>
        <time>2023-07-15T09:46:52.592+00:00</time>
      </trkpt>
      <trkpt lat="46.15636" lon="-1.15182">
        <ele>1.2</ele>
        <time>2023-07-15T09:46:56.605+00:00</time>
      </trkpt>
      <trkpt lat="46.15631" lon="-1.15182">
        <ele>1.7</ele>
        <time>2023-07-15T09:47:01.134+00:00</time>
      </trkpt>
      <trkpt lat="46.15627" lon="-1.15186">
        <ele>2.1</ele>
        <time>2023-07-15T09:47:05.663+00:00</time>
      </trkpt>
      <trkpt lat="46.15626" lon="-1.15191">
        <ele>2.4</ele>
        <time>2023-07-15T09:47:10.176+00:00</time>
      </trkpt>
      <trkpt lat="46.15627" lon="-1.15195">
        <ele>2.3</ele>
        <time>2023-07-15T09:47:14.687+00:00</time>
      </trkpt>
      <trkpt lat="46.15628" lon="-1.15201">
        <ele>2.6</ele>
        <time>2023-07-15T09:47:19.201+00:00</time>
      </trkpt>
      <trkpt lat="46.15626" lon="-1.15208">
        <ele>3.1</ele>
        <time>2023-07-15T09:47:23.213+00:00</time>
      </trkpt>
      <trkpt lat="46.15625" lon="-1.15215">
        <ele>-1</ele>
        <time>2023-07-15T09:48:04.766+00:00</time>
      </trkpt>
      <trkpt lat="46.15624" lon="-1.15222">
        <ele>-1</ele>
        <time>2023-07-15T09:48:09.186+00:00</time>
      </trkpt>
      <trkpt lat="46.15623" lon="-1.1523">
        <ele>-1</ele>
        <time>2023-07-15T09:48:14.246+00:00</time>
      </trkpt>
      <trkpt lat="46.15621" lon="-1.15235">
        <ele>-1</ele>
        <time>2023-07-15T09:48:18.844+00:00</time>
      </trkpt>
      <trkpt lat="46.15617" lon="-1.15239">
        <ele>-2</ele>
        <time>2023-07-15T09:48:23.961+00:00</time>
      </trkpt>
      <trkpt lat="46.15613" lon="-1.15244">
        <ele>-2</ele>
        <time>2023-07-15T09:48:28.038+00:00</time>
      </trkpt>
      <trkpt lat="46.15612" lon="-1.15245">
        <ele>-2</ele>
        <time>2023-07-15T09:48:32.235+00:00</time>
      </trkpt>
      <trkpt lat="46.15606" lon="-1.15245">
        <ele>-2</ele>
        <time>2023-07-15T09:48:36.791+00:00</time>
      </trkpt>
      <trkpt lat="46.15606" lon="-1.15246">
        <ele>-2</ele>
        <time>2023-07-15T09:48:38.589+00:00</time>
      </trkpt>
      <trkpt lat="46.15602" lon="-1.1525">
        <ele>-2</ele>
        <time>2023-07-15T09:48:45.669+00:00</time>
      </trkpt>
      <trkpt lat="46.15598" lon="-1.15258">
        <ele>-2</ele>
        <time>2023-07-15T09:48:50.228+00:00</time>
      </trkpt>
      <trkpt lat="46.15598" lon="-1.15258">
        <ele>-2</ele>
        <time>2023-07-15T09:48:54.790+00:00</time>
      </trkpt>
      <trkpt lat="46.15596" lon="-1.15261">
        <ele>3.5</ele>
        <time>2023-07-15T09:49:01.350+00:00</time>
      </trkpt>
      <trkpt lat="46.15591" lon="-1.15264">
        <ele>3.7</ele>
        <time>2023-07-15T09:49:05.875+00:00</time>
      </trkpt>
      <trkpt lat="46.15586" lon="-1.15271">
        <ele>4</ele>
        <time>2023-07-15T09:49:09.887+00:00</time>
      </trkpt>
      <trkpt lat="46.15582" lon="-1.15277">
        <ele>4</ele>
        <time>2023-07-15T09:49:13.894+00:00</time>
      </trkpt>
      <trkpt lat="46.15579" lon="-1.15282">
        <ele>4</ele>
        <time>2023-07-15T09:49:18.923+00:00</time>
      </trkpt>
      <trkpt lat="46.15578" lon="-1.15289">
        <ele>4</ele>
        <time>2023-07-15T09:49:23.928+00:00</time>
      </trkpt>
      <trkpt lat="46.15576" lon="-1.15291">
        <ele>4</ele>
        <time>2023-07-15T09:49:27.932+00:00</time>
      </trkpt>
      <trkpt lat="46.15573" lon="-1.15292">
        <ele>4</ele>
        <time>2023-07-15T09:49:32.935+00:00</time>
      </trkpt>
      <trkpt lat="46.15573" lon="-1.15295">
        <ele>4</ele>
        <time>2023-07-15T09:49:36.855+00:00</time>
      </trkpt>
      <trkpt lat="46.15574" lon="-1.153">
        <ele>4</ele>
        <time>2023-07-15T09:50:15.072+00:00</time>
      </trkpt>
      <trkpt lat="46.15573" lon="-1.15304">
        <ele>4</ele>
        <time>2023-07-15T09:50:19.084+00:00</time>
      </trkpt>
      <trkpt lat="46.15574" lon="-1.15309">
        <ele>3.8</ele>
        <time>2023-07-15T09:50:23.697+00:00</time>
      </trkpt>
      <trkpt lat="46.15578" lon="-1.15322">
        <ele>3.2</ele>
        <time>2023-07-15T09:50:28.209+00:00</time>
      </trkpt>
      <trkpt lat="46.15578" lon="-1.15324">
        <ele>3.1</ele>
        <time>2023-07-15T09:50:32.221+00:00</time>
      </trkpt>
      <trkpt lat="46.15578" lon="-1.15324">
        <ele>3.1</ele>
        <time>2023-07-15T09:50:54.395+00:00</time>
      </trkpt>
      <trkpt lat="46.15581" lon="-1.15326">
        <ele>3.1</ele>
        <time>2023-07-15T09:50:58.907+00:00</time>
      </trkpt>
      <trkpt lat="46.15581" lon="-1.15327">
        <ele>3.1</ele>
        <time>2023-07-15T09:51:02.920+00:00</time>
      </trkpt>
      <trkpt lat="46.15581" lon="-1.15327">
        <ele>3.1</ele>
        <time>2023-07-15T09:51:07.215+00:00</time>
      </trkpt>
      <trkpt lat="46.15581" lon="-1.15326">
        <ele>3.2</ele>
        <time>2023-07-15T09:51:11.215+00:00</time>
      </trkpt>
      <trkpt lat="46.15582" lon="-1.15333">
        <ele>2.9</ele>
        <time>2023-07-15T09:52:21.306+00:00</time>
      </trkpt>
      <trkpt lat="46.15577" lon="-1.15342">
        <ele>2.56</ele>
        <time>2023-07-15T09:52:26.316+00:00</time>
      </trkpt>
      <trkpt lat="46.15576" lon="-1.15343">
        <ele>2.5</ele>
        <time>2023-07-15T09:52:31.710+00:00</time>
      </trkpt>
      <trkpt lat="46.15574" lon="-1.15334">
        <ele>2.33</ele>
        <time>2023-07-15T09:52:36.715+00:00</time>
      </trkpt>
      <trkpt lat="46.15583" lon="-1.15337">
        <ele>2.96</ele>
        <time>2023-07-15T09:52:41.032+00:00</time>
      </trkpt>
      <trkpt lat="46.15586" lon="-1.15344">
        <ele>3</ele>
        <time>2023-07-15T09:56:10.792+00:00</time>
      </trkpt>
      <trkpt lat="46.15602" lon="-1.154">
        <ele>2.6</ele>
        <time>2023-07-15T09:56:14.817+00:00</time>
      </trkpt>
      <trkpt lat="46.15617" lon="-1.15475">
        <ele>7</ele>
        <time>2023-07-15T09:56:19.430+00:00</time>
      </trkpt>
      <trkpt lat="46.15613" lon="-1.15491">
        <ele>9</ele>
        <time>2023-07-15T09:56:24.203+00:00</time>
      </trkpt>
      <trkpt lat="46.15602" lon="-1.1547">
        <ele>7</ele>
        <time>2023-07-15T09:56:28.197+00:00</time>
      </trkpt>
      <trkpt lat="46.15589" lon="-1.15462">
        <ele>6</ele>
        <time>2023-07-15T09:56:32.196+00:00</time>
      </trkpt>
      <trkpt lat="46.15583" lon="-1.1544">
        <ele>3</ele>
        <time>2023-07-15T09:56:37.195+00:00</time>
      </trkpt>
      <trkpt lat="46.15582" lon="-1.15434">
        <ele>3</ele>
        <time>2023-07-15T09:56:42.202+00:00</time>
      </trkpt>
      <trkpt lat="46.15558" lon="-1.15482">
        <ele>2</ele>
        <time>2023-07-15T09:56:47.203+00:00</time>
      </trkpt>
      <trkpt lat="46.15548" lon="-1.15523">
        <ele>5</ele>
        <time>2023-07-15T09:57:22.195+00:00</time>
      </trkpt>
      <trkpt lat="46.15577" lon="-1.15324">
        <ele>3</ele>
        <time>2023-07-15T09:57:27.194+00:00</time>
      </trkpt>
      <trkpt lat="46.15578" lon="-1.15323">
        <ele>3.1</ele>
        <time>2023-07-15T09:57:32.192+00:00</time>
      </trkpt>
      <trkpt lat="46.1558" lon="-1.15323">
        <ele>3.2</ele>
        <time>2023-07-15T09:57:57.209+00:00</time>
      </trkpt>
      <trkpt lat="46.1558" lon="-1.15323">
        <ele>3.2</ele>
        <time>2023-07-15T09:58:01.762+00:00</time>
      </trkpt>
      <trkpt lat="46.15582" lon="-1.15324">
        <ele>3.3</ele>
        <time>2023-07-15T09:58:29.860+00:00</time>
      </trkpt>
      <trkpt lat="46.15586" lon="-1.15325">
        <ele>3.3</ele>
        <time>2023-07-15T09:58:33.870+00:00</time>
      </trkpt>
      <trkpt lat="46.15587" lon="-1.15328">
        <ele>3.2</ele>
        <time>2023-07-15T09:58:38.375+00:00</time>
      </trkpt>
      <trkpt lat="46.15583" lon="-1.15343">
        <ele>2.97</ele>
        <time>2023-07-15T09:58:42.879+00:00</time>
      </trkpt>
      <trkpt lat="46.15582" lon="-1.15342">
        <ele>2.87</ele>
        <time>2023-07-15T09:58:46.883+00:00</time>
      </trkpt>
      <trkpt lat="46.1558" lon="-1.15344">
        <ele>2.77</ele>
        <time>2023-07-15T09:59:51.214+00:00</time>
      </trkpt>
      <trkpt lat="46.1558" lon="-1.15345">
        <ele>2.75</ele>
        <time>2023-07-15T09:59:56.218+00:00</time>
      </trkpt>
      <trkpt lat="46.1558" lon="-1.15346">
        <ele>2.75</ele>
        <time>2023-07-15T10:00:01.211+00:00</time>
      </trkpt>
      <trkpt lat="46.1558" lon="-1.15346">
        <ele>2.77</ele>
        <time>2023-07-15T10:00:06.235+00:00</time>
      </trkpt>
      <trkpt lat="46.1558" lon="-1.15344">
        <ele>2.77</ele>
        <time>2023-07-15T10:00:11.216+00:00</time>
      </trkpt>
      <trkpt lat="46.15585" lon="-1.15342">
        <ele>3</ele>
        <time>2023-07-15T10:00:16.212+00:00</time>
      </trkpt>
      <trkpt lat="46.15585" lon="-1.15338">
        <ele>3</ele>
        <time>2023-07-15T10:00:21.217+00:00</time>
      </trkpt>
      <trkpt lat="46.15586" lon="-1.15335">
        <ele>3</ele>
        <time>2023-07-15T10:00:25.229+00:00</time>
      </trkpt>
      <trkpt lat="46.15587" lon="-1.15337">
        <ele>3</ele>
        <time>2023-07-15T10:00:29.899+00:00</time>
      </trkpt>
      <trkpt lat="46.15587" lon="-1.15341">
        <ele>3</ele>
        <time>2023-07-15T10:00:33.918+00:00</time>
      </trkpt>
      <trkpt lat="46.15582" lon="-1.15344">
        <ele>2.92</ele>
        <time>2023-07-15T10:00:38.940+00:00</time>
      </trkpt>
      <trkpt lat="46.1558" lon="-1.15347">
        <ele>2.75</ele>
        <time>2023-07-15T10:00:43.459+00:00</time>
      </trkpt>
      <trkpt lat="46.1558" lon="-1.1535">
        <ele>2.78</ele>
        <time>2023-07-15T10:00:47.974+00:00</time>
      </trkpt>
      <trkpt lat="46.1558" lon="-1.15349">
        <ele>2.77</ele>
        <time>2023-07-15T10:00:51.991+00:00</time>
      </trkpt>
      <trkpt lat="46.15582" lon="-1.1534">
        <ele>2.91</ele>
        <time>2023-07-15T10:00:56.500+00:00</time>
      </trkpt>
      <trkpt lat="46.15577" lon="-1.15333">
        <ele>2.57</ele>
        <time>2023-07-15T10:01:01.010+00:00</time>
      </trkpt>
      <trkpt lat="46.15579" lon="-1.1534">
        <ele>2.66</ele>
        <time>2023-07-15T10:01:05.016+00:00</time>
      </trkpt>
      <trkpt lat="46.15581" lon="-1.15341">
        <ele>2.8</ele>
        <time>2023-07-15T10:01:09.021+00:00</time>
      </trkpt>
      <trkpt lat="46.15581" lon="-1.15342">
        <ele>2.82</ele>
        <time>2023-07-15T10:02:57.222+00:00</time>
      </trkpt>
      <trkpt lat="46.15582" lon="-1.15342">
        <ele>2.87</ele>
        <time>2023-07-15T10:03:01.231+00:00</time>
      </trkpt>
      <trkpt lat="46.1558" lon="-1.15346">
        <ele>2.76</ele>
        <time>2023-07-15T10:03:04.913+00:00</time>
      </trkpt>
      <trkpt lat="46.15577" lon="-1.15363">
        <ele>2</ele>
        <time>2023-07-15T10:03:09.941+00:00</time>
      </trkpt>
      <trkpt lat="46.15564" lon="-1.15347">
        <ele>3</ele>
        <time>2023-07-15T10:03:13.950+00:00</time>
      </trkpt>
      <trkpt lat="46.15555" lon="-1.15342">
        <ele>3</ele>
        <time>2023-07-15T10:12:50.021+00:00</time>
      </trkpt>
      <trkpt lat="46.15549" lon="-1.15342">
        <ele>3</ele>
        <time>2023-07-15T10:12:53.919+00:00</time>
      </trkpt>
      <trkpt lat="46.15545" lon="-1.15344">
        <ele>3</ele>
        <time>2023-07-15T10:12:59.016+00:00</time>
      </trkpt>
      <trkpt lat="46.15539" lon="-1.15343">
        <ele>3</ele>
        <time>2023-07-15T10:13:03.203+00:00</time>
      </trkpt>
      <trkpt lat="46.15551" lon="-1.15308">
        <ele>2</ele>
        <time>2023-07-15T10:13:07.389+00:00</time>
      </trkpt>
      <trkpt lat="46.15566" lon="-1.15266">
        <ele>1</ele>
        <time>2023-07-15T10:13:12.026+00:00</time>
      </trkpt>
      <trkpt lat="46.15614" lon="-1.15158">
        <ele>-1</ele>
        <time>2023-07-15T10:13:17.203+00:00</time>
      </trkpt>
      <trkpt lat="46.15602" lon="-1.15277">
        <ele>-1</ele>
        <time>2023-07-15T10:13:22.206+00:00</time>
      </trkpt>
      <trkpt lat="46.15584" lon="-1.15329">
        <ele>3.2</ele>
        <time>2023-07-15T10:13:50.995+00:00</time>
      </trkpt>
      <trkpt lat="46.1558" lon="-1.15343">
        <ele>2.78</ele>
        <time>2023-07-15T10:14:16.084+00:00</time>
      </trkpt>
      <trkpt lat="46.15578" lon="-1.15344">
        <ele>2.64</ele>
        <time>2023-07-15T10:14:21.110+00:00</time>
      </trkpt>
      <trkpt lat="46.15576" lon="-1.1534">
        <ele>2.49</ele>
        <time>2023-07-15T10:14:25.708+00:00</time>
      </trkpt>
      <trkpt lat="46.15574" lon="-1.15335">
        <ele>2.36</ele>
        <time>2023-07-15T10:14:29.903+00:00</time>
      </trkpt>
      <trkpt lat="46.15573" lon="-1.15331">
        <ele>2.4</ele>
        <time>2023-07-15T10:14:34.502+00:00</time>
      </trkpt>
      <trkpt lat="46.15574" lon="-1.15326">
        <ele>2.8</ele>
        <time>2023-07-15T10:14:39.223+00:00</time>
      </trkpt>
      <trkpt lat="46.15578" lon="-1.15318">
        <ele>3.4</ele>
        <time>2023-07-15T10:14:43.762+00:00</time>
      </trkpt>
      <trkpt lat="46.15579" lon="-1.15307">
        <ele>4</ele>
        <time>2023-07-15T10:14:47.899+00:00</time>
      </trkpt>
      <trkpt lat="46.15578" lon="-1.153">
        <ele>4</ele>
        <time>2023-07-15T10:14:51.958+00:00</time>
      </trkpt>
      <trkpt lat="46.15577" lon="-1.15296">
        <ele>4</ele>
        <time>2023-07-15T10:14:56.357+00:00</time>
      </trkpt>
      <trkpt lat="46.15579" lon="-1.15293">
        <ele>4</ele>
        <time>2023-07-15T10:15:01.113+00:00</time>
      </trkpt>
      <trkpt lat="46.15579" lon="-1.15292">
        <ele>4</ele>
        <time>2023-07-15T10:15:05.189+00:00</time>
      </trkpt>
      <trkpt lat="46.15581" lon="-1.1529">
        <ele>4</ele>
        <time>2023-07-15T10:15:19.716+00:00</time>
      </trkpt>
      <trkpt lat="46.15583" lon="-1.15288">
        <ele>4</ele>
        <time>2023-07-15T10:15:24.283+00:00</time>
      </trkpt>
      <trkpt lat="46.15585" lon="-1.15286">
        <ele>4</ele>
        <time>2023-07-15T10:15:28.782+00:00</time>
      </trkpt>
      <trkpt lat="46.15581" lon="-1.15278">
        <ele>4</ele>
        <time>2023-07-15T10:15:33.387+00:00</time>
      </trkpt>
      <trkpt lat="46.15577" lon="-1.15281">
        <ele>4</ele>
        <time>2023-07-15T10:15:37.380+00:00</time>
      </trkpt>
      <trkpt lat="46.15576" lon="-1.1528">
        <ele>4</ele>
        <time>2023-07-15T10:15:50.616+00:00</time>
      </trkpt>
      <trkpt lat="46.15576" lon="-1.1528">
        <ele>4</ele>
        <time>2023-07-15T10:15:54.956+00:00</time>
      </trkpt>
      <trkpt lat="46.15573" lon="-1.1528">
        <ele>4</ele>
        <time>2023-07-15T10:15:59.387+00:00</time>
      </trkpt>
      <trkpt lat="46.15566" lon="-1.15282">
        <ele>1</ele>
        <time>2023-07-15T10:16:03.335+00:00</time>
      </trkpt>
      <trkpt lat="46.15566" lon="-1.15283">
        <ele>1</ele>
        <time>2023-07-15T10:16:07.933+00:00</time>
      </trkpt>
      <trkpt lat="46.15574" lon="-1.15279">
        <ele>4</ele>
        <time>2023-07-15T10:16:29.362+00:00</time>
      </trkpt>
      <trkpt lat="46.15577" lon="-1.15274">
        <ele>4</ele>
        <time>2023-07-15T10:16:33.871+00:00</time>
      </trkpt>
      <trkpt lat="46.1558" lon="-1.15273">
        <ele>4</ele>
        <time>2023-07-15T10:16:37.932+00:00</time>
      </trkpt>
      <trkpt lat="46.15582" lon="-1.15269">
        <ele>4</ele>
        <time>2023-07-15T10:16:42.272+00:00</time>
      </trkpt>
      <trkpt lat="46.15586" lon="-1.15263">
        <ele>3.9</ele>
        <time>2023-07-15T10:16:46.573+00:00</time>
      </trkpt>
      <trkpt lat="46.15588" lon="-1.15256">
        <ele>3.7</ele>
        <time>2023-07-15T10:16:50.794+00:00</time>
      </trkpt>
      <trkpt lat="46.15594" lon="-1.15253">
        <ele>3.3</ele>
        <time>2023-07-15T10:16:55.515+00:00</time>
      </trkpt>
      <trkpt lat="46.15597" lon="-1.15248">
        <ele>3.1</ele>
        <time>2023-07-15T10:16:59.896+00:00</time>
      </trkpt>
      <trkpt lat="46.156" lon="-1.15244">
        <ele>-2</ele>
        <time>2023-07-15T10:17:04.928+00:00</time>
      </trkpt>
      <trkpt lat="46.15603" lon="-1.1524">
        <ele>-2</ele>
        <time>2023-07-15T10:17:08.814+00:00</time>
      </trkpt>
      <trkpt lat="46.15601" lon="-1.15236">
        <ele>-1</ele>
        <time>2023-07-15T10:17:12.771+00:00</time>
      </trkpt>
      <trkpt lat="46.15606" lon="-1.15234">
        <ele>-1</ele>
        <time>2023-07-15T10:17:17.131+00:00</time>
      </trkpt>
      <trkpt lat="46.1561" lon="-1.1523">
        <ele>-1</ele>
        <time>2023-07-15T10:17:21.602+00:00</time>
      </trkpt>
      <trkpt lat="46.15613" lon="-1.15224">
        <ele>-1</ele>
        <time>2023-07-15T10:17:25.678+00:00</time>
      </trkpt>
      <trkpt lat="46.15618" lon="-1.1522">
        <ele>-1</ele>
        <time>2023-07-15T10:17:30.270+00:00</time>
      </trkpt>
      <trkpt lat="46.15622" lon="-1.152">
        <ele>-1</ele>
        <time>2023-07-15T10:17:34.788+00:00</time>
      </trkpt>
      <trkpt lat="46.15626" lon="-1.15196">
        <ele>2.5</ele>
        <time>2023-07-15T10:17:39.583+00:00</time>
      </trkpt>
      <trkpt lat="46.15625" lon="-1.15184">
        <ele>2.3</ele>
        <time>2023-07-15T10:17:57.006+00:00</time>
      </trkpt>
      <trkpt lat="46.1563" lon="-1.15182">
        <ele>1.8</ele>
        <time>2023-07-15T10:18:00.901+00:00</time>
      </trkpt>
      <trkpt lat="46.15635" lon="-1.15183">
        <ele>1.4</ele>
        <time>2023-07-15T10:18:06.102+00:00</time>
      </trkpt>
      <trkpt lat="46.15638" lon="-1.15186">
        <ele>1.1</ele>
        <time>2023-07-15T10:18:10.196+00:00</time>
      </trkpt>
      <trkpt lat="46.1564" lon="-1.15186">
        <ele>1.1</ele>
        <time>2023-07-15T10:18:14.054+00:00</time>
      </trkpt>
      <trkpt lat="46.15643" lon="-1.15186">
        <ele>1.2</ele>
        <time>2023-07-15T10:18:18.729+00:00</time>
      </trkpt>
      <trkpt lat="46.15643" lon="-1.15179">
        <ele>1.2</ele>
        <time>2023-07-15T10:18:22.805+00:00</time>
      </trkpt>
      <trkpt lat="46.15651" lon="-1.15178">
        <ele>1.7</ele>
        <time>2023-07-15T10:18:26.999+00:00</time>
      </trkpt>
      <trkpt lat="46.15657" lon="-1.15176">
        <ele>1</ele>
        <time>2023-07-15T10:18:31.193+00:00</time>
      </trkpt>
      <trkpt lat="46.15665" lon="-1.15171">
        <ele>1</ele>
        <time>2023-07-15T10:18:35.768+00:00</time>
      </trkpt>
      <trkpt lat="46.1567" lon="-1.15169">
        <ele>1</ele>
        <time>2023-07-15T10:18:39.962+00:00</time>
      </trkpt>
      <trkpt lat="46.15675" lon="-1.15167">
        <ele>1</ele>
        <time>2023-07-15T10:18:44.755+00:00</time>
      </trkpt>
      <trkpt lat="46.15678" lon="-1.15162">
        <ele>1</ele>
        <time>2023-07-15T10:18:48.828+00:00</time>
      </trkpt>
      <trkpt lat="46.15682" lon="-1.15159">
        <ele>1</ele>
        <time>2023-07-15T10:18:52.781+00:00</time>
      </trkpt>
      <trkpt lat="46.15684" lon="-1.15156">
        <ele>1</ele>
        <time>2023-07-15T10:18:56.975+00:00</time>
      </trkpt>
      <trkpt lat="46.15685" lon="-1.15159">
        <ele>1</ele>
        <time>2023-07-15T10:19:01.168+00:00</time>
      </trkpt>
      <trkpt lat="46.15694" lon="-1.15154">
        <ele>1</ele>
        <time>2023-07-15T10:19:05.802+00:00</time>
      </trkpt>
      <trkpt lat="46.15707" lon="-1.15153">
        <ele>1</ele>
        <time>2023-07-15T10:19:10.577+00:00</time>
      </trkpt>
      <trkpt lat="46.15709" lon="-1.15148">
        <ele>2</ele>
        <time>2023-07-15T10:19:14.953+00:00</time>
      </trkpt>
      <trkpt lat="46.15716" lon="-1.1514">
        <ele>2</ele>
        <time>2023-07-15T10:19:37.424+00:00</time>
      </trkpt>
      <trkpt lat="46.15721" lon="-1.15134">
        <ele>2</ele>
        <time>2023-07-15T10:19:41.943+00:00</time>
      </trkpt>
      <trkpt lat="46.15725" lon="-1.15129">
        <ele>2</ele>
        <time>2023-07-15T10:19:45.948+00:00</time>
      </trkpt>
      <trkpt lat="46.15729" lon="-1.15125">
        <ele>2</ele>
        <time>2023-07-15T10:19:50.949+00:00</time>
      </trkpt>
      <trkpt lat="46.15734" lon="-1.1512">
        <ele>2</ele>
        <time>2023-07-15T10:19:54.809+00:00</time>
      </trkpt>
      <trkpt lat="46.15737" lon="-1.15118">
        <ele>2</ele>
        <time>2023-07-15T10:19:58.848+00:00</time>
      </trkpt>
      <trkpt lat="46.15741" lon="-1.15115">
        <ele>2</ele>
        <time>2023-07-15T10:20:03.149+00:00</time>
      </trkpt>
      <trkpt lat="46.15746" lon="-1.1511">
        <ele>2</ele>
        <time>2023-07-15T10:20:07.351+00:00</time>
      </trkpt>
      <trkpt lat="46.1575" lon="-1.15106">
        <ele>2</ele>
        <time>2023-07-15T10:20:11.528+00:00</time>
      </trkpt>
      <trkpt lat="46.15754" lon="-1.15101">
        <ele>2</ele>
        <time>2023-07-15T10:20:16.047+00:00</time>
      </trkpt>
      <trkpt lat="46.15758" lon="-1.15098">
        <ele>2</ele>
        <time>2023-07-15T10:20:20.081+00:00</time>
      </trkpt>
      <trkpt lat="46.15763" lon="-1.15094">
        <ele>3</ele>
        <time>2023-07-15T10:20:24.515+00:00</time>
      </trkpt>
      <trkpt lat="46.15767" lon="-1.15091">
        <ele>2</ele>
        <time>2023-07-15T10:20:28.588+00:00</time>
      </trkpt>
      <trkpt lat="46.1577" lon="-1.15088">
        <ele>2</ele>
        <time>2023-07-15T10:20:32.782+00:00</time>
      </trkpt>
      <trkpt lat="46.15774" lon="-1.15084">
        <ele>2</ele>
        <time>2023-07-15T10:20:36.976+00:00</time>
      </trkpt>
      <trkpt lat="46.15779" lon="-1.1508">
        <ele>2</ele>
        <time>2023-07-15T10:20:40.930+00:00</time>
      </trkpt>
      <trkpt lat="46.15783" lon="-1.15077">
        <ele>2</ele>
        <time>2023-07-15T10:20:45.004+00:00</time>
      </trkpt>
      <trkpt lat="46.15786" lon="-1.15074">
        <ele>2</ele>
        <time>2023-07-15T10:20:49.796+00:00</time>
      </trkpt>
      <trkpt lat="46.15789" lon="-1.15071">
        <ele>2</ele>
        <time>2023-07-15T10:20:53.951+00:00</time>
      </trkpt>
      <trkpt lat="46.15793" lon="-1.1507">
        <ele>2</ele>
        <time>2023-07-15T10:20:57.867+00:00</time>
      </trkpt>
      <trkpt lat="46.15797" lon="-1.15071">
        <ele>2</ele>
        <time>2023-07-15T10:21:02.387+00:00</time>
      </trkpt>
      <trkpt lat="46.15802" lon="-1.15077">
        <ele>2</ele>
        <time>2023-07-15T10:21:06.848+00:00</time>
      </trkpt>
      <trkpt lat="46.15804" lon="-1.15084">
        <ele>2</ele>
        <time>2023-07-15T10:21:10.768+00:00</time>
      </trkpt>
      <trkpt lat="46.15807" lon="-1.15091">
        <ele>2</ele>
        <time>2023-07-15T10:21:14.863+00:00</time>
      </trkpt>
      <trkpt lat="46.15808" lon="-1.15098">
        <ele>1</ele>
        <time>2023-07-15T10:21:19.387+00:00</time>
      </trkpt>
      <trkpt lat="46.1581" lon="-1.15103">
        <ele>1</ele>
        <time>2023-07-15T10:21:23.366+00:00</time>
      </trkpt>
      <trkpt lat="46.15813" lon="-1.15108">
        <ele>1</ele>
        <time>2023-07-15T10:21:28.038+00:00</time>
      </trkpt>
      <trkpt lat="46.15815" lon="-1.15112">
        <ele>1</ele>
        <time>2023-07-15T10:21:32.176+00:00</time>
      </trkpt>
      <trkpt lat="46.15814" lon="-1.1512">
        <ele>1</ele>
        <time>2023-07-15T10:21:36.850+00:00</time>
      </trkpt>
      <trkpt lat="46.15814" lon="-1.15127">
        <ele>3</ele>
        <time>2023-07-15T10:21:41.285+00:00</time>
      </trkpt>
      <trkpt lat="46.15814" lon="-1.15135">
        <ele>3</ele>
        <time>2023-07-15T10:21:45.359+00:00</time>
      </trkpt>
      <trkpt lat="46.15814" lon="-1.15141">
        <ele>3</ele>
        <time>2023-07-15T10:21:49.553+00:00</time>
      </trkpt>
      <trkpt lat="46.15815" lon="-1.15146">
        <ele>3</ele>
        <time>2023-07-15T10:21:54.106+00:00</time>
      </trkpt>
      <trkpt lat="46.15813" lon="-1.1515">
        <ele>3</ele>
        <time>2023-07-15T10:21:58.125+00:00</time>
      </trkpt>
      <trkpt lat="46.15813" lon="-1.15156">
        <ele>4</ele>
        <time>2023-07-15T10:22:02.763+00:00</time>
      </trkpt>
      <trkpt lat="46.15813" lon="-1.15161">
        <ele>4</ele>
        <time>2023-07-15T10:22:07.222+00:00</time>
      </trkpt>
      <trkpt lat="46.15814" lon="-1.15168">
        <ele>4</ele>
        <time>2023-07-15T10:22:11.207+00:00</time>
      </trkpt>
      <trkpt lat="46.15814" lon="-1.15175">
        <ele>4</ele>
        <time>2023-07-15T10:22:15.088+00:00</time>
      </trkpt>
      <trkpt lat="46.15814" lon="-1.15183">
        <ele>4</ele>
        <time>2023-07-15T10:22:19.463+00:00</time>
      </trkpt>
      <trkpt lat="46.15814" lon="-1.15189">
        <ele>4</ele>
        <time>2023-07-15T10:22:23.609+00:00</time>
      </trkpt>
      <trkpt lat="46.15814" lon="-1.15196">
        <ele>4</ele>
        <time>2023-07-15T10:22:27.789+00:00</time>
      </trkpt>
      <trkpt lat="46.15814" lon="-1.15201">
        <ele>4</ele>
        <time>2023-07-15T10:22:31.924+00:00</time>
      </trkpt>
      <trkpt lat="46.15814" lon="-1.15208">
        <ele>4</ele>
        <time>2023-07-15T10:22:35.998+00:00</time>
      </trkpt>
      <trkpt lat="46.15813" lon="-1.15214">
        <ele>4</ele>
        <time>2023-07-15T10:22:40.192+00:00</time>
      </trkpt>
      <trkpt lat="46.15812" lon="-1.15221">
        <ele>4</ele>
        <time>2023-07-15T10:22:44.387+00:00</time>
      </trkpt>
      <trkpt lat="46.15812" lon="-1.15227">
        <ele>4</ele>
        <time>2023-07-15T10:22:48.582+00:00</time>
      </trkpt>
      <trkpt lat="46.15812" lon="-1.15234">
        <ele>4</ele>
        <time>2023-07-15T10:22:52.774+00:00</time>
      </trkpt>
      <trkpt lat="46.15812" lon="-1.1524">
        <ele>4</ele>
        <time>2023-07-15T10:22:56.969+00:00</time>
      </trkpt>
      <trkpt lat="46.15812" lon="-1.15246">
        <ele>4</ele>
        <time>2023-07-15T10:23:01.760+00:00</time>
      </trkpt>
      <trkpt lat="46.15811" lon="-1.15253">
        <ele>4</ele>
        <time>2023-07-15T10:23:05.952+00:00</time>
      </trkpt>
      <trkpt lat="46.15811" lon="-1.1526">
        <ele>4</ele>
        <time>2023-07-15T10:23:10.462+00:00</time>
      </trkpt>
      <trkpt lat="46.15811" lon="-1.15266">
        <ele>5</ele>
        <time>2023-07-15T10:23:14.534+00:00</time>
      </trkpt>
      <trkpt lat="46.15811" lon="-1.15271">
        <ele>5</ele>
        <time>2023-07-15T10:23:18.567+00:00</time>
      </trkpt>
      <trkpt lat="46.15809" lon="-1.15276">
        <ele>5</ele>
        <time>2023-07-15T10:23:23.227+00:00</time>
      </trkpt>
      <trkpt lat="46.15808" lon="-1.15282">
        <ele>5</ele>
        <time>2023-07-15T10:23:27.236+00:00</time>
      </trkpt>
      <trkpt lat="46.15805" lon="-1.15289">
        <ele>5</ele>
        <time>2023-07-15T10:23:31.386+00:00</time>
      </trkpt>
      <trkpt lat="46.15802" lon="-1.15293">
        <ele>5</ele>
        <time>2023-07-15T10:23:35.937+00:00</time>
      </trkpt>
      <trkpt lat="46.15799" lon="-1.15297">
        <ele>5</ele>
        <time>2023-07-15T10:23:39.889+00:00</time>
      </trkpt>
      <trkpt lat="46.15796" lon="-1.15299">
        <ele>5</ele>
        <time>2023-07-15T10:23:44.559+00:00</time>
      </trkpt>
      <trkpt lat="46.15793" lon="-1.15302">
        <ele>5</ele>
        <time>2023-07-15T10:23:48.750+00:00</time>
      </trkpt>
      <trkpt lat="46.15791" lon="-1.15304">
        <ele>3</ele>
        <time>2023-07-15T10:23:53.164+00:00</time>
      </trkpt>
      <trkpt lat="46.15785" lon="-1.15306">
        <ele>3</ele>
        <time>2023-07-15T10:23:57.133+00:00</time>
      </trkpt>
      <trkpt lat="46.1578" lon="-1.15308">
        <ele>3</ele>
        <time>2023-07-15T10:24:01.204+00:00</time>
      </trkpt>
      <trkpt lat="46.15775" lon="-1.15313">
        <ele>3</ele>
        <time>2023-07-15T10:24:05.387+00:00</time>
      </trkpt>
      <trkpt lat="46.15771" lon="-1.15318">
        <ele>3</ele>
        <time>2023-07-15T10:24:09.586+00:00</time>
      </trkpt>
      <trkpt lat="46.15767" lon="-1.15323">
        <ele>5</ele>
        <time>2023-07-15T10:24:13.775+00:00</time>
      </trkpt>
      <trkpt lat="46.15764" lon="-1.15328">
        <ele>5</ele>
        <time>2023-07-15T10:24:18.565+00:00</time>
      </trkpt>
      <trkpt lat="46.15761" lon="-1.15333">
        <ele>4</ele>
        <time>2023-07-15T10:24:23.226+00:00</time>
      </trkpt>
      <trkpt lat="46.15757" lon="-1.15337">
        <ele>4</ele>
        <time>2023-07-15T10:24:27.188+00:00</time>
      </trkpt>
      <trkpt lat="46.15754" lon="-1.1534">
        <ele>4</ele>
        <time>2023-07-15T10:24:31.738+00:00</time>
      </trkpt>
      <trkpt lat="46.1575" lon="-1.15342">
        <ele>4</ele>
        <time>2023-07-15T10:24:36.387+00:00</time>
      </trkpt>
      <trkpt lat="46.15747" lon="-1.15344">
        <ele>4</ele>
        <time>2023-07-15T10:24:40.387+00:00</time>
      </trkpt>
      <trkpt lat="46.15743" lon="-1.15346">
        <ele>4</ele>
        <time>2023-07-15T10:24:44.872+00:00</time>
      </trkpt>
      <trkpt lat="46.1574" lon="-1.1535">
        <ele>7</ele>
        <time>2023-07-15T10:24:48.823+00:00</time>
      </trkpt>
      <trkpt lat="46.15736" lon="-1.15352">
        <ele>7</ele>
        <time>2023-07-15T10:24:53.285+00:00</time>
      </trkpt>
      <trkpt lat="46.15732" lon="-1.15354">
        <ele>5</ele>
        <time>2023-07-15T10:24:57.803+00:00</time>
      </trkpt>
      <trkpt lat="46.15729" lon="-1.15357">
        <ele>5</ele>
        <time>2023-07-15T10:25:02.455+00:00</time>
      </trkpt>
      <trkpt lat="46.15725" lon="-1.15359">
        <ele>5</ele>
        <time>2023-07-15T10:25:06.527+00:00</time>
      </trkpt>
      <trkpt lat="46.15722" lon="-1.15361">
        <ele>5</ele>
        <time>2023-07-15T10:25:10.599+00:00</time>
      </trkpt>
      <trkpt lat="46.15716" lon="-1.15363">
        <ele>5</ele>
        <time>2023-07-15T10:25:15.151+00:00</time>
      </trkpt>
      <trkpt lat="46.15712" lon="-1.1536">
        <ele>5</ele>
        <time>2023-07-15T10:25:19.581+00:00</time>
      </trkpt>
      <trkpt lat="46.15712" lon="-1.15364">
        <ele>5</ele>
        <time>2023-07-15T10:25:24.971+00:00</time>
      </trkpt>
      <trkpt lat="46.15709" lon="-1.15367">
        <ele>5</ele>
        <time>2023-07-15T10:25:33.029+00:00</time>
      </trkpt>
      <trkpt lat="46.15707" lon="-1.15376">
        <ele>5</ele>
        <time>2023-07-15T10:25:37.043+00:00</time>
      </trkpt>
      <trkpt lat="46.15701" lon="-1.15376">
        <ele>5</ele>
        <time>2023-07-15T10:25:41.558+00:00</time>
      </trkpt>
      <trkpt lat="46.15697" lon="-1.15378">
        <ele>5</ele>
        <time>2023-07-15T10:25:46.071+00:00</time>
      </trkpt>
      <trkpt lat="46.15693" lon="-1.15381">
        <ele>5</ele>
        <time>2023-07-15T10:25:50.583+00:00</time>
      </trkpt>
      <trkpt lat="46.15687" lon="-1.15382">
        <ele>5</ele>
        <time>2023-07-15T10:25:55.094+00:00</time>
      </trkpt>
      <trkpt lat="46.15683" lon="-1.15386">
        <ele>5</ele>
        <time>2023-07-15T10:25:59.100+00:00</time>
      </trkpt>
      <trkpt lat="46.15679" lon="-1.1539">
        <ele>4</ele>
        <time>2023-07-15T10:26:03.607+00:00</time>
      </trkpt>
      <trkpt lat="46.15676" lon="-1.15395">
        <ele>4</ele>
        <time>2023-07-15T10:26:07.613+00:00</time>
      </trkpt>
      <trkpt lat="46.15672" lon="-1.15399">
        <ele>4</ele>
        <time>2023-07-15T10:26:12.226+00:00</time>
      </trkpt>
      <trkpt lat="46.1567" lon="-1.15401">
        <ele>4</ele>
        <time>2023-07-15T10:26:16.328+00:00</time>
      </trkpt>
      <trkpt lat="46.15668" lon="-1.15402">
        <ele>4</ele>
        <time>2023-07-15T10:26:20.335+00:00</time>
      </trkpt>
      <trkpt lat="46.15667" lon="-1.15405">
        <ele>6</ele>
        <time>2023-07-15T10:26:24.841+00:00</time>
      </trkpt>
      <trkpt lat="46.15665" lon="-1.15411">
        <ele>6</ele>
        <time>2023-07-15T10:26:28.847+00:00</time>
      </trkpt>
      <trkpt lat="46.15664" lon="-1.15419">
        <ele>6</ele>
        <time>2023-07-15T10:26:33.387+00:00</time>
      </trkpt>
      <trkpt lat="46.15661" lon="-1.15418">
        <ele>6</ele>
        <time>2023-07-15T10:26:37.463+00:00</time>
      </trkpt>
      <trkpt lat="46.15658" lon="-1.15419">
        <ele>6</ele>
        <time>2023-07-15T10:26:42.071+00:00</time>
      </trkpt>
      <trkpt lat="46.15653" lon="-1.15416">
        <ele>6</ele>
        <time>2023-07-15T10:26:46.079+00:00</time>
      </trkpt>
      <trkpt lat="46.15649" lon="-1.15414">
        <ele>5</ele>
        <time>2023-07-15T10:26:50.588+00:00</time>
      </trkpt>
      <trkpt lat="46.15646" lon="-1.15415">
        <ele>5</ele>
        <time>2023-07-15T10:26:55.098+00:00</time>
      </trkpt>
      <trkpt lat="46.15643" lon="-1.15418">
        <ele>5</ele>
        <time>2023-07-15T10:26:59.623+00:00</time>
      </trkpt>
      <trkpt lat="46.15639" lon="-1.15417">
        <ele>5</ele>
        <time>2023-07-15T10:27:03.629+00:00</time>
      </trkpt>
      <trkpt lat="46.15638" lon="-1.15419">
        <ele>5</ele>
        <time>2023-07-15T10:27:07.636+00:00</time>
      </trkpt>
      <trkpt lat="46.15632" lon="-1.15421">
        <ele>5</ele>
        <time>2023-07-15T10:27:12.145+00:00</time>
      </trkpt>
      <trkpt lat="46.15625" lon="-1.15424">
        <ele>3</ele>
        <time>2023-07-15T10:27:16.249+00:00</time>
      </trkpt>
      <trkpt lat="46.15619" lon="-1.15427">
        <ele>3</ele>
        <time>2023-07-15T10:27:21.219+00:00</time>
      </trkpt>
      <trkpt lat="46.15614" lon="-1.15429">
        <ele>3</ele>
        <time>2023-07-15T10:27:25.867+00:00</time>
      </trkpt>
      <trkpt lat="46.15613" lon="-1.1543">
        <ele>3</ele>
        <time>2023-07-15T10:27:29.986+00:00</time>
      </trkpt>
      <trkpt lat="46.15611" lon="-1.15431">
        <ele>3</ele>
        <time>2023-07-15T10:27:34.208+00:00</time>
      </trkpt>
      <trkpt lat="46.15609" lon="-1.15432">
        <ele>5</ele>
        <time>2023-07-15T10:27:35.988+00:00</time>
      </trkpt>
      <trkpt lat="46.15603" lon="-1.15434">
        <ele>5</ele>
        <time>2023-07-15T10:27:43.031+00:00</time>
      </trkpt>
      <trkpt lat="46.15602" lon="-1.15436">
        <ele>5</ele>
        <time>2023-07-15T10:27:47.137+00:00</time>
      </trkpt>
      <trkpt lat="46.15599" lon="-1.15439">
        <ele>5</ele>
        <time>2023-07-15T10:27:52.164+00:00</time>
      </trkpt>
      <trkpt lat="46.15596" lon="-1.15438">
        <ele>3</ele>
        <time>2023-07-15T10:27:56.180+00:00</time>
      </trkpt>
      <trkpt lat="46.15589" lon="-1.15439">
        <ele>3</ele>
        <time>2023-07-15T10:28:15.193+00:00</time>
      </trkpt>
      <trkpt lat="46.15588" lon="-1.15441">
        <ele>3</ele>
        <time>2023-07-15T10:28:19.316+00:00</time>
      </trkpt>
      <trkpt lat="46.15588" lon="-1.15445">
        <ele>3</ele>
        <time>2023-07-15T10:28:24.253+00:00</time>
      </trkpt>
      <trkpt lat="46.15584" lon="-1.15448">
        <ele>3</ele>
        <time>2023-07-15T10:28:28.260+00:00</time>
      </trkpt>
      <trkpt lat="46.15583" lon="-1.15444">
        <ele>3</ele>
        <time>2023-07-15T10:28:32.849+00:00</time>
      </trkpt>
      <trkpt lat="46.15583" lon="-1.1544">
        <ele>3</ele>
        <time>2023-07-15T10:28:55.233+00:00</time>
      </trkpt>
      <trkpt lat="46.15583" lon="-1.15436">
        <ele>3</ele>
        <time>2023-07-15T10:28:59.121+00:00</time>
      </trkpt>
      <trkpt lat="46.15581" lon="-1.15432">
        <ele>3</ele>
        <time>2023-07-15T10:29:03.017+00:00</time>
      </trkpt>
      <trkpt lat="46.15575" lon="-1.15428">
        <ele>1</ele>
        <time>2023-07-15T10:29:08.231+00:00</time>
      </trkpt>
      <trkpt lat="46.15584" lon="-1.15409">
        <ele>1</ele>
        <time>2023-07-15T10:29:12.184+00:00</time>
      </trkpt>
      <trkpt lat="46.15546" lon="-1.15392">
        <ele>2</ele>
        <time>2023-07-15T10:31:02.183+00:00</time>
      </trkpt>
      <trkpt lat="46.15509" lon="-1.15387">
        <ele>1</ele>
        <time>2023-07-15T10:31:06.195+00:00</time>
      </trkpt>
      <trkpt lat="46.15493" lon="-1.15387">
        <ele>1.24</ele>
        <time>2023-07-15T10:31:11.195+00:00</time>
      </trkpt>
      <trkpt lat="46.15486" lon="-1.15383">
        <ele>1.52</ele>
        <time>2023-07-15T10:31:16.190+00:00</time>
      </trkpt>
      <trkpt lat="46.15454" lon="-1.15346">
        <ele>6</ele>
        <time>2023-07-15T10:31:20.192+00:00</time>
      </trkpt>
      <trkpt lat="46.15433" lon="-1.15317">
        <ele>6</ele>
        <time>2023-07-15T10:31:24.204+00:00</time>
      </trkpt>
      <trkpt lat="46.15417" lon="-1.15295">
        <ele>7</ele>
        <time>2023-07-15T10:31:29.191+00:00</time>
      </trkpt>
      <trkpt lat="46.15408" lon="-1.15284">
        <ele>7</ele>
        <time>2023-07-15T10:31:33.193+00:00</time>
      </trkpt>
      <trkpt lat="46.15426" lon="-1.15294">
        <ele>7</ele>
        <time>2023-07-15T10:31:38.194+00:00</time>
      </trkpt>
      <trkpt lat="46.15444" lon="-1.15308">
        <ele>6</ele>
        <time>2023-07-15T10:31:43.188+00:00</time>
      </trkpt>
      <trkpt lat="46.15447" lon="-1.15318">
        <ele>6</ele>
        <time>2023-07-15T10:31:48.186+00:00</time>
      </trkpt>
      <trkpt lat="46.15461" lon="-1.1531">
        <ele>2</ele>
        <time>2023-07-15T10:31:53.199+00:00</time>
      </trkpt>
      <trkpt lat="46.15467" lon="-1.15307">
        <ele>2</ele>
        <time>2023-07-15T10:31:57.282+00:00</time>
      </trkpt>
      <trkpt lat="46.15472" lon="-1.15309">
        <ele>2</ele>
        <time>2023-07-15T10:32:01.601+00:00</time>
      </trkpt>
      <trkpt lat="46.15531" lon="-1.15358">
        <ele>3</ele>
        <time>2023-07-15T10:32:05.662+00:00</time>
      </trkpt>
      <trkpt lat="46.15583" lon="-1.15413">
        <ele>1</ele>
        <time>2023-07-15T10:32:09.503+00:00</time>
      </trkpt>
      <trkpt lat="46.15585" lon="-1.15415">
        <ele>1</ele>
        <time>2023-07-15T10:32:15.023+00:00</time>
      </trkpt>
      <trkpt lat="46.15589" lon="-1.15422">
        <ele>1</ele>
        <time>2023-07-15T10:32:44.215+00:00</time>
      </trkpt>
      <trkpt lat="46.15589" lon="-1.15426">
        <ele>1</ele>
        <time>2023-07-15T10:32:48.091+00:00</time>
      </trkpt>
      <trkpt lat="46.1559" lon="-1.15424">
        <ele>1</ele>
        <time>2023-07-15T10:32:52.719+00:00</time>
      </trkpt>
      <trkpt lat="46.15583" lon="-1.15427">
        <ele>1</ele>
        <time>2023-07-15T10:32:56.728+00:00</time>
      </trkpt>
      <trkpt lat="46.15582" lon="-1.15428">
        <ele>1</ele>
        <time>2023-07-15T10:33:01.740+00:00</time>
      </trkpt>
      <trkpt lat="46.15581" lon="-1.15428">
        <ele>1</ele>
        <time>2023-07-15T10:34:54.130+00:00</time>
      </trkpt>
      <trkpt lat="46.15578" lon="-1.15428">
        <ele>1</ele>
        <time>2023-07-15T10:34:59.143+00:00</time>
      </trkpt>
      <trkpt lat="46.15578" lon="-1.15428">
        <ele>1</ele>
        <time>2023-07-15T10:35:03.145+00:00</time>
      </trkpt>
      <trkpt lat="46.15576" lon="-1.1543">
        <ele>1</ele>
        <time>2023-07-15T10:35:08.148+00:00</time>
      </trkpt>
      <trkpt lat="46.15576" lon="-1.15427">
        <ele>1</ele>
        <time>2023-07-15T10:35:12.151+00:00</time>
      </trkpt>
      <trkpt lat="46.15579" lon="-1.15416">
        <ele>1</ele>
        <time>2023-07-15T10:36:59.744+00:00</time>
      </trkpt>
      <trkpt lat="46.15583" lon="-1.15404">
        <ele>1</ele>
        <time>2023-07-15T10:37:04.564+00:00</time>
      </trkpt>
      <trkpt lat="46.15582" lon="-1.15403">
        <ele>1</ele>
        <time>2023-07-15T10:37:09.093+00:00</time>
      </trkpt>
      <trkpt lat="46.15587" lon="-1.15408">
        <ele>1</ele>
        <time>2023-07-15T10:37:14.110+00:00</time>
      </trkpt>
      <trkpt lat="46.15574" lon="-1.15432">
        <ele>3</ele>
        <time>2023-07-15T10:37:18.120+00:00</time>
      </trkpt>
      <trkpt lat="46.15568" lon="-1.15445">
        <ele>1</ele>
        <time>2023-07-15T10:38:26.133+00:00</time>
      </trkpt>
      <trkpt lat="46.1555" lon="-1.1545">
        <ele>1</ele>
        <time>2023-07-15T10:38:30.674+00:00</time>
      </trkpt>
      <trkpt lat="46.15508" lon="-1.15388">
        <ele>1</ele>
        <time>2023-07-15T10:38:36.515+00:00</time>
      </trkpt>
      <trkpt lat="46.1558" lon="-1.15442">
        <ele>3</ele>
        <time>2023-07-15T10:38:42.254+00:00</time>
      </trkpt>
      <trkpt lat="46.15579" lon="-1.15447">
        <ele>3</ele>
        <time>2023-07-15T10:38:47.015+00:00</time>
      </trkpt>
      <trkpt lat="46.1558" lon="-1.1545">
        <ele>3</ele>
        <time>2023-07-15T10:39:00.691+00:00</time>
      </trkpt>
      <trkpt lat="46.15581" lon="-1.15451">
        <ele>3</ele>
        <time>2023-07-15T10:39:04.892+00:00</time>
      </trkpt>
      <trkpt lat="46.15582" lon="-1.15455">
        <ele>3</ele>
        <time>2023-07-15T10:39:08.812+00:00</time>
      </trkpt>
      <trkpt lat="46.15582" lon="-1.15458">
        <ele>3</ele>
        <time>2023-07-15T10:39:13.362+00:00</time>
      </trkpt>
      <trkpt lat="46.15581" lon="-1.15463">
        <ele>6</ele>
        <time>2023-07-15T10:39:17.568+00:00</time>
      </trkpt>
      <trkpt lat="46.1558" lon="-1.15474">
        <ele>6</ele>
        <time>2023-07-15T10:39:21.906+00:00</time>
      </trkpt>
      <trkpt lat="46.15579" lon="-1.15485">
        <ele>6</ele>
        <time>2023-07-15T10:39:25.964+00:00</time>
      </trkpt>
      <trkpt lat="46.15579" lon="-1.15495">
        <ele>8</ele>
        <time>2023-07-15T10:39:30.761+00:00</time>
      </trkpt>
      <trkpt lat="46.15579" lon="-1.15502">
        <ele>8</ele>
        <time>2023-07-15T10:39:35.939+00:00</time>
      </trkpt>
      <trkpt lat="46.15579" lon="-1.15503">
        <ele>8</ele>
        <time>2023-07-15T10:39:40.735+00:00</time>
      </trkpt>
      <trkpt lat="46.1558" lon="-1.15513">
        <ele>8</ele>
        <time>2023-07-15T10:39:45.772+00:00</time>
      </trkpt>
      <trkpt lat="46.1558" lon="-1.15515">
        <ele>9</ele>
        <time>2023-07-15T10:39:46.366+00:00</time>
      </trkpt>
      <trkpt lat="46.1558" lon="-1.15523">
        <ele>9</ele>
        <time>2023-07-15T10:39:55.928+00:00</time>
      </trkpt>
      <trkpt lat="46.15582" lon="-1.15531">
        <ele>9</ele>
        <time>2023-07-15T10:39:59.936+00:00</time>
      </trkpt>
      <trkpt lat="46.15582" lon="-1.15537">
        <ele>9</ele>
        <time>2023-07-15T10:40:04.478+00:00</time>
      </trkpt>
      <trkpt lat="46.15586" lon="-1.15541">
        <ele>9</ele>
        <time>2023-07-15T10:40:09.218+00:00</time>
      </trkpt>
      <trkpt lat="46.15583" lon="-1.1555">
        <ele>9</ele>
        <time>2023-07-15T10:40:13.776+00:00</time>
      </trkpt>
      <trkpt lat="46.15582" lon="-1.15556">
        <ele>9</ele>
        <time>2023-07-15T10:40:17.716+00:00</time>
      </trkpt>
      <trkpt lat="46.15582" lon="-1.15562">
        <ele>9</ele>
        <time>2023-07-15T10:40:22.075+00:00</time>
      </trkpt>
      <trkpt lat="46.15583" lon="-1.15562">
        <ele>9</ele>
        <time>2023-07-15T10:40:26.095+00:00</time>
      </trkpt>
      <trkpt lat="46.15583" lon="-1.15565">
        <ele>9</ele>
        <time>2023-07-15T10:40:30.803+00:00</time>
      </trkpt>
      <trkpt lat="46.15586" lon="-1.15573">
        <ele>8</ele>
        <time>2023-07-15T10:40:35.314+00:00</time>
      </trkpt>
      <trkpt lat="46.15585" lon="-1.15582">
        <ele>8</ele>
        <time>2023-07-15T10:40:39.818+00:00</time>
      </trkpt>
      <trkpt lat="46.15584" lon="-1.15589">
        <ele>8</ele>
        <time>2023-07-15T10:40:44.298+00:00</time>
      </trkpt>
      <trkpt lat="46.15584" lon="-1.15594">
        <ele>8</ele>
        <time>2023-07-15T10:40:48.759+00:00</time>
      </trkpt>
      <trkpt lat="46.15583" lon="-1.156">
        <ele>8</ele>
        <time>2023-07-15T10:40:53.156+00:00</time>
      </trkpt>
      <trkpt lat="46.15581" lon="-1.15608">
        <ele>8</ele>
        <time>2023-07-15T10:40:57.056+00:00</time>
      </trkpt>
      <trkpt lat="46.15582" lon="-1.15615">
        <ele>8</ele>
        <time>2023-07-15T10:41:01.733+00:00</time>
      </trkpt>
      <trkpt lat="46.15582" lon="-1.15621">
        <ele>8</ele>
        <time>2023-07-15T10:41:06.366+00:00</time>
      </trkpt>
      <trkpt lat="46.15582" lon="-1.15627">
        <ele>9</ele>
        <time>2023-07-15T10:41:10.526+00:00</time>
      </trkpt>
      <trkpt lat="46.15582" lon="-1.15636">
        <ele>9</ele>
        <time>2023-07-15T10:41:15.224+00:00</time>
      </trkpt>
      <trkpt lat="46.15582" lon="-1.15648">
        <ele>9</ele>
        <time>2023-07-15T10:41:19.099+00:00</time>
      </trkpt>
      <trkpt lat="46.15582" lon="-1.15649">
        <ele>9</ele>
        <time>2023-07-15T10:41:23.515+00:00</time>
      </trkpt>
      <trkpt lat="46.15585" lon="-1.15658">
        <ele>8</ele>
        <time>2023-07-15T10:41:46.827+00:00</time>
      </trkpt>
      <trkpt lat="46.15584" lon="-1.15669">
        <ele>8</ele>
        <time>2023-07-15T10:41:50.836+00:00</time>
      </trkpt>
      <trkpt lat="46.15583" lon="-1.15677">
        <ele>8</ele>
        <time>2023-07-15T10:41:54.840+00:00</time>
      </trkpt>
      <trkpt lat="46.15583" lon="-1.15685">
        <ele>6</ele>
        <time>2023-07-15T10:42:00.141+00:00</time>
      </trkpt>
      <trkpt lat="46.15582" lon="-1.15693">
        <ele>6</ele>
        <time>2023-07-15T10:42:04.320+00:00</time>
      </trkpt>
      <trkpt lat="46.15584" lon="-1.15698">
        <ele>6</ele>
        <time>2023-07-15T10:42:08.659+00:00</time>
      </trkpt>
      <trkpt lat="46.15586" lon="-1.15701">
        <ele>6</ele>
        <time>2023-07-15T10:42:12.479+00:00</time>
      </trkpt>
      <trkpt lat="46.15585" lon="-1.15706">
        <ele>6</ele>
        <time>2023-07-15T10:42:16.899+00:00</time>
      </trkpt>
      <trkpt lat="46.15586" lon="-1.15706">
        <ele>6</ele>
        <time>2023-07-15T10:42:21.080+00:00</time>
      </trkpt>
      <trkpt lat="46.15587" lon="-1.15708">
        <ele>6</ele>
        <time>2023-07-15T10:42:43.163+00:00</time>
      </trkpt>
      <trkpt lat="46.1559" lon="-1.15709">
        <ele>6</ele>
        <time>2023-07-15T10:42:47.748+00:00</time>
      </trkpt>
      <trkpt lat="46.15592" lon="-1.15711">
        <ele>6</ele>
        <time>2023-07-15T10:42:51.823+00:00</time>
      </trkpt>
      <trkpt lat="46.15587" lon="-1.1571">
        <ele>6</ele>
        <time>2023-07-15T10:42:57.067+00:00</time>
      </trkpt>
      <trkpt lat="46.15586" lon="-1.15711">
        <ele>6</ele>
        <time>2023-07-15T10:43:01.728+00:00</time>
      </trkpt>
      <trkpt lat="46.15584" lon="-1.15711">
        <ele>6</ele>
        <time>2023-07-15T10:43:37.108+00:00</time>
      </trkpt>
      <trkpt lat="46.15584" lon="-1.15711">
        <ele>6</ele>
        <time>2023-07-15T10:43:41.318+00:00</time>
      </trkpt>
      <trkpt lat="46.15583" lon="-1.15711">
        <ele>6</ele>
        <time>2023-07-15T10:43:45.366+00:00</time>
      </trkpt>
      <trkpt lat="46.15582" lon="-1.1571">
        <ele>6</ele>
        <time>2023-07-15T10:43:51.270+00:00</time>
      </trkpt>
      <trkpt lat="46.15583" lon="-1.1571">
        <ele>6</ele>
        <time>2023-07-15T10:43:55.865+00:00</time>
      </trkpt>
      <trkpt lat="46.15582" lon="-1.15703">
        <ele>6</ele>
        <time>2023-07-15T10:44:08.293+00:00</time>
      </trkpt>
      <trkpt lat="46.15582" lon="-1.15698">
        <ele>6</ele>
        <time>2023-07-15T10:44:13.651+00:00</time>
      </trkpt>
      <trkpt lat="46.15584" lon="-1.15697">
        <ele>6</ele>
        <time>2023-07-15T10:44:47.890+00:00</time>
      </trkpt>
      <trkpt lat="46.1558" lon="-1.15698">
        <ele>6</ele>
        <time>2023-07-15T10:44:53.400+00:00</time>
      </trkpt>
      <trkpt lat="46.1558" lon="-1.15701">
        <ele>6</ele>
        <time>2023-07-15T10:44:57.908+00:00</time>
      </trkpt>
      <trkpt lat="46.1558" lon="-1.15704">
        <ele>6</ele>
        <time>2023-07-15T10:45:46.399+00:00</time>
      </trkpt>
      <trkpt lat="46.15578" lon="-1.15707">
        <ele>6</ele>
        <time>2023-07-15T10:45:50.422+00:00</time>
      </trkpt>
      <trkpt lat="46.15577" lon="-1.15708">
        <ele>6</ele>
        <time>2023-07-15T10:45:54.940+00:00</time>
      </trkpt>
      <trkpt lat="46.15577" lon="-1.15709">
        <ele>6</ele>
        <time>2023-07-15T10:45:58.955+00:00</time>
      </trkpt>
      <trkpt lat="46.15577" lon="-1.15712">
        <ele>6</ele>
        <time>2023-07-15T10:46:02.968+00:00</time>
      </trkpt>
      <trkpt lat="46.15577" lon="-1.1572">
        <ele>6</ele>
        <time>2023-07-15T10:46:18.211+00:00</time>
      </trkpt>
      <trkpt lat="46.15575" lon="-1.1572">
        <ele>6</ele>
        <time>2023-07-15T10:46:23.027+00:00</time>
      </trkpt>
      <trkpt lat="46.15574" lon="-1.15721">
        <ele>6</ele>
        <time>2023-07-15T10:46:27.040+00:00</time>
      </trkpt>
      <trkpt lat="46.15578" lon="-1.15727">
        <ele>6</ele>
        <time>2023-07-15T10:46:32.072+00:00</time>
      </trkpt>
      <trkpt lat="46.15578" lon="-1.15727">
        <ele>6</ele>
        <time>2023-07-15T10:46:37.088+00:00</time>
      </trkpt>
      <trkpt lat="46.1558" lon="-1.15725">
        <ele>6</ele>
        <time>2023-07-15T10:47:40.222+00:00</time>
      </trkpt>
      <trkpt lat="46.15582" lon="-1.15724">
        <ele>6</ele>
        <time>2023-07-15T10:47:45.208+00:00</time>
      </trkpt>
      <trkpt lat="46.15583" lon="-1.15722">
        <ele>6</ele>
        <time>2023-07-15T10:47:50.208+00:00</time>
      </trkpt>
      <trkpt lat="46.15586" lon="-1.1572">
        <ele>6</ele>
        <time>2023-07-15T10:47:54.217+00:00</time>
      </trkpt>
      <trkpt lat="46.15592" lon="-1.15726">
        <ele>6</ele>
        <time>2023-07-15T10:47:58.899+00:00</time>
      </trkpt>
      <trkpt lat="46.15596" lon="-1.15729">
        <ele>6</ele>
        <time>2023-07-15T10:48:02.942+00:00</time>
      </trkpt>
      <trkpt lat="46.15598" lon="-1.15737">
        <ele>8</ele>
        <time>2023-07-15T10:48:07.555+00:00</time>
      </trkpt>
      <trkpt lat="46.156" lon="-1.15753">
        <ele>8</ele>
        <time>2023-07-15T10:48:12.067+00:00</time>
      </trkpt>
      <trkpt lat="46.15604" lon="-1.15768">
        <ele>8</ele>
        <time>2023-07-15T10:48:16.077+00:00</time>
      </trkpt>
      <trkpt lat="46.15607" lon="-1.15777">
        <ele>8</ele>
        <time>2023-07-15T10:48:20.589+00:00</time>
      </trkpt>
      <trkpt lat="46.15609" lon="-1.15784">
        <ele>8</ele>
        <time>2023-07-15T10:48:25.106+00:00</time>
      </trkpt>
      <trkpt lat="46.1561" lon="-1.15789">
        <ele>8</ele>
        <time>2023-07-15T10:48:29.114+00:00</time>
      </trkpt>
      <trkpt lat="46.15611" lon="-1.15771">
        <ele>8</ele>
        <time>2023-07-15T10:48:33.119+00:00</time>
      </trkpt>
      <trkpt lat="46.15607" lon="-1.15759">
        <ele>8</ele>
        <time>2023-07-15T10:48:38.138+00:00</time>
      </trkpt>
      <trkpt lat="46.15604" lon="-1.15756">
        <ele>8</ele>
        <time>2023-07-15T10:48:42.163+00:00</time>
      </trkpt>
      <trkpt lat="46.15605" lon="-1.15756">
        <ele>8</ele>
        <time>2023-07-15T10:48:46.674+00:00</time>
      </trkpt>
      <trkpt lat="46.15606" lon="-1.15749">
        <ele>8</ele>
        <time>2023-07-15T10:48:50.685+00:00</time>
      </trkpt>
      <trkpt lat="46.15608" lon="-1.15747">
        <ele>8</ele>
        <time>2023-07-15T10:48:55.197+00:00</time>
      </trkpt>
      <trkpt lat="46.15607" lon="-1.15741">
        <ele>8</ele>
        <time>2023-07-15T10:48:59.209+00:00</time>
      </trkpt>
      <trkpt lat="46.15604" lon="-1.15735">
        <ele>7</ele>
        <time>2023-07-15T10:49:03.824+00:00</time>
      </trkpt>
      <trkpt lat="46.156" lon="-1.15731">
        <ele>7</ele>
        <time>2023-07-15T10:49:08.841+00:00</time>
      </trkpt>
      <trkpt lat="46.15596" lon="-1.15726">
        <ele>6</ele>
        <time>2023-07-15T10:49:12.855+00:00</time>
      </trkpt>
      <trkpt lat="46.15593" lon="-1.15721">
        <ele>6</ele>
        <time>2023-07-15T10:49:16.871+00:00</time>
      </trkpt>
      <trkpt lat="46.15592" lon="-1.15717">
        <ele>6</ele>
        <time>2023-07-15T10:49:20.885+00:00</time>
      </trkpt>
      <trkpt lat="46.15587" lon="-1.1571">
        <ele>6</ele>
        <time>2023-07-15T10:49:25.399+00:00</time>
      </trkpt>
      <trkpt lat="46.15584" lon="-1.15707">
        <ele>6</ele>
        <time>2023-07-15T10:49:29.914+00:00</time>
      </trkpt>
      <trkpt lat="46.15583" lon="-1.15705">
        <ele>6</ele>
        <time>2023-07-15T10:49:33.932+00:00</time>
      </trkpt>
      <trkpt lat="46.1558" lon="-1.15716">
        <ele>6</ele>
        <time>2023-07-15T10:49:38.952+00:00</time>
      </trkpt>
      <trkpt lat="46.1558" lon="-1.15716">
        <ele>6</ele>
        <time>2023-07-15T10:49:43.468+00:00</time>
      </trkpt>
      <trkpt lat="46.1558" lon="-1.15716">
        <ele>6</ele>
        <time>2023-07-15T10:51:14.018+00:00</time>
      </trkpt>
      <trkpt lat="46.1558" lon="-1.15716">
        <ele>6</ele>
        <time>2023-07-15T10:51:19.035+00:00</time>
      </trkpt>
      <trkpt lat="46.1558" lon="-1.15717">
        <ele>6</ele>
        <time>2023-07-15T10:51:23.050+00:00</time>
      </trkpt>
      <trkpt lat="46.15581" lon="-1.15716">
        <ele>6</ele>
        <time>2023-07-15T10:51:27.569+00:00</time>
      </trkpt>
      <trkpt lat="46.1558" lon="-1.15715">
        <ele>6</ele>
        <time>2023-07-15T10:51:32.086+00:00</time>
      </trkpt>
      <trkpt lat="46.15577" lon="-1.15711">
        <ele>6</ele>
        <time>2023-07-15T10:51:58.177+00:00</time>
      </trkpt>
      <trkpt lat="46.15576" lon="-1.15707">
        <ele>6</ele>
        <time>2023-07-15T10:52:02.688+00:00</time>
      </trkpt>
      <trkpt lat="46.15577" lon="-1.15705">
        <ele>6</ele>
        <time>2023-07-15T10:52:07.200+00:00</time>
      </trkpt>
      <trkpt lat="46.1558" lon="-1.15709">
        <ele>6</ele>
        <time>2023-07-15T10:52:11.211+00:00</time>
      </trkpt>
      <trkpt lat="46.15583" lon="-1.15711">
        <ele>6</ele>
        <time>2023-07-15T10:52:16.231+00:00</time>
      </trkpt>
      <trkpt lat="46.15583" lon="-1.1571">
        <ele>6</ele>
        <time>2023-07-15T10:53:17.144+00:00</time>
      </trkpt>
      <trkpt lat="46.15584" lon="-1.1571">
        <ele>6</ele>
        <time>2023-07-15T10:53:22.214+00:00</time>
      </trkpt>
      <trkpt lat="46.15585" lon="-1.15711">
        <ele>6</ele>
        <time>2023-07-15T10:53:27.179+00:00</time>
      </trkpt>
      <trkpt lat="46.1558" lon="-1.15714">
        <ele>6</ele>
        <time>2023-07-15T10:53:32.190+00:00</time>
      </trkpt>
      <trkpt lat="46.15577" lon="-1.15714">
        <ele>6</ele>
        <time>2023-07-15T10:53:36.206+00:00</time>
      </trkpt>
      <trkpt lat="46.15574" lon="-1.15714">
        <ele>6</ele>
        <time>2023-07-15T10:56:39.393+00:00</time>
      </trkpt>
      <trkpt lat="46.15574" lon="-1.15714">
        <ele>6</ele>
        <time>2023-07-15T10:56:43.406+00:00</time>
      </trkpt>
      <trkpt lat="46.15571" lon="-1.15712">
        <ele>6</ele>
        <time>2023-07-15T10:56:47.922+00:00</time>
      </trkpt>
      <trkpt lat="46.15581" lon="-1.15705">
        <ele>6</ele>
        <time>2023-07-15T10:56:51.936+00:00</time>
      </trkpt>
      <trkpt lat="46.15581" lon="-1.15705">
        <ele>6</ele>
        <time>2023-07-15T10:56:56.951+00:00</time>
      </trkpt>
      <trkpt lat="46.15583" lon="-1.15705">
        <ele>6</ele>
        <time>2023-07-15T10:58:05.797+00:00</time>
      </trkpt>
      <trkpt lat="46.15584" lon="-1.15704">
        <ele>6</ele>
        <time>2023-07-15T10:58:09.809+00:00</time>
      </trkpt>
      <trkpt lat="46.15584" lon="-1.15705">
        <ele>6</ele>
        <time>2023-07-15T10:58:13.815+00:00</time>
      </trkpt>
      <trkpt lat="46.15581" lon="-1.15713">
        <ele>6</ele>
        <time>2023-07-15T10:58:18.420+00:00</time>
      </trkpt>
      <trkpt lat="46.15579" lon="-1.15714">
        <ele>6</ele>
        <time>2023-07-15T10:58:22.524+00:00</time>
      </trkpt>
      <trkpt lat="46.15579" lon="-1.15716">
        <ele>6</ele>
        <time>2023-07-15T10:59:02.284+00:00</time>
      </trkpt>
      <trkpt lat="46.15577" lon="-1.15715">
        <ele>6</ele>
        <time>2023-07-15T10:59:06.897+00:00</time>
      </trkpt>
      <trkpt lat="46.15577" lon="-1.15718">
        <ele>6</ele>
        <time>2023-07-15T10:59:11.913+00:00</time>
      </trkpt>
      <trkpt lat="46.15571" lon="-1.15707">
        <ele>6</ele>
        <time>2023-07-15T10:59:16.429+00:00</time>
      </trkpt>
      <trkpt lat="46.1557" lon="-1.15704">
        <ele>6</ele>
        <time>2023-07-15T10:59:20.945+00:00</time>
      </trkpt>
      <trkpt lat="46.15571" lon="-1.15701">
        <ele>6</ele>
        <time>2023-07-15T11:00:00.261+00:00</time>
      </trkpt>
      <trkpt lat="46.15571" lon="-1.15699">
        <ele>6</ele>
        <time>2023-07-15T11:00:04.772+00:00</time>
      </trkpt>
      <trkpt lat="46.1557" lon="-1.15698">
        <ele>6</ele>
        <time>2023-07-15T11:00:08.785+00:00</time>
      </trkpt>
      <trkpt lat="46.15567" lon="-1.15694">
        <ele>5</ele>
        <time>2023-07-15T11:00:13.300+00:00</time>
      </trkpt>
      <trkpt lat="46.15564" lon="-1.1569">
        <ele>5</ele>
        <time>2023-07-15T11:00:17.813+00:00</time>
      </trkpt>
      <trkpt lat="46.15562" lon="-1.1569">
        <ele>5</ele>
        <time>2023-07-15T11:00:21.826+00:00</time>
      </trkpt>
      <trkpt lat="46.15561" lon="-1.1569">
        <ele>5</ele>
        <time>2023-07-15T11:00:26.339+00:00</time>
      </trkpt>
      <trkpt lat="46.15556" lon="-1.15694">
        <ele>5</ele>
        <time>2023-07-15T11:00:30.847+00:00</time>
      </trkpt>
      <trkpt lat="46.15572" lon="-1.15682">
        <ele>6</ele>
        <time>2023-07-15T11:00:34.851+00:00</time>
      </trkpt>
      <trkpt lat="46.15582" lon="-1.15689">
        <ele>6</ele>
        <time>2023-07-15T11:00:39.856+00:00</time>
      </trkpt>
      <trkpt lat="46.15586" lon="-1.15689">
        <ele>6</ele>
        <time>2023-07-15T11:00:44.362+00:00</time>
      </trkpt>
      <trkpt lat="46.15586" lon="-1.15691">
        <ele>6</ele>
        <time>2023-07-15T11:00:48.867+00:00</time>
      </trkpt>
      <trkpt lat="46.15597" lon="-1.15721">
        <ele>6</ele>
        <time>2023-07-15T11:00:52.871+00:00</time>
      </trkpt>
      <trkpt lat="46.15597" lon="-1.15725">
        <ele>6</ele>
        <time>2023-07-15T11:00:57.874+00:00</time>
      </trkpt>
      <trkpt lat="46.15598" lon="-1.15726">
        <ele>7</ele>
        <time>2023-07-15T11:03:06.968+00:00</time>
      </trkpt>
      <trkpt lat="46.15601" lon="-1.15725">
        <ele>7</ele>
        <time>2023-07-15T11:03:11.110+00:00</time>
      </trkpt>
      <trkpt lat="46.15603" lon="-1.15728">
        <ele>7</ele>
        <time>2023-07-15T11:03:16.207+00:00</time>
      </trkpt>
      <trkpt lat="46.15606" lon="-1.15728">
        <ele>7</ele>
        <time>2023-07-15T11:03:20.877+00:00</time>
      </trkpt>
      <trkpt lat="46.15611" lon="-1.15727">
        <ele>7</ele>
        <time>2023-07-15T11:03:24.883+00:00</time>
      </trkpt>
      <trkpt lat="46.15615" lon="-1.15728">
        <ele>7</ele>
        <time>2023-07-15T11:03:29.889+00:00</time>
      </trkpt>
      <trkpt lat="46.15618" lon="-1.15729">
        <ele>7</ele>
        <time>2023-07-15T11:03:33.895+00:00</time>
      </trkpt>
      <trkpt lat="46.15626" lon="-1.15727">
        <ele>9</ele>
        <time>2023-07-15T11:03:37.900+00:00</time>
      </trkpt>
      <trkpt lat="46.15629" lon="-1.15725">
        <ele>9</ele>
        <time>2023-07-15T11:03:42.421+00:00</time>
      </trkpt>
      <trkpt lat="46.15629" lon="-1.15724">
        <ele>9</ele>
        <time>2023-07-15T11:03:46.822+00:00</time>
      </trkpt>
      <trkpt lat="46.15628" lon="-1.15717">
        <ele>9</ele>
        <time>2023-07-15T11:03:50.821+00:00</time>
      </trkpt>
      <trkpt lat="46.15627" lon="-1.15709">
        <ele>9</ele>
        <time>2023-07-15T11:03:55.101+00:00</time>
      </trkpt>
      <trkpt lat="46.15626" lon="-1.15697">
        <ele>9</ele>
        <time>2023-07-15T11:03:59.541+00:00</time>
      </trkpt>
      <trkpt lat="46.15625" lon="-1.15694">
        <ele>9</ele>
        <time>2023-07-15T11:04:03.881+00:00</time>
      </trkpt>
      <trkpt lat="46.15624" lon="-1.15692">
        <ele>8</ele>
        <time>2023-07-15T11:04:56.921+00:00</time>
      </trkpt>
      <trkpt lat="46.15625" lon="-1.15689">
        <ele>9</ele>
        <time>2023-07-15T11:05:01.718+00:00</time>
      </trkpt>
      <trkpt lat="46.15629" lon="-1.15686">
        <ele>9</ele>
        <time>2023-07-15T11:05:05.655+00:00</time>
      </trkpt>
      <trkpt lat="46.15627" lon="-1.15689">
        <ele>9</ele>
        <time>2023-07-15T11:05:10.144+00:00</time>
      </trkpt>
      <trkpt lat="46.15623" lon="-1.15691">
        <ele>8</ele>
        <time>2023-07-15T11:05:14.226+00:00</time>
      </trkpt>
      <trkpt lat="46.1562" lon="-1.15692">
        <ele>8</ele>
        <time>2023-07-15T11:05:18.785+00:00</time>
      </trkpt>
      <trkpt lat="46.15619" lon="-1.15692">
        <ele>8</ele>
        <time>2023-07-15T11:05:24.141+00:00</time>
      </trkpt>
      <trkpt lat="46.15617" lon="-1.15692">
        <ele>8</ele>
        <time>2023-07-15T11:05:28.796+00:00</time>
      </trkpt>
      <trkpt lat="46.15616" lon="-1.15698">
        <ele>8</ele>
        <time>2023-07-15T11:05:34.190+00:00</time>
      </trkpt>
      <trkpt lat="46.15617" lon="-1.157">
        <ele>8</ele>
        <time>2023-07-15T11:05:39.229+00:00</time>
      </trkpt>
      <trkpt lat="46.15616" lon="-1.15707">
        <ele>8</ele>
        <time>2023-07-15T11:48:09.204+00:00</time>
      </trkpt>
      <trkpt lat="46.15616" lon="-1.15712">
        <ele>7</ele>
        <time>2023-07-15T11:48:13.205+00:00</time>
      </trkpt>
      <trkpt lat="46.15617" lon="-1.15714">
        <ele>7</ele>
        <time>2023-07-15T11:48:17.204+00:00</time>
      </trkpt>
      <trkpt lat="46.15617" lon="-1.15716">
        <ele>7</ele>
        <time>2023-07-15T11:48:21.987+00:00</time>
      </trkpt>
      <trkpt lat="46.15618" lon="-1.15712">
        <ele>7</ele>
        <time>2023-07-15T11:48:26.204+00:00</time>
      </trkpt>
      <trkpt lat="46.15619" lon="-1.15707">
        <ele>8</ele>
        <time>2023-07-15T11:48:48.202+00:00</time>
      </trkpt>
      <trkpt lat="46.15619" lon="-1.15705">
        <ele>8</ele>
        <time>2023-07-15T11:48:52.078+00:00</time>
      </trkpt>
      <trkpt lat="46.15619" lon="-1.15703">
        <ele>8</ele>
        <time>2023-07-15T11:48:57.082+00:00</time>
      </trkpt>
      <trkpt lat="46.15618" lon="-1.15694">
        <ele>8</ele>
        <time>2023-07-15T11:49:01.202+00:00</time>
      </trkpt>
      <trkpt lat="46.15618" lon="-1.15692">
        <ele>8</ele>
        <time>2023-07-15T11:49:05.211+00:00</time>
      </trkpt>
      <trkpt lat="46.15619" lon="-1.15691">
        <ele>8</ele>
        <time>2023-07-15T11:50:35.217+00:00</time>
      </trkpt>
      <trkpt lat="46.15619" lon="-1.1569">
        <ele>8</ele>
        <time>2023-07-15T11:50:39.224+00:00</time>
      </trkpt>
      <trkpt lat="46.15618" lon="-1.15689">
        <ele>8</ele>
        <time>2023-07-15T11:50:43.216+00:00</time>
      </trkpt>
      <trkpt lat="46.15618" lon="-1.1569">
        <ele>8</ele>
        <time>2023-07-15T11:50:47.212+00:00</time>
      </trkpt>
      <trkpt lat="46.15619" lon="-1.15689">
        <ele>8</ele>
        <time>2023-07-15T11:50:52.217+00:00</time>
      </trkpt>
      <trkpt lat="46.1562" lon="-1.1569">
        <ele>8</ele>
        <time>2023-07-15T12:13:34.225+00:00</time>
      </trkpt>
      <trkpt lat="46.15622" lon="-1.1568">
        <ele>8</ele>
        <time>2023-07-15T12:13:38.798+00:00</time>
      </trkpt>
      <trkpt lat="46.15626" lon="-1.15658">
        <ele>9</ele>
        <time>2023-07-15T12:13:42.939+00:00</time>
      </trkpt>
      <trkpt lat="46.1563" lon="-1.1564">
        <ele>9</ele>
        <time>2023-07-15T12:13:47.195+00:00</time>
      </trkpt>
      <trkpt lat="46.15633" lon="-1.15641">
        <ele>9</ele>
        <time>2023-07-15T12:13:52.199+00:00</time>
      </trkpt>
      <trkpt lat="46.15636" lon="-1.15658">
        <ele>9</ele>
        <time>2023-07-15T12:13:57.192+00:00</time>
      </trkpt>
      <trkpt lat="46.15638" lon="-1.15669">
        <ele>9</ele>
        <time>2023-07-15T12:14:02.208+00:00</time>
      </trkpt>
      <trkpt lat="46.15627" lon="-1.15705">
        <ele>9</ele>
        <time>2023-07-15T12:14:07.205+00:00</time>
      </trkpt>
      <trkpt lat="46.15628" lon="-1.15716">
        <ele>9</ele>
        <time>2023-07-15T12:14:12.206+00:00</time>
      </trkpt>
      <trkpt lat="46.15629" lon="-1.15724">
        <ele>9</ele>
        <time>2023-07-15T12:16:20.501+00:00</time>
      </trkpt>
      <trkpt lat="46.15631" lon="-1.15731">
        <ele>9</ele>
        <time>2023-07-15T12:16:24.536+00:00</time>
      </trkpt>
      <trkpt lat="46.15635" lon="-1.15735">
        <ele>9</ele>
        <time>2023-07-15T12:16:28.713+00:00</time>
      </trkpt>
      <trkpt lat="46.15638" lon="-1.15737">
        <ele>9</ele>
        <time>2023-07-15T12:16:32.750+00:00</time>
      </trkpt>
      <trkpt lat="46.15638" lon="-1.15736">
        <ele>9</ele>
        <time>2023-07-15T12:16:36.767+00:00</time>
      </trkpt>
      <trkpt lat="46.1564" lon="-1.15732">
        <ele>9</ele>
        <time>2023-07-15T12:16:40.963+00:00</time>
      </trkpt>
      <trkpt lat="46.15648" lon="-1.15732">
        <ele>9</ele>
        <time>2023-07-15T12:16:45.639+00:00</time>
      </trkpt>
      <trkpt lat="46.15652" lon="-1.15734">
        <ele>9</ele>
        <time>2023-07-15T12:16:49.716+00:00</time>
      </trkpt>
      <trkpt lat="46.15654" lon="-1.15735">
        <ele>9</ele>
        <time>2023-07-15T12:16:54.378+00:00</time>
      </trkpt>
      <trkpt lat="46.15656" lon="-1.15735">
        <ele>9</ele>
        <time>2023-07-15T12:16:59.093+00:00</time>
      </trkpt>
      <trkpt lat="46.15663" lon="-1.15735">
        <ele>9</ele>
        <time>2023-07-15T12:17:03.334+00:00</time>
      </trkpt>
      <trkpt lat="46.1567" lon="-1.15736">
        <ele>9</ele>
        <time>2023-07-15T12:17:07.378+00:00</time>
      </trkpt>
      <trkpt lat="46.15674" lon="-1.15733">
        <ele>9</ele>
        <time>2023-07-15T12:17:11.871+00:00</time>
      </trkpt>
      <trkpt lat="46.15679" lon="-1.15728">
        <ele>9</ele>
        <time>2023-07-15T12:17:15.948+00:00</time>
      </trkpt>
      <trkpt lat="46.15684" lon="-1.15721">
        <ele>8</ele>
        <time>2023-07-15T12:17:20.146+00:00</time>
      </trkpt>
      <trkpt lat="46.15688" lon="-1.15714">
        <ele>8</ele>
        <time>2023-07-15T12:17:25.232+00:00</time>
      </trkpt>
      <trkpt lat="46.15692" lon="-1.15709">
        <ele>8</ele>
        <time>2023-07-15T12:17:29.340+00:00</time>
      </trkpt>
      <trkpt lat="46.15696" lon="-1.15707">
        <ele>7</ele>
        <time>2023-07-15T12:17:33.538+00:00</time>
      </trkpt>
      <trkpt lat="46.15701" lon="-1.15707">
        <ele>7</ele>
        <time>2023-07-15T12:17:38.213+00:00</time>
      </trkpt>
      <trkpt lat="46.15718" lon="-1.15687">
        <ele>7</ele>
        <time>2023-07-15T12:17:42.829+00:00</time>
      </trkpt>
      <trkpt lat="46.15724" lon="-1.15686">
        <ele>7</ele>
        <time>2023-07-15T12:17:46.807+00:00</time>
      </trkpt>
      <trkpt lat="46.15727" lon="-1.15686">
        <ele>7</ele>
        <time>2023-07-15T12:18:21.366+00:00</time>
      </trkpt>
      <trkpt lat="46.1573" lon="-1.15685">
        <ele>7</ele>
        <time>2023-07-15T12:18:25.370+00:00</time>
      </trkpt>
      <trkpt lat="46.15737" lon="-1.15685">
        <ele>8</ele>
        <time>2023-07-15T12:18:29.376+00:00</time>
      </trkpt>
      <trkpt lat="46.15743" lon="-1.15683">
        <ele>8</ele>
        <time>2023-07-15T12:18:33.898+00:00</time>
      </trkpt>
      <trkpt lat="46.15747" lon="-1.15681">
        <ele>8</ele>
        <time>2023-07-15T12:18:38.421+00:00</time>
      </trkpt>
      <trkpt lat="46.15752" lon="-1.15679">
        <ele>8</ele>
        <time>2023-07-15T12:18:43.003+00:00</time>
      </trkpt>
      <trkpt lat="46.15757" lon="-1.15677">
        <ele>8</ele>
        <time>2023-07-15T12:18:47.085+00:00</time>
      </trkpt>
      <trkpt lat="46.1576" lon="-1.15676">
        <ele>8</ele>
        <time>2023-07-15T12:18:51.378+00:00</time>
      </trkpt>
      <trkpt lat="46.15764" lon="-1.15675">
        <ele>9</ele>
        <time>2023-07-15T12:18:55.923+00:00</time>
      </trkpt>
      <trkpt lat="46.15769" lon="-1.15672">
        <ele>9</ele>
        <time>2023-07-15T12:18:59.783+00:00</time>
      </trkpt>
      <trkpt lat="46.15774" lon="-1.15668">
        <ele>9</ele>
        <time>2023-07-15T12:19:04.302+00:00</time>
      </trkpt>
      <trkpt lat="46.15779" lon="-1.15665">
        <ele>9</ele>
        <time>2023-07-15T12:19:08.642+00:00</time>
      </trkpt>
      <trkpt lat="46.15784" lon="-1.15664">
        <ele>9</ele>
        <time>2023-07-15T12:19:13.081+00:00</time>
      </trkpt>
      <trkpt lat="46.1579" lon="-1.15663">
        <ele>9</ele>
        <time>2023-07-15T12:19:17.501+00:00</time>
      </trkpt>
      <trkpt lat="46.15795" lon="-1.15661">
        <ele>8</ele>
        <time>2023-07-15T12:19:21.481+00:00</time>
      </trkpt>
      <trkpt lat="46.158" lon="-1.15658">
        <ele>8</ele>
        <time>2023-07-15T12:19:26.158+00:00</time>
      </trkpt>
      <trkpt lat="46.15806" lon="-1.15657">
        <ele>8</ele>
        <time>2023-07-15T12:19:30.243+00:00</time>
      </trkpt>
      <trkpt lat="46.1581" lon="-1.15659">
        <ele>8</ele>
        <time>2023-07-15T12:19:34.651+00:00</time>
      </trkpt>
      <trkpt lat="46.15815" lon="-1.15658">
        <ele>8</ele>
        <time>2023-07-15T12:19:38.726+00:00</time>
      </trkpt>
      <trkpt lat="46.15816" lon="-1.15657">
        <ele>8</ele>
        <time>2023-07-15T12:19:42.931+00:00</time>
      </trkpt>
      <trkpt lat="46.15819" lon="-1.15659">
        <ele>8</ele>
        <time>2023-07-15T12:19:46.943+00:00</time>
      </trkpt>
      <trkpt lat="46.15821" lon="-1.15666">
        <ele>7</ele>
        <time>2023-07-15T12:19:50.969+00:00</time>
      </trkpt>
      <trkpt lat="46.15819" lon="-1.15678">
        <ele>8</ele>
        <time>2023-07-15T12:19:55.479+00:00</time>
      </trkpt>
      <trkpt lat="46.15821" lon="-1.15685">
        <ele>7</ele>
        <time>2023-07-15T12:19:59.487+00:00</time>
      </trkpt>
      <trkpt lat="46.15822" lon="-1.15694">
        <ele>7</ele>
        <time>2023-07-15T12:20:03.997+00:00</time>
      </trkpt>
      <trkpt lat="46.15824" lon="-1.15703">
        <ele>7</ele>
        <time>2023-07-15T12:20:08.606+00:00</time>
      </trkpt>
      <trkpt lat="46.15826" lon="-1.15711">
        <ele>7</ele>
        <time>2023-07-15T12:20:13.114+00:00</time>
      </trkpt>
      <trkpt lat="46.15828" lon="-1.15718">
        <ele>7</ele>
        <time>2023-07-15T12:20:17.724+00:00</time>
      </trkpt>
      <trkpt lat="46.1583" lon="-1.15725">
        <ele>7</ele>
        <time>2023-07-15T12:20:22.233+00:00</time>
      </trkpt>
      <trkpt lat="46.15831" lon="-1.15731">
        <ele>7</ele>
        <time>2023-07-15T12:20:26.757+00:00</time>
      </trkpt>
      <trkpt lat="46.15833" lon="-1.15739">
        <ele>6</ele>
        <time>2023-07-15T12:20:31.281+00:00</time>
      </trkpt>
      <trkpt lat="46.15834" lon="-1.15745">
        <ele>6</ele>
        <time>2023-07-15T12:20:35.789+00:00</time>
      </trkpt>
      <trkpt lat="46.15836" lon="-1.15752">
        <ele>6</ele>
        <time>2023-07-15T12:20:40.398+00:00</time>
      </trkpt>
      <trkpt lat="46.15837" lon="-1.15753">
        <ele>6</ele>
        <time>2023-07-15T12:20:44.406+00:00</time>
      </trkpt>
      <trkpt lat="46.15841" lon="-1.15753">
        <ele>6</ele>
        <time>2023-07-15T12:20:48.414+00:00</time>
      </trkpt>
      <trkpt lat="46.15846" lon="-1.15754">
        <ele>6</ele>
        <time>2023-07-15T12:20:52.924+00:00</time>
      </trkpt>
      <trkpt lat="46.15847" lon="-1.15763">
        <ele>6</ele>
        <time>2023-07-15T12:20:57.434+00:00</time>
      </trkpt>
      <trkpt lat="46.15847" lon="-1.15772">
        <ele>6</ele>
        <time>2023-07-15T12:21:01.444+00:00</time>
      </trkpt>
      <trkpt lat="46.15848" lon="-1.15778">
        <ele>5</ele>
        <time>2023-07-15T12:21:05.955+00:00</time>
      </trkpt>
      <trkpt lat="46.15849" lon="-1.15785">
        <ele>5</ele>
        <time>2023-07-15T12:21:10.266+00:00</time>
      </trkpt>
      <trkpt lat="46.1585" lon="-1.15791">
        <ele>5</ele>
        <time>2023-07-15T12:21:14.375+00:00</time>
      </trkpt>
      <trkpt lat="46.15851" lon="-1.15797">
        <ele>5</ele>
        <time>2023-07-15T12:21:18.958+00:00</time>
      </trkpt>
      <trkpt lat="46.15852" lon="-1.15804">
        <ele>5</ele>
        <time>2023-07-15T12:21:22.995+00:00</time>
      </trkpt>
      <trkpt lat="46.15854" lon="-1.15811">
        <ele>5</ele>
        <time>2023-07-15T12:21:27.105+00:00</time>
      </trkpt>
      <trkpt lat="46.15853" lon="-1.15816">
        <ele>5</ele>
        <time>2023-07-15T12:21:31.114+00:00</time>
      </trkpt>
      <trkpt lat="46.15855" lon="-1.15822">
        <ele>4</ele>
        <time>2023-07-15T12:21:35.626+00:00</time>
      </trkpt>
      <trkpt lat="46.15859" lon="-1.15822">
        <ele>4</ele>
        <time>2023-07-15T12:21:39.735+00:00</time>
      </trkpt>
      <trkpt lat="46.15863" lon="-1.1582">
        <ele>4</ele>
        <time>2023-07-15T12:21:44.242+00:00</time>
      </trkpt>
      <trkpt lat="46.15867" lon="-1.15818">
        <ele>5</ele>
        <time>2023-07-15T12:21:48.345+00:00</time>
      </trkpt>
      <trkpt lat="46.1587" lon="-1.15816">
        <ele>5</ele>
        <time>2023-07-15T12:21:52.848+00:00</time>
      </trkpt>
      <trkpt lat="46.15873" lon="-1.15813">
        <ele>5</ele>
        <time>2023-07-15T12:21:57.028+00:00</time>
      </trkpt>
      <trkpt lat="46.1588" lon="-1.15811">
        <ele>5</ele>
        <time>2023-07-15T12:22:00.849+00:00</time>
      </trkpt>
      <trkpt lat="46.15885" lon="-1.1581">
        <ele>5</ele>
        <time>2023-07-15T12:22:05.129+00:00</time>
      </trkpt>
      <trkpt lat="46.15889" lon="-1.15808">
        <ele>5</ele>
        <time>2023-07-15T12:22:09.688+00:00</time>
      </trkpt>
      <trkpt lat="46.15894" lon="-1.15806">
        <ele>5</ele>
        <time>2023-07-15T12:22:14.028+00:00</time>
      </trkpt>
      <trkpt lat="46.159" lon="-1.15805">
        <ele>5</ele>
        <time>2023-07-15T12:22:18.168+00:00</time>
      </trkpt>
      <trkpt lat="46.15906" lon="-1.15803">
        <ele>4</ele>
        <time>2023-07-15T12:22:22.528+00:00</time>
      </trkpt>
      <trkpt lat="46.15911" lon="-1.15804">
        <ele>4</ele>
        <time>2023-07-15T12:22:27.067+00:00</time>
      </trkpt>
      <trkpt lat="46.15916" lon="-1.15806">
        <ele>4</ele>
        <time>2023-07-15T12:22:31.626+00:00</time>
      </trkpt>
      <trkpt lat="46.15921" lon="-1.15808">
        <ele>4</ele>
        <time>2023-07-15T12:22:35.764+00:00</time>
      </trkpt>
      <trkpt lat="46.15926" lon="-1.15808">
        <ele>4</ele>
        <time>2023-07-15T12:22:39.961+00:00</time>
      </trkpt>
      <trkpt lat="46.15932" lon="-1.15809">
        <ele>4</ele>
        <time>2023-07-15T12:22:43.960+00:00</time>
      </trkpt>
      <trkpt lat="46.15936" lon="-1.15809">
        <ele>4</ele>
        <time>2023-07-15T12:22:48.637+00:00</time>
      </trkpt>
      <trkpt lat="46.15942" lon="-1.15809">
        <ele>4</ele>
        <time>2023-07-15T12:22:52.675+00:00</time>
      </trkpt>
      <trkpt lat="46.15947" lon="-1.15809">
        <ele>4</ele>
        <time>2023-07-15T12:22:56.712+00:00</time>
      </trkpt>
      <trkpt lat="46.15951" lon="-1.15807">
        <ele>4</ele>
        <time>2023-07-15T12:23:01.230+00:00</time>
      </trkpt>
      <trkpt lat="46.15956" lon="-1.15804">
        <ele>4</ele>
        <time>2023-07-15T12:23:05.786+00:00</time>
      </trkpt>
      <trkpt lat="46.1596" lon="-1.15801">
        <ele>5</ele>
        <time>2023-07-15T12:23:10.246+00:00</time>
      </trkpt>
      <trkpt lat="46.15963" lon="-1.15796">
        <ele>5</ele>
        <time>2023-07-15T12:23:14.683+00:00</time>
      </trkpt>
      <trkpt lat="46.15967" lon="-1.15791">
        <ele>5</ele>
        <time>2023-07-15T12:23:18.759+00:00</time>
      </trkpt>
      <trkpt lat="46.15969" lon="-1.15786">
        <ele>5</ele>
        <time>2023-07-15T12:23:23.139+00:00</time>
      </trkpt>
      <trkpt lat="46.15973" lon="-1.1578">
        <ele>5</ele>
        <time>2023-07-15T12:23:27.761+00:00</time>
      </trkpt>
      <trkpt lat="46.15975" lon="-1.15776">
        <ele>5</ele>
        <time>2023-07-15T12:23:32.302+00:00</time>
      </trkpt>
      <trkpt lat="46.15979" lon="-1.15772">
        <ele>5</ele>
        <time>2023-07-15T12:23:36.443+00:00</time>
      </trkpt>
      <trkpt lat="46.15982" lon="-1.15768">
        <ele>5</ele>
        <time>2023-07-15T12:23:40.446+00:00</time>
      </trkpt>
      <trkpt lat="46.15986" lon="-1.15763">
        <ele>5</ele>
        <time>2023-07-15T12:23:44.786+00:00</time>
      </trkpt>
      <trkpt lat="46.15989" lon="-1.15759">
        <ele>6</ele>
        <time>2023-07-15T12:23:49.378+00:00</time>
      </trkpt>
      <trkpt lat="46.15991" lon="-1.15753">
        <ele>6</ele>
        <time>2023-07-15T12:23:53.745+00:00</time>
      </trkpt>
      <trkpt lat="46.15996" lon="-1.15746">
        <ele>6</ele>
        <time>2023-07-15T12:23:57.565+00:00</time>
      </trkpt>
      <trkpt lat="46.15999" lon="-1.15741">
        <ele>6</ele>
        <time>2023-07-15T12:24:02.044+00:00</time>
      </trkpt>
      <trkpt lat="46.16003" lon="-1.15735">
        <ele>5</ele>
        <time>2023-07-15T12:24:06.945+00:00</time>
      </trkpt>
      <trkpt lat="46.16006" lon="-1.1573">
        <ele>5</ele>
        <time>2023-07-15T12:24:10.765+00:00</time>
      </trkpt>
      <trkpt lat="46.1601" lon="-1.15723">
        <ele>5</ele>
        <time>2023-07-15T12:24:15.185+00:00</time>
      </trkpt>
      <trkpt lat="46.16013" lon="-1.15717">
        <ele>5</ele>
        <time>2023-07-15T12:24:19.204+00:00</time>
      </trkpt>
      <trkpt lat="46.16017" lon="-1.15713">
        <ele>5</ele>
        <time>2023-07-15T12:24:23.754+00:00</time>
      </trkpt>
      <trkpt lat="46.16021" lon="-1.15708">
        <ele>4</ele>
        <time>2023-07-15T12:24:27.760+00:00</time>
      </trkpt>
      <trkpt lat="46.16021" lon="-1.15703">
        <ele>4</ele>
        <time>2023-07-15T12:24:32.140+00:00</time>
      </trkpt>
      <trkpt lat="46.16021" lon="-1.15696">
        <ele>4</ele>
        <time>2023-07-15T12:24:37.164+00:00</time>
      </trkpt>
      <trkpt lat="46.16024" lon="-1.1569">
        <ele>4</ele>
        <time>2023-07-15T12:24:40.769+00:00</time>
      </trkpt>
      <trkpt lat="46.16023" lon="-1.15689">
        <ele>4</ele>
        <time>2023-07-15T12:24:45.779+00:00</time>
      </trkpt>
      <trkpt lat="46.16024" lon="-1.15688">
        <ele>4</ele>
        <time>2023-07-15T12:24:54.789+00:00</time>
      </trkpt>
      <trkpt lat="46.16028" lon="-1.15685">
        <ele>4</ele>
        <time>2023-07-15T12:24:59.795+00:00</time>
      </trkpt>
      <trkpt lat="46.16032" lon="-1.1568">
        <ele>4</ele>
        <time>2023-07-15T12:25:04.801+00:00</time>
      </trkpt>
      <trkpt lat="46.16036" lon="-1.15676">
        <ele>4</ele>
        <time>2023-07-15T12:25:08.805+00:00</time>
      </trkpt>
      <trkpt lat="46.16039" lon="-1.15673">
        <ele>4</ele>
        <time>2023-07-15T12:25:13.328+00:00</time>
      </trkpt>
      <trkpt lat="46.16043" lon="-1.15671">
        <ele>4</ele>
        <time>2023-07-15T12:25:17.931+00:00</time>
      </trkpt>
      <trkpt lat="46.16047" lon="-1.15669">
        <ele>4</ele>
        <time>2023-07-15T12:25:21.950+00:00</time>
      </trkpt>
      <trkpt lat="46.16051" lon="-1.15667">
        <ele>4</ele>
        <time>2023-07-15T12:25:26.378+00:00</time>
      </trkpt>
      <trkpt lat="46.16055" lon="-1.15668">
        <ele>4</ele>
        <time>2023-07-15T12:25:30.378+00:00</time>
      </trkpt>
      <trkpt lat="46.16059" lon="-1.15671">
        <ele>4</ele>
        <time>2023-07-15T12:25:35.254+00:00</time>
      </trkpt>
      <trkpt lat="46.16062" lon="-1.15673">
        <ele>4</ele>
        <time>2023-07-15T12:25:39.378+00:00</time>
      </trkpt>
      <trkpt lat="46.16068" lon="-1.1568">
        <ele>4</ele>
        <time>2023-07-15T12:25:43.943+00:00</time>
      </trkpt>
      <trkpt lat="46.16068" lon="-1.1568">
        <ele>4</ele>
        <time>2023-07-15T12:25:48.500+00:00</time>
      </trkpt>
      <trkpt lat="46.16065" lon="-1.15682">
        <ele>4</ele>
        <time>2023-07-15T12:25:57.077+00:00</time>
      </trkpt>
      <trkpt lat="46.1606" lon="-1.15686">
        <ele>4</ele>
        <time>2023-07-15T12:26:00.798+00:00</time>
      </trkpt>
      <trkpt lat="46.16056" lon="-1.15687">
        <ele>4</ele>
        <time>2023-07-15T12:26:05.223+00:00</time>
      </trkpt>
      <trkpt lat="46.16052" lon="-1.1569">
        <ele>4</ele>
        <time>2023-07-15T12:26:09.197+00:00</time>
      </trkpt>
      <trkpt lat="46.16049" lon="-1.15688">
        <ele>4</ele>
        <time>2023-07-15T12:26:13.855+00:00</time>
      </trkpt>
      <trkpt lat="46.16045" lon="-1.15683">
        <ele>4</ele>
        <time>2023-07-15T12:26:18.375+00:00</time>
      </trkpt>
      <trkpt lat="46.16043" lon="-1.15679">
        <ele>4</ele>
        <time>2023-07-15T12:26:22.350+00:00</time>
      </trkpt>
      <trkpt lat="46.1604" lon="-1.15674">
        <ele>4</ele>
        <time>2023-07-15T12:26:26.549+00:00</time>
      </trkpt>
      <trkpt lat="46.16038" lon="-1.15667">
        <ele>4</ele>
        <time>2023-07-15T12:26:31.186+00:00</time>
      </trkpt>
      <trkpt lat="46.16037" lon="-1.15663">
        <ele>4</ele>
        <time>2023-07-15T12:26:35.252+00:00</time>
      </trkpt>
      <trkpt lat="46.16034" lon="-1.15659">
        <ele>4</ele>
        <time>2023-07-15T12:26:39.760+00:00</time>
      </trkpt>
      <trkpt lat="46.1603" lon="-1.15653">
        <ele>5</ele>
        <time>2023-07-15T12:26:43.955+00:00</time>
      </trkpt>
      <trkpt lat="46.16026" lon="-1.1565">
        <ele>5</ele>
        <time>2023-07-15T12:26:48.150+00:00</time>
      </trkpt>
      <trkpt lat="46.16023" lon="-1.15643">
        <ele>5</ele>
        <time>2023-07-15T12:26:52.345+00:00</time>
      </trkpt>
      <trkpt lat="46.16021" lon="-1.15637">
        <ele>5</ele>
        <time>2023-07-15T12:26:56.378+00:00</time>
      </trkpt>
      <trkpt lat="46.16021" lon="-1.15634">
        <ele>5</ele>
        <time>2023-07-15T12:27:00.577+00:00</time>
      </trkpt>
      <trkpt lat="46.1602" lon="-1.1563">
        <ele>5</ele>
        <time>2023-07-15T12:27:04.773+00:00</time>
      </trkpt>
      <trkpt lat="46.16016" lon="-1.15621">
        <ele>6</ele>
        <time>2023-07-15T12:27:08.790+00:00</time>
      </trkpt>
      <trkpt lat="46.16012" lon="-1.15613">
        <ele>7</ele>
        <time>2023-07-15T12:27:13.584+00:00</time>
      </trkpt>
      <trkpt lat="46.1601" lon="-1.15607">
        <ele>7</ele>
        <time>2023-07-15T12:27:17.540+00:00</time>
      </trkpt>
      <trkpt lat="46.16008" lon="-1.15603">
        <ele>7</ele>
        <time>2023-07-15T12:27:21.736+00:00</time>
      </trkpt>
      <trkpt lat="46.16005" lon="-1.15597">
        <ele>9</ele>
        <time>2023-07-15T12:27:26.171+00:00</time>
      </trkpt>
      <trkpt lat="46.16004" lon="-1.15593">
        <ele>9</ele>
        <time>2023-07-15T12:27:30.348+00:00</time>
      </trkpt>
      <trkpt lat="46.16004" lon="-1.15592">
        <ele>9</ele>
        <time>2023-07-15T12:27:34.782+00:00</time>
      </trkpt>
      <trkpt lat="46.16005" lon="-1.15593">
        <ele>9</ele>
        <time>2023-07-15T12:27:38.979+00:00</time>
      </trkpt>
      <trkpt lat="46.16007" lon="-1.15593">
        <ele>9</ele>
        <time>2023-07-15T12:27:47.191+00:00</time>
      </trkpt>
      <trkpt lat="46.16009" lon="-1.15592">
        <ele>9</ele>
        <time>2023-07-15T12:27:51.301+00:00</time>
      </trkpt>
      <trkpt lat="46.16016" lon="-1.15588">
        <ele>7</ele>
        <time>2023-07-15T12:27:55.764+00:00</time>
      </trkpt>
      <trkpt lat="46.16024" lon="-1.15584">
        <ele>7</ele>
        <time>2023-07-15T12:28:00.320+00:00</time>
      </trkpt>
      <trkpt lat="46.16027" lon="-1.15584">
        <ele>7</ele>
        <time>2023-07-15T12:28:04.378+00:00</time>
      </trkpt>
      <trkpt lat="46.16029" lon="-1.15582">
        <ele>7</ele>
        <time>2023-07-15T12:28:08.495+00:00</time>
      </trkpt>
      <trkpt lat="46.16035" lon="-1.15576">
        <ele>7</ele>
        <time>2023-07-15T12:28:13.034+00:00</time>
      </trkpt>
      <trkpt lat="46.16042" lon="-1.15575">
        <ele>7</ele>
        <time>2023-07-15T12:28:17.045+00:00</time>
      </trkpt>
      <trkpt lat="46.16049" lon="-1.15574">
        <ele>7</ele>
        <time>2023-07-15T12:28:21.056+00:00</time>
      </trkpt>
      <trkpt lat="46.16054" lon="-1.15573">
        <ele>7</ele>
        <time>2023-07-15T12:28:25.065+00:00</time>
      </trkpt>
      <trkpt lat="46.16058" lon="-1.15573">
        <ele>7</ele>
        <time>2023-07-15T12:28:29.590+00:00</time>
      </trkpt>
      <trkpt lat="46.16062" lon="-1.15571">
        <ele>7</ele>
        <time>2023-07-15T12:28:34.099+00:00</time>
      </trkpt>
      <trkpt lat="46.16065" lon="-1.15568">
        <ele>7</ele>
        <time>2023-07-15T12:28:38.607+00:00</time>
      </trkpt>
      <trkpt lat="46.16067" lon="-1.15567">
        <ele>7</ele>
        <time>2023-07-15T12:28:43.119+00:00</time>
      </trkpt>
      <trkpt lat="46.1607" lon="-1.15563">
        <ele>7</ele>
        <time>2023-07-15T12:28:47.631+00:00</time>
      </trkpt>
      <trkpt lat="46.16077" lon="-1.15562">
        <ele>7</ele>
        <time>2023-07-15T12:28:51.641+00:00</time>
      </trkpt>
      <trkpt lat="46.16082" lon="-1.15558">
        <ele>7</ele>
        <time>2023-07-15T12:28:56.151+00:00</time>
      </trkpt>
      <trkpt lat="46.16084" lon="-1.15549">
        <ele>7</ele>
        <time>2023-07-15T12:29:01.163+00:00</time>
      </trkpt>
      <trkpt lat="46.16084" lon="-1.15547">
        <ele>7</ele>
        <time>2023-07-15T12:29:06.189+00:00</time>
      </trkpt>
      <trkpt lat="46.16087" lon="-1.15542">
        <ele>7</ele>
        <time>2023-07-15T12:29:11.202+00:00</time>
      </trkpt>
      <trkpt lat="46.16087" lon="-1.15542">
        <ele>7</ele>
        <time>2023-07-15T12:29:15.215+00:00</time>
      </trkpt>
      <trkpt lat="46.16089" lon="-1.15541">
        <ele>6</ele>
        <time>2023-07-15T12:29:37.781+00:00</time>
      </trkpt>
      <trkpt lat="46.1609" lon="-1.15538">
        <ele>6</ele>
        <time>2023-07-15T12:29:41.787+00:00</time>
      </trkpt>
      <trkpt lat="46.16095" lon="-1.15533">
        <ele>6</ele>
        <time>2023-07-15T12:29:46.293+00:00</time>
      </trkpt>
      <trkpt lat="46.16097" lon="-1.15526">
        <ele>6</ele>
        <time>2023-07-15T12:29:50.798+00:00</time>
      </trkpt>
      <trkpt lat="46.16097" lon="-1.15518">
        <ele>6</ele>
        <time>2023-07-15T12:29:54.802+00:00</time>
      </trkpt>
      <trkpt lat="46.16096" lon="-1.15511">
        <ele>6</ele>
        <time>2023-07-15T12:29:58.844+00:00</time>
      </trkpt>
      <trkpt lat="46.16096" lon="-1.15505">
        <ele>6</ele>
        <time>2023-07-15T12:30:03.345+00:00</time>
      </trkpt>
      <trkpt lat="46.16095" lon="-1.15496">
        <ele>6</ele>
        <time>2023-07-15T12:30:07.646+00:00</time>
      </trkpt>
      <trkpt lat="46.16095" lon="-1.1549">
        <ele>6</ele>
        <time>2023-07-15T12:30:12.046+00:00</time>
      </trkpt>
      <trkpt lat="46.16093" lon="-1.15483">
        <ele>6</ele>
        <time>2023-07-15T12:30:16.947+00:00</time>
      </trkpt>
      <trkpt lat="46.16091" lon="-1.15474">
        <ele>6</ele>
        <time>2023-07-15T12:30:21.207+00:00</time>
      </trkpt>
      <trkpt lat="46.1609" lon="-1.15466">
        <ele>6</ele>
        <time>2023-07-15T12:30:25.309+00:00</time>
      </trkpt>
      <trkpt lat="46.1609" lon="-1.15464">
        <ele>6</ele>
        <time>2023-07-15T12:30:29.310+00:00</time>
      </trkpt>
      <trkpt lat="46.1609" lon="-1.15458">
        <ele>9</ele>
        <time>2023-07-15T12:30:33.872+00:00</time>
      </trkpt>
      <trkpt lat="46.16089" lon="-1.15458">
        <ele>9</ele>
        <time>2023-07-15T12:30:34.872+00:00</time>
      </trkpt>
      <trkpt lat="46.16088" lon="-1.15453">
        <ele>9</ele>
        <time>2023-07-15T12:30:43.900+00:00</time>
      </trkpt>
      <trkpt lat="46.1609" lon="-1.15448">
        <ele>9</ele>
        <time>2023-07-15T12:30:47.911+00:00</time>
      </trkpt>
      <trkpt lat="46.16092" lon="-1.15446">
        <ele>9</ele>
        <time>2023-07-15T12:30:51.938+00:00</time>
      </trkpt>
      <trkpt lat="46.1609" lon="-1.15431">
        <ele>9</ele>
        <time>2023-07-15T12:30:55.948+00:00</time>
      </trkpt>
      <trkpt lat="46.16087" lon="-1.15421">
        <ele>11</ele>
        <time>2023-07-15T12:31:00.463+00:00</time>
      </trkpt>
      <trkpt lat="46.16085" lon="-1.15411">
        <ele>11</ele>
        <time>2023-07-15T12:31:04.972+00:00</time>
      </trkpt>
      <trkpt lat="46.16082" lon="-1.15404">
        <ele>11</ele>
        <time>2023-07-15T12:31:08.977+00:00</time>
      </trkpt>
      <trkpt lat="46.16082" lon="-1.15392">
        <ele>13</ele>
        <time>2023-07-15T12:31:13.984+00:00</time>
      </trkpt>
      <trkpt lat="46.16082" lon="-1.15386">
        <ele>13</ele>
        <time>2023-07-15T12:31:17.987+00:00</time>
      </trkpt>
      <trkpt lat="46.16078" lon="-1.15394">
        <ele>13</ele>
        <time>2023-07-15T12:31:22.092+00:00</time>
      </trkpt>
      <trkpt lat="46.16076" lon="-1.15396">
        <ele>13</ele>
        <time>2023-07-15T12:31:26.192+00:00</time>
      </trkpt>
      <trkpt lat="46.16074" lon="-1.154">
        <ele>13</ele>
        <time>2023-07-15T12:32:04.776+00:00</time>
      </trkpt>
      <trkpt lat="46.16067" lon="-1.15402">
        <ele>15</ele>
        <time>2023-07-15T12:32:09.797+00:00</time>
      </trkpt>
      <trkpt lat="46.16062" lon="-1.15404">
        <ele>13</ele>
        <time>2023-07-15T12:32:13.809+00:00</time>
      </trkpt>
      <trkpt lat="46.16056" lon="-1.15404">
        <ele>13</ele>
        <time>2023-07-15T12:32:17.820+00:00</time>
      </trkpt>
      <trkpt lat="46.16055" lon="-1.15404">
        <ele>13</ele>
        <time>2023-07-15T12:32:21.830+00:00</time>
      </trkpt>
      <trkpt lat="46.16054" lon="-1.15404">
        <ele>13</ele>
        <time>2023-07-15T12:32:30.355+00:00</time>
      </trkpt>
      <trkpt lat="46.1605" lon="-1.15403">
        <ele>13</ele>
        <time>2023-07-15T12:32:34.867+00:00</time>
      </trkpt>
      <trkpt lat="46.16049" lon="-1.15403">
        <ele>15</ele>
        <time>2023-07-15T12:32:39.381+00:00</time>
      </trkpt>
      <trkpt lat="46.16048" lon="-1.15404">
        <ele>13</ele>
        <time>2023-07-15T12:32:43.994+00:00</time>
      </trkpt>
      <trkpt lat="46.16047" lon="-1.15407">
        <ele>13</ele>
        <time>2023-07-15T12:32:48.004+00:00</time>
      </trkpt>
      <trkpt lat="46.16045" lon="-1.15407">
        <ele>13</ele>
        <time>2023-07-15T12:32:52.014+00:00</time>
      </trkpt>
      <trkpt lat="46.16043" lon="-1.15408">
        <ele>13</ele>
        <time>2023-07-15T12:32:56.619+00:00</time>
      </trkpt>
      <trkpt lat="46.16039" lon="-1.15413">
        <ele>14</ele>
        <time>2023-07-15T12:33:00.639+00:00</time>
      </trkpt>
      <trkpt lat="46.16033" lon="-1.15419">
        <ele>14</ele>
        <time>2023-07-15T12:33:05.153+00:00</time>
      </trkpt>
      <trkpt lat="46.16035" lon="-1.15422">
        <ele>14</ele>
        <time>2023-07-15T12:33:09.359+00:00</time>
      </trkpt>
      <trkpt lat="46.16037" lon="-1.15423">
        <ele>14</ele>
        <time>2023-07-15T12:33:17.906+00:00</time>
      </trkpt>
      <trkpt lat="46.16035" lon="-1.15428">
        <ele>14</ele>
        <time>2023-07-15T12:33:21.918+00:00</time>
      </trkpt>
      <trkpt lat="46.16036" lon="-1.15439">
        <ele>13</ele>
        <time>2023-07-15T12:33:25.931+00:00</time>
      </trkpt>
      <trkpt lat="46.16035" lon="-1.15443">
        <ele>13</ele>
        <time>2023-07-15T12:33:30.445+00:00</time>
      </trkpt>
      <trkpt lat="46.16037" lon="-1.15449">
        <ele>13</ele>
        <time>2023-07-15T12:33:34.975+00:00</time>
      </trkpt>
      <trkpt lat="46.16041" lon="-1.1545">
        <ele>13</ele>
        <time>2023-07-15T12:33:38.987+00:00</time>
      </trkpt>
      <trkpt lat="46.1604" lon="-1.15457">
        <ele>13</ele>
        <time>2023-07-15T12:33:42.997+00:00</time>
      </trkpt>
      <trkpt lat="46.16042" lon="-1.15461">
        <ele>9</ele>
        <time>2023-07-15T12:33:48.010+00:00</time>
      </trkpt>
      <trkpt lat="46.16043" lon="-1.15467">
        <ele>9</ele>
        <time>2023-07-15T12:33:53.024+00:00</time>
      </trkpt>
      <trkpt lat="46.16035" lon="-1.15471">
        <ele>12</ele>
        <time>2023-07-15T12:33:57.038+00:00</time>
      </trkpt>
      <trkpt lat="46.16027" lon="-1.15474">
        <ele>12</ele>
        <time>2023-07-15T12:34:01.552+00:00</time>
      </trkpt>
      <trkpt lat="46.16023" lon="-1.15474">
        <ele>12</ele>
        <time>2023-07-15T12:34:05.663+00:00</time>
      </trkpt>
      <trkpt lat="46.16019" lon="-1.15477">
        <ele>12</ele>
        <time>2023-07-15T12:34:10.175+00:00</time>
      </trkpt>
      <trkpt lat="46.16019" lon="-1.15479">
        <ele>12</ele>
        <time>2023-07-15T12:34:14.185+00:00</time>
      </trkpt>
      <trkpt lat="46.16016" lon="-1.15479">
        <ele>12</ele>
        <time>2023-07-15T12:34:18.700+00:00</time>
      </trkpt>
      <trkpt lat="46.16014" lon="-1.1548">
        <ele>12</ele>
        <time>2023-07-15T12:34:23.217+00:00</time>
      </trkpt>
      <trkpt lat="46.16012" lon="-1.1548">
        <ele>12</ele>
        <time>2023-07-15T12:34:27.258+00:00</time>
      </trkpt>
      <trkpt lat="46.16009" lon="-1.15482">
        <ele>12</ele>
        <time>2023-07-15T12:34:31.867+00:00</time>
      </trkpt>
      <trkpt lat="46.16005" lon="-1.15483">
        <ele>12</ele>
        <time>2023-07-15T12:34:35.883+00:00</time>
      </trkpt>
      <trkpt lat="46.15999" lon="-1.15487">
        <ele>12</ele>
        <time>2023-07-15T12:34:40.400+00:00</time>
      </trkpt>
      <trkpt lat="46.15995" lon="-1.1549">
        <ele>12</ele>
        <time>2023-07-15T12:34:44.917+00:00</time>
      </trkpt>
      <trkpt lat="46.15989" lon="-1.15493">
        <ele>12</ele>
        <time>2023-07-15T12:34:48.933+00:00</time>
      </trkpt>
      <trkpt lat="46.15985" lon="-1.15492">
        <ele>11</ele>
        <time>2023-07-15T12:34:53.451+00:00</time>
      </trkpt>
      <trkpt lat="46.15981" lon="-1.15495">
        <ele>11</ele>
        <time>2023-07-15T12:34:57.982+00:00</time>
      </trkpt>
      <trkpt lat="46.15974" lon="-1.15496">
        <ele>11</ele>
        <time>2023-07-15T12:35:02.499+00:00</time>
      </trkpt>
      <trkpt lat="46.15968" lon="-1.15498">
        <ele>11</ele>
        <time>2023-07-15T12:35:07.015+00:00</time>
      </trkpt>
      <trkpt lat="46.15963" lon="-1.15501">
        <ele>11</ele>
        <time>2023-07-15T12:35:11.029+00:00</time>
      </trkpt>
      <trkpt lat="46.15957" lon="-1.15503">
        <ele>11</ele>
        <time>2023-07-15T12:35:15.545+00:00</time>
      </trkpt>
      <trkpt lat="46.1595" lon="-1.15505">
        <ele>11</ele>
        <time>2023-07-15T12:35:19.557+00:00</time>
      </trkpt>
      <trkpt lat="46.15945" lon="-1.15505">
        <ele>11</ele>
        <time>2023-07-15T12:35:24.069+00:00</time>
      </trkpt>
      <trkpt lat="46.15941" lon="-1.15506">
        <ele>11</ele>
        <time>2023-07-15T12:35:29.183+00:00</time>
      </trkpt>
      <trkpt lat="46.1594" lon="-1.15505">
        <ele>11</ele>
        <time>2023-07-15T12:35:34.199+00:00</time>
      </trkpt>
      <trkpt lat="46.1594" lon="-1.15505">
        <ele>11</ele>
        <time>2023-07-15T12:35:38.206+00:00</time>
      </trkpt>
      <trkpt lat="46.1594" lon="-1.15506">
        <ele>11</ele>
        <time>2023-07-15T12:35:42.711+00:00</time>
      </trkpt>
      <trkpt lat="46.15936" lon="-1.15506">
        <ele>11</ele>
        <time>2023-07-15T12:35:52.222+00:00</time>
      </trkpt>
      <trkpt lat="46.15933" lon="-1.15506">
        <ele>11</ele>
        <time>2023-07-15T12:35:56.226+00:00</time>
      </trkpt>
      <trkpt lat="46.1593" lon="-1.15509">
        <ele>10</ele>
        <time>2023-07-15T12:36:00.749+00:00</time>
      </trkpt>
      <trkpt lat="46.15925" lon="-1.15511">
        <ele>10</ele>
        <time>2023-07-15T12:36:04.887+00:00</time>
      </trkpt>
      <trkpt lat="46.15917" lon="-1.15515">
        <ele>9</ele>
        <time>2023-07-15T12:36:08.910+00:00</time>
      </trkpt>
      <trkpt lat="46.1591" lon="-1.15518">
        <ele>9</ele>
        <time>2023-07-15T12:36:13.433+00:00</time>
      </trkpt>
      <trkpt lat="46.15905" lon="-1.15519">
        <ele>9</ele>
        <time>2023-07-15T12:36:17.936+00:00</time>
      </trkpt>
      <trkpt lat="46.159" lon="-1.15521">
        <ele>8</ele>
        <time>2023-07-15T12:36:21.938+00:00</time>
      </trkpt>
      <trkpt lat="46.15895" lon="-1.15522">
        <ele>8</ele>
        <time>2023-07-15T12:36:26.039+00:00</time>
      </trkpt>
      <trkpt lat="46.1589" lon="-1.15523">
        <ele>8</ele>
        <time>2023-07-15T12:36:30.160+00:00</time>
      </trkpt>
      <trkpt lat="46.15885" lon="-1.15527">
        <ele>8</ele>
        <time>2023-07-15T12:36:34.320+00:00</time>
      </trkpt>
      <trkpt lat="46.15877" lon="-1.15526">
        <ele>8</ele>
        <time>2023-07-15T12:36:39.220+00:00</time>
      </trkpt>
      <trkpt lat="46.15872" lon="-1.15525">
        <ele>7</ele>
        <time>2023-07-15T12:36:43.366+00:00</time>
      </trkpt>
      <trkpt lat="46.15871" lon="-1.15525">
        <ele>7</ele>
        <time>2023-07-15T12:36:47.879+00:00</time>
      </trkpt>
      <trkpt lat="46.15866" lon="-1.15525">
        <ele>7</ele>
        <time>2023-07-15T12:36:51.888+00:00</time>
      </trkpt>
      <trkpt lat="46.15861" lon="-1.15525">
        <ele>7</ele>
        <time>2023-07-15T12:36:56.899+00:00</time>
      </trkpt>
      <trkpt lat="46.15858" lon="-1.15525">
        <ele>7</ele>
        <time>2023-07-15T12:37:01.408+00:00</time>
      </trkpt>
      <trkpt lat="46.15854" lon="-1.15528">
        <ele>7</ele>
        <time>2023-07-15T12:37:05.416+00:00</time>
      </trkpt>
      <trkpt lat="46.15851" lon="-1.15529">
        <ele>7</ele>
        <time>2023-07-15T12:37:09.923+00:00</time>
      </trkpt>
      <trkpt lat="46.15846" lon="-1.15531">
        <ele>9</ele>
        <time>2023-07-15T12:37:13.928+00:00</time>
      </trkpt>
      <trkpt lat="46.15843" lon="-1.15527">
        <ele>9</ele>
        <time>2023-07-15T12:37:17.933+00:00</time>
      </trkpt>
      <trkpt lat="46.1584" lon="-1.15521">
        <ele>9</ele>
        <time>2023-07-15T12:37:21.936+00:00</time>
      </trkpt>
      <trkpt lat="46.15839" lon="-1.15515">
        <ele>9</ele>
        <time>2023-07-15T12:37:26.637+00:00</time>
      </trkpt>
      <trkpt lat="46.15838" lon="-1.15506">
        <ele>10</ele>
        <time>2023-07-15T12:37:30.739+00:00</time>
      </trkpt>
      <trkpt lat="46.15838" lon="-1.15498">
        <ele>10</ele>
        <time>2023-07-15T12:37:34.843+00:00</time>
      </trkpt>
      <trkpt lat="46.15837" lon="-1.15492">
        <ele>10</ele>
        <time>2023-07-15T12:37:39.346+00:00</time>
      </trkpt>
      <trkpt lat="46.15837" lon="-1.15486">
        <ele>10</ele>
        <time>2023-07-15T12:37:43.387+00:00</time>
      </trkpt>
      <trkpt lat="46.15836" lon="-1.15472">
        <ele>10</ele>
        <time>2023-07-15T12:37:47.707+00:00</time>
      </trkpt>
      <trkpt lat="46.15834" lon="-1.15472">
        <ele>10</ele>
        <time>2023-07-15T12:37:51.949+00:00</time>
      </trkpt>
      <trkpt lat="46.15831" lon="-1.15475">
        <ele>10</ele>
        <time>2023-07-15T12:38:15.128+00:00</time>
      </trkpt>
      <trkpt lat="46.15829" lon="-1.15478">
        <ele>10</ele>
        <time>2023-07-15T12:38:19.132+00:00</time>
      </trkpt>
      <trkpt lat="46.15826" lon="-1.15479">
        <ele>10</ele>
        <time>2023-07-15T12:38:24.137+00:00</time>
      </trkpt>
      <trkpt lat="46.15822" lon="-1.15481">
        <ele>10</ele>
        <time>2023-07-15T12:38:28.155+00:00</time>
      </trkpt>
      <trkpt lat="46.15818" lon="-1.15482">
        <ele>10</ele>
        <time>2023-07-15T12:38:31.842+00:00</time>
      </trkpt>
      <trkpt lat="46.15812" lon="-1.15485">
        <ele>10</ele>
        <time>2023-07-15T12:38:36.345+00:00</time>
      </trkpt>
      <trkpt lat="46.15807" lon="-1.15487">
        <ele>10</ele>
        <time>2023-07-15T12:38:40.887+00:00</time>
      </trkpt>
      <trkpt lat="46.15801" lon="-1.15489">
        <ele>10</ele>
        <time>2023-07-15T12:38:44.991+00:00</time>
      </trkpt>
      <trkpt lat="46.15795" lon="-1.1549">
        <ele>10</ele>
        <time>2023-07-15T12:38:48.993+00:00</time>
      </trkpt>
      <trkpt lat="46.15789" lon="-1.15492">
        <ele>10</ele>
        <time>2023-07-15T12:38:52.998+00:00</time>
      </trkpt>
      <trkpt lat="46.15785" lon="-1.15493">
        <ele>10</ele>
        <time>2023-07-15T12:38:57.615+00:00</time>
      </trkpt>
      <trkpt lat="46.15781" lon="-1.15494">
        <ele>10</ele>
        <time>2023-07-15T12:39:01.706+00:00</time>
      </trkpt>
      <trkpt lat="46.15778" lon="-1.15495">
        <ele>10</ele>
        <time>2023-07-15T12:39:05.810+00:00</time>
      </trkpt>
      <trkpt lat="46.15774" lon="-1.15498">
        <ele>10</ele>
        <time>2023-07-15T12:39:10.414+00:00</time>
      </trkpt>
      <trkpt lat="46.15771" lon="-1.15501">
        <ele>10</ele>
        <time>2023-07-15T12:39:14.436+00:00</time>
      </trkpt>
      <trkpt lat="46.15767" lon="-1.15504">
        <ele>10</ele>
        <time>2023-07-15T12:39:18.961+00:00</time>
      </trkpt>
      <trkpt lat="46.15762" lon="-1.15506">
        <ele>11</ele>
        <time>2023-07-15T12:39:22.839+00:00</time>
      </trkpt>
      <trkpt lat="46.15758" lon="-1.15509">
        <ele>11</ele>
        <time>2023-07-15T12:39:26.878+00:00</time>
      </trkpt>
      <trkpt lat="46.15754" lon="-1.15511">
        <ele>11</ele>
        <time>2023-07-15T12:39:31.118+00:00</time>
      </trkpt>
      <trkpt lat="46.15749" lon="-1.15513">
        <ele>11</ele>
        <time>2023-07-15T12:39:34.878+00:00</time>
      </trkpt>
      <trkpt lat="46.15749" lon="-1.15514">
        <ele>11</ele>
        <time>2023-07-15T12:39:38.759+00:00</time>
      </trkpt>
      <trkpt lat="46.15748" lon="-1.15513">
        <ele>11</ele>
        <time>2023-07-15T12:40:19.749+00:00</time>
      </trkpt>
      <trkpt lat="46.15747" lon="-1.15511">
        <ele>11</ele>
        <time>2023-07-15T12:40:24.766+00:00</time>
      </trkpt>
      <trkpt lat="46.15744" lon="-1.15509">
        <ele>11</ele>
        <time>2023-07-15T12:40:29.280+00:00</time>
      </trkpt>
      <trkpt lat="46.15745" lon="-1.15511">
        <ele>11</ele>
        <time>2023-07-15T12:40:33.308+00:00</time>
      </trkpt>
      <trkpt lat="46.15744" lon="-1.15511">
        <ele>11</ele>
        <time>2023-07-15T12:40:37.924+00:00</time>
      </trkpt>
      <trkpt lat="46.1574" lon="-1.15512">
        <ele>11</ele>
        <time>2023-07-15T12:40:42.033+00:00</time>
      </trkpt>
      <trkpt lat="46.15736" lon="-1.15517">
        <ele>11</ele>
        <time>2023-07-15T12:40:46.040+00:00</time>
      </trkpt>
      <trkpt lat="46.1573" lon="-1.15524">
        <ele>11</ele>
        <time>2023-07-15T12:40:50.547+00:00</time>
      </trkpt>
      <trkpt lat="46.15726" lon="-1.15532">
        <ele>11</ele>
        <time>2023-07-15T12:40:55.053+00:00</time>
      </trkpt>
      <trkpt lat="46.15719" lon="-1.15542">
        <ele>10</ele>
        <time>2023-07-15T12:40:59.058+00:00</time>
      </trkpt>
      <trkpt lat="46.15714" lon="-1.15546">
        <ele>10</ele>
        <time>2023-07-15T12:41:03.064+00:00</time>
      </trkpt>
      <trkpt lat="46.15708" lon="-1.15548">
        <ele>10</ele>
        <time>2023-07-15T12:41:07.068+00:00</time>
      </trkpt>
      <trkpt lat="46.15702" lon="-1.1555">
        <ele>10</ele>
        <time>2023-07-15T12:41:12.072+00:00</time>
      </trkpt>
      <trkpt lat="46.15697" lon="-1.15553">
        <ele>10</ele>
        <time>2023-07-15T12:41:16.134+00:00</time>
      </trkpt>
      <trkpt lat="46.15695" lon="-1.15554">
        <ele>10</ele>
        <time>2023-07-15T12:41:20.716+00:00</time>
      </trkpt>
      <trkpt lat="46.15697" lon="-1.15561">
        <ele>10</ele>
        <time>2023-07-15T12:41:24.819+00:00</time>
      </trkpt>
      <trkpt lat="46.15695" lon="-1.15568">
        <ele>10</ele>
        <time>2023-07-15T12:41:28.922+00:00</time>
      </trkpt>
      <trkpt lat="46.15697" lon="-1.15576">
        <ele>7</ele>
        <time>2023-07-15T12:41:33.525+00:00</time>
      </trkpt>
      <trkpt lat="46.15698" lon="-1.15586">
        <ele>7</ele>
        <time>2023-07-15T12:41:38.030+00:00</time>
      </trkpt>
      <trkpt lat="46.157" lon="-1.15595">
        <ele>7</ele>
        <time>2023-07-15T12:41:42.533+00:00</time>
      </trkpt>
      <trkpt lat="46.15696" lon="-1.15602">
        <ele>6</ele>
        <time>2023-07-15T12:41:46.595+00:00</time>
      </trkpt>
      <trkpt lat="46.15691" lon="-1.15604">
        <ele>6</ele>
        <time>2023-07-15T12:41:51.098+00:00</time>
      </trkpt>
      <trkpt lat="46.15686" lon="-1.15603">
        <ele>6</ele>
        <time>2023-07-15T12:41:55.641+00:00</time>
      </trkpt>
      <trkpt lat="46.1568" lon="-1.15603">
        <ele>8</ele>
        <time>2023-07-15T12:41:59.816+00:00</time>
      </trkpt>
      <trkpt lat="46.15676" lon="-1.156">
        <ele>8</ele>
        <time>2023-07-15T12:42:04.183+00:00</time>
      </trkpt>
      <trkpt lat="46.15674" lon="-1.15592">
        <ele>9</ele>
        <time>2023-07-15T12:42:08.802+00:00</time>
      </trkpt>
      <trkpt lat="46.15672" lon="-1.15588">
        <ele>9</ele>
        <time>2023-07-15T12:42:12.742+00:00</time>
      </trkpt>
      <trkpt lat="46.15671" lon="-1.15584">
        <ele>9</ele>
        <time>2023-07-15T12:42:17.621+00:00</time>
      </trkpt>
      <trkpt lat="46.1567" lon="-1.15583">
        <ele>9</ele>
        <time>2023-07-15T12:42:22.101+00:00</time>
      </trkpt>
      <trkpt lat="46.1567" lon="-1.15579">
        <ele>9</ele>
        <time>2023-07-15T12:42:30.616+00:00</time>
      </trkpt>
      <trkpt lat="46.15668" lon="-1.15572">
        <ele>9</ele>
        <time>2023-07-15T12:42:35.132+00:00</time>
      </trkpt>
      <trkpt lat="46.15665" lon="-1.15563">
        <ele>11</ele>
        <time>2023-07-15T12:42:39.381+00:00</time>
      </trkpt>
      <trkpt lat="46.15664" lon="-1.15554">
        <ele>11</ele>
        <time>2023-07-15T12:42:43.385+00:00</time>
      </trkpt>
      <trkpt lat="46.15661" lon="-1.15551">
        <ele>11</ele>
        <time>2023-07-15T12:42:47.987+00:00</time>
      </trkpt>
      <trkpt lat="46.15655" lon="-1.15551">
        <ele>11</ele>
        <time>2023-07-15T12:42:53.091+00:00</time>
      </trkpt>
      <trkpt lat="46.15651" lon="-1.1555">
        <ele>11</ele>
        <time>2023-07-15T12:42:57.110+00:00</time>
      </trkpt>
      <trkpt lat="46.15647" lon="-1.15548">
        <ele>11</ele>
        <time>2023-07-15T12:43:01.633+00:00</time>
      </trkpt>
      <trkpt lat="46.15642" lon="-1.15543">
        <ele>11</ele>
        <time>2023-07-15T12:43:05.714+00:00</time>
      </trkpt>
      <trkpt lat="46.15638" lon="-1.15542">
        <ele>11</ele>
        <time>2023-07-15T12:43:09.918+00:00</time>
      </trkpt>
      <trkpt lat="46.15636" lon="-1.15541">
        <ele>12</ele>
        <time>2023-07-15T12:43:14.559+00:00</time>
      </trkpt>
      <trkpt lat="46.15633" lon="-1.15543">
        <ele>11</ele>
        <time>2023-07-15T12:43:18.979+00:00</time>
      </trkpt>
      <trkpt lat="46.15631" lon="-1.15547">
        <ele>11</ele>
        <time>2023-07-15T12:43:22.819+00:00</time>
      </trkpt>
      <trkpt lat="46.1563" lon="-1.15551">
        <ele>11</ele>
        <time>2023-07-15T12:43:28.263+00:00</time>
      </trkpt>
      <trkpt lat="46.15628" lon="-1.15557">
        <ele>11</ele>
        <time>2023-07-15T12:43:32.500+00:00</time>
      </trkpt>
      <trkpt lat="46.15626" lon="-1.15565">
        <ele>11</ele>
        <time>2023-07-15T12:43:36.821+00:00</time>
      </trkpt>
      <trkpt lat="46.15625" lon="-1.1557">
        <ele>9</ele>
        <time>2023-07-15T12:43:41.378+00:00</time>
      </trkpt>
      <trkpt lat="46.15624" lon="-1.15577">
        <ele>9</ele>
        <time>2023-07-15T12:43:45.919+00:00</time>
      </trkpt>
      <trkpt lat="46.15622" lon="-1.15582">
        <ele>9</ele>
        <time>2023-07-15T12:43:49.878+00:00</time>
      </trkpt>
      <trkpt lat="46.15621" lon="-1.1559">
        <ele>9</ele>
        <time>2023-07-15T12:43:54.357+00:00</time>
      </trkpt>
      <trkpt lat="46.15623" lon="-1.15597">
        <ele>9</ele>
        <time>2023-07-15T12:43:58.356+00:00</time>
      </trkpt>
      <trkpt lat="46.15623" lon="-1.15603">
        <ele>10</ele>
        <time>2023-07-15T12:44:03.077+00:00</time>
      </trkpt>
      <trkpt lat="46.15623" lon="-1.15611">
        <ele>10</ele>
        <time>2023-07-15T12:44:07.777+00:00</time>
      </trkpt>
      <trkpt lat="46.15622" lon="-1.15617">
        <ele>10</ele>
        <time>2023-07-15T12:44:12.157+00:00</time>
      </trkpt>
      <trkpt lat="46.15623" lon="-1.15624">
        <ele>10</ele>
        <time>2023-07-15T12:44:16.778+00:00</time>
      </trkpt>
      <trkpt lat="46.15624" lon="-1.1563">
        <ele>10</ele>
        <time>2023-07-15T12:44:21.059+00:00</time>
      </trkpt>
      <trkpt lat="46.15625" lon="-1.15637">
        <ele>10</ele>
        <time>2023-07-15T12:44:25.378+00:00</time>
      </trkpt>
      <trkpt lat="46.15626" lon="-1.15643">
        <ele>9</ele>
        <time>2023-07-15T12:44:30.153+00:00</time>
      </trkpt>
      <trkpt lat="46.15627" lon="-1.15647">
        <ele>9</ele>
        <time>2023-07-15T12:44:34.179+00:00</time>
      </trkpt>
      <trkpt lat="46.15627" lon="-1.15651">
        <ele>9</ele>
        <time>2023-07-15T12:44:37.879+00:00</time>
      </trkpt>
      <trkpt lat="46.15626" lon="-1.15654">
        <ele>9</ele>
        <time>2023-07-15T12:44:42.441+00:00</time>
      </trkpt>
      <trkpt lat="46.15627" lon="-1.15662">
        <ele>9</ele>
        <time>2023-07-15T12:44:46.973+00:00</time>
      </trkpt>
      <trkpt lat="46.15628" lon="-1.15668">
        <ele>9</ele>
        <time>2023-07-15T12:44:50.920+00:00</time>
      </trkpt>
      <trkpt lat="46.15628" lon="-1.15674">
        <ele>9</ele>
        <time>2023-07-15T12:44:55.721+00:00</time>
      </trkpt>
      <trkpt lat="46.15628" lon="-1.15681">
        <ele>9</ele>
        <time>2023-07-15T12:44:59.741+00:00</time>
      </trkpt>
      <trkpt lat="46.15628" lon="-1.15686">
        <ele>9</ele>
        <time>2023-07-15T12:45:04.181+00:00</time>
      </trkpt>
      <trkpt lat="46.15628" lon="-1.15691">
        <ele>9</ele>
        <time>2023-07-15T12:45:08.680+00:00</time>
      </trkpt>
      <trkpt lat="46.15628" lon="-1.15691">
        <ele>9</ele>
        <time>2023-07-15T12:45:12.718+00:00</time>
      </trkpt>
      <trkpt lat="46.15628" lon="-1.15686">
        <ele>9</ele>
        <time>2023-07-15T12:45:17.155+00:00</time>
      </trkpt>
      <trkpt lat="46.15628" lon="-1.15676">
        <ele>9</ele>
        <time>2023-07-15T12:45:21.791+00:00</time>
      </trkpt>
      <trkpt lat="46.15629" lon="-1.15668">
        <ele>9</ele>
        <time>2023-07-15T12:45:26.232+00:00</time>
      </trkpt>
      <trkpt lat="46.15627" lon="-1.15663">
        <ele>9</ele>
        <time>2023-07-15T12:45:30.245+00:00</time>
      </trkpt>
      <trkpt lat="46.15626" lon="-1.15658">
        <ele>9</ele>
        <time>2023-07-15T12:45:34.805+00:00</time>
      </trkpt>
      <trkpt lat="46.15626" lon="-1.15652">
        <ele>9</ele>
        <time>2023-07-15T12:45:39.362+00:00</time>
      </trkpt>
      <trkpt lat="46.15626" lon="-1.15647">
        <ele>9</ele>
        <time>2023-07-15T12:45:43.361+00:00</time>
      </trkpt>
      <trkpt lat="46.15625" lon="-1.15642">
        <ele>9</ele>
        <time>2023-07-15T12:45:47.980+00:00</time>
      </trkpt>
      <trkpt lat="46.15625" lon="-1.15636">
        <ele>9</ele>
        <time>2023-07-15T12:45:52.042+00:00</time>
      </trkpt>
      <trkpt lat="46.15625" lon="-1.15632">
        <ele>10</ele>
        <time>2023-07-15T12:45:56.239+00:00</time>
      </trkpt>
      <trkpt lat="46.15624" lon="-1.15627">
        <ele>10</ele>
        <time>2023-07-15T12:46:00.322+00:00</time>
      </trkpt>
      <trkpt lat="46.15623" lon="-1.15621">
        <ele>10</ele>
        <time>2023-07-15T12:46:04.801+00:00</time>
      </trkpt>
      <trkpt lat="46.15622" lon="-1.15616">
        <ele>10</ele>
        <time>2023-07-15T12:46:09.121+00:00</time>
      </trkpt>
      <trkpt lat="46.15621" lon="-1.15612">
        <ele>10</ele>
        <time>2023-07-15T12:46:13.183+00:00</time>
      </trkpt>
      <trkpt lat="46.1562" lon="-1.15606">
        <ele>10</ele>
        <time>2023-07-15T12:46:17.686+00:00</time>
      </trkpt>
      <trkpt lat="46.15619" lon="-1.156">
        <ele>10</ele>
        <time>2023-07-15T12:46:21.689+00:00</time>
      </trkpt>
      <trkpt lat="46.15619" lon="-1.15593">
        <ele>9</ele>
        <time>2023-07-15T12:46:26.192+00:00</time>
      </trkpt>
      <trkpt lat="46.15619" lon="-1.15589">
        <ele>9</ele>
        <time>2023-07-15T12:46:30.235+00:00</time>
      </trkpt>
      <trkpt lat="46.15616" lon="-1.1558">
        <ele>9</ele>
        <time>2023-07-15T12:46:34.937+00:00</time>
      </trkpt>
      <trkpt lat="46.15615" lon="-1.15579">
        <ele>9</ele>
        <time>2023-07-15T12:46:39.242+00:00</time>
      </trkpt>
      <trkpt lat="46.15615" lon="-1.15579">
        <ele>9</ele>
        <time>2023-07-15T12:47:30.942+00:00</time>
      </trkpt>
      <trkpt lat="46.15614" lon="-1.1558">
        <ele>9</ele>
        <time>2023-07-15T12:47:36.044+00:00</time>
      </trkpt>
      <trkpt lat="46.15608" lon="-1.15581">
        <ele>9</ele>
        <time>2023-07-15T12:47:40.926+00:00</time>
      </trkpt>
      <trkpt lat="46.15624" lon="-1.15502">
        <ele>9</ele>
        <time>2023-07-15T12:47:44.985+00:00</time>
      </trkpt>
      <trkpt lat="46.15629" lon="-1.15503">
        <ele>11</ele>
        <time>2023-07-15T12:47:50.205+00:00</time>
      </trkpt>
      <trkpt lat="46.15644" lon="-1.15497">
        <ele>11</ele>
        <time>2023-07-15T12:49:40.956+00:00</time>
      </trkpt>
      <trkpt lat="46.15651" lon="-1.1549">
        <ele>11</ele>
        <time>2023-07-15T12:49:45.474+00:00</time>
      </trkpt>
      <trkpt lat="46.15655" lon="-1.15484">
        <ele>9</ele>
        <time>2023-07-15T12:49:49.489+00:00</time>
      </trkpt>
      <trkpt lat="46.15657" lon="-1.15478">
        <ele>9</ele>
        <time>2023-07-15T12:49:54.020+00:00</time>
      </trkpt>
      <trkpt lat="46.15659" lon="-1.15471">
        <ele>9</ele>
        <time>2023-07-15T12:49:58.032+00:00</time>
      </trkpt>
      <trkpt lat="46.15658" lon="-1.15466">
        <ele>9</ele>
        <time>2023-07-15T12:50:02.144+00:00</time>
      </trkpt>
      <trkpt lat="46.15658" lon="-1.15463">
        <ele>9</ele>
        <time>2023-07-15T12:50:06.155+00:00</time>
      </trkpt>
      <trkpt lat="46.1566" lon="-1.15457">
        <ele>7</ele>
        <time>2023-07-15T12:50:10.666+00:00</time>
      </trkpt>
      <trkpt lat="46.15662" lon="-1.15453">
        <ele>7</ele>
        <time>2023-07-15T12:50:15.181+00:00</time>
      </trkpt>
      <trkpt lat="46.15664" lon="-1.15447">
        <ele>7</ele>
        <time>2023-07-15T12:50:19.210+00:00</time>
      </trkpt>
      <trkpt lat="46.15666" lon="-1.15442">
        <ele>7</ele>
        <time>2023-07-15T12:50:22.721+00:00</time>
      </trkpt>
      <trkpt lat="46.15665" lon="-1.15436">
        <ele>7</ele>
        <time>2023-07-15T12:50:27.236+00:00</time>
      </trkpt>
      <trkpt lat="46.15667" lon="-1.15431">
        <ele>7</ele>
        <time>2023-07-15T12:50:31.248+00:00</time>
      </trkpt>
      <trkpt lat="46.1567" lon="-1.15429">
        <ele>6</ele>
        <time>2023-07-15T12:50:35.260+00:00</time>
      </trkpt>
      <trkpt lat="46.15674" lon="-1.15425">
        <ele>6</ele>
        <time>2023-07-15T12:50:39.776+00:00</time>
      </trkpt>
      <trkpt lat="46.15677" lon="-1.15421">
        <ele>6</ele>
        <time>2023-07-15T12:50:43.790+00:00</time>
      </trkpt>
      <trkpt lat="46.15679" lon="-1.15417">
        <ele>6</ele>
        <time>2023-07-15T12:50:48.306+00:00</time>
      </trkpt>
      <trkpt lat="46.15682" lon="-1.15415">
        <ele>7</ele>
        <time>2023-07-15T12:50:52.420+00:00</time>
      </trkpt>
      <trkpt lat="46.15685" lon="-1.15413">
        <ele>7</ele>
        <time>2023-07-15T12:50:56.534+00:00</time>
      </trkpt>
      <trkpt lat="46.15688" lon="-1.15411">
        <ele>7</ele>
        <time>2023-07-15T12:51:01.064+00:00</time>
      </trkpt>
      <trkpt lat="46.15691" lon="-1.15408">
        <ele>7</ele>
        <time>2023-07-15T12:51:05.078+00:00</time>
      </trkpt>
      <trkpt lat="46.15696" lon="-1.15405">
        <ele>7</ele>
        <time>2023-07-15T12:51:09.089+00:00</time>
      </trkpt>
      <trkpt lat="46.15698" lon="-1.15404">
        <ele>7</ele>
        <time>2023-07-15T12:51:13.602+00:00</time>
      </trkpt>
      <trkpt lat="46.15702" lon="-1.15402">
        <ele>5</ele>
        <time>2023-07-15T12:51:18.234+00:00</time>
      </trkpt>
      <trkpt lat="46.15706" lon="-1.15401">
        <ele>5</ele>
        <time>2023-07-15T12:51:22.328+00:00</time>
      </trkpt>
      <trkpt lat="46.1571" lon="-1.15398">
        <ele>7</ele>
        <time>2023-07-15T12:51:26.340+00:00</time>
      </trkpt>
      <trkpt lat="46.15713" lon="-1.15394">
        <ele>7</ele>
        <time>2023-07-15T12:51:30.854+00:00</time>
      </trkpt>
      <trkpt lat="46.15716" lon="-1.15392">
        <ele>7</ele>
        <time>2023-07-15T12:51:35.365+00:00</time>
      </trkpt>
      <trkpt lat="46.15719" lon="-1.15389">
        <ele>7</ele>
        <time>2023-07-15T12:51:39.871+00:00</time>
      </trkpt>
      <trkpt lat="46.15722" lon="-1.15387">
        <ele>7</ele>
        <time>2023-07-15T12:51:44.393+00:00</time>
      </trkpt>
      <trkpt lat="46.15727" lon="-1.15384">
        <ele>7</ele>
        <time>2023-07-15T12:51:48.994+00:00</time>
      </trkpt>
      <trkpt lat="46.15732" lon="-1.1538">
        <ele>7</ele>
        <time>2023-07-15T12:51:53.374+00:00</time>
      </trkpt>
      <trkpt lat="46.15737" lon="-1.15378">
        <ele>9</ele>
        <time>2023-07-15T12:51:57.594+00:00</time>
      </trkpt>
      <trkpt lat="46.15741" lon="-1.15376">
        <ele>9</ele>
        <time>2023-07-15T12:52:01.835+00:00</time>
      </trkpt>
      <trkpt lat="46.15746" lon="-1.15371">
        <ele>7</ele>
        <time>2023-07-15T12:52:06.374+00:00</time>
      </trkpt>
      <trkpt lat="46.1575" lon="-1.15368">
        <ele>7</ele>
        <time>2023-07-15T12:52:11.048+00:00</time>
      </trkpt>
      <trkpt lat="46.15754" lon="-1.15366">
        <ele>7</ele>
        <time>2023-07-15T12:52:15.256+00:00</time>
      </trkpt>
      <trkpt lat="46.15757" lon="-1.15363">
        <ele>7</ele>
        <time>2023-07-15T12:52:19.596+00:00</time>
      </trkpt>
      <trkpt lat="46.15761" lon="-1.1536">
        <ele>7</ele>
        <time>2023-07-15T12:52:23.936+00:00</time>
      </trkpt>
      <trkpt lat="46.15765" lon="-1.15356">
        <ele>8</ele>
        <time>2023-07-15T12:52:27.974+00:00</time>
      </trkpt>
      <trkpt lat="46.15768" lon="-1.15353">
        <ele>8</ele>
        <time>2023-07-15T12:52:32.171+00:00</time>
      </trkpt>
      <trkpt lat="46.15774" lon="-1.15349">
        <ele>8</ele>
        <time>2023-07-15T12:52:36.089+00:00</time>
      </trkpt>
      <trkpt lat="46.15778" lon="-1.15346">
        <ele>5</ele>
        <time>2023-07-15T12:52:40.627+00:00</time>
      </trkpt>
      <trkpt lat="46.15781" lon="-1.15346">
        <ele>5</ele>
        <time>2023-07-15T12:52:45.210+00:00</time>
      </trkpt>
      <trkpt lat="46.15783" lon="-1.15342">
        <ele>5</ele>
        <time>2023-07-15T12:52:49.240+00:00</time>
      </trkpt>
      <trkpt lat="46.15783" lon="-1.15337">
        <ele>5</ele>
        <time>2023-07-15T12:52:53.799+00:00</time>
      </trkpt>
      <trkpt lat="46.15783" lon="-1.15329">
        <ele>5</ele>
        <time>2023-07-15T12:52:58.596+00:00</time>
      </trkpt>
      <trkpt lat="46.15786" lon="-1.15327">
        <ele>5</ele>
        <time>2023-07-15T12:53:03.294+00:00</time>
      </trkpt>
      <trkpt lat="46.15785" lon="-1.15316">
        <ele>3</ele>
        <time>2023-07-15T12:53:07.834+00:00</time>
      </trkpt>
      <trkpt lat="46.15787" lon="-1.15308">
        <ele>3</ele>
        <time>2023-07-15T12:53:12.655+00:00</time>
      </trkpt>
      <trkpt lat="46.15789" lon="-1.15302">
        <ele>3</ele>
        <time>2023-07-15T12:53:17.128+00:00</time>
      </trkpt>
      <trkpt lat="46.15793" lon="-1.15298">
        <ele>5</ele>
        <time>2023-07-15T12:53:20.836+00:00</time>
      </trkpt>
      <trkpt lat="46.15798" lon="-1.15294">
        <ele>5</ele>
        <time>2023-07-15T12:53:25.256+00:00</time>
      </trkpt>
      <trkpt lat="46.15801" lon="-1.15288">
        <ele>5</ele>
        <time>2023-07-15T12:53:29.217+00:00</time>
      </trkpt>
      <trkpt lat="46.15804" lon="-1.15284">
        <ele>5</ele>
        <time>2023-07-15T12:53:33.558+00:00</time>
      </trkpt>
      <trkpt lat="46.15807" lon="-1.15277">
        <ele>5</ele>
        <time>2023-07-15T12:53:38.037+00:00</time>
      </trkpt>
      <trkpt lat="46.1581" lon="-1.15271">
        <ele>5</ele>
        <time>2023-07-15T12:53:41.977+00:00</time>
      </trkpt>
      <trkpt lat="46.15811" lon="-1.15263">
        <ele>4</ele>
        <time>2023-07-15T12:53:46.695+00:00</time>
      </trkpt>
      <trkpt lat="46.15811" lon="-1.15257">
        <ele>4</ele>
        <time>2023-07-15T12:53:51.047+00:00</time>
      </trkpt>
      <trkpt lat="46.15811" lon="-1.15249">
        <ele>4</ele>
        <time>2023-07-15T12:53:54.914+00:00</time>
      </trkpt>
      <trkpt lat="46.15811" lon="-1.15242">
        <ele>4</ele>
        <time>2023-07-15T12:53:59.313+00:00</time>
      </trkpt>
      <trkpt lat="46.15811" lon="-1.15236">
        <ele>4</ele>
        <time>2023-07-15T12:54:04.113+00:00</time>
      </trkpt>
      <trkpt lat="46.15811" lon="-1.15229">
        <ele>4</ele>
        <time>2023-07-15T12:54:08.572+00:00</time>
      </trkpt>
      <trkpt lat="46.15811" lon="-1.15223">
        <ele>4</ele>
        <time>2023-07-15T12:54:13.230+00:00</time>
      </trkpt>
      <trkpt lat="46.15812" lon="-1.15216">
        <ele>4</ele>
        <time>2023-07-15T12:54:17.769+00:00</time>
      </trkpt>
      <trkpt lat="46.15813" lon="-1.15209">
        <ele>4</ele>
        <time>2023-07-15T12:54:22.217+00:00</time>
      </trkpt>
      <trkpt lat="46.15813" lon="-1.15202">
        <ele>4</ele>
        <time>2023-07-15T12:54:25.970+00:00</time>
      </trkpt>
      <trkpt lat="46.15813" lon="-1.15195">
        <ele>4</ele>
        <time>2023-07-15T12:54:30.631+00:00</time>
      </trkpt>
      <trkpt lat="46.15813" lon="-1.15188">
        <ele>4</ele>
        <time>2023-07-15T12:54:35.172+00:00</time>
      </trkpt>
      <trkpt lat="46.15813" lon="-1.15182">
        <ele>4</ele>
        <time>2023-07-15T12:54:39.309+00:00</time>
      </trkpt>
      <trkpt lat="46.15813" lon="-1.15175">
        <ele>4</ele>
        <time>2023-07-15T12:54:43.348+00:00</time>
      </trkpt>
      <trkpt lat="46.15813" lon="-1.15169">
        <ele>4</ele>
        <time>2023-07-15T12:54:47.444+00:00</time>
      </trkpt>
      <trkpt lat="46.15812" lon="-1.15162">
        <ele>4</ele>
        <time>2023-07-15T12:54:51.963+00:00</time>
      </trkpt>
      <trkpt lat="46.15812" lon="-1.15155">
        <ele>4</ele>
        <time>2023-07-15T12:54:55.922+00:00</time>
      </trkpt>
      <trkpt lat="46.1581" lon="-1.15151">
        <ele>3</ele>
        <time>2023-07-15T12:55:00.530+00:00</time>
      </trkpt>
      <trkpt lat="46.1581" lon="-1.15143">
        <ele>3</ele>
        <time>2023-07-15T12:55:04.438+00:00</time>
      </trkpt>
      <trkpt lat="46.1581" lon="-1.15136">
        <ele>3</ele>
        <time>2023-07-15T12:55:08.444+00:00</time>
      </trkpt>
      <trkpt lat="46.1581" lon="-1.1513">
        <ele>3</ele>
        <time>2023-07-15T12:55:12.907+00:00</time>
      </trkpt>
      <trkpt lat="46.15811" lon="-1.15124">
        <ele>1</ele>
        <time>2023-07-15T12:55:16.955+00:00</time>
      </trkpt>
      <trkpt lat="46.15811" lon="-1.15117">
        <ele>1</ele>
        <time>2023-07-15T12:55:21.153+00:00</time>
      </trkpt>
      <trkpt lat="46.15811" lon="-1.15111">
        <ele>1</ele>
        <time>2023-07-15T12:55:25.236+00:00</time>
      </trkpt>
      <trkpt lat="46.15809" lon="-1.15103">
        <ele>1</ele>
        <time>2023-07-15T12:55:29.731+00:00</time>
      </trkpt>
      <trkpt lat="46.15807" lon="-1.15097">
        <ele>1</ele>
        <time>2023-07-15T12:55:34.131+00:00</time>
      </trkpt>
      <trkpt lat="46.15804" lon="-1.15092">
        <ele>2</ele>
        <time>2023-07-15T12:55:38.729+00:00</time>
      </trkpt>
      <trkpt lat="46.15802" lon="-1.15087">
        <ele>2</ele>
        <time>2023-07-15T12:55:43.209+00:00</time>
      </trkpt>
      <trkpt lat="46.15799" lon="-1.15081">
        <ele>2</ele>
        <time>2023-07-15T12:55:47.405+00:00</time>
      </trkpt>
      <trkpt lat="46.15797" lon="-1.15076">
        <ele>2</ele>
        <time>2023-07-15T12:55:51.603+00:00</time>
      </trkpt>
      <trkpt lat="46.15795" lon="-1.15071">
        <ele>2</ele>
        <time>2023-07-15T12:55:56.240+00:00</time>
      </trkpt>
      <trkpt lat="46.15792" lon="-1.15067">
        <ele>4</ele>
        <time>2023-07-15T12:56:00.798+00:00</time>
      </trkpt>
      <trkpt lat="46.15787" lon="-1.15066">
        <ele>4</ele>
        <time>2023-07-15T12:56:05.355+00:00</time>
      </trkpt>
      <trkpt lat="46.15782" lon="-1.15064">
        <ele>4</ele>
        <time>2023-07-15T12:56:09.373+00:00</time>
      </trkpt>
      <trkpt lat="46.15779" lon="-1.15059">
        <ele>4</ele>
        <time>2023-07-15T12:56:14.051+00:00</time>
      </trkpt>
      <trkpt lat="46.15776" lon="-1.15056">
        <ele>4</ele>
        <time>2023-07-15T12:56:18.668+00:00</time>
      </trkpt>
      <trkpt lat="46.15774" lon="-1.15056">
        <ele>4</ele>
        <time>2023-07-15T12:56:27.786+00:00</time>
      </trkpt>
      <trkpt lat="46.15773" lon="-1.15056">
        <ele>4</ele>
        <time>2023-07-15T12:56:32.743+00:00</time>
      </trkpt>
      <trkpt lat="46.15771" lon="-1.15056">
        <ele>4</ele>
        <time>2023-07-15T12:56:37.248+00:00</time>
      </trkpt>
      <trkpt lat="46.1577" lon="-1.15055">
        <ele>4</ele>
        <time>2023-07-15T12:56:41.262+00:00</time>
      </trkpt>
      <trkpt lat="46.15767" lon="-1.15052">
        <ele>4</ele>
        <time>2023-07-15T12:56:45.975+00:00</time>
      </trkpt>
      <trkpt lat="46.15764" lon="-1.15048">
        <ele>4</ele>
        <time>2023-07-15T12:56:50.172+00:00</time>
      </trkpt>
      <trkpt lat="46.15762" lon="-1.15045">
        <ele>4</ele>
        <time>2023-07-15T12:56:54.671+00:00</time>
      </trkpt>
      <trkpt lat="46.15759" lon="-1.15043">
        <ele>4</ele>
        <time>2023-07-15T12:56:58.551+00:00</time>
      </trkpt>
      <trkpt lat="46.15757" lon="-1.15041">
        <ele>7</ele>
        <time>2023-07-15T12:57:03.072+00:00</time>
      </trkpt>
      <trkpt lat="46.15754" lon="-1.15039">
        <ele>7</ele>
        <time>2023-07-15T12:57:06.988+00:00</time>
      </trkpt>
      <trkpt lat="46.15751" lon="-1.15036">
        <ele>7</ele>
        <time>2023-07-15T12:57:10.945+00:00</time>
      </trkpt>
      <trkpt lat="46.15747" lon="-1.15034">
        <ele>7</ele>
        <time>2023-07-15T12:57:15.581+00:00</time>
      </trkpt>
      <trkpt lat="46.15742" lon="-1.15031">
        <ele>7</ele>
        <time>2023-07-15T12:57:20.179+00:00</time>
      </trkpt>
      <trkpt lat="46.15737" lon="-1.15025">
        <ele>7</ele>
        <time>2023-07-15T12:57:24.232+00:00</time>
      </trkpt>
      <trkpt lat="46.15733" lon="-1.15022">
        <ele>4</ele>
        <time>2023-07-15T12:57:28.837+00:00</time>
      </trkpt>
      <trkpt lat="46.15729" lon="-1.15021">
        <ele>4</ele>
        <time>2023-07-15T12:57:33.435+00:00</time>
      </trkpt>
      <trkpt lat="46.15725" lon="-1.15019">
        <ele>4</ele>
        <time>2023-07-15T12:57:38.089+00:00</time>
      </trkpt>
      <trkpt lat="46.15722" lon="-1.15016">
        <ele>4</ele>
        <time>2023-07-15T12:57:42.252+00:00</time>
      </trkpt>
      <trkpt lat="46.15718" lon="-1.15014">
        <ele>4</ele>
        <time>2023-07-15T12:57:46.756+00:00</time>
      </trkpt>
      <trkpt lat="46.15714" lon="-1.15018">
        <ele>4</ele>
        <time>2023-07-15T12:57:50.093+00:00</time>
      </trkpt>
      <trkpt lat="46.15709" lon="-1.15022">
        <ele>4</ele>
        <time>2023-07-15T12:57:59.173+00:00</time>
      </trkpt>
      <trkpt lat="46.15705" lon="-1.15015">
        <ele>2</ele>
        <time>2023-07-15T12:58:03.186+00:00</time>
      </trkpt>
      <trkpt lat="46.15705" lon="-1.15008">
        <ele>4</ele>
        <time>2023-07-15T12:58:07.500+00:00</time>
      </trkpt>
      <trkpt lat="46.15704" lon="-1.15004">
        <ele>4</ele>
        <time>2023-07-15T12:58:11.613+00:00</time>
      </trkpt>
      <trkpt lat="46.15702" lon="-1.15001">
        <ele>4</ele>
        <time>2023-07-15T12:58:16.128+00:00</time>
      </trkpt>
      <trkpt lat="46.15697" lon="-1.14997">
        <ele>4</ele>
        <time>2023-07-15T12:58:21.142+00:00</time>
      </trkpt>
      <trkpt lat="46.15695" lon="-1.14995">
        <ele>4</ele>
        <time>2023-07-15T12:58:25.154+00:00</time>
      </trkpt>
      <trkpt lat="46.15699" lon="-1.14985">
        <ele>6</ele>
        <time>2023-07-15T12:58:29.766+00:00</time>
      </trkpt>
      <trkpt lat="46.15692" lon="-1.14981">
        <ele>6</ele>
        <time>2023-07-15T12:58:34.783+00:00</time>
      </trkpt>
      <trkpt lat="46.15688" lon="-1.14984">
        <ele>6</ele>
        <time>2023-07-15T12:59:02.602+00:00</time>
      </trkpt>
      <trkpt lat="46.15683" lon="-1.14987">
        <ele>4</ele>
        <time>2023-07-15T12:59:07.129+00:00</time>
      </trkpt>
      <trkpt lat="46.1568" lon="-1.14988">
        <ele>2</ele>
        <time>2023-07-15T12:59:10.729+00:00</time>
      </trkpt>
      <trkpt lat="46.15678" lon="-1.14986">
        <ele>5</ele>
        <time>2023-07-15T12:59:15.144+00:00</time>
      </trkpt>
      <trkpt lat="46.15676" lon="-1.14985">
        <ele>5</ele>
        <time>2023-07-15T12:59:18.756+00:00</time>
      </trkpt>
      <trkpt lat="46.1567" lon="-1.14981">
        <ele>5</ele>
        <time>2023-07-15T12:59:23.271+00:00</time>
      </trkpt>
      <trkpt lat="46.15663" lon="-1.14978">
        <ele>5</ele>
        <time>2023-07-15T12:59:27.285+00:00</time>
      </trkpt>
      <trkpt lat="46.15658" lon="-1.14975">
        <ele>5</ele>
        <time>2023-07-15T12:59:31.399+00:00</time>
      </trkpt>
      <trkpt lat="46.15654" lon="-1.14973">
        <ele>5</ele>
        <time>2023-07-15T12:59:35.913+00:00</time>
      </trkpt>
      <trkpt lat="46.15649" lon="-1.14972">
        <ele>4</ele>
        <time>2023-07-15T12:59:39.924+00:00</time>
      </trkpt>
      <trkpt lat="46.15646" lon="-1.14969">
        <ele>4</ele>
        <time>2023-07-15T12:59:43.936+00:00</time>
      </trkpt>
      <trkpt lat="46.15642" lon="-1.14969">
        <ele>4</ele>
        <time>2023-07-15T12:59:48.548+00:00</time>
      </trkpt>
      <trkpt lat="46.15637" lon="-1.14966">
        <ele>4</ele>
        <time>2023-07-15T12:59:52.560+00:00</time>
      </trkpt>
      <trkpt lat="46.15632" lon="-1.14968">
        <ele>4</ele>
        <time>2023-07-15T12:59:57.072+00:00</time>
      </trkpt>
      <trkpt lat="46.15627" lon="-1.1497">
        <ele>4</ele>
        <time>2023-07-15T13:00:01.702+00:00</time>
      </trkpt>
      <trkpt lat="46.15624" lon="-1.14978">
        <ele>4</ele>
        <time>2023-07-15T13:00:05.713+00:00</time>
      </trkpt>
      <trkpt lat="46.1562" lon="-1.14978">
        <ele>4</ele>
        <time>2023-07-15T13:00:10.328+00:00</time>
      </trkpt>
      <trkpt lat="46.15616" lon="-1.14977">
        <ele>4</ele>
        <time>2023-07-15T13:00:14.943+00:00</time>
      </trkpt>
      <trkpt lat="46.1561" lon="-1.14973">
        <ele>4</ele>
        <time>2023-07-15T13:00:18.956+00:00</time>
      </trkpt>
      <trkpt lat="46.15605" lon="-1.14972">
        <ele>4</ele>
        <time>2023-07-15T13:00:22.967+00:00</time>
      </trkpt>
      <trkpt lat="46.156" lon="-1.14972">
        <ele>4</ele>
        <time>2023-07-15T13:00:27.480+00:00</time>
      </trkpt>
      <trkpt lat="46.15595" lon="-1.14971">
        <ele>4</ele>
        <time>2023-07-15T13:00:32.009+00:00</time>
      </trkpt>
      <trkpt lat="46.15591" lon="-1.14973">
        <ele>4</ele>
        <time>2023-07-15T13:00:36.019+00:00</time>
      </trkpt>
      <trkpt lat="46.15588" lon="-1.14975">
        <ele>4</ele>
        <time>2023-07-15T13:00:40.534+00:00</time>
      </trkpt>
      <trkpt lat="46.15584" lon="-1.14971">
        <ele>4</ele>
        <time>2023-07-15T13:00:45.045+00:00</time>
      </trkpt>
      <trkpt lat="46.15578" lon="-1.14969">
        <ele>4</ele>
        <time>2023-07-15T13:00:49.051+00:00</time>
      </trkpt>
      <trkpt lat="46.15574" lon="-1.14969">
        <ele>4</ele>
        <time>2023-07-15T13:00:53.558+00:00</time>
      </trkpt>
      <trkpt lat="46.15573" lon="-1.14971">
        <ele>4</ele>
        <time>2023-07-15T13:00:58.067+00:00</time>
      </trkpt>
      <trkpt lat="46.15569" lon="-1.14971">
        <ele>4</ele>
        <time>2023-07-15T13:01:03.077+00:00</time>
      </trkpt>
      <trkpt lat="46.15566" lon="-1.14971">
        <ele>4</ele>
        <time>2023-07-15T13:01:07.586+00:00</time>
      </trkpt>
      <trkpt lat="46.15562" lon="-1.14974">
        <ele>4</ele>
        <time>2023-07-15T13:01:12.096+00:00</time>
      </trkpt>
      <trkpt lat="46.15558" lon="-1.14975">
        <ele>4</ele>
        <time>2023-07-15T13:01:16.104+00:00</time>
      </trkpt>
      <trkpt lat="46.15552" lon="-1.14973">
        <ele>4</ele>
        <time>2023-07-15T13:01:20.612+00:00</time>
      </trkpt>
      <trkpt lat="46.15547" lon="-1.1497">
        <ele>4</ele>
        <time>2023-07-15T13:01:25.119+00:00</time>
      </trkpt>
      <trkpt lat="46.15543" lon="-1.1497">
        <ele>4</ele>
        <time>2023-07-15T13:01:29.624+00:00</time>
      </trkpt>
      <trkpt lat="46.15538" lon="-1.14969">
        <ele>2</ele>
        <time>2023-07-15T13:01:34.130+00:00</time>
      </trkpt>
      <trkpt lat="46.15533" lon="-1.14968">
        <ele>2</ele>
        <time>2023-07-15T13:01:38.633+00:00</time>
      </trkpt>
      <trkpt lat="46.15529" lon="-1.14971">
        <ele>2</ele>
        <time>2023-07-15T13:01:42.737+00:00</time>
      </trkpt>
      <trkpt lat="46.15526" lon="-1.14974">
        <ele>2</ele>
        <time>2023-07-15T13:01:47.241+00:00</time>
      </trkpt>
      <trkpt lat="46.15508" lon="-1.14982">
        <ele>1</ele>
        <time>2023-07-15T13:01:51.744+00:00</time>
      </trkpt>
      <trkpt lat="46.15507" lon="-1.14985">
        <ele>1</ele>
        <time>2023-07-15T13:01:56.247+00:00</time>
      </trkpt>
      <trkpt lat="46.15506" lon="-1.1499">
        <ele>2</ele>
        <time>2023-07-15T13:06:20.211+00:00</time>
      </trkpt>
      <trkpt lat="46.15506" lon="-1.14996">
        <ele>2</ele>
        <time>2023-07-15T13:06:25.220+00:00</time>
      </trkpt>
      <trkpt lat="46.15506" lon="-1.14997">
        <ele>2</ele>
        <time>2023-07-15T13:06:29.216+00:00</time>
      </trkpt>
      <trkpt lat="46.1551" lon="-1.14991">
        <ele>2</ele>
        <time>2023-07-15T13:06:34.223+00:00</time>
      </trkpt>
      <trkpt lat="46.15511" lon="-1.1499">
        <ele>2</ele>
        <time>2023-07-15T13:06:38.233+00:00</time>
      </trkpt>
      <trkpt lat="46.15511" lon="-1.14989">
        <ele>2</ele>
        <time>2023-07-15T13:07:16.220+00:00</time>
      </trkpt>
      <trkpt lat="46.15513" lon="-1.14988">
        <ele>2</ele>
        <time>2023-07-15T13:07:20.223+00:00</time>
      </trkpt>
      <trkpt lat="46.15518" lon="-1.1499">
        <ele>4</ele>
        <time>2023-07-15T13:07:24.220+00:00</time>
      </trkpt>
      <trkpt lat="46.15521" lon="-1.1498">
        <ele>2</ele>
        <time>2023-07-15T13:07:28.192+00:00</time>
      </trkpt>
      <trkpt lat="46.15521" lon="-1.1498">
        <ele>2</ele>
        <time>2023-07-15T13:07:33.198+00:00</time>
      </trkpt>
      <trkpt lat="46.15519" lon="-1.14978">
        <ele>2</ele>
        <time>2023-07-15T13:08:27.007+00:00</time>
      </trkpt>
      <trkpt lat="46.15519" lon="-1.14978">
        <ele>2</ele>
        <time>2023-07-15T13:08:29.553+00:00</time>
      </trkpt>
      <trkpt lat="46.15519" lon="-1.14976">
        <ele>2</ele>
        <time>2023-07-15T13:08:37.017+00:00</time>
      </trkpt>
      <trkpt lat="46.15517" lon="-1.14973">
        <ele>2</ele>
        <time>2023-07-15T13:08:42.117+00:00</time>
      </trkpt>
      <trkpt lat="46.1551" lon="-1.14973">
        <ele>1</ele>
        <time>2023-07-15T13:08:46.912+00:00</time>
      </trkpt>
      <trkpt lat="46.15503" lon="-1.14974">
        <ele>1</ele>
        <time>2023-07-15T13:11:48.467+00:00</time>
      </trkpt>
      <trkpt lat="46.15499" lon="-1.14976">
        <ele>1</ele>
        <time>2023-07-15T13:11:53.028+00:00</time>
      </trkpt>
      <trkpt lat="46.15495" lon="-1.14977">
        <ele>1</ele>
        <time>2023-07-15T13:11:57.348+00:00</time>
      </trkpt>
      <trkpt lat="46.15493" lon="-1.14981">
        <ele>1</ele>
        <time>2023-07-15T13:12:02.209+00:00</time>
      </trkpt>
      <trkpt lat="46.15489" lon="-1.14983">
        <ele>1</ele>
        <time>2023-07-15T13:12:05.870+00:00</time>
      </trkpt>
      <trkpt lat="46.15484" lon="-1.14983">
        <ele>1</ele>
        <time>2023-07-15T13:12:10.330+00:00</time>
      </trkpt>
      <trkpt lat="46.1548" lon="-1.1498">
        <ele>1</ele>
        <time>2023-07-15T13:12:15.071+00:00</time>
      </trkpt>
      <trkpt lat="46.15476" lon="-1.14979">
        <ele>1</ele>
        <time>2023-07-15T13:12:19.793+00:00</time>
      </trkpt>
      <trkpt lat="46.15472" lon="-1.14979">
        <ele>1</ele>
        <time>2023-07-15T13:12:24.594+00:00</time>
      </trkpt>
      <trkpt lat="46.15467" lon="-1.14981">
        <ele>1</ele>
        <time>2023-07-15T13:12:29.054+00:00</time>
      </trkpt>
      <trkpt lat="46.15463" lon="-1.14979">
        <ele>1</ele>
        <time>2023-07-15T13:12:32.974+00:00</time>
      </trkpt>
      <trkpt lat="46.1546" lon="-1.14981">
        <ele>1</ele>
        <time>2023-07-15T13:12:37.532+00:00</time>
      </trkpt>
      <trkpt lat="46.15456" lon="-1.14982">
        <ele>2</ele>
        <time>2023-07-15T13:12:42.152+00:00</time>
      </trkpt>
      <trkpt lat="46.15453" lon="-1.14981">
        <ele>2</ele>
        <time>2023-07-15T13:12:46.242+00:00</time>
      </trkpt>
      <trkpt lat="46.1545" lon="-1.14981">
        <ele>2</ele>
        <time>2023-07-15T13:12:50.847+00:00</time>
      </trkpt>
      <trkpt lat="46.15448" lon="-1.14981">
        <ele>2</ele>
        <time>2023-07-15T13:12:54.964+00:00</time>
      </trkpt>
      <trkpt lat="46.15444" lon="-1.14981">
        <ele>2</ele>
        <time>2023-07-15T13:12:59.142+00:00</time>
      </trkpt>
      <trkpt lat="46.15439" lon="-1.14978">
        <ele>2</ele>
        <time>2023-07-15T13:13:03.601+00:00</time>
      </trkpt>
      <trkpt lat="46.15435" lon="-1.14979">
        <ele>2</ele>
        <time>2023-07-15T13:13:07.618+00:00</time>
      </trkpt>
      <trkpt lat="46.15431" lon="-1.14979">
        <ele>2</ele>
        <time>2023-07-15T13:13:12.538+00:00</time>
      </trkpt>
      <trkpt lat="46.15429" lon="-1.14981">
        <ele>3</ele>
        <time>2023-07-15T13:13:16.421+00:00</time>
      </trkpt>
      <trkpt lat="46.15429" lon="-1.14981">
        <ele>3</ele>
        <time>2023-07-15T13:13:20.943+00:00</time>
      </trkpt>
      <trkpt lat="46.15426" lon="-1.14981">
        <ele>3</ele>
        <time>2023-07-15T13:13:25.962+00:00</time>
      </trkpt>
      <trkpt lat="46.15422" lon="-1.1498">
        <ele>3</ele>
        <time>2023-07-15T13:13:31.240+00:00</time>
      </trkpt>
      <trkpt lat="46.15418" lon="-1.14979">
        <ele>3</ele>
        <time>2023-07-15T13:13:35.436+00:00</time>
      </trkpt>
      <trkpt lat="46.15413" lon="-1.14978">
        <ele>3</ele>
        <time>2023-07-15T13:13:39.573+00:00</time>
      </trkpt>
      <trkpt lat="46.15408" lon="-1.1498">
        <ele>3</ele>
        <time>2023-07-15T13:13:43.313+00:00</time>
      </trkpt>
      <trkpt lat="46.15405" lon="-1.14982">
        <ele>3</ele>
        <time>2023-07-15T13:13:48.134+00:00</time>
      </trkpt>
      <trkpt lat="46.15406" lon="-1.14988">
        <ele>1</ele>
        <time>2023-07-15T13:13:52.675+00:00</time>
      </trkpt>
      <trkpt lat="46.15405" lon="-1.14994">
        <ele>1</ele>
        <time>2023-07-15T13:13:57.317+00:00</time>
      </trkpt>
      <trkpt lat="46.15405" lon="-1.14999">
        <ele>1</ele>
        <time>2023-07-15T13:14:01.497+00:00</time>
      </trkpt>
      <trkpt lat="46.15405" lon="-1.15005">
        <ele>1</ele>
        <time>2023-07-15T13:14:05.357+00:00</time>
      </trkpt>
      <trkpt lat="46.15405" lon="-1.1501">
        <ele>1</ele>
        <time>2023-07-15T13:14:09.435+00:00</time>
      </trkpt>
      <trkpt lat="46.15404" lon="-1.15016">
        <ele>2</ele>
        <time>2023-07-15T13:14:14.034+00:00</time>
      </trkpt>
      <trkpt lat="46.15404" lon="-1.15022">
        <ele>2</ele>
        <time>2023-07-15T13:14:18.052+00:00</time>
      </trkpt>
      <trkpt lat="46.15405" lon="-1.15027">
        <ele>2</ele>
        <time>2023-07-15T13:14:22.572+00:00</time>
      </trkpt>
      <trkpt lat="46.15404" lon="-1.15031">
        <ele>2</ele>
        <time>2023-07-15T13:14:27.170+00:00</time>
      </trkpt>
      <trkpt lat="46.15404" lon="-1.15034">
        <ele>2</ele>
        <time>2023-07-15T13:14:31.749+00:00</time>
      </trkpt>
      <trkpt lat="46.15402" lon="-1.15039">
        <ele>3</ele>
        <time>2023-07-15T13:14:35.946+00:00</time>
      </trkpt>
      <trkpt lat="46.15404" lon="-1.15043">
        <ele>2</ele>
        <time>2023-07-15T13:14:37.745+00:00</time>
      </trkpt>
      <trkpt lat="46.15405" lon="-1.15049">
        <ele>2</ele>
        <time>2023-07-15T13:14:44.885+00:00</time>
      </trkpt>
      <trkpt lat="46.15403" lon="-1.15054">
        <ele>3</ele>
        <time>2023-07-15T13:14:48.899+00:00</time>
      </trkpt>
      <trkpt lat="46.15403" lon="-1.15056">
        <ele>2</ele>
        <time>2023-07-15T13:14:53.415+00:00</time>
      </trkpt>
      <trkpt lat="46.15405" lon="-1.15061">
        <ele>2</ele>
        <time>2023-07-15T13:14:58.032+00:00</time>
      </trkpt>
      <trkpt lat="46.15405" lon="-1.15069">
        <ele>2</ele>
        <time>2023-07-15T13:15:02.550+00:00</time>
      </trkpt>
      <trkpt lat="46.15405" lon="-1.15075">
        <ele>3</ele>
        <time>2023-07-15T13:15:06.666+00:00</time>
      </trkpt>
      <trkpt lat="46.15406" lon="-1.15079">
        <ele>3</ele>
        <time>2023-07-15T13:15:11.184+00:00</time>
      </trkpt>
      <trkpt lat="46.15408" lon="-1.15084">
        <ele>3</ele>
        <time>2023-07-15T13:15:15.701+00:00</time>
      </trkpt>
      <trkpt lat="46.15407" lon="-1.15092">
        <ele>3</ele>
        <time>2023-07-15T13:15:20.719+00:00</time>
      </trkpt>
      <trkpt lat="46.15405" lon="-1.15099">
        <ele>2</ele>
        <time>2023-07-15T13:15:24.733+00:00</time>
      </trkpt>
      <trkpt lat="46.15404" lon="-1.15104">
        <ele>2</ele>
        <time>2023-07-15T13:15:29.292+00:00</time>
      </trkpt>
      <trkpt lat="46.15403" lon="-1.15108">
        <ele>3</ele>
        <time>2023-07-15T13:15:33.365+00:00</time>
      </trkpt>
      <trkpt lat="46.15407" lon="-1.15116">
        <ele>2</ele>
        <time>2023-07-15T13:15:37.881+00:00</time>
      </trkpt>
      <trkpt lat="46.15408" lon="-1.15122">
        <ele>2</ele>
        <time>2023-07-15T13:15:41.894+00:00</time>
      </trkpt>
      <trkpt lat="46.15403" lon="-1.15118">
        <ele>3</ele>
        <time>2023-07-15T13:15:46.912+00:00</time>
      </trkpt>
      <trkpt lat="46.15398" lon="-1.15115">
        <ele>3</ele>
        <time>2023-07-15T13:16:04.578+00:00</time>
      </trkpt>
      <trkpt lat="46.15397" lon="-1.15112">
        <ele>3</ele>
        <time>2023-07-15T13:16:09.093+00:00</time>
      </trkpt>
      <trkpt lat="46.15396" lon="-1.15113">
        <ele>3</ele>
        <time>2023-07-15T13:16:13.607+00:00</time>
      </trkpt>
      <trkpt lat="46.15396" lon="-1.15115">
        <ele>3</ele>
        <time>2023-07-15T13:16:18.126+00:00</time>
      </trkpt>
      <trkpt lat="46.15393" lon="-1.15117">
        <ele>3</ele>
        <time>2023-07-15T13:16:22.656+00:00</time>
      </trkpt>
      <trkpt lat="46.15387" lon="-1.15117">
        <ele>3</ele>
        <time>2023-07-15T13:16:26.776+00:00</time>
      </trkpt>
      <trkpt lat="46.15384" lon="-1.15116">
        <ele>3</ele>
        <time>2023-07-15T13:16:31.295+00:00</time>
      </trkpt>
      <trkpt lat="46.15382" lon="-1.15118">
        <ele>3</ele>
        <time>2023-07-15T13:16:35.813+00:00</time>
      </trkpt>
      <trkpt lat="46.15376" lon="-1.15118">
        <ele>3</ele>
        <time>2023-07-15T13:16:39.828+00:00</time>
      </trkpt>
      <trkpt lat="46.15371" lon="-1.15118">
        <ele>3</ele>
        <time>2023-07-15T13:16:44.347+00:00</time>
      </trkpt>
      <trkpt lat="46.15367" lon="-1.15117">
        <ele>3</ele>
        <time>2023-07-15T13:16:48.362+00:00</time>
      </trkpt>
      <trkpt lat="46.15364" lon="-1.15116">
        <ele>3</ele>
        <time>2023-07-15T13:16:52.377+00:00</time>
      </trkpt>
      <trkpt lat="46.15359" lon="-1.15115">
        <ele>3</ele>
        <time>2023-07-15T13:16:56.894+00:00</time>
      </trkpt>
      <trkpt lat="46.15356" lon="-1.15115">
        <ele>3</ele>
        <time>2023-07-15T13:17:00.907+00:00</time>
      </trkpt>
      <trkpt lat="46.15352" lon="-1.15115">
        <ele>3</ele>
        <time>2023-07-15T13:17:05.421+00:00</time>
      </trkpt>
      <trkpt lat="46.15348" lon="-1.15115">
        <ele>3</ele>
        <time>2023-07-15T13:17:09.935+00:00</time>
      </trkpt>
      <trkpt lat="46.15344" lon="-1.15115">
        <ele>4</ele>
        <time>2023-07-15T13:17:14.049+00:00</time>
      </trkpt>
      <trkpt lat="46.1534" lon="-1.15115">
        <ele>4</ele>
        <time>2023-07-15T13:17:18.062+00:00</time>
      </trkpt>
      <trkpt lat="46.15335" lon="-1.15115">
        <ele>4</ele>
        <time>2023-07-15T13:17:22.175+00:00</time>
      </trkpt>
      <trkpt lat="46.15333" lon="-1.15117">
        <ele>4</ele>
        <time>2023-07-15T13:17:26.689+00:00</time>
      </trkpt>
      <trkpt lat="46.1533" lon="-1.15116">
        <ele>4</ele>
        <time>2023-07-15T13:17:31.201+00:00</time>
      </trkpt>
      <trkpt lat="46.15326" lon="-1.15115">
        <ele>4</ele>
        <time>2023-07-15T13:17:35.213+00:00</time>
      </trkpt>
      <trkpt lat="46.15321" lon="-1.15116">
        <ele>4</ele>
        <time>2023-07-15T13:17:39.827+00:00</time>
      </trkpt>
      <trkpt lat="46.15317" lon="-1.15115">
        <ele>4</ele>
        <time>2023-07-15T13:17:43.836+00:00</time>
      </trkpt>
      <trkpt lat="46.15313" lon="-1.15115">
        <ele>4</ele>
        <time>2023-07-15T13:17:48.842+00:00</time>
      </trkpt>
      <trkpt lat="46.1531" lon="-1.15117">
        <ele>4</ele>
        <time>2023-07-15T13:17:52.946+00:00</time>
      </trkpt>
      <trkpt lat="46.15305" lon="-1.15115">
        <ele>4</ele>
        <time>2023-07-15T13:17:57.449+00:00</time>
      </trkpt>
      <trkpt lat="46.15299" lon="-1.15115">
        <ele>4</ele>
        <time>2023-07-15T13:18:01.972+00:00</time>
      </trkpt>
      <trkpt lat="46.15294" lon="-1.15114">
        <ele>4</ele>
        <time>2023-07-15T13:18:06.596+00:00</time>
      </trkpt>
      <trkpt lat="46.15291" lon="-1.15114">
        <ele>4</ele>
        <time>2023-07-15T13:18:10.776+00:00</time>
      </trkpt>
      <trkpt lat="46.15287" lon="-1.15113">
        <ele>4</ele>
        <time>2023-07-15T13:18:15.160+00:00</time>
      </trkpt>
      <trkpt lat="46.15284" lon="-1.15111">
        <ele>4</ele>
        <time>2023-07-15T13:18:19.155+00:00</time>
      </trkpt>
      <trkpt lat="46.15282" lon="-1.15107">
        <ele>4</ele>
        <time>2023-07-15T13:18:23.035+00:00</time>
      </trkpt>
      <trkpt lat="46.15279" lon="-1.15102">
        <ele>4</ele>
        <time>2023-07-15T13:18:27.439+00:00</time>
      </trkpt>
      <trkpt lat="46.15279" lon="-1.15094">
        <ele>5</ele>
        <time>2023-07-15T13:18:31.755+00:00</time>
      </trkpt>
      <trkpt lat="46.1528" lon="-1.15085">
        <ele>5</ele>
        <time>2023-07-15T13:18:35.595+00:00</time>
      </trkpt>
      <trkpt lat="46.1528" lon="-1.1508">
        <ele>5</ele>
        <time>2023-07-15T13:18:40.213+00:00</time>
      </trkpt>
      <trkpt lat="46.15279" lon="-1.15074">
        <ele>5</ele>
        <time>2023-07-15T13:18:45.097+00:00</time>
      </trkpt>
      <trkpt lat="46.1528" lon="-1.15067">
        <ele>6</ele>
        <time>2023-07-15T13:18:48.835+00:00</time>
      </trkpt>
      <trkpt lat="46.15279" lon="-1.15061">
        <ele>6</ele>
        <time>2023-07-15T13:18:53.235+00:00</time>
      </trkpt>
      <trkpt lat="46.15279" lon="-1.15056">
        <ele>6</ele>
        <time>2023-07-15T13:18:57.656+00:00</time>
      </trkpt>
      <trkpt lat="46.15278" lon="-1.15047">
        <ele>6</ele>
        <time>2023-07-15T13:19:02.140+00:00</time>
      </trkpt>
      <trkpt lat="46.15278" lon="-1.15042">
        <ele>6</ele>
        <time>2023-07-15T13:19:05.996+00:00</time>
      </trkpt>
      <trkpt lat="46.15278" lon="-1.15039">
        <ele>6</ele>
        <time>2023-07-15T13:19:10.435+00:00</time>
      </trkpt>
      <trkpt lat="46.15281" lon="-1.15034">
        <ele>6</ele>
        <time>2023-07-15T13:19:15.053+00:00</time>
      </trkpt>
      <trkpt lat="46.15284" lon="-1.15029">
        <ele>6</ele>
        <time>2023-07-15T13:19:19.552+00:00</time>
      </trkpt>
      <trkpt lat="46.15287" lon="-1.15027">
        <ele>6</ele>
        <time>2023-07-15T13:19:23.972+00:00</time>
      </trkpt>
      <trkpt lat="46.15287" lon="-1.15021">
        <ele>6</ele>
        <time>2023-07-15T13:19:28.351+00:00</time>
      </trkpt>
      <trkpt lat="46.15287" lon="-1.15015">
        <ele>6</ele>
        <time>2023-07-15T13:19:33.069+00:00</time>
      </trkpt>
      <trkpt lat="46.15283" lon="-1.15007">
        <ele>6</ele>
        <time>2023-07-15T13:19:46.086+00:00</time>
      </trkpt>
      <trkpt lat="46.15279" lon="-1.15">
        <ele>6</ele>
        <time>2023-07-15T13:19:50.307+00:00</time>
      </trkpt>
      <trkpt lat="46.15277" lon="-1.14991">
        <ele>6</ele>
        <time>2023-07-15T13:19:54.308+00:00</time>
      </trkpt>
      <trkpt lat="46.15273" lon="-1.14987">
        <ele>6</ele>
        <time>2023-07-15T13:19:58.930+00:00</time>
      </trkpt>
      <trkpt lat="46.15275" lon="-1.14993">
        <ele>6</ele>
        <time>2023-07-15T13:20:03.071+00:00</time>
      </trkpt>
      <trkpt lat="46.15275" lon="-1.14995">
        <ele>6</ele>
        <time>2023-07-15T13:22:50.241+00:00</time>
      </trkpt>
      <trkpt lat="46.15275" lon="-1.14999">
        <ele>6</ele>
        <time>2023-07-15T13:22:54.585+00:00</time>
      </trkpt>
      <trkpt lat="46.15278" lon="-1.15013">
        <ele>6</ele>
        <time>2023-07-15T13:22:58.586+00:00</time>
      </trkpt>
      <trkpt lat="46.15278" lon="-1.15018">
        <ele>6</ele>
        <time>2023-07-15T13:23:03.148+00:00</time>
      </trkpt>
      <trkpt lat="46.15282" lon="-1.15015">
        <ele>6</ele>
        <time>2023-07-15T13:23:07.650+00:00</time>
      </trkpt>
      <trkpt lat="46.15284" lon="-1.15006">
        <ele>6</ele>
        <time>2023-07-15T13:23:33.439+00:00</time>
      </trkpt>
      <trkpt lat="46.15286" lon="-1.14998">
        <ele>6</ele>
        <time>2023-07-15T13:23:37.967+00:00</time>
      </trkpt>
      <trkpt lat="46.1529" lon="-1.14992">
        <ele>6</ele>
        <time>2023-07-15T13:23:42.471+00:00</time>
      </trkpt>
      <trkpt lat="46.15288" lon="-1.1499">
        <ele>6</ele>
        <time>2023-07-15T13:23:46.475+00:00</time>
      </trkpt>
      <trkpt lat="46.15287" lon="-1.14984">
        <ele>6</ele>
        <time>2023-07-15T13:23:51.118+00:00</time>
      </trkpt>
      <trkpt lat="46.15288" lon="-1.14978">
        <ele>6</ele>
        <time>2023-07-15T13:24:21.213+00:00</time>
      </trkpt>
      <trkpt lat="46.15288" lon="-1.14972">
        <ele>6</ele>
        <time>2023-07-15T13:24:26.247+00:00</time>
      </trkpt>
      <trkpt lat="46.15289" lon="-1.14966">
        <ele>6</ele>
        <time>2023-07-15T13:24:31.216+00:00</time>
      </trkpt>
      <trkpt lat="46.1529" lon="-1.14958">
        <ele>7</ele>
        <time>2023-07-15T13:24:35.211+00:00</time>
      </trkpt>
      <trkpt lat="46.1529" lon="-1.14951">
        <ele>7</ele>
        <time>2023-07-15T13:24:39.227+00:00</time>
      </trkpt>
      <trkpt lat="46.15289" lon="-1.14944">
        <ele>7</ele>
        <time>2023-07-15T13:24:43.495+00:00</time>
      </trkpt>
      <trkpt lat="46.15288" lon="-1.14938">
        <ele>7</ele>
        <time>2023-07-15T13:24:47.356+00:00</time>
      </trkpt>
      <trkpt lat="46.1529" lon="-1.14934">
        <ele>7</ele>
        <time>2023-07-15T13:24:51.616+00:00</time>
      </trkpt>
      <trkpt lat="46.15291" lon="-1.14927">
        <ele>8</ele>
        <time>2023-07-15T13:24:55.876+00:00</time>
      </trkpt>
      <trkpt lat="46.15292" lon="-1.14921">
        <ele>8</ele>
        <time>2023-07-15T13:25:00.157+00:00</time>
      </trkpt>
      <trkpt lat="46.15292" lon="-1.14915">
        <ele>9</ele>
        <time>2023-07-15T13:25:04.497+00:00</time>
      </trkpt>
      <trkpt lat="46.15293" lon="-1.14909">
        <ele>9</ele>
        <time>2023-07-15T13:25:08.917+00:00</time>
      </trkpt>
      <trkpt lat="46.15294" lon="-1.14903">
        <ele>9</ele>
        <time>2023-07-15T13:25:13.555+00:00</time>
      </trkpt>
      <trkpt lat="46.15297" lon="-1.14899">
        <ele>9</ele>
        <time>2023-07-15T13:25:17.514+00:00</time>
      </trkpt>
      <trkpt lat="46.15298" lon="-1.1489">
        <ele>9</ele>
        <time>2023-07-15T13:25:22.012+00:00</time>
      </trkpt>
      <trkpt lat="46.15297" lon="-1.1488">
        <ele>9</ele>
        <time>2023-07-15T13:25:26.241+00:00</time>
      </trkpt>
      <trkpt lat="46.15297" lon="-1.14874">
        <ele>10</ele>
        <time>2023-07-15T13:25:31.233+00:00</time>
      </trkpt>
      <trkpt lat="46.15296" lon="-1.14867">
        <ele>10</ele>
        <time>2023-07-15T13:25:36.132+00:00</time>
      </trkpt>
      <trkpt lat="46.15296" lon="-1.1486">
        <ele>10</ele>
        <time>2023-07-15T13:25:40.413+00:00</time>
      </trkpt>
      <trkpt lat="46.15295" lon="-1.14853">
        <ele>10</ele>
        <time>2023-07-15T13:25:44.995+00:00</time>
      </trkpt>
      <trkpt lat="46.15295" lon="-1.14847">
        <ele>10</ele>
        <time>2023-07-15T13:25:48.755+00:00</time>
      </trkpt>
      <trkpt lat="46.15295" lon="-1.14841">
        <ele>10</ele>
        <time>2023-07-15T13:25:52.754+00:00</time>
      </trkpt>
      <trkpt lat="46.15295" lon="-1.14837">
        <ele>10</ele>
        <time>2023-07-15T13:25:57.153+00:00</time>
      </trkpt>
      <trkpt lat="46.15294" lon="-1.14832">
        <ele>10</ele>
        <time>2023-07-15T13:26:01.053+00:00</time>
      </trkpt>
      <trkpt lat="46.15294" lon="-1.14825">
        <ele>10</ele>
        <time>2023-07-15T13:26:05.712+00:00</time>
      </trkpt>
      <trkpt lat="46.15295" lon="-1.14818">
        <ele>8</ele>
        <time>2023-07-15T13:26:10.051+00:00</time>
      </trkpt>
      <trkpt lat="46.15294" lon="-1.14812">
        <ele>8</ele>
        <time>2023-07-15T13:26:14.332+00:00</time>
      </trkpt>
      <trkpt lat="46.15295" lon="-1.14808">
        <ele>8</ele>
        <time>2023-07-15T13:26:18.991+00:00</time>
      </trkpt>
      <trkpt lat="46.15297" lon="-1.14802">
        <ele>8</ele>
        <time>2023-07-15T13:26:23.311+00:00</time>
      </trkpt>
      <trkpt lat="46.15298" lon="-1.14799">
        <ele>8</ele>
        <time>2023-07-15T13:26:27.790+00:00</time>
      </trkpt>
      <trkpt lat="46.15299" lon="-1.14796">
        <ele>8</ele>
        <time>2023-07-15T13:26:32.191+00:00</time>
      </trkpt>
      <trkpt lat="46.15299" lon="-1.1479">
        <ele>7</ele>
        <time>2023-07-15T13:26:36.774+00:00</time>
      </trkpt>
      <trkpt lat="46.15301" lon="-1.14784">
        <ele>7</ele>
        <time>2023-07-15T13:26:40.939+00:00</time>
      </trkpt>
      <trkpt lat="46.15301" lon="-1.14778">
        <ele>7</ele>
        <time>2023-07-15T13:26:45.115+00:00</time>
      </trkpt>
      <trkpt lat="46.15301" lon="-1.14772">
        <ele>7</ele>
        <time>2023-07-15T13:26:50.216+00:00</time>
      </trkpt>
      <trkpt lat="46.15301" lon="-1.14765">
        <ele>7</ele>
        <time>2023-07-15T13:26:54.320+00:00</time>
      </trkpt>
      <trkpt lat="46.15301" lon="-1.14757">
        <ele>7</ele>
        <time>2023-07-15T13:26:58.680+00:00</time>
      </trkpt>
      <trkpt lat="46.15299" lon="-1.14751">
        <ele>7</ele>
        <time>2023-07-15T13:27:03.116+00:00</time>
      </trkpt>
      <trkpt lat="46.15298" lon="-1.14745">
        <ele>7</ele>
        <time>2023-07-15T13:27:08.176+00:00</time>
      </trkpt>
      <trkpt lat="46.15299" lon="-1.1474">
        <ele>7</ele>
        <time>2023-07-15T13:27:13.219+00:00</time>
      </trkpt>
      <trkpt lat="46.153" lon="-1.14735">
        <ele>7</ele>
        <time>2023-07-15T13:27:17.241+00:00</time>
      </trkpt>
      <trkpt lat="46.15302" lon="-1.14728">
        <ele>7</ele>
        <time>2023-07-15T13:27:21.745+00:00</time>
      </trkpt>
      <trkpt lat="46.15304" lon="-1.14718">
        <ele>7</ele>
        <time>2023-07-15T13:27:26.248+00:00</time>
      </trkpt>
      <trkpt lat="46.153" lon="-1.14711">
        <ele>7</ele>
        <time>2023-07-15T13:27:30.350+00:00</time>
      </trkpt>
      <trkpt lat="46.15296" lon="-1.14706">
        <ele>7</ele>
        <time>2023-07-15T13:27:35.031+00:00</time>
      </trkpt>
      <trkpt lat="46.15294" lon="-1.14701">
        <ele>7</ele>
        <time>2023-07-15T13:27:39.172+00:00</time>
      </trkpt>
      <trkpt lat="46.15292" lon="-1.14696">
        <ele>7</ele>
        <time>2023-07-15T13:27:43.733+00:00</time>
      </trkpt>
      <trkpt lat="46.153" lon="-1.14681">
        <ele>7</ele>
        <time>2023-07-15T13:27:47.795+00:00</time>
      </trkpt>
      <trkpt lat="46.15304" lon="-1.14673">
        <ele>7</ele>
        <time>2023-07-15T13:27:52.240+00:00</time>
      </trkpt>
      <trkpt lat="46.15308" lon="-1.14668">
        <ele>7</ele>
        <time>2023-07-15T13:27:57.212+00:00</time>
      </trkpt>
      <trkpt lat="46.15311" lon="-1.14662">
        <ele>7</ele>
        <time>2023-07-15T13:28:01.533+00:00</time>
      </trkpt>
      <trkpt lat="46.15314" lon="-1.14656">
        <ele>7</ele>
        <time>2023-07-15T13:28:05.913+00:00</time>
      </trkpt>
      <trkpt lat="46.15319" lon="-1.14651">
        <ele>7</ele>
        <time>2023-07-15T13:28:10.153+00:00</time>
      </trkpt>
      <trkpt lat="46.15321" lon="-1.14647">
        <ele>6</ele>
        <time>2023-07-15T13:28:14.355+00:00</time>
      </trkpt>
      <trkpt lat="46.1532" lon="-1.14644">
        <ele>6</ele>
        <time>2023-07-15T13:28:18.595+00:00</time>
      </trkpt>
      <trkpt lat="46.15316" lon="-1.14639">
        <ele>7</ele>
        <time>2023-07-15T13:28:23.098+00:00</time>
      </trkpt>
      <trkpt lat="46.15315" lon="-1.14627">
        <ele>7</ele>
        <time>2023-07-15T13:28:27.180+00:00</time>
      </trkpt>
      <trkpt lat="46.15314" lon="-1.14621">
        <ele>6</ele>
        <time>2023-07-15T13:28:31.782+00:00</time>
      </trkpt>
      <trkpt lat="46.15313" lon="-1.14614">
        <ele>6</ele>
        <time>2023-07-15T13:28:36.291+00:00</time>
      </trkpt>
      <trkpt lat="46.15312" lon="-1.1461">
        <ele>6</ele>
        <time>2023-07-15T13:28:40.806+00:00</time>
      </trkpt>
      <trkpt lat="46.15311" lon="-1.14606">
        <ele>6</ele>
        <time>2023-07-15T13:28:44.821+00:00</time>
      </trkpt>
      <trkpt lat="46.15307" lon="-1.14605">
        <ele>6</ele>
        <time>2023-07-15T13:28:49.340+00:00</time>
      </trkpt>
      <trkpt lat="46.15296" lon="-1.14598">
        <ele>6</ele>
        <time>2023-07-15T13:28:53.859+00:00</time>
      </trkpt>
      <trkpt lat="46.15291" lon="-1.14592">
        <ele>6</ele>
        <time>2023-07-15T13:28:58.378+00:00</time>
      </trkpt>
      <trkpt lat="46.15286" lon="-1.1459">
        <ele>6</ele>
        <time>2023-07-15T13:29:02.395+00:00</time>
      </trkpt>
      <trkpt lat="46.15285" lon="-1.14591">
        <ele>6</ele>
        <time>2023-07-15T13:29:06.410+00:00</time>
      </trkpt>
      <trkpt lat="46.15283" lon="-1.14589">
        <ele>6</ele>
        <time>2023-07-15T13:29:10.928+00:00</time>
      </trkpt>
      <trkpt lat="46.15282" lon="-1.14584">
        <ele>6</ele>
        <time>2023-07-15T13:29:14.944+00:00</time>
      </trkpt>
      <trkpt lat="46.15282" lon="-1.14577">
        <ele>6</ele>
        <time>2023-07-15T13:29:18.452+00:00</time>
      </trkpt>
      <trkpt lat="46.15279" lon="-1.14578">
        <ele>6</ele>
        <time>2023-07-15T13:29:25.970+00:00</time>
      </trkpt>
      <trkpt lat="46.15276" lon="-1.14579">
        <ele>6</ele>
        <time>2023-07-15T13:29:34.980+00:00</time>
      </trkpt>
      <trkpt lat="46.15276" lon="-1.14574">
        <ele>6</ele>
        <time>2023-07-15T13:29:39.486+00:00</time>
      </trkpt>
      <trkpt lat="46.15276" lon="-1.14571">
        <ele>6</ele>
        <time>2023-07-15T13:29:44.091+00:00</time>
      </trkpt>
      <trkpt lat="46.15279" lon="-1.14564">
        <ele>6</ele>
        <time>2023-07-15T13:29:49.095+00:00</time>
      </trkpt>
      <trkpt lat="46.15284" lon="-1.14551">
        <ele>6</ele>
        <time>2023-07-15T13:29:53.097+00:00</time>
      </trkpt>
      <trkpt lat="46.15288" lon="-1.14536">
        <ele>6</ele>
        <time>2023-07-15T13:29:57.298+00:00</time>
      </trkpt>
      <trkpt lat="46.15288" lon="-1.14526">
        <ele>6</ele>
        <time>2023-07-15T13:30:01.804+00:00</time>
      </trkpt>
      <trkpt lat="46.15287" lon="-1.14521">
        <ele>6</ele>
        <time>2023-07-15T13:30:05.806+00:00</time>
      </trkpt>
      <trkpt lat="46.15287" lon="-1.14516">
        <ele>6</ele>
        <time>2023-07-15T13:30:10.311+00:00</time>
      </trkpt>
      <trkpt lat="46.15286" lon="-1.14515">
        <ele>6</ele>
        <time>2023-07-15T13:30:14.815+00:00</time>
      </trkpt>
      <trkpt lat="46.15284" lon="-1.14513">
        <ele>6</ele>
        <time>2023-07-15T13:30:18.820+00:00</time>
      </trkpt>
      <trkpt lat="46.15283" lon="-1.14509">
        <ele>6</ele>
        <time>2023-07-15T13:30:22.826+00:00</time>
      </trkpt>
      <trkpt lat="46.15282" lon="-1.14504">
        <ele>6</ele>
        <time>2023-07-15T13:30:27.334+00:00</time>
      </trkpt>
      <trkpt lat="46.15284" lon="-1.14499">
        <ele>6</ele>
        <time>2023-07-15T13:30:31.845+00:00</time>
      </trkpt>
      <trkpt lat="46.15291" lon="-1.14506">
        <ele>6</ele>
        <time>2023-07-15T13:30:35.849+00:00</time>
      </trkpt>
      <trkpt lat="46.15295" lon="-1.14511">
        <ele>5</ele>
        <time>2023-07-15T13:30:39.852+00:00</time>
      </trkpt>
      <trkpt lat="46.15294" lon="-1.14511">
        <ele>5</ele>
        <time>2023-07-15T13:30:44.357+00:00</time>
      </trkpt>
      <trkpt lat="46.15295" lon="-1.14506">
        <ele>5</ele>
        <time>2023-07-15T13:30:48.359+00:00</time>
      </trkpt>
      <trkpt lat="46.15295" lon="-1.145">
        <ele>5</ele>
        <time>2023-07-15T13:30:52.863+00:00</time>
      </trkpt>
      <trkpt lat="46.15294" lon="-1.14496">
        <ele>5</ele>
        <time>2023-07-15T13:30:56.867+00:00</time>
      </trkpt>
      <trkpt lat="46.15294" lon="-1.14491">
        <ele>5</ele>
        <time>2023-07-15T13:31:01.371+00:00</time>
      </trkpt>
      <trkpt lat="46.15296" lon="-1.14486">
        <ele>5</ele>
        <time>2023-07-15T13:31:05.874+00:00</time>
      </trkpt>
      <trkpt lat="46.15298" lon="-1.1448">
        <ele>5</ele>
        <time>2023-07-15T13:31:09.876+00:00</time>
      </trkpt>
      <trkpt lat="46.15303" lon="-1.14473">
        <ele>5</ele>
        <time>2023-07-15T13:31:15.198+00:00</time>
      </trkpt>
      <trkpt lat="46.15308" lon="-1.14466">
        <ele>5</ele>
        <time>2023-07-15T13:31:19.438+00:00</time>
      </trkpt>
      <trkpt lat="46.15312" lon="-1.14462">
        <ele>5</ele>
        <time>2023-07-15T13:31:24.040+00:00</time>
      </trkpt>
      <trkpt lat="46.15315" lon="-1.1446">
        <ele>5</ele>
        <time>2023-07-15T13:31:27.980+00:00</time>
      </trkpt>
      <trkpt lat="46.15317" lon="-1.1446">
        <ele>5</ele>
        <time>2023-07-15T13:31:32.360+00:00</time>
      </trkpt>
      <trkpt lat="46.15321" lon="-1.14455">
        <ele>4</ele>
        <time>2023-07-15T13:31:37.081+00:00</time>
      </trkpt>
      <trkpt lat="46.15324" lon="-1.14454">
        <ele>4</ele>
        <time>2023-07-15T13:31:41.083+00:00</time>
      </trkpt>
      <trkpt lat="46.15324" lon="-1.14454">
        <ele>4</ele>
        <time>2023-07-15T13:31:53.447+00:00</time>
      </trkpt>
      <trkpt lat="46.15325" lon="-1.14453">
        <ele>4</ele>
        <time>2023-07-15T13:31:57.509+00:00</time>
      </trkpt>
      <trkpt lat="46.15326" lon="-1.14455">
        <ele>4</ele>
        <time>2023-07-15T13:32:01.809+00:00</time>
      </trkpt>
      <trkpt lat="46.15328" lon="-1.14456">
        <ele>4</ele>
        <time>2023-07-15T13:32:05.728+00:00</time>
      </trkpt>
      <trkpt lat="46.15329" lon="-1.14457">
        <ele>4</ele>
        <time>2023-07-15T13:32:09.909+00:00</time>
      </trkpt>
      <trkpt lat="46.15331" lon="-1.14465">
        <ele>5</ele>
        <time>2023-07-15T13:32:14.011+00:00</time>
      </trkpt>
      <trkpt lat="46.15334" lon="-1.14467">
        <ele>5</ele>
        <time>2023-07-15T13:32:18.054+00:00</time>
      </trkpt>
      <trkpt lat="46.15335" lon="-1.14468">
        <ele>5</ele>
        <time>2023-07-15T13:32:23.064+00:00</time>
      </trkpt>
      <trkpt lat="46.15335" lon="-1.14469">
        <ele>5</ele>
        <time>2023-07-15T13:32:27.084+00:00</time>
      </trkpt>
      <trkpt lat="46.15338" lon="-1.1447">
        <ele>5</ele>
        <time>2023-07-15T13:32:36.123+00:00</time>
      </trkpt>
      <trkpt lat="46.15341" lon="-1.14474">
        <ele>5</ele>
        <time>2023-07-15T13:32:40.641+00:00</time>
      </trkpt>
      <trkpt lat="46.15345" lon="-1.1448">
        <ele>5</ele>
        <time>2023-07-15T13:32:44.675+00:00</time>
      </trkpt>
      <trkpt lat="46.15349" lon="-1.14483">
        <ele>5</ele>
        <time>2023-07-15T13:32:49.194+00:00</time>
      </trkpt>
      <trkpt lat="46.15353" lon="-1.14486">
        <ele>6</ele>
        <time>2023-07-15T13:32:54.213+00:00</time>
      </trkpt>
      <trkpt lat="46.15357" lon="-1.1449">
        <ele>6</ele>
        <time>2023-07-15T13:32:58.730+00:00</time>
      </trkpt>
      <trkpt lat="46.15362" lon="-1.14494">
        <ele>6</ele>
        <time>2023-07-15T13:33:03.350+00:00</time>
      </trkpt>
      <trkpt lat="46.15366" lon="-1.14497">
        <ele>6</ele>
        <time>2023-07-15T13:33:07.365+00:00</time>
      </trkpt>
      <trkpt lat="46.15365" lon="-1.14501">
        <ele>6</ele>
        <time>2023-07-15T13:33:11.881+00:00</time>
      </trkpt>
      <trkpt lat="46.15364" lon="-1.14503">
        <ele>6</ele>
        <time>2023-07-15T13:33:15.895+00:00</time>
      </trkpt>
      <trkpt lat="46.15365" lon="-1.14506">
        <ele>6</ele>
        <time>2023-07-15T13:33:20.410+00:00</time>
      </trkpt>
      <trkpt lat="46.15361" lon="-1.1451">
        <ele>6</ele>
        <time>2023-07-15T13:33:24.926+00:00</time>
      </trkpt>
      <trkpt lat="46.15358" lon="-1.14515">
        <ele>6</ele>
        <time>2023-07-15T13:33:29.445+00:00</time>
      </trkpt>
      <trkpt lat="46.15356" lon="-1.14521">
        <ele>6</ele>
        <time>2023-07-15T13:33:33.964+00:00</time>
      </trkpt>
      <trkpt lat="46.15352" lon="-1.14523">
        <ele>6</ele>
        <time>2023-07-15T13:33:38.483+00:00</time>
      </trkpt>
      <trkpt lat="46.1535" lon="-1.14526">
        <ele>6</ele>
        <time>2023-07-15T13:33:42.514+00:00</time>
      </trkpt>
      <trkpt lat="46.15348" lon="-1.14532">
        <ele>6</ele>
        <time>2023-07-15T13:33:47.034+00:00</time>
      </trkpt>
      <trkpt lat="46.15347" lon="-1.14536">
        <ele>6</ele>
        <time>2023-07-15T13:33:50.546+00:00</time>
      </trkpt>
      <trkpt lat="46.15347" lon="-1.14539">
        <ele>6</ele>
        <time>2023-07-15T13:33:55.564+00:00</time>
      </trkpt>
      <trkpt lat="46.15347" lon="-1.14543">
        <ele>7</ele>
        <time>2023-07-15T13:34:00.077+00:00</time>
      </trkpt>
      <trkpt lat="46.15344" lon="-1.14549">
        <ele>6</ele>
        <time>2023-07-15T13:34:04.585+00:00</time>
      </trkpt>
      <trkpt lat="46.15338" lon="-1.14551">
        <ele>6</ele>
        <time>2023-07-15T13:34:09.192+00:00</time>
      </trkpt>
      <trkpt lat="46.15334" lon="-1.14556">
        <ele>6</ele>
        <time>2023-07-15T13:34:13.716+00:00</time>
      </trkpt>
      <trkpt lat="46.15331" lon="-1.14561">
        <ele>6</ele>
        <time>2023-07-15T13:34:17.819+00:00</time>
      </trkpt>
      <trkpt lat="46.15329" lon="-1.14565">
        <ele>6</ele>
        <time>2023-07-15T13:34:22.325+00:00</time>
      </trkpt>
      <trkpt lat="46.15325" lon="-1.14569">
        <ele>6</ele>
        <time>2023-07-15T13:34:26.831+00:00</time>
      </trkpt>
      <trkpt lat="46.15323" lon="-1.14567">
        <ele>6</ele>
        <time>2023-07-15T13:34:30.835+00:00</time>
      </trkpt>
      <trkpt lat="46.15322" lon="-1.14568">
        <ele>6</ele>
        <time>2023-07-15T13:34:35.338+00:00</time>
      </trkpt>
      <trkpt lat="46.15321" lon="-1.14575">
        <ele>7</ele>
        <time>2023-07-15T13:34:39.879+00:00</time>
      </trkpt>
      <trkpt lat="46.15318" lon="-1.14582">
        <ele>6</ele>
        <time>2023-07-15T13:34:44.080+00:00</time>
      </trkpt>
      <trkpt lat="46.15314" lon="-1.14587">
        <ele>6</ele>
        <time>2023-07-15T13:34:48.439+00:00</time>
      </trkpt>
      <trkpt lat="46.15312" lon="-1.14592">
        <ele>6</ele>
        <time>2023-07-15T13:34:53.096+00:00</time>
      </trkpt>
      <trkpt lat="46.15309" lon="-1.14596">
        <ele>6</ele>
        <time>2023-07-15T13:34:57.184+00:00</time>
      </trkpt>
      <trkpt lat="46.15305" lon="-1.14601">
        <ele>6</ele>
        <time>2023-07-15T13:35:01.378+00:00</time>
      </trkpt>
      <trkpt lat="46.15302" lon="-1.14603">
        <ele>6</ele>
        <time>2023-07-15T13:35:05.565+00:00</time>
      </trkpt>
      <trkpt lat="46.153" lon="-1.1461">
        <ele>6</ele>
        <time>2023-07-15T13:35:10.247+00:00</time>
      </trkpt>
      <trkpt lat="46.15298" lon="-1.14615">
        <ele>6</ele>
        <time>2023-07-15T13:35:14.271+00:00</time>
      </trkpt>
      <trkpt lat="46.15298" lon="-1.14622">
        <ele>6</ele>
        <time>2023-07-15T13:35:18.774+00:00</time>
      </trkpt>
      <trkpt lat="46.15298" lon="-1.14627">
        <ele>7</ele>
        <time>2023-07-15T13:35:23.316+00:00</time>
      </trkpt>
      <trkpt lat="46.15299" lon="-1.14633">
        <ele>7</ele>
        <time>2023-07-15T13:35:27.820+00:00</time>
      </trkpt>
      <trkpt lat="46.15299" lon="-1.14639">
        <ele>7</ele>
        <time>2023-07-15T13:35:31.824+00:00</time>
      </trkpt>
      <trkpt lat="46.15295" lon="-1.14645">
        <ele>7</ele>
        <time>2023-07-15T13:35:36.530+00:00</time>
      </trkpt>
      <trkpt lat="46.15291" lon="-1.14648">
        <ele>6</ele>
        <time>2023-07-15T13:35:41.035+00:00</time>
      </trkpt>
      <trkpt lat="46.15289" lon="-1.14656">
        <ele>7</ele>
        <time>2023-07-15T13:35:45.158+00:00</time>
      </trkpt>
      <trkpt lat="46.15289" lon="-1.14665">
        <ele>7</ele>
        <time>2023-07-15T13:35:48.838+00:00</time>
      </trkpt>
      <trkpt lat="46.15288" lon="-1.14671">
        <ele>7</ele>
        <time>2023-07-15T13:35:53.421+00:00</time>
      </trkpt>
      <trkpt lat="46.15285" lon="-1.14675">
        <ele>7</ele>
        <time>2023-07-15T13:35:57.425+00:00</time>
      </trkpt>
      <trkpt lat="46.15283" lon="-1.14679">
        <ele>7</ele>
        <time>2023-07-15T13:36:01.430+00:00</time>
      </trkpt>
      <trkpt lat="46.1528" lon="-1.14685">
        <ele>7</ele>
        <time>2023-07-15T13:36:05.935+00:00</time>
      </trkpt>
      <trkpt lat="46.15278" lon="-1.1469">
        <ele>7</ele>
        <time>2023-07-15T13:36:09.938+00:00</time>
      </trkpt>
      <trkpt lat="46.15275" lon="-1.14693">
        <ele>7</ele>
        <time>2023-07-15T13:36:14.377+00:00</time>
      </trkpt>
      <trkpt lat="46.15273" lon="-1.14697">
        <ele>7</ele>
        <time>2023-07-15T13:36:19.019+00:00</time>
      </trkpt>
      <trkpt lat="46.15271" lon="-1.14702">
        <ele>7</ele>
        <time>2023-07-15T13:36:23.141+00:00</time>
      </trkpt>
      <trkpt lat="46.15269" lon="-1.14708">
        <ele>7</ele>
        <time>2023-07-15T13:36:27.644+00:00</time>
      </trkpt>
      <trkpt lat="46.15267" lon="-1.14713">
        <ele>7</ele>
        <time>2023-07-15T13:36:31.685+00:00</time>
      </trkpt>
      <trkpt lat="46.15263" lon="-1.14719">
        <ele>6</ele>
        <time>2023-07-15T13:36:36.187+00:00</time>
      </trkpt>
      <trkpt lat="46.15261" lon="-1.14724">
        <ele>6</ele>
        <time>2023-07-15T13:36:40.269+00:00</time>
      </trkpt>
      <trkpt lat="46.15258" lon="-1.14727">
        <ele>6</ele>
        <time>2023-07-15T13:36:45.003+00:00</time>
      </trkpt>
      <trkpt lat="46.15256" lon="-1.14733">
        <ele>6</ele>
        <time>2023-07-15T13:36:49.107+00:00</time>
      </trkpt>
      <trkpt lat="46.15252" lon="-1.14737">
        <ele>6</ele>
        <time>2023-07-15T13:36:53.109+00:00</time>
      </trkpt>
      <trkpt lat="46.15248" lon="-1.14743">
        <ele>6</ele>
        <time>2023-07-15T13:36:57.270+00:00</time>
      </trkpt>
      <trkpt lat="46.15246" lon="-1.14748">
        <ele>6</ele>
        <time>2023-07-15T13:37:01.312+00:00</time>
      </trkpt>
      <trkpt lat="46.15243" lon="-1.14754">
        <ele>6</ele>
        <time>2023-07-15T13:37:05.454+00:00</time>
      </trkpt>
      <trkpt lat="46.1524" lon="-1.14759">
        <ele>6</ele>
        <time>2023-07-15T13:37:09.675+00:00</time>
      </trkpt>
      <trkpt lat="46.15237" lon="-1.14764">
        <ele>6</ele>
        <time>2023-07-15T13:37:13.796+00:00</time>
      </trkpt>
      <trkpt lat="46.15234" lon="-1.14768">
        <ele>6</ele>
        <time>2023-07-15T13:37:18.512+00:00</time>
      </trkpt>
      <trkpt lat="46.15231" lon="-1.14773">
        <ele>6</ele>
        <time>2023-07-15T13:37:22.598+00:00</time>
      </trkpt>
      <trkpt lat="46.15228" lon="-1.14779">
        <ele>6</ele>
        <time>2023-07-15T13:37:27.018+00:00</time>
      </trkpt>
      <trkpt lat="46.15226" lon="-1.14784">
        <ele>6</ele>
        <time>2023-07-15T13:37:31.259+00:00</time>
      </trkpt>
      <trkpt lat="46.15222" lon="-1.14789">
        <ele>6</ele>
        <time>2023-07-15T13:37:35.439+00:00</time>
      </trkpt>
      <trkpt lat="46.15218" lon="-1.14794">
        <ele>6</ele>
        <time>2023-07-15T13:37:39.358+00:00</time>
      </trkpt>
      <trkpt lat="46.15214" lon="-1.14797">
        <ele>6</ele>
        <time>2023-07-15T13:37:43.496+00:00</time>
      </trkpt>
      <trkpt lat="46.15209" lon="-1.14802">
        <ele>6</ele>
        <time>2023-07-15T13:37:48.154+00:00</time>
      </trkpt>
      <trkpt lat="46.15205" lon="-1.14804">
        <ele>5</ele>
        <time>2023-07-15T13:37:52.495+00:00</time>
      </trkpt>
      <trkpt lat="46.15199" lon="-1.14803">
        <ele>5</ele>
        <time>2023-07-15T13:37:56.955+00:00</time>
      </trkpt>
      <trkpt lat="46.15196" lon="-1.14808">
        <ele>5</ele>
        <time>2023-07-15T13:38:01.393+00:00</time>
      </trkpt>
      <trkpt lat="46.15194" lon="-1.14814">
        <ele>5</ele>
        <time>2023-07-15T13:38:05.393+00:00</time>
      </trkpt>
      <trkpt lat="46.15189" lon="-1.14817">
        <ele>5</ele>
        <time>2023-07-15T13:38:09.836+00:00</time>
      </trkpt>
      <trkpt lat="46.15187" lon="-1.14814">
        <ele>5</ele>
        <time>2023-07-15T13:38:14.072+00:00</time>
      </trkpt>
      <trkpt lat="46.15183" lon="-1.14808">
        <ele>5</ele>
        <time>2023-07-15T13:38:18.170+00:00</time>
      </trkpt>
      <trkpt lat="46.1518" lon="-1.14803">
        <ele>5</ele>
        <time>2023-07-15T13:38:22.787+00:00</time>
      </trkpt>
      <trkpt lat="46.15178" lon="-1.14801">
        <ele>5</ele>
        <time>2023-07-15T13:38:27.584+00:00</time>
      </trkpt>
      <trkpt lat="46.15182" lon="-1.14806">
        <ele>5</ele>
        <time>2023-07-15T13:38:31.782+00:00</time>
      </trkpt>
      <trkpt lat="46.15184" lon="-1.14812">
        <ele>5</ele>
        <time>2023-07-15T13:38:35.920+00:00</time>
      </trkpt>
      <trkpt lat="46.15185" lon="-1.1482">
        <ele>5</ele>
        <time>2023-07-15T13:38:40.499+00:00</time>
      </trkpt>
      <trkpt lat="46.15189" lon="-1.14824">
        <ele>5</ele>
        <time>2023-07-15T13:38:45.178+00:00</time>
      </trkpt>
      <trkpt lat="46.15193" lon="-1.14827">
        <ele>5</ele>
        <time>2023-07-15T13:38:49.718+00:00</time>
      </trkpt>
      <trkpt lat="46.15199" lon="-1.14831">
        <ele>5</ele>
        <time>2023-07-15T13:38:53.654+00:00</time>
      </trkpt>
      <trkpt lat="46.15205" lon="-1.14831">
        <ele>5</ele>
        <time>2023-07-15T13:38:57.514+00:00</time>
      </trkpt>
      <trkpt lat="46.15211" lon="-1.14836">
        <ele>6</ele>
        <time>2023-07-15T13:39:02.077+00:00</time>
      </trkpt>
      <trkpt lat="46.15215" lon="-1.14841">
        <ele>6</ele>
        <time>2023-07-15T13:39:06.079+00:00</time>
      </trkpt>
      <trkpt lat="46.1522" lon="-1.14845">
        <ele>6</ele>
        <time>2023-07-15T13:39:10.321+00:00</time>
      </trkpt>
      <trkpt lat="46.15224" lon="-1.14849">
        <ele>6</ele>
        <time>2023-07-15T13:39:14.780+00:00</time>
      </trkpt>
      <trkpt lat="46.15229" lon="-1.14852">
        <ele>6</ele>
        <time>2023-07-15T13:39:18.799+00:00</time>
      </trkpt>
      <trkpt lat="46.15234" lon="-1.14855">
        <ele>6</ele>
        <time>2023-07-15T13:39:22.939+00:00</time>
      </trkpt>
      <trkpt lat="46.15238" lon="-1.14857">
        <ele>8</ele>
        <time>2023-07-15T13:39:27.598+00:00</time>
      </trkpt>
      <trkpt lat="46.15243" lon="-1.1486">
        <ele>8</ele>
        <time>2023-07-15T13:39:32.219+00:00</time>
      </trkpt>
      <trkpt lat="46.15247" lon="-1.14863">
        <ele>8</ele>
        <time>2023-07-15T13:39:36.355+00:00</time>
      </trkpt>
      <trkpt lat="46.15251" lon="-1.14865">
        <ele>8</ele>
        <time>2023-07-15T13:39:40.835+00:00</time>
      </trkpt>
      <trkpt lat="46.15256" lon="-1.14866">
        <ele>8</ele>
        <time>2023-07-15T13:39:44.885+00:00</time>
      </trkpt>
      <trkpt lat="46.1526" lon="-1.14867">
        <ele>8</ele>
        <time>2023-07-15T13:39:48.963+00:00</time>
      </trkpt>
      <trkpt lat="46.15264" lon="-1.14869">
        <ele>9</ele>
        <time>2023-07-15T13:39:53.542+00:00</time>
      </trkpt>
      <trkpt lat="46.15269" lon="-1.1487">
        <ele>9</ele>
        <time>2023-07-15T13:39:57.680+00:00</time>
      </trkpt>
      <trkpt lat="46.15274" lon="-1.14872">
        <ele>9</ele>
        <time>2023-07-15T13:40:01.757+00:00</time>
      </trkpt>
      <trkpt lat="46.1528" lon="-1.14872">
        <ele>9</ele>
        <time>2023-07-15T13:40:05.955+00:00</time>
      </trkpt>
      <trkpt lat="46.15285" lon="-1.14874">
        <ele>9</ele>
        <time>2023-07-15T13:40:10.439+00:00</time>
      </trkpt>
      <trkpt lat="46.1529" lon="-1.14876">
        <ele>9</ele>
        <time>2023-07-15T13:40:14.439+00:00</time>
      </trkpt>
      <trkpt lat="46.15293" lon="-1.14878">
        <ele>9</ele>
        <time>2023-07-15T13:40:18.970+00:00</time>
      </trkpt>
      <trkpt lat="46.15298" lon="-1.14881">
        <ele>9</ele>
        <time>2023-07-15T13:40:23.674+00:00</time>
      </trkpt>
      <trkpt lat="46.15302" lon="-1.14889">
        <ele>9</ele>
        <time>2023-07-15T13:40:28.177+00:00</time>
      </trkpt>
      <trkpt lat="46.15309" lon="-1.14888">
        <ele>9</ele>
        <time>2023-07-15T13:40:32.720+00:00</time>
      </trkpt>
      <trkpt lat="46.15313" lon="-1.14888">
        <ele>9</ele>
        <time>2023-07-15T13:40:37.474+00:00</time>
      </trkpt>
      <trkpt lat="46.15318" lon="-1.14888">
        <ele>9</ele>
        <time>2023-07-15T13:40:41.974+00:00</time>
      </trkpt>
      <trkpt lat="46.15325" lon="-1.14889">
        <ele>10</ele>
        <time>2023-07-15T13:40:45.801+00:00</time>
      </trkpt>
      <trkpt lat="46.15331" lon="-1.14889">
        <ele>10</ele>
        <time>2023-07-15T13:40:50.522+00:00</time>
      </trkpt>
      <trkpt lat="46.15335" lon="-1.14891">
        <ele>10</ele>
        <time>2023-07-15T13:40:55.239+00:00</time>
      </trkpt>
      <trkpt lat="46.15339" lon="-1.14893">
        <ele>10</ele>
        <time>2023-07-15T13:40:59.864+00:00</time>
      </trkpt>
      <trkpt lat="46.15342" lon="-1.14894">
        <ele>10</ele>
        <time>2023-07-15T13:41:03.906+00:00</time>
      </trkpt>
      <trkpt lat="46.15346" lon="-1.14895">
        <ele>10</ele>
        <time>2023-07-15T13:41:07.967+00:00</time>
      </trkpt>
      <trkpt lat="46.1535" lon="-1.14897">
        <ele>10</ele>
        <time>2023-07-15T13:41:12.670+00:00</time>
      </trkpt>
      <trkpt lat="46.15355" lon="-1.14899">
        <ele>10</ele>
        <time>2023-07-15T13:41:16.831+00:00</time>
      </trkpt>
      <trkpt lat="46.1536" lon="-1.14901">
        <ele>10</ele>
        <time>2023-07-15T13:41:20.833+00:00</time>
      </trkpt>
      <trkpt lat="46.15365" lon="-1.14902">
        <ele>10</ele>
        <time>2023-07-15T13:41:25.073+00:00</time>
      </trkpt>
      <trkpt lat="46.1537" lon="-1.14904">
        <ele>11</ele>
        <time>2023-07-15T13:41:29.394+00:00</time>
      </trkpt>
      <trkpt lat="46.15375" lon="-1.14907">
        <ele>11</ele>
        <time>2023-07-15T13:41:33.515+00:00</time>
      </trkpt>
      <trkpt lat="46.1538" lon="-1.14908">
        <ele>7</ele>
        <time>2023-07-15T13:41:37.375+00:00</time>
      </trkpt>
      <trkpt lat="46.15383" lon="-1.14913">
        <ele>7</ele>
        <time>2023-07-15T13:41:41.666+00:00</time>
      </trkpt>
      <trkpt lat="46.15387" lon="-1.14916">
        <ele>7</ele>
        <time>2023-07-15T13:41:46.219+00:00</time>
      </trkpt>
      <trkpt lat="46.15393" lon="-1.14916">
        <ele>7</ele>
        <time>2023-07-15T13:41:50.599+00:00</time>
      </trkpt>
      <trkpt lat="46.15397" lon="-1.14919">
        <ele>7</ele>
        <time>2023-07-15T13:41:54.486+00:00</time>
      </trkpt>
      <trkpt lat="46.15401" lon="-1.14921">
        <ele>7</ele>
        <time>2023-07-15T13:41:59.005+00:00</time>
      </trkpt>
      <trkpt lat="46.15406" lon="-1.14921">
        <ele>4</ele>
        <time>2023-07-15T13:42:03.229+00:00</time>
      </trkpt>
      <trkpt lat="46.1541" lon="-1.14922">
        <ele>4</ele>
        <time>2023-07-15T13:42:07.026+00:00</time>
      </trkpt>
      <trkpt lat="46.15415" lon="-1.1492">
        <ele>4</ele>
        <time>2023-07-15T13:42:11.439+00:00</time>
      </trkpt>
      <trkpt lat="46.1542" lon="-1.14921">
        <ele>4</ele>
        <time>2023-07-15T13:42:16.140+00:00</time>
      </trkpt>
      <trkpt lat="46.15425" lon="-1.14923">
        <ele>4</ele>
        <time>2023-07-15T13:42:20.528+00:00</time>
      </trkpt>
      <trkpt lat="46.1543" lon="-1.14927">
        <ele>4</ele>
        <time>2023-07-15T13:42:24.961+00:00</time>
      </trkpt>
      <trkpt lat="46.15434" lon="-1.14928">
        <ele>4</ele>
        <time>2023-07-15T13:42:29.349+00:00</time>
      </trkpt>
      <trkpt lat="46.15438" lon="-1.1493">
        <ele>4</ele>
        <time>2023-07-15T13:42:33.729+00:00</time>
      </trkpt>
      <trkpt lat="46.15442" lon="-1.14929">
        <ele>4</ele>
        <time>2023-07-15T13:42:37.969+00:00</time>
      </trkpt>
      <trkpt lat="46.15446" lon="-1.14926">
        <ele>4</ele>
        <time>2023-07-15T13:42:42.190+00:00</time>
      </trkpt>
      <trkpt lat="46.15451" lon="-1.14927">
        <ele>4</ele>
        <time>2023-07-15T13:42:46.791+00:00</time>
      </trkpt>
      <trkpt lat="46.15455" lon="-1.14929">
        <ele>4</ele>
        <time>2023-07-15T13:42:51.225+00:00</time>
      </trkpt>
      <trkpt lat="46.1546" lon="-1.1493">
        <ele>3</ele>
        <time>2023-07-15T13:42:55.233+00:00</time>
      </trkpt>
      <trkpt lat="46.15464" lon="-1.14927">
        <ele>3</ele>
        <time>2023-07-15T13:42:58.854+00:00</time>
      </trkpt>
      <trkpt lat="46.15468" lon="-1.14927">
        <ele>3</ele>
        <time>2023-07-15T13:43:03.834+00:00</time>
      </trkpt>
      <trkpt lat="46.15474" lon="-1.14937">
        <ele>3</ele>
        <time>2023-07-15T13:43:08.218+00:00</time>
      </trkpt>
      <trkpt lat="46.15474" lon="-1.14941">
        <ele>3</ele>
        <time>2023-07-15T13:43:12.094+00:00</time>
      </trkpt>
      <trkpt lat="46.15474" lon="-1.14942">
        <ele>3</ele>
        <time>2023-07-15T13:43:21.139+00:00</time>
      </trkpt>
      <trkpt lat="46.15474" lon="-1.14942">
        <ele>3</ele>
        <time>2023-07-15T13:43:24.777+00:00</time>
      </trkpt>
      <trkpt lat="46.15477" lon="-1.14944">
        <ele>3</ele>
        <time>2023-07-15T13:43:28.779+00:00</time>
      </trkpt>
      <trkpt lat="46.1548" lon="-1.14945">
        <ele>3</ele>
        <time>2023-07-15T13:43:33.400+00:00</time>
      </trkpt>
      <trkpt lat="46.15483" lon="-1.14947">
        <ele>3</ele>
        <time>2023-07-15T13:43:37.562+00:00</time>
      </trkpt>
      <trkpt lat="46.15487" lon="-1.14953">
        <ele>1</ele>
        <time>2023-07-15T13:43:42.065+00:00</time>
      </trkpt>
      <trkpt lat="46.1549" lon="-1.14954">
        <ele>1</ele>
        <time>2023-07-15T13:43:46.569+00:00</time>
      </trkpt>
      <trkpt lat="46.15493" lon="-1.14956">
        <ele>1</ele>
        <time>2023-07-15T13:43:50.592+00:00</time>
      </trkpt>
      <trkpt lat="46.15496" lon="-1.14958">
        <ele>1</ele>
        <time>2023-07-15T13:43:54.595+00:00</time>
      </trkpt>
      <trkpt lat="46.15497" lon="-1.14965">
        <ele>1</ele>
        <time>2023-07-15T13:43:59.138+00:00</time>
      </trkpt>
      <trkpt lat="46.15495" lon="-1.14976">
        <ele>1</ele>
        <time>2023-07-15T13:44:03.141+00:00</time>
      </trkpt>
      <trkpt lat="46.15495" lon="-1.14984">
        <ele>1</ele>
        <time>2023-07-15T13:44:07.645+00:00</time>
      </trkpt>
      <trkpt lat="46.15495" lon="-1.14989">
        <ele>2</ele>
        <time>2023-07-15T13:44:11.649+00:00</time>
      </trkpt>
      <trkpt lat="46.15496" lon="-1.14995">
        <ele>2</ele>
        <time>2023-07-15T13:44:16.252+00:00</time>
      </trkpt>
      <trkpt lat="46.15497" lon="-1.15002">
        <ele>2</ele>
        <time>2023-07-15T13:44:20.257+00:00</time>
      </trkpt>
      <trkpt lat="46.15496" lon="-1.1501">
        <ele>2</ele>
        <time>2023-07-15T13:44:24.873+00:00</time>
      </trkpt>
      <trkpt lat="46.15496" lon="-1.15018">
        <ele>3</ele>
        <time>2023-07-15T13:44:28.963+00:00</time>
      </trkpt>
      <trkpt lat="46.15495" lon="-1.15025">
        <ele>3</ele>
        <time>2023-07-15T13:44:33.067+00:00</time>
      </trkpt>
      <trkpt lat="46.15495" lon="-1.1503">
        <ele>3</ele>
        <time>2023-07-15T13:44:37.572+00:00</time>
      </trkpt>
      <trkpt lat="46.15494" lon="-1.15036">
        <ele>3</ele>
        <time>2023-07-15T13:44:42.239+00:00</time>
      </trkpt>
      <trkpt lat="46.15494" lon="-1.15042">
        <ele>3</ele>
        <time>2023-07-15T13:44:46.299+00:00</time>
      </trkpt>
      <trkpt lat="46.15494" lon="-1.15049">
        <ele>3</ele>
        <time>2023-07-15T13:44:50.329+00:00</time>
      </trkpt>
      <trkpt lat="46.15494" lon="-1.15055">
        <ele>3</ele>
        <time>2023-07-15T13:44:54.331+00:00</time>
      </trkpt>
      <trkpt lat="46.15493" lon="-1.15061">
        <ele>3</ele>
        <time>2023-07-15T13:44:58.833+00:00</time>
      </trkpt>
      <trkpt lat="46.1549" lon="-1.15068">
        <ele>3</ele>
        <time>2023-07-15T13:45:02.835+00:00</time>
      </trkpt>
      <trkpt lat="46.15491" lon="-1.15074">
        <ele>4</ele>
        <time>2023-07-15T13:45:06.937+00:00</time>
      </trkpt>
      <trkpt lat="46.15491" lon="-1.1508">
        <ele>4</ele>
        <time>2023-07-15T13:45:11.461+00:00</time>
      </trkpt>
      <trkpt lat="46.15491" lon="-1.15088">
        <ele>4</ele>
        <time>2023-07-15T13:45:15.467+00:00</time>
      </trkpt>
      <trkpt lat="46.15492" lon="-1.15095">
        <ele>4</ele>
        <time>2023-07-15T13:45:19.973+00:00</time>
      </trkpt>
      <trkpt lat="46.15493" lon="-1.15102">
        <ele>3</ele>
        <time>2023-07-15T13:45:24.976+00:00</time>
      </trkpt>
      <trkpt lat="46.15493" lon="-1.15108">
        <ele>3</ele>
        <time>2023-07-15T13:45:30.079+00:00</time>
      </trkpt>
      <trkpt lat="46.15493" lon="-1.15111">
        <ele>3</ele>
        <time>2023-07-15T13:45:34.221+00:00</time>
      </trkpt>
      <trkpt lat="46.15494" lon="-1.15116">
        <ele>3</ele>
        <time>2023-07-15T13:45:38.763+00:00</time>
      </trkpt>
      <trkpt lat="46.15494" lon="-1.15121">
        <ele>3</ele>
        <time>2023-07-15T13:45:43.265+00:00</time>
      </trkpt>
      <trkpt lat="46.15494" lon="-1.15128">
        <ele>3</ele>
        <time>2023-07-15T13:45:47.841+00:00</time>
      </trkpt>
      <trkpt lat="46.15495" lon="-1.15134">
        <ele>3</ele>
        <time>2023-07-15T13:45:51.868+00:00</time>
      </trkpt>
      <trkpt lat="46.15495" lon="-1.1514">
        <ele>3</ele>
        <time>2023-07-15T13:45:56.872+00:00</time>
      </trkpt>
      <trkpt lat="46.15493" lon="-1.15148">
        <ele>3</ele>
        <time>2023-07-15T13:46:01.375+00:00</time>
      </trkpt>
      <trkpt lat="46.15491" lon="-1.15155">
        <ele>2</ele>
        <time>2023-07-15T13:46:05.636+00:00</time>
      </trkpt>
      <trkpt lat="46.1549" lon="-1.15162">
        <ele>2</ele>
        <time>2023-07-15T13:46:09.994+00:00</time>
      </trkpt>
      <trkpt lat="46.15489" lon="-1.15169">
        <ele>2</ele>
        <time>2023-07-15T13:46:14.294+00:00</time>
      </trkpt>
      <trkpt lat="46.15488" lon="-1.15177">
        <ele>2</ele>
        <time>2023-07-15T13:46:18.514+00:00</time>
      </trkpt>
      <trkpt lat="46.15489" lon="-1.15185">
        <ele>1</ele>
        <time>2023-07-15T13:46:22.775+00:00</time>
      </trkpt>
      <trkpt lat="46.1549" lon="-1.15191">
        <ele>1</ele>
        <time>2023-07-15T13:46:26.876+00:00</time>
      </trkpt>
      <trkpt lat="46.1549" lon="-1.15198">
        <ele>1</ele>
        <time>2023-07-15T13:46:31.537+00:00</time>
      </trkpt>
      <trkpt lat="46.1549" lon="-1.15205">
        <ele>1</ele>
        <time>2023-07-15T13:46:35.979+00:00</time>
      </trkpt>
      <trkpt lat="46.1549" lon="-1.15211">
        <ele>2</ele>
        <time>2023-07-15T13:46:39.936+00:00</time>
      </trkpt>
      <trkpt lat="46.1549" lon="-1.15217">
        <ele>2</ele>
        <time>2023-07-15T13:46:44.958+00:00</time>
      </trkpt>
      <trkpt lat="46.15491" lon="-1.15225">
        <ele>2</ele>
        <time>2023-07-15T13:46:48.932+00:00</time>
      </trkpt>
      <trkpt lat="46.15495" lon="-1.15226">
        <ele>2</ele>
        <time>2023-07-15T13:46:52.991+00:00</time>
      </trkpt>
      <trkpt lat="46.15496" lon="-1.15227">
        <ele>2</ele>
        <time>2023-07-15T13:46:57.790+00:00</time>
      </trkpt>
      <trkpt lat="46.155" lon="-1.1523">
        <ele>2</ele>
        <time>2023-07-15T13:47:03.039+00:00</time>
      </trkpt>
      <trkpt lat="46.15503" lon="-1.15228">
        <ele>2</ele>
        <time>2023-07-15T13:47:04.166+00:00</time>
      </trkpt>
      <trkpt lat="46.15508" lon="-1.15225">
        <ele>2</ele>
        <time>2023-07-15T13:47:24.335+00:00</time>
      </trkpt>
      <trkpt lat="46.1551" lon="-1.15223">
        <ele>2</ele>
        <time>2023-07-15T13:47:28.852+00:00</time>
      </trkpt>
      <trkpt lat="46.15512" lon="-1.15221">
        <ele>2</ele>
        <time>2023-07-15T13:47:32.867+00:00</time>
      </trkpt>
      <trkpt lat="46.15517" lon="-1.15212">
        <ele>1</ele>
        <time>2023-07-15T13:47:37.886+00:00</time>
      </trkpt>
      <trkpt lat="46.15522" lon="-1.15213">
        <ele>1</ele>
        <time>2023-07-15T13:47:42.906+00:00</time>
      </trkpt>
      <trkpt lat="46.15525" lon="-1.15214">
        <ele>1</ele>
        <time>2023-07-15T13:48:08.612+00:00</time>
      </trkpt>
      <trkpt lat="46.15529" lon="-1.15212">
        <ele>1</ele>
        <time>2023-07-15T13:48:13.226+00:00</time>
      </trkpt>
      <trkpt lat="46.15533" lon="-1.15214">
        <ele>1</ele>
        <time>2023-07-15T13:48:17.238+00:00</time>
      </trkpt>
      <trkpt lat="46.15536" lon="-1.15212">
        <ele>1</ele>
        <time>2023-07-15T13:48:21.852+00:00</time>
      </trkpt>
      <trkpt lat="46.1554" lon="-1.15209">
        <ele>1</ele>
        <time>2023-07-15T13:48:25.964+00:00</time>
      </trkpt>
      <trkpt lat="46.15543" lon="-1.15202">
        <ele>4.1</ele>
        <time>2023-07-15T13:48:29.977+00:00</time>
      </trkpt>
      <trkpt lat="46.15543" lon="-1.15199">
        <ele>4.1</ele>
        <time>2023-07-15T13:48:34.509+00:00</time>
      </trkpt>
      <trkpt lat="46.15544" lon="-1.15202">
        <ele>4.1</ele>
        <time>2023-07-15T13:48:38.521+00:00</time>
      </trkpt>
      <trkpt lat="46.15541" lon="-1.1521">
        <ele>1</ele>
        <time>2023-07-15T13:48:43.036+00:00</time>
      </trkpt>
      <trkpt lat="46.15541" lon="-1.15214">
        <ele>1</ele>
        <time>2023-07-15T13:48:47.050+00:00</time>
      </trkpt>
      <trkpt lat="46.15545" lon="-1.15217">
        <ele>4.3</ele>
        <time>2023-07-15T13:48:51.570+00:00</time>
      </trkpt>
      <trkpt lat="46.15546" lon="-1.15225">
        <ele>4.4</ele>
        <time>2023-07-15T13:48:56.088+00:00</time>
      </trkpt>
      <trkpt lat="46.15542" lon="-1.1523">
        <ele>4.5</ele>
        <time>2023-07-15T13:49:00.605+00:00</time>
      </trkpt>
      <trkpt lat="46.15539" lon="-1.15237">
        <ele>2</ele>
        <time>2023-07-15T13:49:05.120+00:00</time>
      </trkpt>
      <trkpt lat="46.15535" lon="-1.1524">
        <ele>2</ele>
        <time>2023-07-15T13:49:09.133+00:00</time>
      </trkpt>
      <trkpt lat="46.15534" lon="-1.15239">
        <ele>2</ele>
        <time>2023-07-15T13:49:13.648+00:00</time>
      </trkpt>
      <trkpt lat="46.15533" lon="-1.1524">
        <ele>2</ele>
        <time>2023-07-15T13:49:18.165+00:00</time>
      </trkpt>
      <trkpt lat="46.15534" lon="-1.1524">
        <ele>2</ele>
        <time>2023-07-15T13:49:22.183+00:00</time>
      </trkpt>
      <trkpt lat="46.15536" lon="-1.15241">
        <ele>2</ele>
        <time>2023-07-15T13:49:26.200+00:00</time>
      </trkpt>
      <trkpt lat="46.15542" lon="-1.15235">
        <ele>4.5</ele>
        <time>2023-07-15T13:49:30.721+00:00</time>
      </trkpt>
      <trkpt lat="46.15545" lon="-1.15229">
        <ele>4.4</ele>
        <time>2023-07-15T13:49:35.240+00:00</time>
      </trkpt>
      <trkpt lat="46.15545" lon="-1.15225">
        <ele>4.4</ele>
        <time>2023-07-15T13:49:39.756+00:00</time>
      </trkpt>
      <trkpt lat="46.15539" lon="-1.15225">
        <ele>1</ele>
        <time>2023-07-15T13:49:43.771+00:00</time>
      </trkpt>
      <trkpt lat="46.15532" lon="-1.15225">
        <ele>1</ele>
        <time>2023-07-15T13:49:47.786+00:00</time>
      </trkpt>
      <trkpt lat="46.15523" lon="-1.15224">
        <ele>1</ele>
        <time>2023-07-15T13:49:51.903+00:00</time>
      </trkpt>
      <trkpt lat="46.1552" lon="-1.15226">
        <ele>1</ele>
        <time>2023-07-15T13:49:56.419+00:00</time>
      </trkpt>
      <trkpt lat="46.1552" lon="-1.15223">
        <ele>1</ele>
        <time>2023-07-15T13:50:05.450+00:00</time>
      </trkpt>
      <trkpt lat="46.1552" lon="-1.15224">
        <ele>1</ele>
        <time>2023-07-15T13:50:09.463+00:00</time>
      </trkpt>
      <trkpt lat="46.15513" lon="-1.15226">
        <ele>2</ele>
        <time>2023-07-15T13:50:13.978+00:00</time>
      </trkpt>
      <trkpt lat="46.15507" lon="-1.15222">
        <ele>2</ele>
        <time>2023-07-15T13:50:18.496+00:00</time>
      </trkpt>
      <trkpt lat="46.15501" lon="-1.15224">
        <ele>2</ele>
        <time>2023-07-15T13:50:23.014+00:00</time>
      </trkpt>
      <trkpt lat="46.15495" lon="-1.15228">
        <ele>2</ele>
        <time>2023-07-15T13:50:27.530+00:00</time>
      </trkpt>
      <trkpt lat="46.15492" lon="-1.15233">
        <ele>2</ele>
        <time>2023-07-15T13:50:32.045+00:00</time>
      </trkpt>
      <trkpt lat="46.1549" lon="-1.15242">
        <ele>2</ele>
        <time>2023-07-15T13:50:37.160+00:00</time>
      </trkpt>
      <trkpt lat="46.15488" lon="-1.15248">
        <ele>2</ele>
        <time>2023-07-15T13:50:41.676+00:00</time>
      </trkpt>
      <trkpt lat="46.15487" lon="-1.15254">
        <ele>2</ele>
        <time>2023-07-15T13:50:45.688+00:00</time>
      </trkpt>
      <trkpt lat="46.15486" lon="-1.1526">
        <ele>1</ele>
        <time>2023-07-15T13:50:49.802+00:00</time>
      </trkpt>
      <trkpt lat="46.15486" lon="-1.15266">
        <ele>1</ele>
        <time>2023-07-15T13:50:53.814+00:00</time>
      </trkpt>
      <trkpt lat="46.15487" lon="-1.15273">
        <ele>1</ele>
        <time>2023-07-15T13:50:58.329+00:00</time>
      </trkpt>
      <trkpt lat="46.15487" lon="-1.15281">
        <ele>1</ele>
        <time>2023-07-15T13:51:02.342+00:00</time>
      </trkpt>
      <trkpt lat="46.15486" lon="-1.15288">
        <ele>1</ele>
        <time>2023-07-15T13:51:06.354+00:00</time>
      </trkpt>
      <trkpt lat="46.15486" lon="-1.15294">
        <ele>2</ele>
        <time>2023-07-15T13:51:10.867+00:00</time>
      </trkpt>
      <trkpt lat="46.15485" lon="-1.15299">
        <ele>2</ele>
        <time>2023-07-15T13:51:14.879+00:00</time>
      </trkpt>
      <trkpt lat="46.15483" lon="-1.15305">
        <ele>2</ele>
        <time>2023-07-15T13:51:18.893+00:00</time>
      </trkpt>
      <trkpt lat="46.15483" lon="-1.15311">
        <ele>2</ele>
        <time>2023-07-15T13:51:22.904+00:00</time>
      </trkpt>
      <trkpt lat="46.15482" lon="-1.15317">
        <ele>2</ele>
        <time>2023-07-15T13:51:27.419+00:00</time>
      </trkpt>
      <trkpt lat="46.15481" lon="-1.15324">
        <ele>1</ele>
        <time>2023-07-15T13:51:31.433+00:00</time>
      </trkpt>
      <trkpt lat="46.1548" lon="-1.15331">
        <ele>1</ele>
        <time>2023-07-15T13:51:35.950+00:00</time>
      </trkpt>
      <trkpt lat="46.15482" lon="-1.15339">
        <ele>1</ele>
        <time>2023-07-15T13:51:39.962+00:00</time>
      </trkpt>
      <trkpt lat="46.15484" lon="-1.15344">
        <ele>1</ele>
        <time>2023-07-15T13:51:44.074+00:00</time>
      </trkpt>
      <trkpt lat="46.15491" lon="-1.15344">
        <ele>2.6</ele>
        <time>2023-07-15T13:51:48.686+00:00</time>
      </trkpt>
      <trkpt lat="46.15498" lon="-1.15345">
        <ele>2.6</ele>
        <time>2023-07-15T13:51:53.214+00:00</time>
      </trkpt>
      <trkpt lat="46.15498" lon="-1.15344">
        <ele>2.8</ele>
        <time>2023-07-15T13:51:57.224+00:00</time>
      </trkpt>
      <trkpt lat="46.15497" lon="-1.15345">
        <ele>2.7</ele>
        <time>2023-07-15T13:52:01.735+00:00</time>
      </trkpt>
      <trkpt lat="46.15497" lon="-1.15344">
        <ele>2.7</ele>
        <time>2023-07-15T13:52:05.749+00:00</time>
      </trkpt>
      <trkpt lat="46.15496" lon="-1.15346">
        <ele>2.5</ele>
        <time>2023-07-15T13:52:19.400+00:00</time>
      </trkpt>
      <trkpt lat="46.1549" lon="-1.15351">
        <ele>1</ele>
        <time>2023-07-15T13:52:23.917+00:00</time>
      </trkpt>
      <trkpt lat="46.15485" lon="-1.15355">
        <ele>1</ele>
        <time>2023-07-15T13:52:28.937+00:00</time>
      </trkpt>
      <trkpt lat="46.15482" lon="-1.15352">
        <ele>1</ele>
        <time>2023-07-15T13:52:33.037+00:00</time>
      </trkpt>
      <trkpt lat="46.15482" lon="-1.15347">
        <ele>1</ele>
        <time>2023-07-15T13:52:37.166+00:00</time>
      </trkpt>
      <trkpt lat="46.15483" lon="-1.15347">
        <ele>1</ele>
        <time>2023-07-15T13:53:40.523+00:00</time>
      </trkpt>
      <trkpt lat="46.15483" lon="-1.15345">
        <ele>1</ele>
        <time>2023-07-15T13:53:45.037+00:00</time>
      </trkpt>
      <trkpt lat="46.15482" lon="-1.15343">
        <ele>1</ele>
        <time>2023-07-15T13:53:49.552+00:00</time>
      </trkpt>
      <trkpt lat="46.15482" lon="-1.15343">
        <ele>1</ele>
        <time>2023-07-15T13:53:54.064+00:00</time>
      </trkpt>
      <trkpt lat="46.15482" lon="-1.15341">
        <ele>1</ele>
        <time>2023-07-15T13:53:59.076+00:00</time>
      </trkpt>
      <trkpt lat="46.15481" lon="-1.15339">
        <ele>1</ele>
        <time>2023-07-15T13:54:09.107+00:00</time>
      </trkpt>
      <trkpt lat="46.15481" lon="-1.15334">
        <ele>1</ele>
        <time>2023-07-15T13:54:14.124+00:00</time>
      </trkpt>
      <trkpt lat="46.15481" lon="-1.15327">
        <ele>1</ele>
        <time>2023-07-15T13:54:19.141+00:00</time>
      </trkpt>
      <trkpt lat="46.15483" lon="-1.15319">
        <ele>2</ele>
        <time>2023-07-15T13:54:23.153+00:00</time>
      </trkpt>
      <trkpt lat="46.15484" lon="-1.15311">
        <ele>2</ele>
        <time>2023-07-15T13:54:27.683+00:00</time>
      </trkpt>
      <trkpt lat="46.15487" lon="-1.15302">
        <ele>4.5</ele>
        <time>2023-07-15T13:54:31.694+00:00</time>
      </trkpt>
      <trkpt lat="46.15487" lon="-1.15295">
        <ele>4.3</ele>
        <time>2023-07-15T13:54:36.223+00:00</time>
      </trkpt>
      <trkpt lat="46.15489" lon="-1.15286">
        <ele>1</ele>
        <time>2023-07-15T13:54:40.735+00:00</time>
      </trkpt>
      <trkpt lat="46.15494" lon="-1.15282">
        <ele>1</ele>
        <time>2023-07-15T13:54:44.746+00:00</time>
      </trkpt>
      <trkpt lat="46.155" lon="-1.15282">
        <ele>1</ele>
        <time>2023-07-15T13:54:49.257+00:00</time>
      </trkpt>
      <trkpt lat="46.15505" lon="-1.15279">
        <ele>1</ele>
        <time>2023-07-15T13:54:53.768+00:00</time>
      </trkpt>
      <trkpt lat="46.15507" lon="-1.15274">
        <ele>1</ele>
        <time>2023-07-15T13:54:58.801+00:00</time>
      </trkpt>
      <trkpt lat="46.15506" lon="-1.15269">
        <ele>1</ele>
        <time>2023-07-15T13:55:02.909+00:00</time>
      </trkpt>
      <trkpt lat="46.15512" lon="-1.15267">
        <ele>1</ele>
        <time>2023-07-15T13:55:06.920+00:00</time>
      </trkpt>
      <trkpt lat="46.15516" lon="-1.15267">
        <ele>2</ele>
        <time>2023-07-15T13:55:11.435+00:00</time>
      </trkpt>
      <trkpt lat="46.15514" lon="-1.15266">
        <ele>2</ele>
        <time>2023-07-15T13:55:15.447+00:00</time>
      </trkpt>
      <trkpt lat="46.15508" lon="-1.15268">
        <ele>1</ele>
        <time>2023-07-15T13:55:19.959+00:00</time>
      </trkpt>
      <trkpt lat="46.15504" lon="-1.15268">
        <ele>1</ele>
        <time>2023-07-15T13:55:59.666+00:00</time>
      </trkpt>
      <trkpt lat="46.15499" lon="-1.15267">
        <ele>1</ele>
        <time>2023-07-15T13:56:03.680+00:00</time>
      </trkpt>
      <trkpt lat="46.15496" lon="-1.15268">
        <ele>1</ele>
        <time>2023-07-15T13:56:07.695+00:00</time>
      </trkpt>
      <trkpt lat="46.15493" lon="-1.15267">
        <ele>1</ele>
        <time>2023-07-15T13:56:11.910+00:00</time>
      </trkpt>
      <trkpt lat="46.1549" lon="-1.15266">
        <ele>1</ele>
        <time>2023-07-15T13:56:15.925+00:00</time>
      </trkpt>
      <trkpt lat="46.15485" lon="-1.15265">
        <ele>1</ele>
        <time>2023-07-15T13:56:20.943+00:00</time>
      </trkpt>
      <trkpt lat="46.15483" lon="-1.15264">
        <ele>1</ele>
        <time>2023-07-15T13:56:24.957+00:00</time>
      </trkpt>
      <trkpt lat="46.1548" lon="-1.15264">
        <ele>1</ele>
        <time>2023-07-15T13:56:29.715+00:00</time>
      </trkpt>
      <trkpt lat="46.15474" lon="-1.15265">
        <ele>1</ele>
        <time>2023-07-15T13:56:33.786+00:00</time>
      </trkpt>
      <trkpt lat="46.15469" lon="-1.15265">
        <ele>1</ele>
        <time>2023-07-15T13:56:38.300+00:00</time>
      </trkpt>
      <trkpt lat="46.15465" lon="-1.15264">
        <ele>1</ele>
        <time>2023-07-15T13:56:42.439+00:00</time>
      </trkpt>
      <trkpt lat="46.15461" lon="-1.15263">
        <ele>1</ele>
        <time>2023-07-15T13:56:46.525+00:00</time>
      </trkpt>
      <trkpt lat="46.15458" lon="-1.15263">
        <ele>4</ele>
        <time>2023-07-15T13:56:51.052+00:00</time>
      </trkpt>
      <trkpt lat="46.15454" lon="-1.15263">
        <ele>4</ele>
        <time>2023-07-15T13:56:55.581+00:00</time>
      </trkpt>
      <trkpt lat="46.1545" lon="-1.15262">
        <ele>4</ele>
        <time>2023-07-15T13:57:00.096+00:00</time>
      </trkpt>
      <trkpt lat="46.15446" lon="-1.15261">
        <ele>4</ele>
        <time>2023-07-15T13:57:04.210+00:00</time>
      </trkpt>
      <trkpt lat="46.15442" lon="-1.15262">
        <ele>4</ele>
        <time>2023-07-15T13:57:08.424+00:00</time>
      </trkpt>
      <trkpt lat="46.1544" lon="-1.15263">
        <ele>4</ele>
        <time>2023-07-15T13:57:13.037+00:00</time>
      </trkpt>
      <trkpt lat="46.15437" lon="-1.15262">
        <ele>4</ele>
        <time>2023-07-15T13:57:18.053+00:00</time>
      </trkpt>
      <trkpt lat="46.1543" lon="-1.15261">
        <ele>5</ele>
        <time>2023-07-15T13:57:22.567+00:00</time>
      </trkpt>
      <trkpt lat="46.15424" lon="-1.15263">
        <ele>5</ele>
        <time>2023-07-15T13:57:27.082+00:00</time>
      </trkpt>
      <trkpt lat="46.15424" lon="-1.15269">
        <ele>7</ele>
        <time>2023-07-15T13:57:31.094+00:00</time>
      </trkpt>
      <trkpt lat="46.15428" lon="-1.15274">
        <ele>7</ele>
        <time>2023-07-15T13:57:35.623+00:00</time>
      </trkpt>
      <trkpt lat="46.15433" lon="-1.15278">
        <ele>5</ele>
        <time>2023-07-15T13:57:40.210+00:00</time>
      </trkpt>
      <trkpt lat="46.15434" lon="-1.15278">
        <ele>5</ele>
        <time>2023-07-15T13:57:44.244+00:00</time>
      </trkpt>
      <trkpt lat="46.15433" lon="-1.15278">
        <ele>5</ele>
        <time>2023-07-15T13:57:48.759+00:00</time>
      </trkpt>
      <trkpt lat="46.15432" lon="-1.15277">
        <ele>5</ele>
        <time>2023-07-15T13:57:53.778+00:00</time>
      </trkpt>
      <trkpt lat="46.15426" lon="-1.15271">
        <ele>7</ele>
        <time>2023-07-15T13:57:57.792+00:00</time>
      </trkpt>
      <trkpt lat="46.15421" lon="-1.15266">
        <ele>7</ele>
        <time>2023-07-15T13:58:01.908+00:00</time>
      </trkpt>
      <trkpt lat="46.15419" lon="-1.15259">
        <ele>5</ele>
        <time>2023-07-15T13:58:06.423+00:00</time>
      </trkpt>
      <trkpt lat="46.15418" lon="-1.15251">
        <ele>5</ele>
        <time>2023-07-15T13:58:11.035+00:00</time>
      </trkpt>
      <trkpt lat="46.15417" lon="-1.15243">
        <ele>5</ele>
        <time>2023-07-15T13:58:15.047+00:00</time>
      </trkpt>
      <trkpt lat="46.15411" lon="-1.15239">
        <ele>5</ele>
        <time>2023-07-15T13:58:19.058+00:00</time>
      </trkpt>
      <trkpt lat="46.15408" lon="-1.15237">
        <ele>5</ele>
        <time>2023-07-15T13:58:23.569+00:00</time>
      </trkpt>
      <trkpt lat="46.15408" lon="-1.15227">
        <ele>4</ele>
        <time>2023-07-15T13:58:28.079+00:00</time>
      </trkpt>
      <trkpt lat="46.15408" lon="-1.15223">
        <ele>4</ele>
        <time>2023-07-15T13:58:32.088+00:00</time>
      </trkpt>
      <trkpt lat="46.15409" lon="-1.15223">
        <ele>4</ele>
        <time>2023-07-15T13:58:36.615+00:00</time>
      </trkpt>
      <trkpt lat="46.15412" lon="-1.1523">
        <ele>4</ele>
        <time>2023-07-15T13:58:40.710+00:00</time>
      </trkpt>
      <trkpt lat="46.15407" lon="-1.15231">
        <ele>4</ele>
        <time>2023-07-15T13:58:44.722+00:00</time>
      </trkpt>
      <trkpt lat="46.15401" lon="-1.1523">
        <ele>3</ele>
        <time>2023-07-15T14:00:13.220+00:00</time>
      </trkpt>
      <trkpt lat="46.15397" lon="-1.15229">
        <ele>3</ele>
        <time>2023-07-15T14:00:17.233+00:00</time>
      </trkpt>
      <trkpt lat="46.15393" lon="-1.15228">
        <ele>3</ele>
        <time>2023-07-15T14:00:21.747+00:00</time>
      </trkpt>
      <trkpt lat="46.15389" lon="-1.15226">
        <ele>3</ele>
        <time>2023-07-15T14:00:26.278+00:00</time>
      </trkpt>
      <trkpt lat="46.15386" lon="-1.15225">
        <ele>3</ele>
        <time>2023-07-15T14:00:30.290+00:00</time>
      </trkpt>
      <trkpt lat="46.15382" lon="-1.15225">
        <ele>3</ele>
        <time>2023-07-15T14:00:34.904+00:00</time>
      </trkpt>
      <trkpt lat="46.15379" lon="-1.15229">
        <ele>3</ele>
        <time>2023-07-15T14:00:39.418+00:00</time>
      </trkpt>
      <trkpt lat="46.15379" lon="-1.15229">
        <ele>3</ele>
        <time>2023-07-15T14:00:43.429+00:00</time>
      </trkpt>
      <trkpt lat="46.15374" lon="-1.15229">
        <ele>3</ele>
        <time>2023-07-15T14:00:47.943+00:00</time>
      </trkpt>
      <trkpt lat="46.15368" lon="-1.1523">
        <ele>3</ele>
        <time>2023-07-15T14:00:52.956+00:00</time>
      </trkpt>
      <trkpt lat="46.15364" lon="-1.1523">
        <ele>3</ele>
        <time>2023-07-15T14:00:56.967+00:00</time>
      </trkpt>
      <trkpt lat="46.1536" lon="-1.15231">
        <ele>3</ele>
        <time>2023-07-15T14:01:01.479+00:00</time>
      </trkpt>
      <trkpt lat="46.15355" lon="-1.15232">
        <ele>3</ele>
        <time>2023-07-15T14:01:05.992+00:00</time>
      </trkpt>
      <trkpt lat="46.15352" lon="-1.15231">
        <ele>3</ele>
        <time>2023-07-15T14:01:10.006+00:00</time>
      </trkpt>
      <trkpt lat="46.15348" lon="-1.15231">
        <ele>3</ele>
        <time>2023-07-15T14:01:14.510+00:00</time>
      </trkpt>
      <trkpt lat="46.15344" lon="-1.1523">
        <ele>2</ele>
        <time>2023-07-15T14:01:19.013+00:00</time>
      </trkpt>
      <trkpt lat="46.15341" lon="-1.15232">
        <ele>2</ele>
        <time>2023-07-15T14:01:23.115+00:00</time>
      </trkpt>
      <trkpt lat="46.15336" lon="-1.15232">
        <ele>2</ele>
        <time>2023-07-15T14:01:27.221+00:00</time>
      </trkpt>
      <trkpt lat="46.15332" lon="-1.15232">
        <ele>2</ele>
        <time>2023-07-15T14:01:31.225+00:00</time>
      </trkpt>
      <trkpt lat="46.15327" lon="-1.15232">
        <ele>2</ele>
        <time>2023-07-15T14:01:35.728+00:00</time>
      </trkpt>
      <trkpt lat="46.15322" lon="-1.15233">
        <ele>2</ele>
        <time>2023-07-15T14:01:39.628+00:00</time>
      </trkpt>
      <trkpt lat="46.15317" lon="-1.15233">
        <ele>3</ele>
        <time>2023-07-15T14:01:43.888+00:00</time>
      </trkpt>
      <trkpt lat="46.15314" lon="-1.15232">
        <ele>3</ele>
        <time>2023-07-15T14:01:48.269+00:00</time>
      </trkpt>
      <trkpt lat="46.1531" lon="-1.15233">
        <ele>3</ele>
        <time>2023-07-15T14:01:53.150+00:00</time>
      </trkpt>
      <trkpt lat="46.15307" lon="-1.15233">
        <ele>3</ele>
        <time>2023-07-15T14:01:58.240+00:00</time>
      </trkpt>
      <trkpt lat="46.15306" lon="-1.1523">
        <ele>3</ele>
        <time>2023-07-15T14:02:02.939+00:00</time>
      </trkpt>
      <trkpt lat="46.15302" lon="-1.15231">
        <ele>3</ele>
        <time>2023-07-15T14:02:07.365+00:00</time>
      </trkpt>
      <trkpt lat="46.15298" lon="-1.15232">
        <ele>3</ele>
        <time>2023-07-15T14:02:11.439+00:00</time>
      </trkpt>
      <trkpt lat="46.15294" lon="-1.15232">
        <ele>3</ele>
        <time>2023-07-15T14:02:15.563+00:00</time>
      </trkpt>
      <trkpt lat="46.15289" lon="-1.15234">
        <ele>4</ele>
        <time>2023-07-15T14:02:20.240+00:00</time>
      </trkpt>
      <trkpt lat="46.15284" lon="-1.15236">
        <ele>4</ele>
        <time>2023-07-15T14:02:24.435+00:00</time>
      </trkpt>
      <trkpt lat="46.1528" lon="-1.15236">
        <ele>5</ele>
        <time>2023-07-15T14:02:28.572+00:00</time>
      </trkpt>
      <trkpt lat="46.15275" lon="-1.15236">
        <ele>5</ele>
        <time>2023-07-15T14:02:33.229+00:00</time>
      </trkpt>
      <trkpt lat="46.15271" lon="-1.15236">
        <ele>4</ele>
        <time>2023-07-15T14:02:37.367+00:00</time>
      </trkpt>
      <trkpt lat="46.15268" lon="-1.15236">
        <ele>4</ele>
        <time>2023-07-15T14:02:41.765+00:00</time>
      </trkpt>
      <trkpt lat="46.15264" lon="-1.15235">
        <ele>4</ele>
        <time>2023-07-15T14:02:45.962+00:00</time>
      </trkpt>
      <trkpt lat="46.1526" lon="-1.15234">
        <ele>4</ele>
        <time>2023-07-15T14:02:49.960+00:00</time>
      </trkpt>
      <trkpt lat="46.15257" lon="-1.15233">
        <ele>4</ele>
        <time>2023-07-15T14:02:54.638+00:00</time>
      </trkpt>
      <trkpt lat="46.15252" lon="-1.15233">
        <ele>4</ele>
        <time>2023-07-15T14:02:58.776+00:00</time>
      </trkpt>
      <trkpt lat="46.15247" lon="-1.15234">
        <ele>4</ele>
        <time>2023-07-15T14:03:02.972+00:00</time>
      </trkpt>
      <trkpt lat="46.15242" lon="-1.15234">
        <ele>4</ele>
        <time>2023-07-15T14:03:07.571+00:00</time>
      </trkpt>
      <trkpt lat="46.15237" lon="-1.15235">
        <ele>4</ele>
        <time>2023-07-15T14:03:11.608+00:00</time>
      </trkpt>
      <trkpt lat="46.15233" lon="-1.15237">
        <ele>6</ele>
        <time>2023-07-15T14:03:15.804+00:00</time>
      </trkpt>
      <trkpt lat="46.1523" lon="-1.15236">
        <ele>6</ele>
        <time>2023-07-15T14:03:20.600+00:00</time>
      </trkpt>
      <trkpt lat="46.15225" lon="-1.15236">
        <ele>5</ele>
        <time>2023-07-15T14:03:25.157+00:00</time>
      </trkpt>
      <trkpt lat="46.1522" lon="-1.15236">
        <ele>5</ele>
        <time>2023-07-15T14:03:29.175+00:00</time>
      </trkpt>
      <trkpt lat="46.15215" lon="-1.15235">
        <ele>5</ele>
        <time>2023-07-15T14:03:33.731+00:00</time>
      </trkpt>
      <trkpt lat="46.15211" lon="-1.15235">
        <ele>5</ele>
        <time>2023-07-15T14:03:38.408+00:00</time>
      </trkpt>
      <trkpt lat="46.15207" lon="-1.15235">
        <ele>5</ele>
        <time>2023-07-15T14:03:42.606+00:00</time>
      </trkpt>
      <trkpt lat="46.15204" lon="-1.15234">
        <ele>5</ele>
        <time>2023-07-15T14:03:46.743+00:00</time>
      </trkpt>
      <trkpt lat="46.152" lon="-1.15233">
        <ele>5</ele>
        <time>2023-07-15T14:03:51.420+00:00</time>
      </trkpt>
      <trkpt lat="46.15196" lon="-1.15232">
        <ele>5</ele>
        <time>2023-07-15T14:03:55.617+00:00</time>
      </trkpt>
      <trkpt lat="46.15191" lon="-1.15233">
        <ele>5</ele>
        <time>2023-07-15T14:04:00.173+00:00</time>
      </trkpt>
      <trkpt lat="46.15186" lon="-1.15233">
        <ele>5</ele>
        <time>2023-07-15T14:04:04.882+00:00</time>
      </trkpt>
      <trkpt lat="46.15182" lon="-1.15234">
        <ele>5</ele>
        <time>2023-07-15T14:04:09.266+00:00</time>
      </trkpt>
      <trkpt lat="46.15177" lon="-1.15234">
        <ele>4</ele>
        <time>2023-07-15T14:04:13.422+00:00</time>
      </trkpt>
      <trkpt lat="46.15174" lon="-1.15232">
        <ele>4</ele>
        <time>2023-07-15T14:04:18.057+00:00</time>
      </trkpt>
      <trkpt lat="46.15171" lon="-1.15222">
        <ele>4</ele>
        <time>2023-07-15T14:04:22.553+00:00</time>
      </trkpt>
      <trkpt lat="46.15168" lon="-1.15218">
        <ele>4</ele>
        <time>2023-07-15T14:04:27.203+00:00</time>
      </trkpt>
      <trkpt lat="46.15169" lon="-1.15217">
        <ele>4</ele>
        <time>2023-07-15T14:04:31.297+00:00</time>
      </trkpt>
      <trkpt lat="46.15171" lon="-1.15217">
        <ele>4</ele>
        <time>2023-07-15T14:04:35.809+00:00</time>
      </trkpt>
      <trkpt lat="46.15171" lon="-1.15217">
        <ele>4</ele>
        <time>2023-07-15T14:04:40.822+00:00</time>
      </trkpt>
      <trkpt lat="46.15173" lon="-1.1522">
        <ele>4</ele>
        <time>2023-07-15T14:04:50.846+00:00</time>
      </trkpt>
      <trkpt lat="46.15174" lon="-1.15225">
        <ele>4</ele>
        <time>2023-07-15T14:04:54.857+00:00</time>
      </trkpt>
      <trkpt lat="46.1517" lon="-1.15231">
        <ele>4</ele>
        <time>2023-07-15T14:04:59.871+00:00</time>
      </trkpt>
      <trkpt lat="46.15164" lon="-1.15232">
        <ele>4</ele>
        <time>2023-07-15T14:05:03.879+00:00</time>
      </trkpt>
      <trkpt lat="46.1516" lon="-1.15236">
        <ele>4</ele>
        <time>2023-07-15T14:05:08.388+00:00</time>
      </trkpt>
      <trkpt lat="46.15158" lon="-1.15239">
        <ele>5</ele>
        <time>2023-07-15T14:05:12.397+00:00</time>
      </trkpt>
      <trkpt lat="46.15159" lon="-1.1524">
        <ele>5</ele>
        <time>2023-07-15T14:05:16.406+00:00</time>
      </trkpt>
      <trkpt lat="46.15155" lon="-1.15241">
        <ele>5</ele>
        <time>2023-07-15T14:05:20.917+00:00</time>
      </trkpt>
      <trkpt lat="46.1515" lon="-1.15242">
        <ele>3</ele>
        <time>2023-07-15T14:05:24.927+00:00</time>
      </trkpt>
      <trkpt lat="46.15146" lon="-1.15242">
        <ele>3</ele>
        <time>2023-07-15T14:05:29.541+00:00</time>
      </trkpt>
      <trkpt lat="46.15141" lon="-1.15242">
        <ele>3</ele>
        <time>2023-07-15T14:05:33.551+00:00</time>
      </trkpt>
      <trkpt lat="46.15136" lon="-1.15243">
        <ele>3</ele>
        <time>2023-07-15T14:05:37.568+00:00</time>
      </trkpt>
      <trkpt lat="46.15128" lon="-1.15249">
        <ele>3</ele>
        <time>2023-07-15T14:05:42.178+00:00</time>
      </trkpt>
      <trkpt lat="46.15123" lon="-1.15247">
        <ele>4</ele>
        <time>2023-07-15T14:05:46.686+00:00</time>
      </trkpt>
      <trkpt lat="46.15118" lon="-1.15247">
        <ele>4</ele>
        <time>2023-07-15T14:06:34.842+00:00</time>
      </trkpt>
      <trkpt lat="46.15114" lon="-1.15247">
        <ele>4</ele>
        <time>2023-07-15T14:06:39.301+00:00</time>
      </trkpt>
      <trkpt lat="46.1511" lon="-1.15247">
        <ele>4</ele>
        <time>2023-07-15T14:06:43.662+00:00</time>
      </trkpt>
      <trkpt lat="46.15106" lon="-1.15246">
        <ele>4</ele>
        <time>2023-07-15T14:06:48.219+00:00</time>
      </trkpt>
      <trkpt lat="46.15102" lon="-1.15247">
        <ele>4</ele>
        <time>2023-07-15T14:06:52.738+00:00</time>
      </trkpt>
      <trkpt lat="46.15099" lon="-1.15247">
        <ele>4</ele>
        <time>2023-07-15T14:06:57.229+00:00</time>
      </trkpt>
      <trkpt lat="46.15093" lon="-1.15247">
        <ele>5</ele>
        <time>2023-07-15T14:07:01.794+00:00</time>
      </trkpt>
      <trkpt lat="46.15089" lon="-1.15247">
        <ele>5</ele>
        <time>2023-07-15T14:07:06.439+00:00</time>
      </trkpt>
      <trkpt lat="46.15085" lon="-1.15242">
        <ele>5</ele>
        <time>2023-07-15T14:07:10.951+00:00</time>
      </trkpt>
      <trkpt lat="46.15082" lon="-1.15237">
        <ele>5</ele>
        <time>2023-07-15T14:07:15.148+00:00</time>
      </trkpt>
      <trkpt lat="46.15078" lon="-1.15233">
        <ele>5</ele>
        <time>2023-07-15T14:07:19.627+00:00</time>
      </trkpt>
      <trkpt lat="46.1507" lon="-1.15225">
        <ele>5</ele>
        <time>2023-07-15T14:07:23.587+00:00</time>
      </trkpt>
      <trkpt lat="46.15072" lon="-1.15222">
        <ele>5</ele>
        <time>2023-07-15T14:07:28.204+00:00</time>
      </trkpt>
      <trkpt lat="46.15072" lon="-1.15222">
        <ele>5</ele>
        <time>2023-07-15T14:07:42.053+00:00</time>
      </trkpt>
      <trkpt lat="46.15069" lon="-1.15222">
        <ele>5</ele>
        <time>2023-07-15T14:07:46.062+00:00</time>
      </trkpt>
      <trkpt lat="46.15066" lon="-1.15216">
        <ele>5</ele>
        <time>2023-07-15T14:07:50.571+00:00</time>
      </trkpt>
      <trkpt lat="46.15065" lon="-1.15209">
        <ele>5</ele>
        <time>2023-07-15T14:07:54.677+00:00</time>
      </trkpt>
      <trkpt lat="46.15062" lon="-1.15203">
        <ele>5</ele>
        <time>2023-07-15T14:07:59.187+00:00</time>
      </trkpt>
      <trkpt lat="46.15058" lon="-1.15201">
        <ele>5</ele>
        <time>2023-07-15T14:08:03.796+00:00</time>
      </trkpt>
      <trkpt lat="46.15058" lon="-1.15199">
        <ele>5</ele>
        <time>2023-07-15T14:08:08.306+00:00</time>
      </trkpt>
      <trkpt lat="46.15058" lon="-1.152">
        <ele>5</ele>
        <time>2023-07-15T14:08:12.814+00:00</time>
      </trkpt>
      <trkpt lat="46.15056" lon="-1.15205">
        <ele>5</ele>
        <time>2023-07-15T14:08:17.825+00:00</time>
      </trkpt>
      <trkpt lat="46.15057" lon="-1.15207">
        <ele>5</ele>
        <time>2023-07-15T14:08:27.454+00:00</time>
      </trkpt>
      <trkpt lat="46.15056" lon="-1.15207">
        <ele>5</ele>
        <time>2023-07-15T14:08:31.968+00:00</time>
      </trkpt>
      <trkpt lat="46.15051" lon="-1.15213">
        <ele>5</ele>
        <time>2023-07-15T14:08:35.979+00:00</time>
      </trkpt>
      <trkpt lat="46.15047" lon="-1.15218">
        <ele>5</ele>
        <time>2023-07-15T14:08:40.492+00:00</time>
      </trkpt>
      <trkpt lat="46.15044" lon="-1.15223">
        <ele>5</ele>
        <time>2023-07-15T14:08:45.078+00:00</time>
      </trkpt>
      <trkpt lat="46.15041" lon="-1.15229">
        <ele>5</ele>
        <time>2023-07-15T14:08:49.313+00:00</time>
      </trkpt>
      <trkpt lat="46.15037" lon="-1.15233">
        <ele>5</ele>
        <time>2023-07-15T14:08:53.823+00:00</time>
      </trkpt>
      <trkpt lat="46.15032" lon="-1.15235">
        <ele>5</ele>
        <time>2023-07-15T14:08:58.434+00:00</time>
      </trkpt>
      <trkpt lat="46.15029" lon="-1.15237">
        <ele>5</ele>
        <time>2023-07-15T14:09:02.443+00:00</time>
      </trkpt>
      <trkpt lat="46.15025" lon="-1.15239">
        <ele>5</ele>
        <time>2023-07-15T14:09:07.054+00:00</time>
      </trkpt>
      <trkpt lat="46.15021" lon="-1.1524">
        <ele>5</ele>
        <time>2023-07-15T14:09:11.183+00:00</time>
      </trkpt>
      <trkpt lat="46.15016" lon="-1.15241">
        <ele>5</ele>
        <time>2023-07-15T14:09:15.696+00:00</time>
      </trkpt>
      <trkpt lat="46.15011" lon="-1.15241">
        <ele>5</ele>
        <time>2023-07-15T14:09:19.707+00:00</time>
      </trkpt>
      <trkpt lat="46.15007" lon="-1.1524">
        <ele>5</ele>
        <time>2023-07-15T14:09:23.718+00:00</time>
      </trkpt>
      <trkpt lat="46.15002" lon="-1.15236">
        <ele>5</ele>
        <time>2023-07-15T14:09:28.230+00:00</time>
      </trkpt>
      <trkpt lat="46.15" lon="-1.15228">
        <ele>5</ele>
        <time>2023-07-15T14:09:32.240+00:00</time>
      </trkpt>
      <trkpt lat="46.15" lon="-1.15222">
        <ele>5</ele>
        <time>2023-07-15T14:09:36.750+00:00</time>
      </trkpt>
      <trkpt lat="46.15" lon="-1.15216">
        <ele>5</ele>
        <time>2023-07-15T14:09:40.861+00:00</time>
      </trkpt>
      <trkpt lat="46.14999" lon="-1.1521">
        <ele>5</ele>
        <time>2023-07-15T14:09:44.870+00:00</time>
      </trkpt>
      <trkpt lat="46.14998" lon="-1.15208">
        <ele>5</ele>
        <time>2023-07-15T14:09:48.895+00:00</time>
      </trkpt>
      <trkpt lat="46.14997" lon="-1.15216">
        <ele>5</ele>
        <time>2023-07-15T14:09:53.405+00:00</time>
      </trkpt>
      <trkpt lat="46.14994" lon="-1.15216">
        <ele>5</ele>
        <time>2023-07-15T14:10:11.062+00:00</time>
      </trkpt>
      <trkpt lat="46.1499" lon="-1.15215">
        <ele>5</ele>
        <time>2023-07-15T14:10:15.576+00:00</time>
      </trkpt>
      <trkpt lat="46.14986" lon="-1.15222">
        <ele>5</ele>
        <time>2023-07-15T14:10:19.688+00:00</time>
      </trkpt>
      <trkpt lat="46.14982" lon="-1.15227">
        <ele>5</ele>
        <time>2023-07-15T14:10:24.201+00:00</time>
      </trkpt>
      <trkpt lat="46.14978" lon="-1.15231">
        <ele>5</ele>
        <time>2023-07-15T14:10:28.312+00:00</time>
      </trkpt>
      <trkpt lat="46.14973" lon="-1.15234">
        <ele>5</ele>
        <time>2023-07-15T14:10:32.825+00:00</time>
      </trkpt>
      <trkpt lat="46.14969" lon="-1.15236">
        <ele>5</ele>
        <time>2023-07-15T14:10:36.835+00:00</time>
      </trkpt>
      <trkpt lat="46.14965" lon="-1.15238">
        <ele>5</ele>
        <time>2023-07-15T14:10:41.347+00:00</time>
      </trkpt>
      <trkpt lat="46.1496" lon="-1.15238">
        <ele>5</ele>
        <time>2023-07-15T14:10:45.876+00:00</time>
      </trkpt>
      <trkpt lat="46.14956" lon="-1.1524">
        <ele>5</ele>
        <time>2023-07-15T14:10:50.390+00:00</time>
      </trkpt>
      <trkpt lat="46.14951" lon="-1.15242">
        <ele>5</ele>
        <time>2023-07-15T14:10:54.905+00:00</time>
      </trkpt>
      <trkpt lat="46.14946" lon="-1.15241">
        <ele>5</ele>
        <time>2023-07-15T14:10:58.917+00:00</time>
      </trkpt>
      <trkpt lat="46.14942" lon="-1.15241">
        <ele>5</ele>
        <time>2023-07-15T14:11:03.947+00:00</time>
      </trkpt>
      <trkpt lat="46.14939" lon="-1.15242">
        <ele>5</ele>
        <time>2023-07-15T14:11:07.958+00:00</time>
      </trkpt>
      <trkpt lat="46.14934" lon="-1.1524">
        <ele>5</ele>
        <time>2023-07-15T14:11:12.474+00:00</time>
      </trkpt>
      <trkpt lat="46.14934" lon="-1.15238">
        <ele>5</ele>
        <time>2023-07-15T14:11:16.600+00:00</time>
      </trkpt>
      <trkpt lat="46.14934" lon="-1.15239">
        <ele>5</ele>
        <time>2023-07-15T14:11:21.112+00:00</time>
      </trkpt>
      <trkpt lat="46.14931" lon="-1.15239">
        <ele>5</ele>
        <time>2023-07-15T14:11:26.125+00:00</time>
      </trkpt>
      <trkpt lat="46.14926" lon="-1.15241">
        <ele>4</ele>
        <time>2023-07-15T14:11:30.741+00:00</time>
      </trkpt>
      <trkpt lat="46.1492" lon="-1.15241">
        <ele>4</ele>
        <time>2023-07-15T14:11:34.755+00:00</time>
      </trkpt>
      <trkpt lat="46.14915" lon="-1.15241">
        <ele>4</ele>
        <time>2023-07-15T14:11:39.270+00:00</time>
      </trkpt>
      <trkpt lat="46.1491" lon="-1.15243">
        <ele>4</ele>
        <time>2023-07-15T14:11:43.886+00:00</time>
      </trkpt>
      <trkpt lat="46.14904" lon="-1.15243">
        <ele>4</ele>
        <time>2023-07-15T14:11:47.899+00:00</time>
      </trkpt>
      <trkpt lat="46.14902" lon="-1.15245">
        <ele>4</ele>
        <time>2023-07-15T14:11:52.514+00:00</time>
      </trkpt>
      <trkpt lat="46.1489" lon="-1.15241">
        <ele>4</ele>
        <time>2023-07-15T14:11:57.133+00:00</time>
      </trkpt>
      <trkpt lat="46.14887" lon="-1.15244">
        <ele>4</ele>
        <time>2023-07-15T14:12:01.243+00:00</time>
      </trkpt>
      <trkpt lat="46.14881" lon="-1.15247">
        <ele>4</ele>
        <time>2023-07-15T14:12:33.176+00:00</time>
      </trkpt>
      <trkpt lat="46.14873" lon="-1.15244">
        <ele>3</ele>
        <time>2023-07-15T14:12:36.786+00:00</time>
      </trkpt>
      <trkpt lat="46.14868" lon="-1.15249">
        <ele>3</ele>
        <time>2023-07-15T14:12:41.793+00:00</time>
      </trkpt>
      <trkpt lat="46.14867" lon="-1.15257">
        <ele>3</ele>
        <time>2023-07-15T14:12:45.895+00:00</time>
      </trkpt>
      <trkpt lat="46.14865" lon="-1.15263">
        <ele>3</ele>
        <time>2023-07-15T14:12:50.517+00:00</time>
      </trkpt>
      <trkpt lat="46.14863" lon="-1.15269">
        <ele>4</ele>
        <time>2023-07-15T14:12:54.717+00:00</time>
      </trkpt>
      <trkpt lat="46.14861" lon="-1.15273">
        <ele>4</ele>
        <time>2023-07-15T14:12:58.739+00:00</time>
      </trkpt>
      <trkpt lat="46.14859" lon="-1.1527">
        <ele>4</ele>
        <time>2023-07-15T14:13:02.841+00:00</time>
      </trkpt>
      <trkpt lat="46.14862" lon="-1.15278">
        <ele>4</ele>
        <time>2023-07-15T14:13:07.343+00:00</time>
      </trkpt>
      <trkpt lat="46.14861" lon="-1.15284">
        <ele>4</ele>
        <time>2023-07-15T14:13:11.695+00:00</time>
      </trkpt>
      <trkpt lat="46.14858" lon="-1.1529">
        <ele>4</ele>
        <time>2023-07-15T14:13:15.439+00:00</time>
      </trkpt>
      <trkpt lat="46.14852" lon="-1.15298">
        <ele>4</ele>
        <time>2023-07-15T14:13:19.802+00:00</time>
      </trkpt>
      <trkpt lat="46.14851" lon="-1.15304">
        <ele>4</ele>
        <time>2023-07-15T14:13:24.401+00:00</time>
      </trkpt>
      <trkpt lat="46.14852" lon="-1.15312">
        <ele>4</ele>
        <time>2023-07-15T14:13:28.820+00:00</time>
      </trkpt>
      <trkpt lat="46.14852" lon="-1.1532">
        <ele>5</ele>
        <time>2023-07-15T14:13:33.377+00:00</time>
      </trkpt>
      <trkpt lat="46.1486" lon="-1.15333">
        <ele>5</ele>
        <time>2023-07-15T14:13:37.395+00:00</time>
      </trkpt>
      <trkpt lat="46.14867" lon="-1.15337">
        <ele>5</ele>
        <time>2023-07-15T14:13:41.951+00:00</time>
      </trkpt>
      <trkpt lat="46.14874" lon="-1.1534">
        <ele>5</ele>
        <time>2023-07-15T14:13:55.063+00:00</time>
      </trkpt>
      <trkpt lat="46.14883" lon="-1.15344">
        <ele>5</ele>
        <time>2023-07-15T14:13:59.141+00:00</time>
      </trkpt>
      <trkpt lat="46.14888" lon="-1.15341">
        <ele>5</ele>
        <time>2023-07-15T14:14:03.216+00:00</time>
      </trkpt>
      <trkpt lat="46.14856" lon="-1.15344">
        <ele>5</ele>
        <time>2023-07-15T14:14:07.953+00:00</time>
      </trkpt>
      <trkpt lat="46.14856" lon="-1.15348">
        <ele>6</ele>
        <time>2023-07-15T14:14:15.569+00:00</time>
      </trkpt>
      <trkpt lat="46.14853" lon="-1.15356">
        <ele>6</ele>
        <time>2023-07-15T14:17:49.301+00:00</time>
      </trkpt>
      <trkpt lat="46.14851" lon="-1.15364">
        <ele>6</ele>
        <time>2023-07-15T14:17:53.320+00:00</time>
      </trkpt>
      <trkpt lat="46.1485" lon="-1.1537">
        <ele>6</ele>
        <time>2023-07-15T14:17:57.780+00:00</time>
      </trkpt>
      <trkpt lat="46.14852" lon="-1.15377">
        <ele>6</ele>
        <time>2023-07-15T14:18:02.205+00:00</time>
      </trkpt>
      <trkpt lat="46.14848" lon="-1.15385">
        <ele>6</ele>
        <time>2023-07-15T14:18:06.140+00:00</time>
      </trkpt>
      <trkpt lat="46.14846" lon="-1.15395">
        <ele>7</ele>
        <time>2023-07-15T14:18:28.036+00:00</time>
      </trkpt>
      <trkpt lat="46.14844" lon="-1.15404">
        <ele>7</ele>
        <time>2023-07-15T14:18:32.658+00:00</time>
      </trkpt>
      <trkpt lat="46.14842" lon="-1.15417">
        <ele>7</ele>
        <time>2023-07-15T14:18:36.999+00:00</time>
      </trkpt>
      <trkpt lat="46.1484" lon="-1.15427">
        <ele>7</ele>
        <time>2023-07-15T14:18:41.017+00:00</time>
      </trkpt>
      <trkpt lat="46.1484" lon="-1.15436">
        <ele>7</ele>
        <time>2023-07-15T14:18:45.439+00:00</time>
      </trkpt>
      <trkpt lat="46.14841" lon="-1.15442">
        <ele>7</ele>
        <time>2023-07-15T14:18:50.135+00:00</time>
      </trkpt>
      <trkpt lat="46.1484" lon="-1.15446">
        <ele>7</ele>
        <time>2023-07-15T14:18:54.614+00:00</time>
      </trkpt>
      <trkpt lat="46.14838" lon="-1.15454">
        <ele>7</ele>
        <time>2023-07-15T14:18:58.693+00:00</time>
      </trkpt>
      <trkpt lat="46.14836" lon="-1.15461">
        <ele>7</ele>
        <time>2023-07-15T14:19:03.172+00:00</time>
      </trkpt>
      <trkpt lat="46.14836" lon="-1.15468">
        <ele>7</ele>
        <time>2023-07-15T14:19:07.710+00:00</time>
      </trkpt>
      <trkpt lat="46.14836" lon="-1.15469">
        <ele>7</ele>
        <time>2023-07-15T14:19:12.010+00:00</time>
      </trkpt>
      <trkpt lat="46.14837" lon="-1.15468">
        <ele>7</ele>
        <time>2023-07-15T14:19:16.089+00:00</time>
      </trkpt>
      <trkpt lat="46.14838" lon="-1.15472">
        <ele>7</ele>
        <time>2023-07-15T14:19:21.121+00:00</time>
      </trkpt>
      <trkpt lat="46.14841" lon="-1.15477">
        <ele>7</ele>
        <time>2023-07-15T14:19:33.158+00:00</time>
      </trkpt>
      <trkpt lat="46.14849" lon="-1.15476">
        <ele>6</ele>
        <time>2023-07-15T14:19:37.675+00:00</time>
      </trkpt>
      <trkpt lat="46.14854" lon="-1.15476">
        <ele>6</ele>
        <time>2023-07-15T14:19:41.787+00:00</time>
      </trkpt>
      <trkpt lat="46.14859" lon="-1.15476">
        <ele>6</ele>
        <time>2023-07-15T14:19:46.298+00:00</time>
      </trkpt>
      <trkpt lat="46.14863" lon="-1.15475">
        <ele>6</ele>
        <time>2023-07-15T14:19:50.823+00:00</time>
      </trkpt>
      <trkpt lat="46.14869" lon="-1.15474">
        <ele>6</ele>
        <time>2023-07-15T14:19:54.833+00:00</time>
      </trkpt>
      <trkpt lat="46.14873" lon="-1.15474">
        <ele>6</ele>
        <time>2023-07-15T14:19:59.359+00:00</time>
      </trkpt>
      <trkpt lat="46.14877" lon="-1.15475">
        <ele>6</ele>
        <time>2023-07-15T14:20:03.368+00:00</time>
      </trkpt>
      <trkpt lat="46.14884" lon="-1.15475">
        <ele>6</ele>
        <time>2023-07-15T14:20:07.382+00:00</time>
      </trkpt>
      <trkpt lat="46.14889" lon="-1.15473">
        <ele>6</ele>
        <time>2023-07-15T14:20:11.389+00:00</time>
      </trkpt>
      <trkpt lat="46.14892" lon="-1.15472">
        <ele>6</ele>
        <time>2023-07-15T14:20:15.997+00:00</time>
      </trkpt>
      <trkpt lat="46.14895" lon="-1.15472">
        <ele>6</ele>
        <time>2023-07-15T14:20:20.502+00:00</time>
      </trkpt>
      <trkpt lat="46.14898" lon="-1.1547">
        <ele>6</ele>
        <time>2023-07-15T14:20:25.005+00:00</time>
      </trkpt>
      <trkpt lat="46.14904" lon="-1.1547">
        <ele>6</ele>
        <time>2023-07-15T14:20:29.007+00:00</time>
      </trkpt>
      <trkpt lat="46.1491" lon="-1.1547">
        <ele>6</ele>
        <time>2023-07-15T14:20:33.427+00:00</time>
      </trkpt>
      <trkpt lat="46.14913" lon="-1.1547">
        <ele>6</ele>
        <time>2023-07-15T14:20:37.608+00:00</time>
      </trkpt>
      <trkpt lat="46.14916" lon="-1.1547">
        <ele>6</ele>
        <time>2023-07-15T14:20:41.610+00:00</time>
      </trkpt>
      <trkpt lat="46.14922" lon="-1.1547">
        <ele>6</ele>
        <time>2023-07-15T14:20:45.950+00:00</time>
      </trkpt>
      <trkpt lat="46.14929" lon="-1.1547">
        <ele>6</ele>
        <time>2023-07-15T14:20:50.052+00:00</time>
      </trkpt>
      <trkpt lat="46.14933" lon="-1.1547">
        <ele>6</ele>
        <time>2023-07-15T14:20:54.473+00:00</time>
      </trkpt>
      <trkpt lat="46.14935" lon="-1.1547">
        <ele>6</ele>
        <time>2023-07-15T14:20:58.554+00:00</time>
      </trkpt>
      <trkpt lat="46.14941" lon="-1.1547">
        <ele>6</ele>
        <time>2023-07-15T14:21:02.615+00:00</time>
      </trkpt>
      <trkpt lat="46.14947" lon="-1.1547">
        <ele>6</ele>
        <time>2023-07-15T14:21:06.876+00:00</time>
      </trkpt>
      <trkpt lat="46.1495" lon="-1.1547">
        <ele>6</ele>
        <time>2023-07-15T14:21:10.938+00:00</time>
      </trkpt>
      <trkpt lat="46.14951" lon="-1.1547">
        <ele>6</ele>
        <time>2023-07-15T14:21:15.660+00:00</time>
      </trkpt>
      <trkpt lat="46.14954" lon="-1.1547">
        <ele>6</ele>
        <time>2023-07-15T14:21:19.679+00:00</time>
      </trkpt>
      <trkpt lat="46.14957" lon="-1.1547">
        <ele>6</ele>
        <time>2023-07-15T14:21:23.682+00:00</time>
      </trkpt>
      <trkpt lat="46.14962" lon="-1.1547">
        <ele>5</ele>
        <time>2023-07-15T14:21:27.864+00:00</time>
      </trkpt>
      <trkpt lat="46.14968" lon="-1.15469">
        <ele>5</ele>
        <time>2023-07-15T14:21:32.046+00:00</time>
      </trkpt>
      <trkpt lat="46.14973" lon="-1.1547">
        <ele>5</ele>
        <time>2023-07-15T14:21:36.548+00:00</time>
      </trkpt>
      <trkpt lat="46.14978" lon="-1.1547">
        <ele>5</ele>
        <time>2023-07-15T14:21:41.110+00:00</time>
      </trkpt>
      <trkpt lat="46.14983" lon="-1.1547">
        <ele>5</ele>
        <time>2023-07-15T14:21:46.070+00:00</time>
      </trkpt>
      <trkpt lat="46.14989" lon="-1.1547">
        <ele>5</ele>
        <time>2023-07-15T14:21:50.191+00:00</time>
      </trkpt>
      <trkpt lat="46.14995" lon="-1.15468">
        <ele>5</ele>
        <time>2023-07-15T14:21:54.111+00:00</time>
      </trkpt>
      <trkpt lat="46.15001" lon="-1.15467">
        <ele>5</ele>
        <time>2023-07-15T14:21:58.551+00:00</time>
      </trkpt>
      <trkpt lat="46.15006" lon="-1.15468">
        <ele>5</ele>
        <time>2023-07-15T14:22:02.382+00:00</time>
      </trkpt>
      <trkpt lat="46.15012" lon="-1.15469">
        <ele>5</ele>
        <time>2023-07-15T14:22:06.921+00:00</time>
      </trkpt>
      <trkpt lat="46.15017" lon="-1.15469">
        <ele>4</ele>
        <time>2023-07-15T14:22:10.939+00:00</time>
      </trkpt>
      <trkpt lat="46.15017" lon="-1.15472">
        <ele>4</ele>
        <time>2023-07-15T14:22:15.557+00:00</time>
      </trkpt>
      <trkpt lat="46.15015" lon="-1.15476">
        <ele>4</ele>
        <time>2023-07-15T14:22:19.415+00:00</time>
      </trkpt>
      <trkpt lat="46.15008" lon="-1.1548">
        <ele>5</ele>
        <time>2023-07-15T14:22:23.974+00:00</time>
      </trkpt>
      <trkpt lat="46.15006" lon="-1.15484">
        <ele>5</ele>
        <time>2023-07-15T14:22:28.354+00:00</time>
      </trkpt>
      <trkpt lat="46.15006" lon="-1.15491">
        <ele>4</ele>
        <time>2023-07-15T14:22:32.933+00:00</time>
      </trkpt>
      <trkpt lat="46.15005" lon="-1.155">
        <ele>4</ele>
        <time>2023-07-15T14:22:37.312+00:00</time>
      </trkpt>
      <trkpt lat="46.15003" lon="-1.15509">
        <ele>4</ele>
        <time>2023-07-15T14:22:41.772+00:00</time>
      </trkpt>
      <trkpt lat="46.15004" lon="-1.15518">
        <ele>4</ele>
        <time>2023-07-15T14:22:46.439+00:00</time>
      </trkpt>
      <trkpt lat="46.15002" lon="-1.15527">
        <ele>4</ele>
        <time>2023-07-15T14:22:50.989+00:00</time>
      </trkpt>
      <trkpt lat="46.15001" lon="-1.15535">
        <ele>4</ele>
        <time>2023-07-15T14:22:55.439+00:00</time>
      </trkpt>
      <trkpt lat="46.14997" lon="-1.15541">
        <ele>4</ele>
        <time>2023-07-15T14:22:59.385+00:00</time>
      </trkpt>
      <trkpt lat="46.14995" lon="-1.15548">
        <ele>2</ele>
        <time>2023-07-15T14:23:03.941+00:00</time>
      </trkpt>
      <trkpt lat="46.14995" lon="-1.15554">
        <ele>2</ele>
        <time>2023-07-15T14:23:08.497+00:00</time>
      </trkpt>
      <trkpt lat="46.14993" lon="-1.15561">
        <ele>2</ele>
        <time>2023-07-15T14:23:13.173+00:00</time>
      </trkpt>
      <trkpt lat="46.14993" lon="-1.15567">
        <ele>2</ele>
        <time>2023-07-15T14:23:17.610+00:00</time>
      </trkpt>
      <trkpt lat="46.14993" lon="-1.15573">
        <ele>2</ele>
        <time>2023-07-15T14:23:22.341+00:00</time>
      </trkpt>
      <trkpt lat="46.14992" lon="-1.15578">
        <ele>2</ele>
        <time>2023-07-15T14:23:26.423+00:00</time>
      </trkpt>
      <trkpt lat="46.14991" lon="-1.15586">
        <ele>2</ele>
        <time>2023-07-15T14:23:30.601+00:00</time>
      </trkpt>
      <trkpt lat="46.14988" lon="-1.15598">
        <ele>2</ele>
        <time>2023-07-15T14:23:34.738+00:00</time>
      </trkpt>
      <trkpt lat="46.14987" lon="-1.15607">
        <ele>2</ele>
        <time>2023-07-15T14:23:39.215+00:00</time>
      </trkpt>
      <trkpt lat="46.14986" lon="-1.15614">
        <ele>4</ele>
        <time>2023-07-15T14:23:43.413+00:00</time>
      </trkpt>
      <trkpt lat="46.14985" lon="-1.1562">
        <ele>4</ele>
        <time>2023-07-15T14:23:47.609+00:00</time>
      </trkpt>
      <trkpt lat="46.14984" lon="-1.1563">
        <ele>5</ele>
        <time>2023-07-15T14:23:51.805+00:00</time>
      </trkpt>
      <trkpt lat="46.14983" lon="-1.15638">
        <ele>5</ele>
        <time>2023-07-15T14:23:56.001+00:00</time>
      </trkpt>
      <trkpt lat="46.14981" lon="-1.15647">
        <ele>5</ele>
        <time>2023-07-15T14:24:00.558+00:00</time>
      </trkpt>
      <trkpt lat="46.1498" lon="-1.15654">
        <ele>5</ele>
        <time>2023-07-15T14:24:04.516+00:00</time>
      </trkpt>
      <trkpt lat="46.14979" lon="-1.15661">
        <ele>5</ele>
        <time>2023-07-15T14:24:08.975+00:00</time>
      </trkpt>
      <trkpt lat="46.14978" lon="-1.15666">
        <ele>5</ele>
        <time>2023-07-15T14:24:13.652+00:00</time>
      </trkpt>
      <trkpt lat="46.14978" lon="-1.1567">
        <ele>5</ele>
        <time>2023-07-15T14:24:17.590+00:00</time>
      </trkpt>
      <trkpt lat="46.14977" lon="-1.15675">
        <ele>5</ele>
        <time>2023-07-15T14:24:21.788+00:00</time>
      </trkpt>
      <trkpt lat="46.14975" lon="-1.1568">
        <ele>5</ele>
        <time>2023-07-15T14:24:25.985+00:00</time>
      </trkpt>
      <trkpt lat="46.14974" lon="-1.15683">
        <ele>6</ele>
        <time>2023-07-15T14:24:30.178+00:00</time>
      </trkpt>
      <trkpt lat="46.1497" lon="-1.15688">
        <ele>6</ele>
        <time>2023-07-15T14:24:34.739+00:00</time>
      </trkpt>
      <trkpt lat="46.14968" lon="-1.15692">
        <ele>6</ele>
        <time>2023-07-15T14:24:38.716+00:00</time>
      </trkpt>
      <trkpt lat="46.1497" lon="-1.15698">
        <ele>6</ele>
        <time>2023-07-15T14:24:42.752+00:00</time>
      </trkpt>
      <trkpt lat="46.1497" lon="-1.15704">
        <ele>6</ele>
        <time>2023-07-15T14:24:46.750+00:00</time>
      </trkpt>
      <trkpt lat="46.14968" lon="-1.1571">
        <ele>6</ele>
        <time>2023-07-15T14:24:51.426+00:00</time>
      </trkpt>
      <trkpt lat="46.14967" lon="-1.15714">
        <ele>6</ele>
        <time>2023-07-15T14:24:55.382+00:00</time>
      </trkpt>
      <trkpt lat="46.14967" lon="-1.15716">
        <ele>6</ele>
        <time>2023-07-15T14:24:59.582+00:00</time>
      </trkpt>
      <trkpt lat="46.14965" lon="-1.15722">
        <ele>6</ele>
        <time>2023-07-15T14:25:03.655+00:00</time>
      </trkpt>
      <trkpt lat="46.14962" lon="-1.1573">
        <ele>6</ele>
        <time>2023-07-15T14:25:07.493+00:00</time>
      </trkpt>
      <trkpt lat="46.1496" lon="-1.15741">
        <ele>5</ele>
        <time>2023-07-15T14:25:12.170+00:00</time>
      </trkpt>
      <trkpt lat="46.14958" lon="-1.1575">
        <ele>7</ele>
        <time>2023-07-15T14:25:17.234+00:00</time>
      </trkpt>
      <trkpt lat="46.14956" lon="-1.15758">
        <ele>7</ele>
        <time>2023-07-15T14:25:21.766+00:00</time>
      </trkpt>
      <trkpt lat="46.14956" lon="-1.15764">
        <ele>6</ele>
        <time>2023-07-15T14:25:26.106+00:00</time>
      </trkpt>
      <trkpt lat="46.14954" lon="-1.15769">
        <ele>6</ele>
        <time>2023-07-15T14:25:30.386+00:00</time>
      </trkpt>
      <trkpt lat="46.14951" lon="-1.15774">
        <ele>6</ele>
        <time>2023-07-15T14:25:34.786+00:00</time>
      </trkpt>
      <trkpt lat="46.14949" lon="-1.15781">
        <ele>6</ele>
        <time>2023-07-15T14:25:39.317+00:00</time>
      </trkpt>
      <trkpt lat="46.14946" lon="-1.15788">
        <ele>6</ele>
        <time>2023-07-15T14:25:43.343+00:00</time>
      </trkpt>
      <trkpt lat="46.14944" lon="-1.15795">
        <ele>6</ele>
        <time>2023-07-15T14:25:47.743+00:00</time>
      </trkpt>
      <trkpt lat="46.14942" lon="-1.15802">
        <ele>6</ele>
        <time>2023-07-15T14:25:52.324+00:00</time>
      </trkpt>
      <trkpt lat="46.14939" lon="-1.15808">
        <ele>6</ele>
        <time>2023-07-15T14:25:56.658+00:00</time>
      </trkpt>
      <trkpt lat="46.14936" lon="-1.15817">
        <ele>6</ele>
        <time>2023-07-15T14:26:00.684+00:00</time>
      </trkpt>
      <trkpt lat="46.14935" lon="-1.15825">
        <ele>5</ele>
        <time>2023-07-15T14:26:05.024+00:00</time>
      </trkpt>
      <trkpt lat="46.14933" lon="-1.15831">
        <ele>5</ele>
        <time>2023-07-15T14:26:08.864+00:00</time>
      </trkpt>
      <trkpt lat="46.14932" lon="-1.15836">
        <ele>5</ele>
        <time>2023-07-15T14:26:13.436+00:00</time>
      </trkpt>
      <trkpt lat="46.14931" lon="-1.15843">
        <ele>5</ele>
        <time>2023-07-15T14:26:17.342+00:00</time>
      </trkpt>
      <trkpt lat="46.14932" lon="-1.1585">
        <ele>4</ele>
        <time>2023-07-15T14:26:21.423+00:00</time>
      </trkpt>
      <trkpt lat="46.14934" lon="-1.15856">
        <ele>4</ele>
        <time>2023-07-15T14:26:26.046+00:00</time>
      </trkpt>
      <trkpt lat="46.14939" lon="-1.15865">
        <ele>4</ele>
        <time>2023-07-15T14:26:30.586+00:00</time>
      </trkpt>
      <trkpt lat="46.1494" lon="-1.15877">
        <ele>4</ele>
        <time>2023-07-15T14:26:34.985+00:00</time>
      </trkpt>
      <trkpt lat="46.14941" lon="-1.15887">
        <ele>4</ele>
        <time>2023-07-15T14:26:39.524+00:00</time>
      </trkpt>
      <trkpt lat="46.14947" lon="-1.15892">
        <ele>4</ele>
        <time>2023-07-15T14:26:44.159+00:00</time>
      </trkpt>
      <trkpt lat="46.14954" lon="-1.15889">
        <ele>4</ele>
        <time>2023-07-15T14:26:48.286+00:00</time>
      </trkpt>
      <trkpt lat="46.14959" lon="-1.15886">
        <ele>4</ele>
        <time>2023-07-15T14:26:52.388+00:00</time>
      </trkpt>
      <trkpt lat="46.14964" lon="-1.15884">
        <ele>4</ele>
        <time>2023-07-15T14:26:57.203+00:00</time>
      </trkpt>
      <trkpt lat="46.14968" lon="-1.15882">
        <ele>4</ele>
        <time>2023-07-15T14:27:01.290+00:00</time>
      </trkpt>
      <trkpt lat="46.14973" lon="-1.1588">
        <ele>4</ele>
        <time>2023-07-15T14:27:05.913+00:00</time>
      </trkpt>
      <trkpt lat="46.14977" lon="-1.15877">
        <ele>4</ele>
        <time>2023-07-15T14:27:10.032+00:00</time>
      </trkpt>
      <trkpt lat="46.14981" lon="-1.15876">
        <ele>4</ele>
        <time>2023-07-15T14:27:14.214+00:00</time>
      </trkpt>
      <trkpt lat="46.14985" lon="-1.15873">
        <ele>5</ele>
        <time>2023-07-15T14:27:18.776+00:00</time>
      </trkpt>
      <trkpt lat="46.14989" lon="-1.15871">
        <ele>4</ele>
        <time>2023-07-15T14:27:22.798+00:00</time>
      </trkpt>
      <trkpt lat="46.14993" lon="-1.15869">
        <ele>4</ele>
        <time>2023-07-15T14:27:27.302+00:00</time>
      </trkpt>
      <trkpt lat="46.14997" lon="-1.15868">
        <ele>4</ele>
        <time>2023-07-15T14:27:31.808+00:00</time>
      </trkpt>
      <trkpt lat="46.15002" lon="-1.15867">
        <ele>4</ele>
        <time>2023-07-15T14:27:35.813+00:00</time>
      </trkpt>
      <trkpt lat="46.15007" lon="-1.15865">
        <ele>4</ele>
        <time>2023-07-15T14:27:39.818+00:00</time>
      </trkpt>
      <trkpt lat="46.15012" lon="-1.15864">
        <ele>4</ele>
        <time>2023-07-15T14:27:44.322+00:00</time>
      </trkpt>
      <trkpt lat="46.15016" lon="-1.15863">
        <ele>3</ele>
        <time>2023-07-15T14:27:48.425+00:00</time>
      </trkpt>
      <trkpt lat="46.15021" lon="-1.15861">
        <ele>3</ele>
        <time>2023-07-15T14:27:52.929+00:00</time>
      </trkpt>
      <trkpt lat="46.15026" lon="-1.1586">
        <ele>3</ele>
        <time>2023-07-15T14:27:57.434+00:00</time>
      </trkpt>
      <trkpt lat="46.15031" lon="-1.15859">
        <ele>3</ele>
        <time>2023-07-15T14:28:01.940+00:00</time>
      </trkpt>
      <trkpt lat="46.15035" lon="-1.15857">
        <ele>3</ele>
        <time>2023-07-15T14:28:05.945+00:00</time>
      </trkpt>
      <trkpt lat="46.1504" lon="-1.15856">
        <ele>3</ele>
        <time>2023-07-15T14:28:10.450+00:00</time>
      </trkpt>
      <trkpt lat="46.15045" lon="-1.15854">
        <ele>3</ele>
        <time>2023-07-15T14:28:14.472+00:00</time>
      </trkpt>
      <trkpt lat="46.15049" lon="-1.15852">
        <ele>3</ele>
        <time>2023-07-15T14:28:18.752+00:00</time>
      </trkpt>
      <trkpt lat="46.15053" lon="-1.1585">
        <ele>3</ele>
        <time>2023-07-15T14:28:23.492+00:00</time>
      </trkpt>
      <trkpt lat="46.15057" lon="-1.15848">
        <ele>3</ele>
        <time>2023-07-15T14:28:27.753+00:00</time>
      </trkpt>
      <trkpt lat="46.1506" lon="-1.15846">
        <ele>4</ele>
        <time>2023-07-15T14:28:32.013+00:00</time>
      </trkpt>
      <trkpt lat="46.15065" lon="-1.15844">
        <ele>4</ele>
        <time>2023-07-15T14:28:36.174+00:00</time>
      </trkpt>
      <trkpt lat="46.1507" lon="-1.15841">
        <ele>5</ele>
        <time>2023-07-15T14:28:40.315+00:00</time>
      </trkpt>
      <trkpt lat="46.15076" lon="-1.15838">
        <ele>5</ele>
        <time>2023-07-15T14:28:44.336+00:00</time>
      </trkpt>
      <trkpt lat="46.1508" lon="-1.15836">
        <ele>5</ele>
        <time>2023-07-15T14:28:48.776+00:00</time>
      </trkpt>
      <trkpt lat="46.15085" lon="-1.15835">
        <ele>5</ele>
        <time>2023-07-15T14:28:52.794+00:00</time>
      </trkpt>
      <trkpt lat="46.15089" lon="-1.15834">
        <ele>5</ele>
        <time>2023-07-15T14:28:56.835+00:00</time>
      </trkpt>
      <trkpt lat="46.15095" lon="-1.15834">
        <ele>5</ele>
        <time>2023-07-15T14:29:01.316+00:00</time>
      </trkpt>
      <trkpt lat="46.15101" lon="-1.15834">
        <ele>4</ele>
        <time>2023-07-15T14:29:05.354+00:00</time>
      </trkpt>
      <trkpt lat="46.15106" lon="-1.15834">
        <ele>4</ele>
        <time>2023-07-15T14:29:10.151+00:00</time>
      </trkpt>
      <trkpt lat="46.15111" lon="-1.15835">
        <ele>4</ele>
        <time>2023-07-15T14:29:15.215+00:00</time>
      </trkpt>
      <trkpt lat="46.15116" lon="-1.15837">
        <ele>4</ele>
        <time>2023-07-15T14:29:19.323+00:00</time>
      </trkpt>
      <trkpt lat="46.15121" lon="-1.15837">
        <ele>4</ele>
        <time>2023-07-15T14:29:23.400+00:00</time>
      </trkpt>
      <trkpt lat="46.15125" lon="-1.15838">
        <ele>4</ele>
        <time>2023-07-15T14:29:27.439+00:00</time>
      </trkpt>
      <trkpt lat="46.1513" lon="-1.15837">
        <ele>3</ele>
        <time>2023-07-15T14:29:31.614+00:00</time>
      </trkpt>
      <trkpt lat="46.15134" lon="-1.15837">
        <ele>3</ele>
        <time>2023-07-15T14:29:35.812+00:00</time>
      </trkpt>
      <trkpt lat="46.15139" lon="-1.15843">
        <ele>3</ele>
        <time>2023-07-15T14:29:40.349+00:00</time>
      </trkpt>
      <trkpt lat="46.15143" lon="-1.15847">
        <ele>3</ele>
        <time>2023-07-15T14:29:44.545+00:00</time>
      </trkpt>
      <trkpt lat="46.15147" lon="-1.1585">
        <ele>3</ele>
        <time>2023-07-15T14:29:49.123+00:00</time>
      </trkpt>
      <trkpt lat="46.15151" lon="-1.15853">
        <ele>3</ele>
        <time>2023-07-15T14:29:53.225+00:00</time>
      </trkpt>
      <trkpt lat="46.15156" lon="-1.15856">
        <ele>2</ele>
        <time>2023-07-15T14:29:57.319+00:00</time>
      </trkpt>
      <trkpt lat="46.15159" lon="-1.15858">
        <ele>2</ele>
        <time>2023-07-15T14:30:01.394+00:00</time>
      </trkpt>
      <trkpt lat="46.15163" lon="-1.15861">
        <ele>2</ele>
        <time>2023-07-15T14:30:05.891+00:00</time>
      </trkpt>
      <trkpt lat="46.15168" lon="-1.15866">
        <ele>2</ele>
        <time>2023-07-15T14:30:09.749+00:00</time>
      </trkpt>
      <trkpt lat="46.15173" lon="-1.15869">
        <ele>2</ele>
        <time>2023-07-15T14:30:13.947+00:00</time>
      </trkpt>
      <trkpt lat="46.15178" lon="-1.15869">
        <ele>2</ele>
        <time>2023-07-15T14:30:18.744+00:00</time>
      </trkpt>
      <trkpt lat="46.15183" lon="-1.1587">
        <ele>2</ele>
        <time>2023-07-15T14:30:22.862+00:00</time>
      </trkpt>
      <trkpt lat="46.15186" lon="-1.15874">
        <ele>2</ele>
        <time>2023-07-15T14:30:27.439+00:00</time>
      </trkpt>
      <trkpt lat="46.15191" lon="-1.15879">
        <ele>1</ele>
        <time>2023-07-15T14:30:32.116+00:00</time>
      </trkpt>
      <trkpt lat="46.15195" lon="-1.15882">
        <ele>1</ele>
        <time>2023-07-15T14:30:35.992+00:00</time>
      </trkpt>
      <trkpt lat="46.15199" lon="-1.15885">
        <ele>1</ele>
        <time>2023-07-15T14:30:40.651+00:00</time>
      </trkpt>
      <trkpt lat="46.15203" lon="-1.15887">
        <ele>1</ele>
        <time>2023-07-15T14:30:45.207+00:00</time>
      </trkpt>
      <trkpt lat="46.15207" lon="-1.15891">
        <ele>1</ele>
        <time>2023-07-15T14:30:49.403+00:00</time>
      </trkpt>
      <trkpt lat="46.15212" lon="-1.15893">
        <ele>3</ele>
        <time>2023-07-15T14:30:53.599+00:00</time>
      </trkpt>
      <trkpt lat="46.15216" lon="-1.15896">
        <ele>3</ele>
        <time>2023-07-15T14:30:58.155+00:00</time>
      </trkpt>
      <trkpt lat="46.1522" lon="-1.159">
        <ele>3</ele>
        <time>2023-07-15T14:31:02.593+00:00</time>
      </trkpt>
      <trkpt lat="46.15223" lon="-1.15907">
        <ele>1</ele>
        <time>2023-07-15T14:31:06.789+00:00</time>
      </trkpt>
      <trkpt lat="46.15224" lon="-1.15914">
        <ele>1</ele>
        <time>2023-07-15T14:31:10.984+00:00</time>
      </trkpt>
      <trkpt lat="46.15225" lon="-1.15921">
        <ele>1</ele>
        <time>2023-07-15T14:31:15.561+00:00</time>
      </trkpt>
      <trkpt lat="46.1523" lon="-1.1592">
        <ele>1</ele>
        <time>2023-07-15T14:31:20.199+00:00</time>
      </trkpt>
      <trkpt lat="46.15234" lon="-1.15916">
        <ele>1</ele>
        <time>2023-07-15T14:31:24.540+00:00</time>
      </trkpt>
      <trkpt lat="46.15239" lon="-1.15914">
        <ele>1</ele>
        <time>2023-07-15T14:31:28.439+00:00</time>
      </trkpt>
      <trkpt lat="46.15244" lon="-1.15914">
        <ele>1</ele>
        <time>2023-07-15T14:31:32.555+00:00</time>
      </trkpt>
      <trkpt lat="46.15247" lon="-1.15917">
        <ele>1</ele>
        <time>2023-07-15T14:31:37.012+00:00</time>
      </trkpt>
      <trkpt lat="46.15249" lon="-1.15922">
        <ele>1</ele>
        <time>2023-07-15T14:31:41.150+00:00</time>
      </trkpt>
      <trkpt lat="46.15249" lon="-1.15924">
        <ele>1</ele>
        <time>2023-07-15T14:31:45.227+00:00</time>
      </trkpt>
      <trkpt lat="46.15249" lon="-1.15924">
        <ele>1</ele>
        <time>2023-07-15T14:31:49.764+00:00</time>
      </trkpt>
      <trkpt lat="46.15247" lon="-1.15926">
        <ele>1</ele>
        <time>2023-07-15T14:31:58.956+00:00</time>
      </trkpt>
      <trkpt lat="46.15245" lon="-1.15933">
        <ele>1</ele>
        <time>2023-07-15T14:32:03.151+00:00</time>
      </trkpt>
      <trkpt lat="46.15243" lon="-1.15939">
        <ele>1</ele>
        <time>2023-07-15T14:32:07.788+00:00</time>
      </trkpt>
      <trkpt lat="46.15241" lon="-1.15944">
        <ele>1</ele>
        <time>2023-07-15T14:32:11.985+00:00</time>
      </trkpt>
      <trkpt lat="46.15239" lon="-1.15951">
        <ele>1</ele>
        <time>2023-07-15T14:32:16.603+00:00</time>
      </trkpt>
      <trkpt lat="46.15237" lon="-1.15956">
        <ele>1</ele>
        <time>2023-07-15T14:32:20.799+00:00</time>
      </trkpt>
      <trkpt lat="46.15235" lon="-1.15961">
        <ele>1</ele>
        <time>2023-07-15T14:32:25.556+00:00</time>
      </trkpt>
      <trkpt lat="46.15232" lon="-1.15968">
        <ele>1</ele>
        <time>2023-07-15T14:32:29.752+00:00</time>
      </trkpt>
      <trkpt lat="46.1523" lon="-1.15972">
        <ele>1</ele>
        <time>2023-07-15T14:32:33.946+00:00</time>
      </trkpt>
      <trkpt lat="46.15227" lon="-1.15976">
        <ele>1</ele>
        <time>2023-07-15T14:32:38.621+00:00</time>
      </trkpt>
      <trkpt lat="46.15225" lon="-1.1598">
        <ele>1</ele>
        <time>2023-07-15T14:32:42.779+00:00</time>
      </trkpt>
      <trkpt lat="46.15222" lon="-1.15982">
        <ele>1</ele>
        <time>2023-07-15T14:32:47.574+00:00</time>
      </trkpt>
      <trkpt lat="46.15226" lon="-1.15982">
        <ele>1</ele>
        <time>2023-07-15T14:32:52.190+00:00</time>
      </trkpt>
      <trkpt lat="46.15228" lon="-1.15973">
        <ele>1</ele>
        <time>2023-07-15T14:33:23.532+00:00</time>
      </trkpt>
      <trkpt lat="46.1523" lon="-1.15968">
        <ele>1</ele>
        <time>2023-07-15T14:33:28.042+00:00</time>
      </trkpt>
      <trkpt lat="46.15233" lon="-1.15961">
        <ele>1</ele>
        <time>2023-07-15T14:33:33.154+00:00</time>
      </trkpt>
      <trkpt lat="46.15233" lon="-1.15956">
        <ele>1</ele>
        <time>2023-07-15T14:33:37.165+00:00</time>
      </trkpt>
      <trkpt lat="46.15234" lon="-1.15952">
        <ele>1</ele>
        <time>2023-07-15T14:33:42.181+00:00</time>
      </trkpt>
      <trkpt lat="46.15239" lon="-1.15945">
        <ele>1</ele>
        <time>2023-07-15T14:33:46.195+00:00</time>
      </trkpt>
      <trkpt lat="46.15242" lon="-1.15938">
        <ele>1</ele>
        <time>2023-07-15T14:33:50.209+00:00</time>
      </trkpt>
      <trkpt lat="46.15245" lon="-1.15933">
        <ele>1</ele>
        <time>2023-07-15T14:33:54.722+00:00</time>
      </trkpt>
      <trkpt lat="46.15247" lon="-1.15926">
        <ele>1</ele>
        <time>2023-07-15T14:33:58.732+00:00</time>
      </trkpt>
      <trkpt lat="46.1525" lon="-1.15919">
        <ele>1</ele>
        <time>2023-07-15T14:34:03.243+00:00</time>
      </trkpt>
      <trkpt lat="46.15252" lon="-1.15913">
        <ele>1</ele>
        <time>2023-07-15T14:34:07.355+00:00</time>
      </trkpt>
      <trkpt lat="46.15254" lon="-1.15908">
        <ele>1</ele>
        <time>2023-07-15T14:34:11.364+00:00</time>
      </trkpt>
      <trkpt lat="46.15258" lon="-1.15906">
        <ele>1</ele>
        <time>2023-07-15T14:34:15.874+00:00</time>
      </trkpt>
      <trkpt lat="46.15259" lon="-1.15906">
        <ele>1</ele>
        <time>2023-07-15T14:34:20.486+00:00</time>
      </trkpt>
      <trkpt lat="46.15258" lon="-1.15899">
        <ele>2</ele>
        <time>2023-07-15T14:34:24.496+00:00</time>
      </trkpt>
      <trkpt lat="46.15262" lon="-1.1589">
        <ele>2</ele>
        <time>2023-07-15T14:34:29.011+00:00</time>
      </trkpt>
      <trkpt lat="46.15265" lon="-1.15883">
        <ele>1</ele>
        <time>2023-07-15T14:34:33.023+00:00</time>
      </trkpt>
      <trkpt lat="46.15266" lon="-1.15877">
        <ele>1</ele>
        <time>2023-07-15T14:34:37.535+00:00</time>
      </trkpt>
      <trkpt lat="46.15269" lon="-1.15872">
        <ele>1</ele>
        <time>2023-07-15T14:34:41.542+00:00</time>
      </trkpt>
      <trkpt lat="46.15273" lon="-1.15864">
        <ele>1</ele>
        <time>2023-07-15T14:34:46.150+00:00</time>
      </trkpt>
      <trkpt lat="46.15276" lon="-1.15858">
        <ele>1</ele>
        <time>2023-07-15T14:34:50.153+00:00</time>
      </trkpt>
      <trkpt lat="46.15278" lon="-1.15852">
        <ele>1</ele>
        <time>2023-07-15T14:34:54.720+00:00</time>
      </trkpt>
      <trkpt lat="46.15277" lon="-1.15847">
        <ele>1</ele>
        <time>2023-07-15T14:34:58.779+00:00</time>
      </trkpt>
      <trkpt lat="46.15274" lon="-1.15843">
        <ele>1</ele>
        <time>2023-07-15T14:35:03.401+00:00</time>
      </trkpt>
      <trkpt lat="46.15276" lon="-1.15839">
        <ele>1</ele>
        <time>2023-07-15T14:35:08.023+00:00</time>
      </trkpt>
      <trkpt lat="46.15279" lon="-1.15832">
        <ele>1</ele>
        <time>2023-07-15T14:35:12.066+00:00</time>
      </trkpt>
      <trkpt lat="46.15282" lon="-1.15825">
        <ele>1</ele>
        <time>2023-07-15T14:35:16.108+00:00</time>
      </trkpt>
      <trkpt lat="46.15285" lon="-1.15819">
        <ele>3</ele>
        <time>2023-07-15T14:35:20.439+00:00</time>
      </trkpt>
      <trkpt lat="46.15288" lon="-1.15812">
        <ele>3</ele>
        <time>2023-07-15T14:35:25.133+00:00</time>
      </trkpt>
      <trkpt lat="46.15291" lon="-1.15805">
        <ele>3</ele>
        <time>2023-07-15T14:35:28.950+00:00</time>
      </trkpt>
      <trkpt lat="46.15293" lon="-1.158">
        <ele>2</ele>
        <time>2023-07-15T14:35:33.295+00:00</time>
      </trkpt>
      <trkpt lat="46.15295" lon="-1.15795">
        <ele>2</ele>
        <time>2023-07-15T14:35:37.770+00:00</time>
      </trkpt>
      <trkpt lat="46.15297" lon="-1.1579">
        <ele>4</ele>
        <time>2023-07-15T14:35:42.230+00:00</time>
      </trkpt>
      <trkpt lat="46.15299" lon="-1.15784">
        <ele>4</ele>
        <time>2023-07-15T14:35:46.609+00:00</time>
      </trkpt>
      <trkpt lat="46.15302" lon="-1.15779">
        <ele>4</ele>
        <time>2023-07-15T14:35:50.850+00:00</time>
      </trkpt>
      <trkpt lat="46.15305" lon="-1.15772">
        <ele>4</ele>
        <time>2023-07-15T14:35:55.110+00:00</time>
      </trkpt>
      <trkpt lat="46.15307" lon="-1.15771">
        <ele>4</ele>
        <time>2023-07-15T14:35:58.930+00:00</time>
      </trkpt>
      <trkpt lat="46.15309" lon="-1.15766">
        <ele>4</ele>
        <time>2023-07-15T14:36:03.230+00:00</time>
      </trkpt>
      <trkpt lat="46.1531" lon="-1.15761">
        <ele>4</ele>
        <time>2023-07-15T14:36:08.032+00:00</time>
      </trkpt>
      <trkpt lat="46.15311" lon="-1.15759">
        <ele>4</ele>
        <time>2023-07-15T14:36:12.033+00:00</time>
      </trkpt>
      <trkpt lat="46.15312" lon="-1.15753">
        <ele>4</ele>
        <time>2023-07-15T14:36:16.075+00:00</time>
      </trkpt>
      <trkpt lat="46.15314" lon="-1.15747">
        <ele>4</ele>
        <time>2023-07-15T14:36:20.776+00:00</time>
      </trkpt>
      <trkpt lat="46.15316" lon="-1.15741">
        <ele>4</ele>
        <time>2023-07-15T14:36:24.818+00:00</time>
      </trkpt>
      <trkpt lat="46.15319" lon="-1.15735">
        <ele>4</ele>
        <time>2023-07-15T14:36:28.921+00:00</time>
      </trkpt>
      <trkpt lat="46.15322" lon="-1.1573">
        <ele>3</ele>
        <time>2023-07-15T14:36:32.983+00:00</time>
      </trkpt>
      <trkpt lat="46.15324" lon="-1.15725">
        <ele>3</ele>
        <time>2023-07-15T14:36:37.506+00:00</time>
      </trkpt>
      <trkpt lat="46.15328" lon="-1.1572">
        <ele>3</ele>
        <time>2023-07-15T14:36:41.727+00:00</time>
      </trkpt>
      <trkpt lat="46.15333" lon="-1.15719">
        <ele>3</ele>
        <time>2023-07-15T14:36:45.747+00:00</time>
      </trkpt>
      <trkpt lat="46.15338" lon="-1.15715">
        <ele>3</ele>
        <time>2023-07-15T14:36:50.127+00:00</time>
      </trkpt>
      <trkpt lat="46.15342" lon="-1.1571">
        <ele>3</ele>
        <time>2023-07-15T14:36:54.328+00:00</time>
      </trkpt>
      <trkpt lat="46.15341" lon="-1.15707">
        <ele>1</ele>
        <time>2023-07-15T14:36:58.327+00:00</time>
      </trkpt>
      <trkpt lat="46.15348" lon="-1.15694">
        <ele>1</ele>
        <time>2023-07-15T14:37:10.880+00:00</time>
      </trkpt>
      <trkpt lat="46.15352" lon="-1.15686">
        <ele>1</ele>
        <time>2023-07-15T14:37:15.413+00:00</time>
      </trkpt>
      <trkpt lat="46.15356" lon="-1.15677">
        <ele>1</ele>
        <time>2023-07-15T14:37:19.527+00:00</time>
      </trkpt>
      <trkpt lat="46.1536" lon="-1.15669">
        <ele>1</ele>
        <time>2023-07-15T14:37:24.041+00:00</time>
      </trkpt>
      <trkpt lat="46.15363" lon="-1.15661">
        <ele>1</ele>
        <time>2023-07-15T14:37:28.555+00:00</time>
      </trkpt>
      <trkpt lat="46.15365" lon="-1.15655">
        <ele>1</ele>
        <time>2023-07-15T14:37:33.170+00:00</time>
      </trkpt>
      <trkpt lat="46.15367" lon="-1.15651">
        <ele>1</ele>
        <time>2023-07-15T14:37:37.686+00:00</time>
      </trkpt>
      <trkpt lat="46.15369" lon="-1.15646">
        <ele>1</ele>
        <time>2023-07-15T14:37:41.699+00:00</time>
      </trkpt>
      <trkpt lat="46.15371" lon="-1.15639">
        <ele>1</ele>
        <time>2023-07-15T14:37:45.712+00:00</time>
      </trkpt>
      <trkpt lat="46.15373" lon="-1.15632">
        <ele>1</ele>
        <time>2023-07-15T14:37:50.243+00:00</time>
      </trkpt>
      <trkpt lat="46.15377" lon="-1.15626">
        <ele>1</ele>
        <time>2023-07-15T14:37:54.255+00:00</time>
      </trkpt>
      <trkpt lat="46.15381" lon="-1.15622">
        <ele>1</ele>
        <time>2023-07-15T14:37:58.785+00:00</time>
      </trkpt>
      <trkpt lat="46.15382" lon="-1.1562">
        <ele>1</ele>
        <time>2023-07-15T14:38:02.795+00:00</time>
      </trkpt>
      <trkpt lat="46.15381" lon="-1.15619">
        <ele>1</ele>
        <time>2023-07-15T14:38:07.810+00:00</time>
      </trkpt>
      <trkpt lat="46.1538" lon="-1.15614">
        <ele>1</ele>
        <time>2023-07-15T14:38:11.822+00:00</time>
      </trkpt>
      <trkpt lat="46.15385" lon="-1.15604">
        <ele>1</ele>
        <time>2023-07-15T14:38:16.843+00:00</time>
      </trkpt>
      <trkpt lat="46.15389" lon="-1.15594">
        <ele>1</ele>
        <time>2023-07-15T14:38:20.858+00:00</time>
      </trkpt>
      <trkpt lat="46.15392" lon="-1.15586">
        <ele>1</ele>
        <time>2023-07-15T14:38:25.374+00:00</time>
      </trkpt>
      <trkpt lat="46.15395" lon="-1.15578">
        <ele>1</ele>
        <time>2023-07-15T14:38:29.936+00:00</time>
      </trkpt>
      <trkpt lat="46.15397" lon="-1.15571">
        <ele>1</ele>
        <time>2023-07-15T14:38:34.015+00:00</time>
      </trkpt>
      <trkpt lat="46.15408" lon="-1.15568">
        <ele>1.9</ele>
        <time>2023-07-15T14:38:38.126+00:00</time>
      </trkpt>
      <trkpt lat="46.15408" lon="-1.15569">
        <ele>1.9</ele>
        <time>2023-07-15T14:38:42.638+00:00</time>
      </trkpt>
      <trkpt lat="46.15409" lon="-1.15571">
        <ele>2.1</ele>
        <time>2023-07-15T14:38:59.803+00:00</time>
      </trkpt>
      <trkpt lat="46.1541" lon="-1.15571">
        <ele>2.1</ele>
        <time>2023-07-15T14:39:04.315+00:00</time>
      </trkpt>
      <trkpt lat="46.15411" lon="-1.15571">
        <ele>2.1</ele>
        <time>2023-07-15T14:39:08.844+00:00</time>
      </trkpt>
      <trkpt lat="46.15411" lon="-1.15564">
        <ele>1.6</ele>
        <time>2023-07-15T14:39:13.353+00:00</time>
      </trkpt>
      <trkpt lat="46.15412" lon="-1.15561">
        <ele>1.4</ele>
        <time>2023-07-15T14:39:17.363+00:00</time>
      </trkpt>
      <trkpt lat="46.15413" lon="-1.15561">
        <ele>1.4</ele>
        <time>2023-07-15T14:39:40.027+00:00</time>
      </trkpt>
      <trkpt lat="46.15409" lon="-1.15557">
        <ele>1.1</ele>
        <time>2023-07-15T14:39:45.061+00:00</time>
      </trkpt>
      <trkpt lat="46.15404" lon="-1.15556">
        <ele>1</ele>
        <time>2023-07-15T14:39:49.577+00:00</time>
      </trkpt>
      <trkpt lat="46.15403" lon="-1.15558">
        <ele>1</ele>
        <time>2023-07-15T14:39:54.097+00:00</time>
      </trkpt>
      <trkpt lat="46.15397" lon="-1.15554">
        <ele>1</ele>
        <time>2023-07-15T14:39:57.902+00:00</time>
      </trkpt>
      <trkpt lat="46.15392" lon="-1.15552">
        <ele>1</ele>
        <time>2023-07-15T14:40:01.913+00:00</time>
      </trkpt>
      <trkpt lat="46.15387" lon="-1.15552">
        <ele>1</ele>
        <time>2023-07-15T14:40:06.625+00:00</time>
      </trkpt>
      <trkpt lat="46.15382" lon="-1.15549">
        <ele>1</ele>
        <time>2023-07-15T14:40:10.636+00:00</time>
      </trkpt>
      <trkpt lat="46.15377" lon="-1.15545">
        <ele>1</ele>
        <time>2023-07-15T14:40:14.646+00:00</time>
      </trkpt>
      <trkpt lat="46.15372" lon="-1.15544">
        <ele>3</ele>
        <time>2023-07-15T14:40:19.159+00:00</time>
      </trkpt>
      <trkpt lat="46.15369" lon="-1.15542">
        <ele>4</ele>
        <time>2023-07-15T14:40:24.188+00:00</time>
      </trkpt>
      <trkpt lat="46.15371" lon="-1.1554">
        <ele>4</ele>
        <time>2023-07-15T14:40:27.781+00:00</time>
      </trkpt>
      <trkpt lat="46.15374" lon="-1.15539">
        <ele>4</ele>
        <time>2023-07-15T14:40:31.791+00:00</time>
      </trkpt>
      <trkpt lat="46.15376" lon="-1.15532">
        <ele>1</ele>
        <time>2023-07-15T14:40:36.805+00:00</time>
      </trkpt>
      <trkpt lat="46.15377" lon="-1.15526">
        <ele>1</ele>
        <time>2023-07-15T14:40:41.319+00:00</time>
      </trkpt>
      <trkpt lat="46.1538" lon="-1.15521">
        <ele>1</ele>
        <time>2023-07-15T14:40:45.833+00:00</time>
      </trkpt>
      <trkpt lat="46.1538" lon="-1.15515">
        <ele>1</ele>
        <time>2023-07-15T14:40:49.540+00:00</time>
      </trkpt>
      <trkpt lat="46.1538" lon="-1.15509">
        <ele>2</ele>
        <time>2023-07-15T14:40:54.053+00:00</time>
      </trkpt>
      <trkpt lat="46.15382" lon="-1.15501">
        <ele>2</ele>
        <time>2023-07-15T14:40:58.064+00:00</time>
      </trkpt>
      <trkpt lat="46.15383" lon="-1.15496">
        <ele>2</ele>
        <time>2023-07-15T14:41:02.577+00:00</time>
      </trkpt>
      <trkpt lat="46.15384" lon="-1.15491">
        <ele>2</ele>
        <time>2023-07-15T14:41:07.108+00:00</time>
      </trkpt>
      <trkpt lat="46.15385" lon="-1.15486">
        <ele>3</ele>
        <time>2023-07-15T14:41:11.623+00:00</time>
      </trkpt>
      <trkpt lat="46.15386" lon="-1.1548">
        <ele>3</ele>
        <time>2023-07-15T14:41:16.135+00:00</time>
      </trkpt>
      <trkpt lat="46.1539" lon="-1.15462">
        <ele>3</ele>
        <time>2023-07-15T14:41:20.248+00:00</time>
      </trkpt>
      <trkpt lat="46.15387" lon="-1.15455">
        <ele>3</ele>
        <time>2023-07-15T14:41:24.261+00:00</time>
      </trkpt>
      <trkpt lat="46.15388" lon="-1.15447">
        <ele>3</ele>
        <time>2023-07-15T14:41:59.489+00:00</time>
      </trkpt>
      <trkpt lat="46.15389" lon="-1.15442">
        <ele>3</ele>
        <time>2023-07-15T14:42:04.005+00:00</time>
      </trkpt>
      <trkpt lat="46.15391" lon="-1.15437">
        <ele>3</ele>
        <time>2023-07-15T14:42:08.637+00:00</time>
      </trkpt>
      <trkpt lat="46.15392" lon="-1.15432">
        <ele>3</ele>
        <time>2023-07-15T14:42:12.739+00:00</time>
      </trkpt>
      <trkpt lat="46.15394" lon="-1.15425">
        <ele>3</ele>
        <time>2023-07-15T14:42:16.753+00:00</time>
      </trkpt>
      <trkpt lat="46.15395" lon="-1.15418">
        <ele>3</ele>
        <time>2023-07-15T14:42:20.868+00:00</time>
      </trkpt>
      <trkpt lat="46.15397" lon="-1.15413">
        <ele>3</ele>
        <time>2023-07-15T14:42:25.382+00:00</time>
      </trkpt>
      <trkpt lat="46.15398" lon="-1.15414">
        <ele>3</ele>
        <time>2023-07-15T14:42:29.395+00:00</time>
      </trkpt>
      <trkpt lat="46.15399" lon="-1.15412">
        <ele>3</ele>
        <time>2023-07-15T14:42:33.908+00:00</time>
      </trkpt>
      <trkpt lat="46.154" lon="-1.15404">
        <ele>3</ele>
        <time>2023-07-15T14:42:37.921+00:00</time>
      </trkpt>
      <trkpt lat="46.15402" lon="-1.15395">
        <ele>4</ele>
        <time>2023-07-15T14:42:42.436+00:00</time>
      </trkpt>
      <trkpt lat="46.15402" lon="-1.15385">
        <ele>4</ele>
        <time>2023-07-15T14:42:46.948+00:00</time>
      </trkpt>
      <trkpt lat="46.15403" lon="-1.15377">
        <ele>1</ele>
        <time>2023-07-15T14:42:50.961+00:00</time>
      </trkpt>
      <trkpt lat="46.15403" lon="-1.15372">
        <ele>4</ele>
        <time>2023-07-15T14:42:55.474+00:00</time>
      </trkpt>
      <trkpt lat="46.15404" lon="-1.15365">
        <ele>4</ele>
        <time>2023-07-15T14:42:59.989+00:00</time>
      </trkpt>
      <trkpt lat="46.15406" lon="-1.15359">
        <ele>4</ele>
        <time>2023-07-15T14:43:04.001+00:00</time>
      </trkpt>
      <trkpt lat="46.15407" lon="-1.15353">
        <ele>4</ele>
        <time>2023-07-15T14:43:08.030+00:00</time>
      </trkpt>
      <trkpt lat="46.15407" lon="-1.15347">
        <ele>6</ele>
        <time>2023-07-15T14:43:12.543+00:00</time>
      </trkpt>
      <trkpt lat="46.15409" lon="-1.15341">
        <ele>6</ele>
        <time>2023-07-15T14:43:17.056+00:00</time>
      </trkpt>
      <trkpt lat="46.15409" lon="-1.15335">
        <ele>6</ele>
        <time>2023-07-15T14:43:21.570+00:00</time>
      </trkpt>
      <trkpt lat="46.15409" lon="-1.15327">
        <ele>6</ele>
        <time>2023-07-15T14:43:25.584+00:00</time>
      </trkpt>
      <trkpt lat="46.1541" lon="-1.15319">
        <ele>7</ele>
        <time>2023-07-15T14:43:29.595+00:00</time>
      </trkpt>
      <trkpt lat="46.15411" lon="-1.15313">
        <ele>7</ele>
        <time>2023-07-15T14:43:34.108+00:00</time>
      </trkpt>
      <trkpt lat="46.15413" lon="-1.15307">
        <ele>7</ele>
        <time>2023-07-15T14:43:38.722+00:00</time>
      </trkpt>
      <trkpt lat="46.15417" lon="-1.15303">
        <ele>7</ele>
        <time>2023-07-15T14:43:43.235+00:00</time>
      </trkpt>
      <trkpt lat="46.15419" lon="-1.15298">
        <ele>7</ele>
        <time>2023-07-15T14:43:47.245+00:00</time>
      </trkpt>
      <trkpt lat="46.15423" lon="-1.15295">
        <ele>7</ele>
        <time>2023-07-15T14:43:51.756+00:00</time>
      </trkpt>
      <trkpt lat="46.15426" lon="-1.15294">
        <ele>7</ele>
        <time>2023-07-15T14:43:55.761+00:00</time>
      </trkpt>
      <trkpt lat="46.15425" lon="-1.15294">
        <ele>7</ele>
        <time>2023-07-15T14:44:00.439+00:00</time>
      </trkpt>
      <trkpt lat="46.15426" lon="-1.15291">
        <ele>7</ele>
        <time>2023-07-15T14:44:23.232+00:00</time>
      </trkpt>
      <trkpt lat="46.15427" lon="-1.15284">
        <ele>7</ele>
        <time>2023-07-15T14:44:28.231+00:00</time>
      </trkpt>
      <trkpt lat="46.15427" lon="-1.15275">
        <ele>7</ele>
        <time>2023-07-15T14:44:32.250+00:00</time>
      </trkpt>
      <trkpt lat="46.15427" lon="-1.15266">
        <ele>7</ele>
        <time>2023-07-15T14:44:36.753+00:00</time>
      </trkpt>
      <trkpt lat="46.15426" lon="-1.15259">
        <ele>5</ele>
        <time>2023-07-15T14:44:42.148+00:00</time>
      </trkpt>
      <trkpt lat="46.15436" lon="-1.15259">
        <ele>4</ele>
        <time>2023-07-15T14:44:46.727+00:00</time>
      </trkpt>
      <trkpt lat="46.15442" lon="-1.15262">
        <ele>4</ele>
        <time>2023-07-15T14:44:50.744+00:00</time>
      </trkpt>
      <trkpt lat="46.15446" lon="-1.15263">
        <ele>4</ele>
        <time>2023-07-15T14:44:55.396+00:00</time>
      </trkpt>
      <trkpt lat="46.1545" lon="-1.15263">
        <ele>4</ele>
        <time>2023-07-15T14:44:59.420+00:00</time>
      </trkpt>
      <trkpt lat="46.15454" lon="-1.15264">
        <ele>5</ele>
        <time>2023-07-15T14:45:03.355+00:00</time>
      </trkpt>
      <trkpt lat="46.15458" lon="-1.15265">
        <ele>5</ele>
        <time>2023-07-15T14:45:07.552+00:00</time>
      </trkpt>
      <trkpt lat="46.15462" lon="-1.15265">
        <ele>1</ele>
        <time>2023-07-15T14:45:11.598+00:00</time>
      </trkpt>
      <trkpt lat="46.15468" lon="-1.15265">
        <ele>1</ele>
        <time>2023-07-15T14:45:15.540+00:00</time>
      </trkpt>
      <trkpt lat="46.15473" lon="-1.15265">
        <ele>1</ele>
        <time>2023-07-15T14:45:20.179+00:00</time>
      </trkpt>
      <trkpt lat="46.15477" lon="-1.15265">
        <ele>1</ele>
        <time>2023-07-15T14:45:24.677+00:00</time>
      </trkpt>
      <trkpt lat="46.15481" lon="-1.15266">
        <ele>1</ele>
        <time>2023-07-15T14:45:28.549+00:00</time>
      </trkpt>
      <trkpt lat="46.15484" lon="-1.15264">
        <ele>1</ele>
        <time>2023-07-15T14:45:32.744+00:00</time>
      </trkpt>
      <trkpt lat="46.15489" lon="-1.15262">
        <ele>2</ele>
        <time>2023-07-15T14:45:36.941+00:00</time>
      </trkpt>
      <trkpt lat="46.15493" lon="-1.15262">
        <ele>2</ele>
        <time>2023-07-15T14:45:41.438+00:00</time>
      </trkpt>
      <trkpt lat="46.15498" lon="-1.15264">
        <ele>2</ele>
        <time>2023-07-15T14:45:45.439+00:00</time>
      </trkpt>
      <trkpt lat="46.15503" lon="-1.15264">
        <ele>1</ele>
        <time>2023-07-15T14:45:49.599+00:00</time>
      </trkpt>
      <trkpt lat="46.15508" lon="-1.15263">
        <ele>2</ele>
        <time>2023-07-15T14:45:53.524+00:00</time>
      </trkpt>
      <trkpt lat="46.15513" lon="-1.15264">
        <ele>2</ele>
        <time>2023-07-15T14:45:57.542+00:00</time>
      </trkpt>
      <trkpt lat="46.15516" lon="-1.15264">
        <ele>2</ele>
        <time>2023-07-15T14:46:02.099+00:00</time>
      </trkpt>
      <trkpt lat="46.1552" lon="-1.15265">
        <ele>2</ele>
        <time>2023-07-15T14:46:06.176+00:00</time>
      </trkpt>
      <trkpt lat="46.15522" lon="-1.15265">
        <ele>2</ele>
        <time>2023-07-15T14:46:10.372+00:00</time>
      </trkpt>
      <trkpt lat="46.15525" lon="-1.15263">
        <ele>2</ele>
        <time>2023-07-15T14:46:15.067+00:00</time>
      </trkpt>
      <trkpt lat="46.15531" lon="-1.15264">
        <ele>2</ele>
        <time>2023-07-15T14:46:21.092+00:00</time>
      </trkpt>
      <trkpt lat="46.15535" lon="-1.15262">
        <ele>2</ele>
        <time>2023-07-15T14:46:25.099+00:00</time>
      </trkpt>
      <trkpt lat="46.1554" lon="-1.15263">
        <ele>2</ele>
        <time>2023-07-15T14:46:30.109+00:00</time>
      </trkpt>
      <trkpt lat="46.15544" lon="-1.15263">
        <ele>1</ele>
        <time>2023-07-15T14:46:34.116+00:00</time>
      </trkpt>
      <trkpt lat="46.15549" lon="-1.15264">
        <ele>1</ele>
        <time>2023-07-15T14:46:38.619+00:00</time>
      </trkpt>
      <trkpt lat="46.15554" lon="-1.15265">
        <ele>1</ele>
        <time>2023-07-15T14:46:42.939+00:00</time>
      </trkpt>
      <trkpt lat="46.15559" lon="-1.15266">
        <ele>1</ele>
        <time>2023-07-15T14:46:46.859+00:00</time>
      </trkpt>
      <trkpt lat="46.15562" lon="-1.15268">
        <ele>1</ele>
        <time>2023-07-15T14:46:51.437+00:00</time>
      </trkpt>
      <trkpt lat="46.15565" lon="-1.15268">
        <ele>1</ele>
        <time>2023-07-15T14:46:55.555+00:00</time>
      </trkpt>
      <trkpt lat="46.15567" lon="-1.1527">
        <ele>1</ele>
        <time>2023-07-15T14:46:59.593+00:00</time>
      </trkpt>
      <trkpt lat="46.15569" lon="-1.15271">
        <ele>1</ele>
        <time>2023-07-15T14:47:04.031+00:00</time>
      </trkpt>
      <trkpt lat="46.15572" lon="-1.1527">
        <ele>4</ele>
        <time>2023-07-15T14:47:08.989+00:00</time>
      </trkpt>
      <trkpt lat="46.15574" lon="-1.15271">
        <ele>4</ele>
        <time>2023-07-15T14:47:13.006+00:00</time>
      </trkpt>
      <trkpt lat="46.15576" lon="-1.15271">
        <ele>4</ele>
        <time>2023-07-15T14:47:16.942+00:00</time>
      </trkpt>
      <trkpt lat="46.1558" lon="-1.15268">
        <ele>4</ele>
        <time>2023-07-15T14:47:21.557+00:00</time>
      </trkpt>
      <trkpt lat="46.15583" lon="-1.15263">
        <ele>4</ele>
        <time>2023-07-15T14:47:26.231+00:00</time>
      </trkpt>
      <trkpt lat="46.15587" lon="-1.15259">
        <ele>3.8</ele>
        <time>2023-07-15T14:47:30.787+00:00</time>
      </trkpt>
      <trkpt lat="46.1559" lon="-1.15256">
        <ele>3.6</ele>
        <time>2023-07-15T14:47:35.565+00:00</time>
      </trkpt>
      <trkpt lat="46.15589" lon="-1.1525">
        <ele>3.6</ele>
        <time>2023-07-15T14:47:39.722+00:00</time>
      </trkpt>
      <trkpt lat="46.15587" lon="-1.15243">
        <ele>3.8</ele>
        <time>2023-07-15T14:47:44.358+00:00</time>
      </trkpt>
      <trkpt lat="46.15586" lon="-1.15235">
        <ele>-1</ele>
        <time>2023-07-15T14:47:48.554+00:00</time>
      </trkpt>
      <trkpt lat="46.15586" lon="-1.15228">
        <ele>-1</ele>
        <time>2023-07-15T14:47:52.749+00:00</time>
      </trkpt>
      <trkpt lat="46.15586" lon="-1.1522">
        <ele>-1</ele>
        <time>2023-07-15T14:47:56.943+00:00</time>
      </trkpt>
      <trkpt lat="46.15585" lon="-1.15213">
        <ele>-1</ele>
        <time>2023-07-15T14:48:01.016+00:00</time>
      </trkpt>
      <trkpt lat="46.15585" lon="-1.15207">
        <ele>-1</ele>
        <time>2023-07-15T14:48:05.208+00:00</time>
      </trkpt>
      <trkpt lat="46.15585" lon="-1.152">
        <ele>-1</ele>
        <time>2023-07-15T14:48:09.401+00:00</time>
      </trkpt>
      <trkpt lat="46.15585" lon="-1.15194">
        <ele>-1</ele>
        <time>2023-07-15T14:48:13.537+00:00</time>
      </trkpt>
      <trkpt lat="46.15584" lon="-1.15185">
        <ele>-1</ele>
        <time>2023-07-15T14:48:18.121+00:00</time>
      </trkpt>
      <trkpt lat="46.15583" lon="-1.15178">
        <ele>-1</ele>
        <time>2023-07-15T14:48:22.182+00:00</time>
      </trkpt>
      <trkpt lat="46.15583" lon="-1.15175">
        <ele>-1</ele>
        <time>2023-07-15T14:48:26.777+00:00</time>
      </trkpt>
      <trkpt lat="46.15583" lon="-1.1517">
        <ele>-1</ele>
        <time>2023-07-15T14:48:30.953+00:00</time>
      </trkpt>
      <trkpt lat="46.15583" lon="-1.15165">
        <ele>-1</ele>
        <time>2023-07-15T14:48:35.101+00:00</time>
      </trkpt>
      <trkpt lat="46.15583" lon="-1.15161">
        <ele>-1</ele>
        <time>2023-07-15T14:48:39.042+00:00</time>
      </trkpt>
      <trkpt lat="46.15583" lon="-1.15155">
        <ele>-1</ele>
        <time>2023-07-15T14:48:42.996+00:00</time>
      </trkpt>
      <trkpt lat="46.15581" lon="-1.15137">
        <ele>4</ele>
        <time>2023-07-15T14:48:47.010+00:00</time>
      </trkpt>
      <trkpt lat="46.1558" lon="-1.15138">
        <ele>4</ele>
        <time>2023-07-15T14:48:51.803+00:00</time>
      </trkpt>
      <trkpt lat="46.15579" lon="-1.15138">
        <ele>4</ele>
        <time>2023-07-15T14:54:28.195+00:00</time>
      </trkpt>
      <trkpt lat="46.1558" lon="-1.15137">
        <ele>4</ele>
        <time>2023-07-15T14:54:32.211+00:00</time>
      </trkpt>
      <trkpt lat="46.15579" lon="-1.15136">
        <ele>4</ele>
        <time>2023-07-15T14:54:37.191+00:00</time>
      </trkpt>
      <trkpt lat="46.15575" lon="-1.15139">
        <ele>4</ele>
        <time>2023-07-15T14:54:41.201+00:00</time>
      </trkpt>
      <trkpt lat="46.15574" lon="-1.15141">
        <ele>4</ele>
        <time>2023-07-15T14:54:45.201+00:00</time>
      </trkpt>
      <trkpt lat="46.15574" lon="-1.15149">
        <ele>4</ele>
        <time>2023-07-15T15:42:07.210+00:00</time>
      </trkpt>
      <trkpt lat="46.15577" lon="-1.15155">
        <ele>-1</ele>
        <time>2023-07-15T15:42:12.200+00:00</time>
      </trkpt>
      <trkpt lat="46.15579" lon="-1.1516">
        <ele>-1</ele>
        <time>2023-07-15T15:42:17.187+00:00</time>
      </trkpt>
      <trkpt lat="46.15581" lon="-1.15165">
        <ele>-1</ele>
        <time>2023-07-15T15:42:21.185+00:00</time>
      </trkpt>
      <trkpt lat="46.15583" lon="-1.1517">
        <ele>-1</ele>
        <time>2023-07-15T15:42:26.191+00:00</time>
      </trkpt>
      <trkpt lat="46.15583" lon="-1.15177">
        <ele>-1</ele>
        <time>2023-07-15T15:42:31.188+00:00</time>
      </trkpt>
      <trkpt lat="46.15584" lon="-1.1518">
        <ele>-1</ele>
        <time>2023-07-15T15:42:40.192+00:00</time>
      </trkpt>
      <trkpt lat="46.15582" lon="-1.1517">
        <ele>-1</ele>
        <time>2023-07-15T15:42:44.209+00:00</time>
      </trkpt>
      <trkpt lat="46.15577" lon="-1.15143">
        <ele>4</ele>
        <time>2023-07-15T15:42:48.215+00:00</time>
      </trkpt>
      <trkpt lat="46.15577" lon="-1.15141">
        <ele>4</ele>
        <time>2023-07-15T15:42:53.227+00:00</time>
      </trkpt>
      <trkpt lat="46.15579" lon="-1.15139">
        <ele>4</ele>
        <time>2023-07-15T15:42:57.218+00:00</time>
      </trkpt>
      <trkpt lat="46.15579" lon="-1.15134">
        <ele>4</ele>
        <time>2023-07-15T15:43:02.227+00:00</time>
      </trkpt>
      <trkpt lat="46.15576" lon="-1.15132">
        <ele>4</ele>
        <time>2023-07-15T15:43:07.212+00:00</time>
      </trkpt>
      <trkpt lat="46.15575" lon="-1.15131">
        <ele>4</ele>
        <time>2023-07-15T15:43:12.203+00:00</time>
      </trkpt>
      <trkpt lat="46.15573" lon="-1.15129">
        <ele>4</ele>
        <time>2023-07-15T15:43:16.234+00:00</time>
      </trkpt>
      <trkpt lat="46.15569" lon="-1.15128">
        <ele>1</ele>
        <time>2023-07-15T15:43:21.192+00:00</time>
      </trkpt>
      <trkpt lat="46.15565" lon="-1.15127">
        <ele>1</ele>
        <time>2023-07-15T15:43:26.209+00:00</time>
      </trkpt>
      <trkpt lat="46.1556" lon="-1.15131">
        <ele>1</ele>
        <time>2023-07-15T15:43:31.228+00:00</time>
      </trkpt>
      <trkpt lat="46.15555" lon="-1.15135">
        <ele>1</ele>
        <time>2023-07-15T15:43:36.202+00:00</time>
      </trkpt>
      <trkpt lat="46.15553" lon="-1.15134">
        <ele>1</ele>
        <time>2023-07-15T15:43:41.023+00:00</time>
      </trkpt>
      <trkpt lat="46.15554" lon="-1.15137">
        <ele>1</ele>
        <time>2023-07-15T15:43:46.037+00:00</time>
      </trkpt>
      <trkpt lat="46.15554" lon="-1.15138">
        <ele>1</ele>
        <time>2023-07-15T15:43:50.045+00:00</time>
      </trkpt>
      <trkpt lat="46.15554" lon="-1.15138">
        <ele>1</ele>
        <time>2023-07-15T15:44:08.175+00:00</time>
      </trkpt>
      <trkpt lat="46.15556" lon="-1.1514">
        <ele>1</ele>
        <time>2023-07-15T15:44:13.183+00:00</time>
      </trkpt>
      <trkpt lat="46.15557" lon="-1.15142">
        <ele>1</ele>
        <time>2023-07-15T15:44:17.188+00:00</time>
      </trkpt>
      <trkpt lat="46.15563" lon="-1.15142">
        <ele>1</ele>
        <time>2023-07-15T15:44:22.229+00:00</time>
      </trkpt>
      <trkpt lat="46.15563" lon="-1.15144">
        <ele>1</ele>
        <time>2023-07-15T15:44:27.224+00:00</time>
      </trkpt>
      <trkpt lat="46.15564" lon="-1.15144">
        <ele>1</ele>
        <time>2023-07-15T15:50:19.203+00:00</time>
      </trkpt>
      <trkpt lat="46.15565" lon="-1.1514">
        <ele>1</ele>
        <time>2023-07-15T15:50:23.210+00:00</time>
      </trkpt>
      <trkpt lat="46.15569" lon="-1.1514">
        <ele>1</ele>
        <time>2023-07-15T15:50:27.794+00:00</time>
      </trkpt>
      <trkpt lat="46.15572" lon="-1.15143">
        <ele>4</ele>
        <time>2023-07-15T15:50:32.332+00:00</time>
      </trkpt>
      <trkpt lat="46.15577" lon="-1.15144">
        <ele>4</ele>
        <time>2023-07-15T15:50:36.731+00:00</time>
      </trkpt>
      <trkpt lat="46.15581" lon="-1.15144">
        <ele>4</ele>
        <time>2023-07-15T15:50:41.408+00:00</time>
      </trkpt>
      <trkpt lat="46.15585" lon="-1.15146">
        <ele>4</ele>
        <time>2023-07-15T15:50:45.482+00:00</time>
      </trkpt>
      <trkpt lat="46.15586" lon="-1.1515">
        <ele>4</ele>
        <time>2023-07-15T15:50:49.906+00:00</time>
      </trkpt>
      <trkpt lat="46.15586" lon="-1.15156">
        <ele>-1</ele>
        <time>2023-07-15T15:50:54.120+00:00</time>
      </trkpt>
      <trkpt lat="46.15587" lon="-1.15163">
        <ele>-1</ele>
        <time>2023-07-15T15:50:58.205+00:00</time>
      </trkpt>
      <trkpt lat="46.15586" lon="-1.15172">
        <ele>-1</ele>
        <time>2023-07-15T15:51:02.405+00:00</time>
      </trkpt>
      <trkpt lat="46.15585" lon="-1.15179">
        <ele>-1</ele>
        <time>2023-07-15T15:51:06.781+00:00</time>
      </trkpt>
      <trkpt lat="46.15588" lon="-1.15185">
        <ele>-1</ele>
        <time>2023-07-15T15:51:10.740+00:00</time>
      </trkpt>
      <trkpt lat="46.15595" lon="-1.15182">
        <ele>-1</ele>
        <time>2023-07-15T15:51:15.300+00:00</time>
      </trkpt>
      <trkpt lat="46.156" lon="-1.15179">
        <ele>-1</ele>
        <time>2023-07-15T15:51:19.802+00:00</time>
      </trkpt>
      <trkpt lat="46.15604" lon="-1.15176">
        <ele>-1</ele>
        <time>2023-07-15T15:51:24.504+00:00</time>
      </trkpt>
      <trkpt lat="46.1561" lon="-1.15176">
        <ele>-1</ele>
        <time>2023-07-15T15:51:28.607+00:00</time>
      </trkpt>
      <trkpt lat="46.15615" lon="-1.15175">
        <ele>-1</ele>
        <time>2023-07-15T15:51:32.613+00:00</time>
      </trkpt>
      <trkpt lat="46.15619" lon="-1.15176">
        <ele>-1</ele>
        <time>2023-07-15T15:51:36.616+00:00</time>
      </trkpt>
      <trkpt lat="46.15628" lon="-1.15179">
        <ele>2</ele>
        <time>2023-07-15T15:51:41.157+00:00</time>
      </trkpt>
      <trkpt lat="46.15629" lon="-1.15179">
        <ele>1.9</ele>
        <time>2023-07-15T15:51:45.482+00:00</time>
      </trkpt>
      <trkpt lat="46.1563" lon="-1.1518">
        <ele>1.8</ele>
        <time>2023-07-15T15:52:22.240+00:00</time>
      </trkpt>
      <trkpt lat="46.15631" lon="-1.15181">
        <ele>1.7</ele>
        <time>2023-07-15T15:52:27.229+00:00</time>
      </trkpt>
      <trkpt lat="46.15634" lon="-1.15181">
        <ele>1.4</ele>
        <time>2023-07-15T15:52:32.218+00:00</time>
      </trkpt>
      <trkpt lat="46.15638" lon="-1.15181">
        <ele>1.1</ele>
        <time>2023-07-15T15:52:36.228+00:00</time>
      </trkpt>
      <trkpt lat="46.15642" lon="-1.1518">
        <ele>1.2</ele>
        <time>2023-07-15T15:52:40.617+00:00</time>
      </trkpt>
      <trkpt lat="46.15645" lon="-1.1518">
        <ele>1.4</ele>
        <time>2023-07-15T15:52:45.233+00:00</time>
      </trkpt>
      <trkpt lat="46.15648" lon="-1.1518">
        <ele>1.5</ele>
        <time>2023-07-15T15:52:49.714+00:00</time>
      </trkpt>
      <trkpt lat="46.15652" lon="-1.15178">
        <ele>1.8</ele>
        <time>2023-07-15T15:52:53.626+00:00</time>
      </trkpt>
      <trkpt lat="46.15655" lon="-1.15175">
        <ele>1</ele>
        <time>2023-07-15T15:52:57.822+00:00</time>
      </trkpt>
      <trkpt lat="46.1566" lon="-1.15173">
        <ele>1</ele>
        <time>2023-07-15T15:53:02.439+00:00</time>
      </trkpt>
      <trkpt lat="46.15665" lon="-1.15171">
        <ele>1</ele>
        <time>2023-07-15T15:53:06.636+00:00</time>
      </trkpt>
      <trkpt lat="46.15668" lon="-1.15168">
        <ele>1</ele>
        <time>2023-07-15T15:53:10.813+00:00</time>
      </trkpt>
      <trkpt lat="46.15673" lon="-1.15165">
        <ele>1</ele>
        <time>2023-07-15T15:53:14.992+00:00</time>
      </trkpt>
      <trkpt lat="46.15676" lon="-1.15163">
        <ele>1</ele>
        <time>2023-07-15T15:53:19.009+00:00</time>
      </trkpt>
      <trkpt lat="46.15679" lon="-1.15162">
        <ele>1</ele>
        <time>2023-07-15T15:53:23.023+00:00</time>
      </trkpt>
      <trkpt lat="46.15685" lon="-1.15159">
        <ele>1</ele>
        <time>2023-07-15T15:53:27.219+00:00</time>
      </trkpt>
      <trkpt lat="46.15685" lon="-1.15158">
        <ele>1</ele>
        <time>2023-07-15T15:53:30.180+00:00</time>
      </trkpt>
      <trkpt lat="46.15688" lon="-1.15153">
        <ele>1</ele>
        <time>2023-07-15T15:53:37.705+00:00</time>
      </trkpt>
      <trkpt lat="46.15693" lon="-1.1515">
        <ele>1</ele>
        <time>2023-07-15T15:53:41.728+00:00</time>
      </trkpt>
      <trkpt lat="46.15698" lon="-1.15147">
        <ele>1</ele>
        <time>2023-07-15T15:53:45.740+00:00</time>
      </trkpt>
      <trkpt lat="46.15701" lon="-1.15146">
        <ele>1</ele>
        <time>2023-07-15T15:53:50.247+00:00</time>
      </trkpt>
      <trkpt lat="46.15704" lon="-1.15143">
        <ele>1</ele>
        <time>2023-07-15T15:53:54.852+00:00</time>
      </trkpt>
      <trkpt lat="46.15705" lon="-1.1514">
        <ele>1</ele>
        <time>2023-07-15T15:53:58.857+00:00</time>
      </trkpt>
      <trkpt lat="46.15706" lon="-1.15139">
        <ele>1</ele>
        <time>2023-07-15T15:54:01.861+00:00</time>
      </trkpt>
      <trkpt lat="46.15709" lon="-1.15136">
        <ele>2</ele>
        <time>2023-07-15T15:54:08.888+00:00</time>
      </trkpt>
      <trkpt lat="46.15712" lon="-1.15132">
        <ele>2</ele>
        <time>2023-07-15T15:54:13.408+00:00</time>
      </trkpt>
      <trkpt lat="46.15717" lon="-1.1513">
        <ele>2</ele>
        <time>2023-07-15T15:54:17.924+00:00</time>
      </trkpt>
      <trkpt lat="46.1572" lon="-1.15128">
        <ele>2</ele>
        <time>2023-07-15T15:54:23.039+00:00</time>
      </trkpt>
      <trkpt lat="46.15724" lon="-1.15125">
        <ele>2</ele>
        <time>2023-07-15T15:54:27.047+00:00</time>
      </trkpt>
      <trkpt lat="46.15726" lon="-1.15122">
        <ele>2</ele>
        <time>2023-07-15T15:54:31.653+00:00</time>
      </trkpt>
      <trkpt lat="46.15729" lon="-1.15117">
        <ele>2</ele>
        <time>2023-07-15T15:54:35.658+00:00</time>
      </trkpt>
      <trkpt lat="46.15732" lon="-1.15114">
        <ele>2</ele>
        <time>2023-07-15T15:54:40.165+00:00</time>
      </trkpt>
      <trkpt lat="46.15735" lon="-1.15111">
        <ele>2</ele>
        <time>2023-07-15T15:54:44.671+00:00</time>
      </trkpt>
      <trkpt lat="46.15739" lon="-1.15107">
        <ele>2</ele>
        <time>2023-07-15T15:54:49.179+00:00</time>
      </trkpt>
      <trkpt lat="46.15741" lon="-1.15102">
        <ele>2</ele>
        <time>2023-07-15T15:54:53.196+00:00</time>
      </trkpt>
      <trkpt lat="46.15744" lon="-1.15099">
        <ele>2</ele>
        <time>2023-07-15T15:54:57.702+00:00</time>
      </trkpt>
      <trkpt lat="46.15748" lon="-1.15095">
        <ele>3</ele>
        <time>2023-07-15T15:55:01.707+00:00</time>
      </trkpt>
      <trkpt lat="46.15752" lon="-1.15092">
        <ele>3</ele>
        <time>2023-07-15T15:55:06.222+00:00</time>
      </trkpt>
      <trkpt lat="46.15756" lon="-1.15089">
        <ele>3</ele>
        <time>2023-07-15T15:55:11.230+00:00</time>
      </trkpt>
      <trkpt lat="46.15762" lon="-1.15086">
        <ele>3</ele>
        <time>2023-07-15T15:55:15.329+00:00</time>
      </trkpt>
      <trkpt lat="46.1577" lon="-1.15085">
        <ele>2</ele>
        <time>2023-07-15T15:55:19.832+00:00</time>
      </trkpt>
      <trkpt lat="46.15773" lon="-1.15087">
        <ele>2</ele>
        <time>2023-07-15T15:55:24.436+00:00</time>
      </trkpt>
      <trkpt lat="46.15774" lon="-1.15087">
        <ele>2</ele>
        <time>2023-07-15T15:55:33.462+00:00</time>
      </trkpt>
      <trkpt lat="46.15775" lon="-1.15086">
        <ele>2</ele>
        <time>2023-07-15T15:55:37.984+00:00</time>
      </trkpt>
      <trkpt lat="46.15775" lon="-1.15085">
        <ele>2</ele>
        <time>2023-07-15T15:55:43.026+00:00</time>
      </trkpt>
      <trkpt lat="46.1578" lon="-1.1508">
        <ele>2</ele>
        <time>2023-07-15T15:55:47.238+00:00</time>
      </trkpt>
      <trkpt lat="46.15781" lon="-1.15079">
        <ele>2</ele>
        <time>2023-07-15T15:55:51.646+00:00</time>
      </trkpt>
      <trkpt lat="46.15781" lon="-1.15079">
        <ele>2</ele>
        <time>2023-07-15T15:56:08.686+00:00</time>
      </trkpt>
      <trkpt lat="46.15783" lon="-1.15077">
        <ele>2</ele>
        <time>2023-07-15T15:56:12.748+00:00</time>
      </trkpt>
      <trkpt lat="46.15786" lon="-1.15075">
        <ele>2</ele>
        <time>2023-07-15T15:56:17.251+00:00</time>
      </trkpt>
      <trkpt lat="46.1579" lon="-1.15073">
        <ele>2</ele>
        <time>2023-07-15T15:56:21.754+00:00</time>
      </trkpt>
      <trkpt lat="46.15797" lon="-1.15073">
        <ele>2</ele>
        <time>2023-07-15T15:56:26.246+00:00</time>
      </trkpt>
      <trkpt lat="46.15799" lon="-1.15079">
        <ele>2</ele>
        <time>2023-07-15T15:56:30.732+00:00</time>
      </trkpt>
      <trkpt lat="46.158" lon="-1.15087">
        <ele>2</ele>
        <time>2023-07-15T15:56:35.131+00:00</time>
      </trkpt>
      <trkpt lat="46.158" lon="-1.15085">
        <ele>2</ele>
        <time>2023-07-15T15:56:37.752+00:00</time>
      </trkpt>
      <trkpt lat="46.158" lon="-1.1508">
        <ele>2</ele>
        <time>2023-07-15T15:56:44.773+00:00</time>
      </trkpt>
      <trkpt lat="46.15804" lon="-1.15082">
        <ele>2</ele>
        <time>2023-07-15T15:56:49.791+00:00</time>
      </trkpt>
      <trkpt lat="46.15806" lon="-1.15081">
        <ele>2</ele>
        <time>2023-07-15T15:56:54.810+00:00</time>
      </trkpt>
      <trkpt lat="46.15811" lon="-1.15078">
        <ele>2</ele>
        <time>2023-07-15T15:56:58.822+00:00</time>
      </trkpt>
      <trkpt lat="46.15816" lon="-1.15076">
        <ele>2</ele>
        <time>2023-07-15T15:57:02.834+00:00</time>
      </trkpt>
      <trkpt lat="46.1582" lon="-1.15073">
        <ele>5</ele>
        <time>2023-07-15T15:57:07.350+00:00</time>
      </trkpt>
      <trkpt lat="46.15824" lon="-1.15072">
        <ele>5</ele>
        <time>2023-07-15T15:57:11.362+00:00</time>
      </trkpt>
      <trkpt lat="46.15827" lon="-1.15071">
        <ele>5</ele>
        <time>2023-07-15T15:57:15.876+00:00</time>
      </trkpt>
      <trkpt lat="46.1583" lon="-1.15068">
        <ele>6</ele>
        <time>2023-07-15T15:57:20.391+00:00</time>
      </trkpt>
      <trkpt lat="46.15834" lon="-1.15063">
        <ele>6</ele>
        <time>2023-07-15T15:57:25.021+00:00</time>
      </trkpt>
      <trkpt lat="46.15837" lon="-1.15059">
        <ele>6</ele>
        <time>2023-07-15T15:57:29.049+00:00</time>
      </trkpt>
      <trkpt lat="46.1584" lon="-1.15054">
        <ele>6</ele>
        <time>2023-07-15T15:57:34.080+00:00</time>
      </trkpt>
      <trkpt lat="46.15843" lon="-1.15049">
        <ele>6</ele>
        <time>2023-07-15T15:57:38.598+00:00</time>
      </trkpt>
      <trkpt lat="46.15845" lon="-1.15043">
        <ele>6</ele>
        <time>2023-07-15T15:57:42.608+00:00</time>
      </trkpt>
      <trkpt lat="46.15848" lon="-1.15039">
        <ele>7</ele>
        <time>2023-07-15T15:57:47.217+00:00</time>
      </trkpt>
      <trkpt lat="46.1585" lon="-1.15034">
        <ele>7</ele>
        <time>2023-07-15T15:57:51.722+00:00</time>
      </trkpt>
      <trkpt lat="46.15853" lon="-1.1503">
        <ele>7</ele>
        <time>2023-07-15T15:57:55.728+00:00</time>
      </trkpt>
      <trkpt lat="46.15855" lon="-1.15026">
        <ele>7</ele>
        <time>2023-07-15T15:57:59.734+00:00</time>
      </trkpt>
      <trkpt lat="46.15858" lon="-1.1502">
        <ele>7</ele>
        <time>2023-07-15T15:58:04.339+00:00</time>
      </trkpt>
      <trkpt lat="46.1586" lon="-1.15015">
        <ele>7</ele>
        <time>2023-07-15T15:58:08.844+00:00</time>
      </trkpt>
      <trkpt lat="46.1586" lon="-1.1501">
        <ele>6</ele>
        <time>2023-07-15T15:58:13.349+00:00</time>
      </trkpt>
      <trkpt lat="46.15863" lon="-1.15005">
        <ele>6</ele>
        <time>2023-07-15T15:58:17.353+00:00</time>
      </trkpt>
      <trkpt lat="46.15868" lon="-1.15">
        <ele>6</ele>
        <time>2023-07-15T15:58:21.857+00:00</time>
      </trkpt>
      <trkpt lat="46.15871" lon="-1.14993">
        <ele>6</ele>
        <time>2023-07-15T15:58:25.861+00:00</time>
      </trkpt>
      <trkpt lat="46.15872" lon="-1.14989">
        <ele>6</ele>
        <time>2023-07-15T15:58:30.368+00:00</time>
      </trkpt>
      <trkpt lat="46.15874" lon="-1.14985">
        <ele>6</ele>
        <time>2023-07-15T15:58:34.976+00:00</time>
      </trkpt>
      <trkpt lat="46.15876" lon="-1.14983">
        <ele>6</ele>
        <time>2023-07-15T15:58:39.081+00:00</time>
      </trkpt>
      <trkpt lat="46.15877" lon="-1.14977">
        <ele>6</ele>
        <time>2023-07-15T15:58:44.185+00:00</time>
      </trkpt>
      <trkpt lat="46.15879" lon="-1.14972">
        <ele>6</ele>
        <time>2023-07-15T15:58:48.690+00:00</time>
      </trkpt>
      <trkpt lat="46.15878" lon="-1.1497">
        <ele>6</ele>
        <time>2023-07-15T15:58:52.291+00:00</time>
      </trkpt>
      <trkpt lat="46.15881" lon="-1.14965">
        <ele>6</ele>
        <time>2023-07-15T15:58:56.912+00:00</time>
      </trkpt>
      <trkpt lat="46.15884" lon="-1.14959">
        <ele>6</ele>
        <time>2023-07-15T15:59:00.934+00:00</time>
      </trkpt>
      <trkpt lat="46.15886" lon="-1.14953">
        <ele>5</ele>
        <time>2023-07-15T15:59:06.056+00:00</time>
      </trkpt>
      <trkpt lat="46.15886" lon="-1.14949">
        <ele>5</ele>
        <time>2023-07-15T15:59:10.482+00:00</time>
      </trkpt>
      <trkpt lat="46.15889" lon="-1.14942">
        <ele>5</ele>
        <time>2023-07-15T15:59:14.815+00:00</time>
      </trkpt>
      <trkpt lat="46.1589" lon="-1.14937">
        <ele>5</ele>
        <time>2023-07-15T15:59:19.966+00:00</time>
      </trkpt>
      <trkpt lat="46.15893" lon="-1.14933">
        <ele>5</ele>
        <time>2023-07-15T15:59:24.016+00:00</time>
      </trkpt>
      <trkpt lat="46.15897" lon="-1.14929">
        <ele>4</ele>
        <time>2023-07-15T15:59:27.936+00:00</time>
      </trkpt>
      <trkpt lat="46.15901" lon="-1.14928">
        <ele>4</ele>
        <time>2023-07-15T15:59:32.176+00:00</time>
      </trkpt>
      <trkpt lat="46.15904" lon="-1.14928">
        <ele>6</ele>
        <time>2023-07-15T15:59:36.817+00:00</time>
      </trkpt>
      <trkpt lat="46.15906" lon="-1.14924">
        <ele>6</ele>
        <time>2023-07-15T15:59:40.819+00:00</time>
      </trkpt>
      <trkpt lat="46.15907" lon="-1.14922">
        <ele>6</ele>
        <time>2023-07-15T15:59:44.980+00:00</time>
      </trkpt>
      <trkpt lat="46.1591" lon="-1.14924">
        <ele>6</ele>
        <time>2023-07-15T15:59:48.993+00:00</time>
      </trkpt>
      <trkpt lat="46.15912" lon="-1.14919">
        <ele>6</ele>
        <time>2023-07-15T15:59:53.003+00:00</time>
      </trkpt>
      <trkpt lat="46.15913" lon="-1.1491">
        <ele>6</ele>
        <time>2023-07-15T15:59:58.018+00:00</time>
      </trkpt>
      <trkpt lat="46.15916" lon="-1.14896">
        <ele>5</ele>
        <time>2023-07-15T16:00:02.535+00:00</time>
      </trkpt>
      <trkpt lat="46.15917" lon="-1.14895">
        <ele>5</ele>
        <time>2023-07-15T16:00:07.051+00:00</time>
      </trkpt>
      <trkpt lat="46.15918" lon="-1.14895">
        <ele>5</ele>
        <time>2023-07-15T16:00:28.725+00:00</time>
      </trkpt>
      <trkpt lat="46.1592" lon="-1.14894">
        <ele>5</ele>
        <time>2023-07-15T16:00:33.232+00:00</time>
      </trkpt>
      <trkpt lat="46.15924" lon="-1.14893">
        <ele>5</ele>
        <time>2023-07-15T16:00:37.739+00:00</time>
      </trkpt>
      <trkpt lat="46.1593" lon="-1.14889">
        <ele>5</ele>
        <time>2023-07-15T16:00:42.245+00:00</time>
      </trkpt>
      <trkpt lat="46.15936" lon="-1.14887">
        <ele>6</ele>
        <time>2023-07-15T16:00:46.851+00:00</time>
      </trkpt>
      <trkpt lat="46.1594" lon="-1.14885">
        <ele>6</ele>
        <time>2023-07-15T16:00:50.856+00:00</time>
      </trkpt>
      <trkpt lat="46.15945" lon="-1.14883">
        <ele>6</ele>
        <time>2023-07-15T16:00:55.455+00:00</time>
      </trkpt>
      <trkpt lat="46.15949" lon="-1.14883">
        <ele>6</ele>
        <time>2023-07-15T16:00:59.464+00:00</time>
      </trkpt>
      <trkpt lat="46.15952" lon="-1.14883">
        <ele>6</ele>
        <time>2023-07-15T16:01:03.967+00:00</time>
      </trkpt>
      <trkpt lat="46.15955" lon="-1.14884">
        <ele>6</ele>
        <time>2023-07-15T16:01:08.482+00:00</time>
      </trkpt>
      <trkpt lat="46.1596" lon="-1.14882">
        <ele>6</ele>
        <time>2023-07-15T16:01:13.195+00:00</time>
      </trkpt>
      <trkpt lat="46.15965" lon="-1.14881">
        <ele>6</ele>
        <time>2023-07-15T16:01:16.891+00:00</time>
      </trkpt>
      <trkpt lat="46.15969" lon="-1.14881">
        <ele>6</ele>
        <time>2023-07-15T16:01:21.512+00:00</time>
      </trkpt>
      <trkpt lat="46.15972" lon="-1.14885">
        <ele>6</ele>
        <time>2023-07-15T16:01:25.772+00:00</time>
      </trkpt>
      <trkpt lat="46.15974" lon="-1.14891">
        <ele>6</ele>
        <time>2023-07-15T16:01:29.966+00:00</time>
      </trkpt>
      <trkpt lat="46.15977" lon="-1.14893">
        <ele>6</ele>
        <time>2023-07-15T16:01:34.194+00:00</time>
      </trkpt>
      <trkpt lat="46.15978" lon="-1.14898">
        <ele>6</ele>
        <time>2023-07-15T16:01:38.482+00:00</time>
      </trkpt>
      <trkpt lat="46.15976" lon="-1.14902">
        <ele>6</ele>
        <time>2023-07-15T16:01:42.315+00:00</time>
      </trkpt>
      <trkpt lat="46.15976" lon="-1.14904">
        <ele>6</ele>
        <time>2023-07-15T16:01:46.824+00:00</time>
      </trkpt>
      <trkpt lat="46.15974" lon="-1.14906">
        <ele>6</ele>
        <time>2023-07-15T16:01:51.841+00:00</time>
      </trkpt>
      <trkpt lat="46.15974" lon="-1.14905">
        <ele>6</ele>
        <time>2023-07-15T16:01:55.853+00:00</time>
      </trkpt>
      <trkpt lat="46.15974" lon="-1.149">
        <ele>6</ele>
        <time>2023-07-15T16:02:00.869+00:00</time>
      </trkpt>
      <trkpt lat="46.15978" lon="-1.14894">
        <ele>6</ele>
        <time>2023-07-15T16:02:05.384+00:00</time>
      </trkpt>
      <trkpt lat="46.15983" lon="-1.1489">
        <ele>6</ele>
        <time>2023-07-15T16:02:09.396+00:00</time>
      </trkpt>
      <trkpt lat="46.15986" lon="-1.14883">
        <ele>6</ele>
        <time>2023-07-15T16:02:13.907+00:00</time>
      </trkpt>
      <trkpt lat="46.15987" lon="-1.14877">
        <ele>5</ele>
        <time>2023-07-15T16:02:18.920+00:00</time>
      </trkpt>
      <trkpt lat="46.15991" lon="-1.14874">
        <ele>5</ele>
        <time>2023-07-15T16:02:23.031+00:00</time>
      </trkpt>
      <trkpt lat="46.15995" lon="-1.14872">
        <ele>5</ele>
        <time>2023-07-15T16:02:27.041+00:00</time>
      </trkpt>
      <trkpt lat="46.15999" lon="-1.1487">
        <ele>5</ele>
        <time>2023-07-15T16:02:31.653+00:00</time>
      </trkpt>
      <trkpt lat="46.16004" lon="-1.14868">
        <ele>5</ele>
        <time>2023-07-15T16:02:35.764+00:00</time>
      </trkpt>
      <trkpt lat="46.16008" lon="-1.14866">
        <ele>5</ele>
        <time>2023-07-15T16:02:39.874+00:00</time>
      </trkpt>
      <trkpt lat="46.16012" lon="-1.14869">
        <ele>5</ele>
        <time>2023-07-15T16:02:44.386+00:00</time>
      </trkpt>
      <trkpt lat="46.16014" lon="-1.14869">
        <ele>6</ele>
        <time>2023-07-15T16:02:48.496+00:00</time>
      </trkpt>
      <trkpt lat="46.16015" lon="-1.14862">
        <ele>6</ele>
        <time>2023-07-15T16:02:53.007+00:00</time>
      </trkpt>
      <trkpt lat="46.16015" lon="-1.14858">
        <ele>6</ele>
        <time>2023-07-15T16:02:57.018+00:00</time>
      </trkpt>
      <trkpt lat="46.16018" lon="-1.14852">
        <ele>6</ele>
        <time>2023-07-15T16:03:01.533+00:00</time>
      </trkpt>
      <trkpt lat="46.16023" lon="-1.14847">
        <ele>7</ele>
        <time>2023-07-15T16:03:05.747+00:00</time>
      </trkpt>
      <trkpt lat="46.16029" lon="-1.14846">
        <ele>7</ele>
        <time>2023-07-15T16:03:09.760+00:00</time>
      </trkpt>
      <trkpt lat="46.16036" lon="-1.14845">
        <ele>7</ele>
        <time>2023-07-15T16:03:14.274+00:00</time>
      </trkpt>
      <trkpt lat="46.16041" lon="-1.14842">
        <ele>7</ele>
        <time>2023-07-15T16:03:18.286+00:00</time>
      </trkpt>
      <trkpt lat="46.16045" lon="-1.1484">
        <ele>8</ele>
        <time>2023-07-15T16:03:22.854+00:00</time>
      </trkpt>
      <trkpt lat="46.1605" lon="-1.14838">
        <ele>8</ele>
        <time>2023-07-15T16:03:26.915+00:00</time>
      </trkpt>
      <trkpt lat="46.16053" lon="-1.14838">
        <ele>8</ele>
        <time>2023-07-15T16:03:30.927+00:00</time>
      </trkpt>
      <trkpt lat="46.16055" lon="-1.1484">
        <ele>8</ele>
        <time>2023-07-15T16:03:35.440+00:00</time>
      </trkpt>
      <trkpt lat="46.16056" lon="-1.14847">
        <ele>8</ele>
        <time>2023-07-15T16:03:39.452+00:00</time>
      </trkpt>
      <trkpt lat="46.16057" lon="-1.14853">
        <ele>7</ele>
        <time>2023-07-15T16:03:43.967+00:00</time>
      </trkpt>
      <trkpt lat="46.16058" lon="-1.14859">
        <ele>7</ele>
        <time>2023-07-15T16:03:47.982+00:00</time>
      </trkpt>
      <trkpt lat="46.16059" lon="-1.14867">
        <ele>7</ele>
        <time>2023-07-15T16:03:51.994+00:00</time>
      </trkpt>
      <trkpt lat="46.16061" lon="-1.14876">
        <ele>7</ele>
        <time>2023-07-15T16:03:56.007+00:00</time>
      </trkpt>
      <trkpt lat="46.16062" lon="-1.14877">
        <ele>7</ele>
        <time>2023-07-15T16:04:00.021+00:00</time>
      </trkpt>
      <trkpt lat="46.16071" lon="-1.14874">
        <ele>8</ele>
        <time>2023-07-15T16:04:05.064+00:00</time>
      </trkpt>
      <trkpt lat="46.1607" lon="-1.14884">
        <ele>8</ele>
        <time>2023-07-15T16:04:09.174+00:00</time>
      </trkpt>
      <trkpt lat="46.1607" lon="-1.1489">
        <ele>8</ele>
        <time>2023-07-15T16:04:14.185+00:00</time>
      </trkpt>
      <trkpt lat="46.16066" lon="-1.14897">
        <ele>7</ele>
        <time>2023-07-15T16:04:18.195+00:00</time>
      </trkpt>
      <trkpt lat="46.16067" lon="-1.149">
        <ele>7</ele>
        <time>2023-07-15T16:04:21.800+00:00</time>
      </trkpt>
      <trkpt lat="46.16069" lon="-1.14908">
        <ele>10</ele>
        <time>2023-07-15T16:04:26.905+00:00</time>
      </trkpt>
      <trkpt lat="46.16074" lon="-1.14913">
        <ele>10</ele>
        <time>2023-07-15T16:04:31.409+00:00</time>
      </trkpt>
      <trkpt lat="46.16082" lon="-1.14914">
        <ele>10</ele>
        <time>2023-07-15T16:04:35.590+00:00</time>
      </trkpt>
      <trkpt lat="46.16085" lon="-1.14915">
        <ele>10</ele>
        <time>2023-07-15T16:04:39.831+00:00</time>
      </trkpt>
      <trkpt lat="46.16088" lon="-1.14915">
        <ele>10</ele>
        <time>2023-07-15T16:04:43.711+00:00</time>
      </trkpt>
      <trkpt lat="46.16092" lon="-1.14912">
        <ele>10</ele>
        <time>2023-07-15T16:04:48.792+00:00</time>
      </trkpt>
      <trkpt lat="46.16098" lon="-1.14911">
        <ele>10</ele>
        <time>2023-07-15T16:04:52.188+00:00</time>
      </trkpt>
      <trkpt lat="46.16104" lon="-1.14913">
        <ele>10</ele>
        <time>2023-07-15T16:04:57.193+00:00</time>
      </trkpt>
      <trkpt lat="46.16104" lon="-1.14912">
        <ele>10</ele>
        <time>2023-07-15T16:05:01.796+00:00</time>
      </trkpt>
      <trkpt lat="46.16105" lon="-1.1491">
        <ele>10</ele>
        <time>2023-07-15T16:05:06.117+00:00</time>
      </trkpt>
      <trkpt lat="46.16105" lon="-1.14907">
        <ele>10</ele>
        <time>2023-07-15T16:05:10.742+00:00</time>
      </trkpt>
      <trkpt lat="46.16106" lon="-1.14906">
        <ele>10</ele>
        <time>2023-07-15T16:05:51.206+00:00</time>
      </trkpt>
      <trkpt lat="46.16109" lon="-1.14909">
        <ele>10</ele>
        <time>2023-07-15T16:05:56.182+00:00</time>
      </trkpt>
      <trkpt lat="46.16116" lon="-1.14909">
        <ele>10</ele>
        <time>2023-07-15T16:06:00.194+00:00</time>
      </trkpt>
      <trkpt lat="46.1612" lon="-1.14909">
        <ele>10</ele>
        <time>2023-07-15T16:06:04.192+00:00</time>
      </trkpt>
      <trkpt lat="46.16126" lon="-1.14907">
        <ele>9</ele>
        <time>2023-07-15T16:06:09.183+00:00</time>
      </trkpt>
      <trkpt lat="46.1613" lon="-1.14906">
        <ele>9</ele>
        <time>2023-07-15T16:06:13.189+00:00</time>
      </trkpt>
      <trkpt lat="46.16132" lon="-1.14904">
        <ele>9</ele>
        <time>2023-07-15T16:06:18.196+00:00</time>
      </trkpt>
      <trkpt lat="46.16142" lon="-1.149">
        <ele>8</ele>
        <time>2023-07-15T16:06:23.222+00:00</time>
      </trkpt>
      <trkpt lat="46.16145" lon="-1.14896">
        <ele>8</ele>
        <time>2023-07-15T16:06:27.215+00:00</time>
      </trkpt>
      <trkpt lat="46.16146" lon="-1.1489">
        <ele>8</ele>
        <time>2023-07-15T16:06:44.395+00:00</time>
      </trkpt>
      <trkpt lat="46.16147" lon="-1.14886">
        <ele>8</ele>
        <time>2023-07-15T16:06:49.014+00:00</time>
      </trkpt>
      <trkpt lat="46.1615" lon="-1.14881">
        <ele>8</ele>
        <time>2023-07-15T16:06:53.530+00:00</time>
      </trkpt>
      <trkpt lat="46.16157" lon="-1.14881">
        <ele>8</ele>
        <time>2023-07-15T16:06:58.047+00:00</time>
      </trkpt>
      <trkpt lat="46.16161" lon="-1.14879">
        <ele>8</ele>
        <time>2023-07-15T16:07:02.663+00:00</time>
      </trkpt>
      <trkpt lat="46.16166" lon="-1.14878">
        <ele>8</ele>
        <time>2023-07-15T16:07:07.262+00:00</time>
      </trkpt>
      <trkpt lat="46.16169" lon="-1.14877">
        <ele>8</ele>
        <time>2023-07-15T16:07:11.293+00:00</time>
      </trkpt>
      <trkpt lat="46.1618" lon="-1.14869">
        <ele>8</ele>
        <time>2023-07-15T16:07:15.405+00:00</time>
      </trkpt>
      <trkpt lat="46.16184" lon="-1.14868">
        <ele>8</ele>
        <time>2023-07-15T16:07:20.123+00:00</time>
      </trkpt>
      <trkpt lat="46.16186" lon="-1.14861">
        <ele>8</ele>
        <time>2023-07-15T16:07:42.302+00:00</time>
      </trkpt>
      <trkpt lat="46.16185" lon="-1.14852">
        <ele>8</ele>
        <time>2023-07-15T16:07:46.317+00:00</time>
      </trkpt>
      <trkpt lat="46.16186" lon="-1.1485">
        <ele>8</ele>
        <time>2023-07-15T16:07:50.835+00:00</time>
      </trkpt>
      <trkpt lat="46.16188" lon="-1.14855">
        <ele>8</ele>
        <time>2023-07-15T16:07:54.850+00:00</time>
      </trkpt>
      <trkpt lat="46.16188" lon="-1.14857">
        <ele>8</ele>
        <time>2023-07-15T16:07:59.364+00:00</time>
      </trkpt>
      <trkpt lat="46.16187" lon="-1.14861">
        <ele>8</ele>
        <time>2023-07-15T16:08:32.222+00:00</time>
      </trkpt>
      <trkpt lat="46.16188" lon="-1.14865">
        <ele>8</ele>
        <time>2023-07-15T16:08:36.502+00:00</time>
      </trkpt>
      <trkpt lat="46.1619" lon="-1.14867">
        <ele>8</ele>
        <time>2023-07-15T16:08:41.020+00:00</time>
      </trkpt>
      <trkpt lat="46.16188" lon="-1.14867">
        <ele>8</ele>
        <time>2023-07-15T16:08:45.140+00:00</time>
      </trkpt>
      <trkpt lat="46.16187" lon="-1.14862">
        <ele>8</ele>
        <time>2023-07-15T16:08:49.158+00:00</time>
      </trkpt>
      <trkpt lat="46.16186" lon="-1.1485">
        <ele>8</ele>
        <time>2023-07-15T16:08:53.175+00:00</time>
      </trkpt>
      <trkpt lat="46.16185" lon="-1.14844">
        <ele>8</ele>
        <time>2023-07-15T16:08:56.706+00:00</time>
      </trkpt>
      <trkpt lat="46.16184" lon="-1.14828">
        <ele>8</ele>
        <time>2023-07-15T16:09:01.726+00:00</time>
      </trkpt>
      <trkpt lat="46.16184" lon="-1.14828">
        <ele>8</ele>
        <time>2023-07-15T16:09:06.243+00:00</time>
      </trkpt>
      <trkpt lat="46.16186" lon="-1.14828">
        <ele>8</ele>
        <time>2023-07-15T16:09:23.803+00:00</time>
      </trkpt>
      <trkpt lat="46.16183" lon="-1.14826">
        <ele>8</ele>
        <time>2023-07-15T16:09:28.314+00:00</time>
      </trkpt>
      <trkpt lat="46.16182" lon="-1.1482">
        <ele>8</ele>
        <time>2023-07-15T16:09:32.320+00:00</time>
      </trkpt>
      <trkpt lat="46.1618" lon="-1.14812">
        <ele>9</ele>
        <time>2023-07-15T16:09:36.827+00:00</time>
      </trkpt>
      <trkpt lat="46.16179" lon="-1.14805">
        <ele>9</ele>
        <time>2023-07-15T16:09:40.833+00:00</time>
      </trkpt>
      <trkpt lat="46.16178" lon="-1.14799">
        <ele>9</ele>
        <time>2023-07-15T16:09:45.340+00:00</time>
      </trkpt>
      <trkpt lat="46.16177" lon="-1.14793">
        <ele>9</ele>
        <time>2023-07-15T16:09:49.844+00:00</time>
      </trkpt>
      <trkpt lat="46.16177" lon="-1.14789">
        <ele>10</ele>
        <time>2023-07-15T16:09:53.950+00:00</time>
      </trkpt>
      <trkpt lat="46.16177" lon="-1.14783">
        <ele>10</ele>
        <time>2023-07-15T16:09:58.155+00:00</time>
      </trkpt>
      <trkpt lat="46.16176" lon="-1.1478">
        <ele>10</ele>
        <time>2023-07-15T16:10:02.660+00:00</time>
      </trkpt>
      <trkpt lat="46.16176" lon="-1.14775">
        <ele>10</ele>
        <time>2023-07-15T16:10:06.865+00:00</time>
      </trkpt>
      <trkpt lat="46.16176" lon="-1.14765">
        <ele>10</ele>
        <time>2023-07-15T16:10:10.868+00:00</time>
      </trkpt>
      <trkpt lat="46.16176" lon="-1.14757">
        <ele>11</ele>
        <time>2023-07-15T16:10:14.875+00:00</time>
      </trkpt>
      <trkpt lat="46.16177" lon="-1.14751">
        <ele>11</ele>
        <time>2023-07-15T16:10:19.380+00:00</time>
      </trkpt>
      <trkpt lat="46.16179" lon="-1.14744">
        <ele>11</ele>
        <time>2023-07-15T16:10:23.886+00:00</time>
      </trkpt>
      <trkpt lat="46.16179" lon="-1.14739">
        <ele>11</ele>
        <time>2023-07-15T16:10:27.891+00:00</time>
      </trkpt>
      <trkpt lat="46.16178" lon="-1.14734">
        <ele>11</ele>
        <time>2023-07-15T16:10:32.394+00:00</time>
      </trkpt>
      <trkpt lat="46.16176" lon="-1.14728">
        <ele>11</ele>
        <time>2023-07-15T16:10:36.899+00:00</time>
      </trkpt>
      <trkpt lat="46.16176" lon="-1.14719">
        <ele>11</ele>
        <time>2023-07-15T16:10:41.003+00:00</time>
      </trkpt>
      <trkpt lat="46.16176" lon="-1.1471">
        <ele>11</ele>
        <time>2023-07-15T16:10:46.005+00:00</time>
      </trkpt>
      <trkpt lat="46.16175" lon="-1.14702">
        <ele>10</ele>
        <time>2023-07-15T16:10:50.027+00:00</time>
      </trkpt>
      <trkpt lat="46.16174" lon="-1.14695">
        <ele>10</ele>
        <time>2023-07-15T16:10:54.331+00:00</time>
      </trkpt>
      <trkpt lat="46.16173" lon="-1.14688">
        <ele>10</ele>
        <time>2023-07-15T16:10:58.334+00:00</time>
      </trkpt>
      <trkpt lat="46.16173" lon="-1.14682">
        <ele>10</ele>
        <time>2023-07-15T16:11:02.857+00:00</time>
      </trkpt>
      <trkpt lat="46.16173" lon="-1.14676">
        <ele>8</ele>
        <time>2023-07-15T16:11:06.859+00:00</time>
      </trkpt>
      <trkpt lat="46.16174" lon="-1.1467">
        <ele>8</ele>
        <time>2023-07-15T16:11:11.363+00:00</time>
      </trkpt>
      <trkpt lat="46.16175" lon="-1.14665">
        <ele>8</ele>
        <time>2023-07-15T16:11:15.864+00:00</time>
      </trkpt>
      <trkpt lat="46.16174" lon="-1.14654">
        <ele>8</ele>
        <time>2023-07-15T16:11:19.867+00:00</time>
      </trkpt>
      <trkpt lat="46.16173" lon="-1.14646">
        <ele>7</ele>
        <time>2023-07-15T16:11:23.870+00:00</time>
      </trkpt>
      <trkpt lat="46.16172" lon="-1.1464">
        <ele>7</ele>
        <time>2023-07-15T16:11:29.029+00:00</time>
      </trkpt>
      <trkpt lat="46.1617" lon="-1.14634">
        <ele>7</ele>
        <time>2023-07-15T16:11:33.115+00:00</time>
      </trkpt>
      <trkpt lat="46.16168" lon="-1.14627">
        <ele>7</ele>
        <time>2023-07-15T16:11:37.176+00:00</time>
      </trkpt>
      <trkpt lat="46.16168" lon="-1.14622">
        <ele>8</ele>
        <time>2023-07-15T16:11:41.378+00:00</time>
      </trkpt>
      <trkpt lat="46.16168" lon="-1.14617">
        <ele>8</ele>
        <time>2023-07-15T16:11:45.380+00:00</time>
      </trkpt>
      <trkpt lat="46.16167" lon="-1.1461">
        <ele>8</ele>
        <time>2023-07-15T16:11:50.004+00:00</time>
      </trkpt>
      <trkpt lat="46.16167" lon="-1.14604">
        <ele>8</ele>
        <time>2023-07-15T16:11:54.066+00:00</time>
      </trkpt>
      <trkpt lat="46.16167" lon="-1.14599">
        <ele>8</ele>
        <time>2023-07-15T16:11:58.288+00:00</time>
      </trkpt>
      <trkpt lat="46.16168" lon="-1.14595">
        <ele>9</ele>
        <time>2023-07-15T16:12:02.449+00:00</time>
      </trkpt>
      <trkpt lat="46.16167" lon="-1.14588">
        <ele>9</ele>
        <time>2023-07-15T16:12:06.729+00:00</time>
      </trkpt>
      <trkpt lat="46.16165" lon="-1.14579">
        <ele>9</ele>
        <time>2023-07-15T16:12:10.770+00:00</time>
      </trkpt>
      <trkpt lat="46.16164" lon="-1.1457">
        <ele>9</ele>
        <time>2023-07-15T16:12:15.931+00:00</time>
      </trkpt>
      <trkpt lat="46.16163" lon="-1.14564">
        <ele>11</ele>
        <time>2023-07-15T16:12:20.634+00:00</time>
      </trkpt>
      <trkpt lat="46.16163" lon="-1.14557">
        <ele>11</ele>
        <time>2023-07-15T16:12:25.338+00:00</time>
      </trkpt>
      <trkpt lat="46.16164" lon="-1.14551">
        <ele>11</ele>
        <time>2023-07-15T16:12:29.341+00:00</time>
      </trkpt>
      <trkpt lat="46.16164" lon="-1.14546">
        <ele>11</ele>
        <time>2023-07-15T16:12:33.847+00:00</time>
      </trkpt>
      <trkpt lat="46.16164" lon="-1.14536">
        <ele>11</ele>
        <time>2023-07-15T16:12:38.354+00:00</time>
      </trkpt>
      <trkpt lat="46.16165" lon="-1.14528">
        <ele>11</ele>
        <time>2023-07-15T16:12:42.862+00:00</time>
      </trkpt>
      <trkpt lat="46.16166" lon="-1.1452">
        <ele>11</ele>
        <time>2023-07-15T16:12:46.967+00:00</time>
      </trkpt>
      <trkpt lat="46.16167" lon="-1.14512">
        <ele>11</ele>
        <time>2023-07-15T16:12:50.974+00:00</time>
      </trkpt>
      <trkpt lat="46.16168" lon="-1.14507">
        <ele>11</ele>
        <time>2023-07-15T16:12:54.980+00:00</time>
      </trkpt>
      <trkpt lat="46.16169" lon="-1.14501">
        <ele>11</ele>
        <time>2023-07-15T16:12:59.729+00:00</time>
      </trkpt>
      <trkpt lat="46.16171" lon="-1.14496">
        <ele>11</ele>
        <time>2023-07-15T16:13:03.793+00:00</time>
      </trkpt>
      <trkpt lat="46.16172" lon="-1.14489">
        <ele>11</ele>
        <time>2023-07-15T16:13:07.797+00:00</time>
      </trkpt>
      <trkpt lat="46.16173" lon="-1.14482">
        <ele>11</ele>
        <time>2023-07-15T16:13:11.801+00:00</time>
      </trkpt>
      <trkpt lat="46.16175" lon="-1.14476">
        <ele>11</ele>
        <time>2023-07-15T16:13:15.804+00:00</time>
      </trkpt>
      <trkpt lat="46.16176" lon="-1.14469">
        <ele>11</ele>
        <time>2023-07-15T16:13:20.426+00:00</time>
      </trkpt>
      <trkpt lat="46.16177" lon="-1.14462">
        <ele>11</ele>
        <time>2023-07-15T16:13:24.669+00:00</time>
      </trkpt>
      <trkpt lat="46.16179" lon="-1.14454">
        <ele>12</ele>
        <time>2023-07-15T16:13:28.691+00:00</time>
      </trkpt>
      <trkpt lat="46.1618" lon="-1.14448">
        <ele>12</ele>
        <time>2023-07-15T16:13:32.697+00:00</time>
      </trkpt>
      <trkpt lat="46.16181" lon="-1.14442">
        <ele>13</ele>
        <time>2023-07-15T16:13:37.216+00:00</time>
      </trkpt>
      <trkpt lat="46.16182" lon="-1.14435">
        <ele>13</ele>
        <time>2023-07-15T16:13:41.305+00:00</time>
      </trkpt>
      <trkpt lat="46.16184" lon="-1.14428">
        <ele>13</ele>
        <time>2023-07-15T16:13:45.410+00:00</time>
      </trkpt>
      <trkpt lat="46.16185" lon="-1.14423">
        <ele>13</ele>
        <time>2023-07-15T16:13:49.415+00:00</time>
      </trkpt>
      <trkpt lat="46.16186" lon="-1.14417">
        <ele>13</ele>
        <time>2023-07-15T16:13:53.921+00:00</time>
      </trkpt>
      <trkpt lat="46.16188" lon="-1.14411">
        <ele>13</ele>
        <time>2023-07-15T16:13:57.927+00:00</time>
      </trkpt>
      <trkpt lat="46.16189" lon="-1.14405">
        <ele>13</ele>
        <time>2023-07-15T16:14:02.434+00:00</time>
      </trkpt>
      <trkpt lat="46.1619" lon="-1.14401">
        <ele>12</ele>
        <time>2023-07-15T16:14:06.541+00:00</time>
      </trkpt>
      <trkpt lat="46.16191" lon="-1.14397">
        <ele>12</ele>
        <time>2023-07-15T16:14:10.548+00:00</time>
      </trkpt>
      <trkpt lat="46.16193" lon="-1.14392">
        <ele>12</ele>
        <time>2023-07-15T16:14:14.654+00:00</time>
      </trkpt>
      <trkpt lat="46.16196" lon="-1.14386">
        <ele>12</ele>
        <time>2023-07-15T16:14:19.160+00:00</time>
      </trkpt>
      <trkpt lat="46.16197" lon="-1.14379">
        <ele>12</ele>
        <time>2023-07-15T16:14:23.164+00:00</time>
      </trkpt>
      <trkpt lat="46.16198" lon="-1.14374">
        <ele>11</ele>
        <time>2023-07-15T16:14:27.667+00:00</time>
      </trkpt>
      <trkpt lat="46.16203" lon="-1.14375">
        <ele>11</ele>
        <time>2023-07-15T16:14:32.171+00:00</time>
      </trkpt>
      <trkpt lat="46.16208" lon="-1.14367">
        <ele>11</ele>
        <time>2023-07-15T16:14:36.275+00:00</time>
      </trkpt>
      <trkpt lat="46.1621" lon="-1.14364">
        <ele>13</ele>
        <time>2023-07-15T16:14:40.379+00:00</time>
      </trkpt>
      <trkpt lat="46.16213" lon="-1.14362">
        <ele>13</ele>
        <time>2023-07-15T16:14:44.892+00:00</time>
      </trkpt>
      <trkpt lat="46.16213" lon="-1.14358">
        <ele>13</ele>
        <time>2023-07-15T16:14:49.407+00:00</time>
      </trkpt>
      <trkpt lat="46.16219" lon="-1.14355">
        <ele>13</ele>
        <time>2023-07-15T16:14:54.024+00:00</time>
      </trkpt>
      <trkpt lat="46.16225" lon="-1.1435">
        <ele>13</ele>
        <time>2023-07-15T16:14:58.541+00:00</time>
      </trkpt>
      <trkpt lat="46.16229" lon="-1.14346">
        <ele>11</ele>
        <time>2023-07-15T16:15:03.057+00:00</time>
      </trkpt>
      <trkpt lat="46.1623" lon="-1.1434">
        <ele>11</ele>
        <time>2023-07-15T16:15:07.087+00:00</time>
      </trkpt>
      <trkpt lat="46.16229" lon="-1.14333">
        <ele>11</ele>
        <time>2023-07-15T16:15:11.704+00:00</time>
      </trkpt>
      <trkpt lat="46.16229" lon="-1.14331">
        <ele>11</ele>
        <time>2023-07-15T16:15:16.218+00:00</time>
      </trkpt>
      <trkpt lat="46.16232" lon="-1.14329">
        <ele>11</ele>
        <time>2023-07-15T16:15:20.850+00:00</time>
      </trkpt>
      <trkpt lat="46.16236" lon="-1.14326">
        <ele>11</ele>
        <time>2023-07-15T16:15:24.963+00:00</time>
      </trkpt>
      <trkpt lat="46.16237" lon="-1.14323">
        <ele>13</ele>
        <time>2023-07-15T16:15:28.978+00:00</time>
      </trkpt>
      <trkpt lat="46.16237" lon="-1.1432">
        <ele>13</ele>
        <time>2023-07-15T16:15:32.994+00:00</time>
      </trkpt>
      <trkpt lat="46.1624" lon="-1.14315">
        <ele>11</ele>
        <time>2023-07-15T16:15:37.010+00:00</time>
      </trkpt>
      <trkpt lat="46.16243" lon="-1.14315">
        <ele>11</ele>
        <time>2023-07-15T16:15:41.645+00:00</time>
      </trkpt>
      <trkpt lat="46.16241" lon="-1.14306">
        <ele>11</ele>
        <time>2023-07-15T16:15:46.163+00:00</time>
      </trkpt>
      <trkpt lat="46.16238" lon="-1.14296">
        <ele>11</ele>
        <time>2023-07-15T16:16:03.923+00:00</time>
      </trkpt>
      <trkpt lat="46.16234" lon="-1.1429">
        <ele>10</ele>
        <time>2023-07-15T16:16:08.438+00:00</time>
      </trkpt>
      <trkpt lat="46.1623" lon="-1.14284">
        <ele>10</ele>
        <time>2023-07-15T16:16:12.955+00:00</time>
      </trkpt>
      <trkpt lat="46.16226" lon="-1.14344">
        <ele>11</ele>
        <time>2023-07-15T16:16:17.473+00:00</time>
      </trkpt>
      <trkpt lat="46.1623" lon="-1.14344">
        <ele>11</ele>
        <time>2023-07-15T16:16:22.090+00:00</time>
      </trkpt>
      <trkpt lat="46.16234" lon="-1.14344">
        <ele>11</ele>
        <time>2023-07-15T16:17:27.156+00:00</time>
      </trkpt>
      <trkpt lat="46.16237" lon="-1.14346">
        <ele>13</ele>
        <time>2023-07-15T16:17:31.219+00:00</time>
      </trkpt>
      <trkpt lat="46.16239" lon="-1.14353">
        <ele>16</ele>
        <time>2023-07-15T16:17:35.768+00:00</time>
      </trkpt>
      <trkpt lat="46.16235" lon="-1.14365">
        <ele>13</ele>
        <time>2023-07-15T16:17:40.350+00:00</time>
      </trkpt>
      <trkpt lat="46.16232" lon="-1.14372">
        <ele>13</ele>
        <time>2023-07-15T16:17:44.855+00:00</time>
      </trkpt>
      <trkpt lat="46.16234" lon="-1.14381">
        <ele>14</ele>
        <time>2023-07-15T16:17:48.955+00:00</time>
      </trkpt>
      <trkpt lat="46.16235" lon="-1.14389">
        <ele>14</ele>
        <time>2023-07-15T16:17:53.459+00:00</time>
      </trkpt>
      <trkpt lat="46.16236" lon="-1.14396">
        <ele>14</ele>
        <time>2023-07-15T16:17:57.465+00:00</time>
      </trkpt>
      <trkpt lat="46.16236" lon="-1.14403">
        <ele>17</ele>
        <time>2023-07-15T16:18:01.970+00:00</time>
      </trkpt>
      <trkpt lat="46.16237" lon="-1.14411">
        <ele>17</ele>
        <time>2023-07-15T16:18:05.975+00:00</time>
      </trkpt>
      <trkpt lat="46.16237" lon="-1.14418">
        <ele>17</ele>
        <time>2023-07-15T16:18:10.483+00:00</time>
      </trkpt>
      <trkpt lat="46.16237" lon="-1.14426">
        <ele>17</ele>
        <time>2023-07-15T16:18:14.488+00:00</time>
      </trkpt>
      <trkpt lat="46.16238" lon="-1.14431">
        <ele>15</ele>
        <time>2023-07-15T16:18:18.493+00:00</time>
      </trkpt>
      <trkpt lat="46.16238" lon="-1.14437">
        <ele>15</ele>
        <time>2023-07-15T16:18:22.999+00:00</time>
      </trkpt>
      <trkpt lat="46.16242" lon="-1.14444">
        <ele>15</ele>
        <time>2023-07-15T16:18:27.606+00:00</time>
      </trkpt>
      <trkpt lat="46.16242" lon="-1.14451">
        <ele>15</ele>
        <time>2023-07-15T16:18:32.115+00:00</time>
      </trkpt>
      <trkpt lat="46.16241" lon="-1.14459">
        <ele>13</ele>
        <time>2023-07-15T16:18:36.723+00:00</time>
      </trkpt>
      <trkpt lat="46.16241" lon="-1.14466">
        <ele>13</ele>
        <time>2023-07-15T16:18:40.729+00:00</time>
      </trkpt>
      <trkpt lat="46.16242" lon="-1.14473">
        <ele>13</ele>
        <time>2023-07-15T16:18:44.835+00:00</time>
      </trkpt>
      <trkpt lat="46.16243" lon="-1.14479">
        <ele>13</ele>
        <time>2023-07-15T16:18:48.841+00:00</time>
      </trkpt>
      <trkpt lat="46.16243" lon="-1.14486">
        <ele>13</ele>
        <time>2023-07-15T16:18:53.348+00:00</time>
      </trkpt>
      <trkpt lat="46.16244" lon="-1.14493">
        <ele>12</ele>
        <time>2023-07-15T16:18:57.354+00:00</time>
      </trkpt>
      <trkpt lat="46.16245" lon="-1.14501">
        <ele>12</ele>
        <time>2023-07-15T16:19:01.359+00:00</time>
      </trkpt>
      <trkpt lat="46.16246" lon="-1.14508">
        <ele>12</ele>
        <time>2023-07-15T16:19:05.884+00:00</time>
      </trkpt>
      <trkpt lat="46.16247" lon="-1.14515">
        <ele>11</ele>
        <time>2023-07-15T16:19:10.489+00:00</time>
      </trkpt>
      <trkpt lat="46.16248" lon="-1.14523">
        <ele>11</ele>
        <time>2023-07-15T16:19:14.593+00:00</time>
      </trkpt>
      <trkpt lat="46.16251" lon="-1.14529">
        <ele>11</ele>
        <time>2023-07-15T16:19:19.297+00:00</time>
      </trkpt>
      <trkpt lat="46.16257" lon="-1.14533">
        <ele>11</ele>
        <time>2023-07-15T16:19:23.800+00:00</time>
      </trkpt>
      <trkpt lat="46.16263" lon="-1.14535">
        <ele>11</ele>
        <time>2023-07-15T16:19:28.303+00:00</time>
      </trkpt>
      <trkpt lat="46.16267" lon="-1.14539">
        <ele>11</ele>
        <time>2023-07-15T16:19:32.405+00:00</time>
      </trkpt>
      <trkpt lat="46.16272" lon="-1.14541">
        <ele>11</ele>
        <time>2023-07-15T16:19:36.407+00:00</time>
      </trkpt>
      <trkpt lat="46.16276" lon="-1.14545">
        <ele>11</ele>
        <time>2023-07-15T16:19:40.509+00:00</time>
      </trkpt>
      <trkpt lat="46.1628" lon="-1.14549">
        <ele>11</ele>
        <time>2023-07-15T16:19:45.029+00:00</time>
      </trkpt>
      <trkpt lat="46.16283" lon="-1.14548">
        <ele>11</ele>
        <time>2023-07-15T16:19:49.551+00:00</time>
      </trkpt>
      <trkpt lat="46.16285" lon="-1.14552">
        <ele>11</ele>
        <time>2023-07-15T16:19:54.071+00:00</time>
      </trkpt>
      <trkpt lat="46.16287" lon="-1.14556">
        <ele>11</ele>
        <time>2023-07-15T16:19:58.695+00:00</time>
      </trkpt>
      <trkpt lat="46.16291" lon="-1.14559">
        <ele>11</ele>
        <time>2023-07-15T16:20:02.810+00:00</time>
      </trkpt>
      <trkpt lat="46.16295" lon="-1.14562">
        <ele>12</ele>
        <time>2023-07-15T16:20:07.326+00:00</time>
      </trkpt>
      <trkpt lat="46.163" lon="-1.14565">
        <ele>12</ele>
        <time>2023-07-15T16:20:11.341+00:00</time>
      </trkpt>
      <trkpt lat="46.16304" lon="-1.14565">
        <ele>12</ele>
        <time>2023-07-15T16:20:15.856+00:00</time>
      </trkpt>
      <trkpt lat="46.16308" lon="-1.1457">
        <ele>12</ele>
        <time>2023-07-15T16:20:20.879+00:00</time>
      </trkpt>
      <trkpt lat="46.16313" lon="-1.14576">
        <ele>12</ele>
        <time>2023-07-15T16:20:24.889+00:00</time>
      </trkpt>
      <trkpt lat="46.16319" lon="-1.14578">
        <ele>12</ele>
        <time>2023-07-15T16:20:29.397+00:00</time>
      </trkpt>
      <trkpt lat="46.16322" lon="-1.14582">
        <ele>12</ele>
        <time>2023-07-15T16:20:33.903+00:00</time>
      </trkpt>
      <trkpt lat="46.16325" lon="-1.14586">
        <ele>12</ele>
        <time>2023-07-15T16:20:37.908+00:00</time>
      </trkpt>
      <trkpt lat="46.16327" lon="-1.1459">
        <ele>12</ele>
        <time>2023-07-15T16:20:42.414+00:00</time>
      </trkpt>
      <trkpt lat="46.16327" lon="-1.14593">
        <ele>12</ele>
        <time>2023-07-15T16:20:46.918+00:00</time>
      </trkpt>
      <trkpt lat="46.16323" lon="-1.14607">
        <ele>13</ele>
        <time>2023-07-15T16:20:51.421+00:00</time>
      </trkpt>
      <trkpt lat="46.16334" lon="-1.14605">
        <ele>13</ele>
        <time>2023-07-15T16:20:55.926+00:00</time>
      </trkpt>
      <trkpt lat="46.16338" lon="-1.14611">
        <ele>13</ele>
        <time>2023-07-15T16:21:30.744+00:00</time>
      </trkpt>
      <trkpt lat="46.16343" lon="-1.14617">
        <ele>13</ele>
        <time>2023-07-15T16:21:35.460+00:00</time>
      </trkpt>
      <trkpt lat="46.16347" lon="-1.14622">
        <ele>12</ele>
        <time>2023-07-15T16:21:39.472+00:00</time>
      </trkpt>
      <trkpt lat="46.16348" lon="-1.1463">
        <ele>13</ele>
        <time>2023-07-15T16:21:43.984+00:00</time>
      </trkpt>
      <trkpt lat="46.16343" lon="-1.14629">
        <ele>13</ele>
        <time>2023-07-15T16:21:47.994+00:00</time>
      </trkpt>
      <trkpt lat="46.16337" lon="-1.14628">
        <ele>13</ele>
        <time>2023-07-15T16:22:14.030+00:00</time>
      </trkpt>
      <trkpt lat="46.1633" lon="-1.14631">
        <ele>13</ele>
        <time>2023-07-15T16:22:18.731+00:00</time>
      </trkpt>
      <trkpt lat="46.16325" lon="-1.14633">
        <ele>13</ele>
        <time>2023-07-15T16:22:23.734+00:00</time>
      </trkpt>
      <trkpt lat="46.16321" lon="-1.14635">
        <ele>13</ele>
        <time>2023-07-15T16:22:28.467+00:00</time>
      </trkpt>
      <trkpt lat="46.16317" lon="-1.1464">
        <ele>13</ele>
        <time>2023-07-15T16:22:32.315+00:00</time>
      </trkpt>
      <trkpt lat="46.1631" lon="-1.14645">
        <ele>13</ele>
        <time>2023-07-15T16:22:36.476+00:00</time>
      </trkpt>
      <trkpt lat="46.16306" lon="-1.1465">
        <ele>13</ele>
        <time>2023-07-15T16:22:40.817+00:00</time>
      </trkpt>
      <trkpt lat="46.16303" lon="-1.14656">
        <ele>13</ele>
        <time>2023-07-15T16:22:45.388+00:00</time>
      </trkpt>
      <trkpt lat="46.163" lon="-1.14661">
        <ele>13</ele>
        <time>2023-07-15T16:22:49.295+00:00</time>
      </trkpt>
      <trkpt lat="46.16296" lon="-1.14667">
        <ele>13</ele>
        <time>2023-07-15T16:22:53.957+00:00</time>
      </trkpt>
      <trkpt lat="46.16292" lon="-1.14675">
        <ele>13</ele>
        <time>2023-07-15T16:22:58.060+00:00</time>
      </trkpt>
      <trkpt lat="46.1629" lon="-1.14678">
        <ele>13</ele>
        <time>2023-07-15T16:23:01.860+00:00</time>
      </trkpt>
      <trkpt lat="46.16289" lon="-1.14682">
        <ele>12</ele>
        <time>2023-07-15T16:23:06.521+00:00</time>
      </trkpt>
      <trkpt lat="46.16291" lon="-1.14689">
        <ele>12</ele>
        <time>2023-07-15T16:23:10.623+00:00</time>
      </trkpt>
      <trkpt lat="46.16292" lon="-1.14694">
        <ele>12</ele>
        <time>2023-07-15T16:23:14.784+00:00</time>
      </trkpt>
      <trkpt lat="46.16294" lon="-1.14702">
        <ele>12</ele>
        <time>2023-07-15T16:23:19.225+00:00</time>
      </trkpt>
      <trkpt lat="46.16295" lon="-1.14708">
        <ele>12</ele>
        <time>2023-07-15T16:23:23.386+00:00</time>
      </trkpt>
      <trkpt lat="46.16298" lon="-1.14715">
        <ele>11</ele>
        <time>2023-07-15T16:23:27.887+00:00</time>
      </trkpt>
      <trkpt lat="46.16299" lon="-1.14723">
        <ele>11</ele>
        <time>2023-07-15T16:23:31.929+00:00</time>
      </trkpt>
      <trkpt lat="46.16302" lon="-1.14731">
        <ele>11</ele>
        <time>2023-07-15T16:23:35.933+00:00</time>
      </trkpt>
      <trkpt lat="46.16305" lon="-1.14739">
        <ele>11</ele>
        <time>2023-07-15T16:23:40.140+00:00</time>
      </trkpt>
      <trkpt lat="46.16308" lon="-1.14747">
        <ele>11</ele>
        <time>2023-07-15T16:23:44.645+00:00</time>
      </trkpt>
      <trkpt lat="46.1631" lon="-1.14752">
        <ele>11</ele>
        <time>2023-07-15T16:23:49.149+00:00</time>
      </trkpt>
      <trkpt lat="46.1631" lon="-1.14757">
        <ele>11</ele>
        <time>2023-07-15T16:23:53.154+00:00</time>
      </trkpt>
      <trkpt lat="46.16307" lon="-1.14762">
        <ele>11</ele>
        <time>2023-07-15T16:23:56.758+00:00</time>
      </trkpt>
      <trkpt lat="46.16302" lon="-1.14765">
        <ele>12</ele>
        <time>2023-07-15T16:24:01.363+00:00</time>
      </trkpt>
      <trkpt lat="46.163" lon="-1.14766">
        <ele>12</ele>
        <time>2023-07-15T16:24:05.366+00:00</time>
      </trkpt>
      <trkpt lat="46.16296" lon="-1.14769">
        <ele>12</ele>
        <time>2023-07-15T16:24:09.887+00:00</time>
      </trkpt>
      <trkpt lat="46.16291" lon="-1.14771">
        <ele>12</ele>
        <time>2023-07-15T16:24:14.048+00:00</time>
      </trkpt>
      <trkpt lat="46.16285" lon="-1.14775">
        <ele>12</ele>
        <time>2023-07-15T16:24:18.493+00:00</time>
      </trkpt>
      <trkpt lat="46.16278" lon="-1.14778">
        <ele>12</ele>
        <time>2023-07-15T16:24:22.749+00:00</time>
      </trkpt>
      <trkpt lat="46.16273" lon="-1.14781">
        <ele>12</ele>
        <time>2023-07-15T16:24:27.109+00:00</time>
      </trkpt>
      <trkpt lat="46.16269" lon="-1.14784">
        <ele>12</ele>
        <time>2023-07-15T16:24:31.648+00:00</time>
      </trkpt>
      <trkpt lat="46.16263" lon="-1.14788">
        <ele>11</ele>
        <time>2023-07-15T16:24:35.528+00:00</time>
      </trkpt>
      <trkpt lat="46.16258" lon="-1.14791">
        <ele>11</ele>
        <time>2023-07-15T16:24:39.468+00:00</time>
      </trkpt>
      <trkpt lat="46.16254" lon="-1.14793">
        <ele>10</ele>
        <time>2023-07-15T16:24:44.218+00:00</time>
      </trkpt>
      <trkpt lat="46.16249" lon="-1.14796">
        <ele>10</ele>
        <time>2023-07-15T16:24:48.610+00:00</time>
      </trkpt>
      <trkpt lat="46.16243" lon="-1.148">
        <ele>10</ele>
        <time>2023-07-15T16:24:53.089+00:00</time>
      </trkpt>
      <trkpt lat="46.16238" lon="-1.14802">
        <ele>10</ele>
        <time>2023-07-15T16:24:57.009+00:00</time>
      </trkpt>
      <trkpt lat="46.16233" lon="-1.14805">
        <ele>9</ele>
        <time>2023-07-15T16:25:01.648+00:00</time>
      </trkpt>
      <trkpt lat="46.16229" lon="-1.14807">
        <ele>9</ele>
        <time>2023-07-15T16:25:06.225+00:00</time>
      </trkpt>
      <trkpt lat="46.16224" lon="-1.14809">
        <ele>9</ele>
        <time>2023-07-15T16:25:10.824+00:00</time>
      </trkpt>
      <trkpt lat="46.1622" lon="-1.14811">
        <ele>9</ele>
        <time>2023-07-15T16:25:14.883+00:00</time>
      </trkpt>
      <trkpt lat="46.16216" lon="-1.14813">
        <ele>9</ele>
        <time>2023-07-15T16:25:19.441+00:00</time>
      </trkpt>
      <trkpt lat="46.16211" lon="-1.14815">
        <ele>9</ele>
        <time>2023-07-15T16:25:23.380+00:00</time>
      </trkpt>
      <trkpt lat="46.16207" lon="-1.14817">
        <ele>9</ele>
        <time>2023-07-15T16:25:27.937+00:00</time>
      </trkpt>
      <trkpt lat="46.16204" lon="-1.14819">
        <ele>9</ele>
        <time>2023-07-15T16:25:31.897+00:00</time>
      </trkpt>
      <trkpt lat="46.16199" lon="-1.14822">
        <ele>8</ele>
        <time>2023-07-15T16:25:35.796+00:00</time>
      </trkpt>
      <trkpt lat="46.16194" lon="-1.14825">
        <ele>8</ele>
        <time>2023-07-15T16:25:40.287+00:00</time>
      </trkpt>
      <trkpt lat="46.16192" lon="-1.14828">
        <ele>8</ele>
        <time>2023-07-15T16:25:44.433+00:00</time>
      </trkpt>
      <trkpt lat="46.1619" lon="-1.14831">
        <ele>8</ele>
        <time>2023-07-15T16:25:48.990+00:00</time>
      </trkpt>
      <trkpt lat="46.16187" lon="-1.14837">
        <ele>8</ele>
        <time>2023-07-15T16:25:52.946+00:00</time>
      </trkpt>
      <trkpt lat="46.16188" lon="-1.14848">
        <ele>8</ele>
        <time>2023-07-15T16:25:58.071+00:00</time>
      </trkpt>
      <trkpt lat="46.16189" lon="-1.14854">
        <ele>8</ele>
        <time>2023-07-15T16:26:02.015+00:00</time>
      </trkpt>
      <trkpt lat="46.16189" lon="-1.14864">
        <ele>8</ele>
        <time>2023-07-15T16:26:06.811+00:00</time>
      </trkpt>
      <trkpt lat="46.1619" lon="-1.14872">
        <ele>8</ele>
        <time>2023-07-15T16:26:11.605+00:00</time>
      </trkpt>
      <trkpt lat="46.16191" lon="-1.14876">
        <ele>8</ele>
        <time>2023-07-15T16:26:16.400+00:00</time>
      </trkpt>
      <trkpt lat="46.16192" lon="-1.14885">
        <ele>8</ele>
        <time>2023-07-15T16:26:21.137+00:00</time>
      </trkpt>
      <trkpt lat="46.16194" lon="-1.14889">
        <ele>8</ele>
        <time>2023-07-15T16:26:25.734+00:00</time>
      </trkpt>
      <trkpt lat="46.16195" lon="-1.14897">
        <ele>8</ele>
        <time>2023-07-15T16:26:30.197+00:00</time>
      </trkpt>
      <trkpt lat="46.16196" lon="-1.14905">
        <ele>8</ele>
        <time>2023-07-15T16:26:34.207+00:00</time>
      </trkpt>
      <trkpt lat="46.16197" lon="-1.14911">
        <ele>8</ele>
        <time>2023-07-15T16:26:38.763+00:00</time>
      </trkpt>
      <trkpt lat="46.16196" lon="-1.14918">
        <ele>8</ele>
        <time>2023-07-15T16:26:43.340+00:00</time>
      </trkpt>
      <trkpt lat="46.16197" lon="-1.14919">
        <ele>8</ele>
        <time>2023-07-15T16:26:47.877+00:00</time>
      </trkpt>
      <trkpt lat="46.16198" lon="-1.14921">
        <ele>8</ele>
        <time>2023-07-15T16:26:52.456+00:00</time>
      </trkpt>
      <trkpt lat="46.162" lon="-1.14928">
        <ele>8</ele>
        <time>2023-07-15T16:26:56.391+00:00</time>
      </trkpt>
      <trkpt lat="46.16204" lon="-1.14936">
        <ele>8</ele>
        <time>2023-07-15T16:27:00.868+00:00</time>
      </trkpt>
      <trkpt lat="46.16204" lon="-1.14954">
        <ele>8</ele>
        <time>2023-07-15T16:27:04.826+00:00</time>
      </trkpt>
      <trkpt lat="46.16204" lon="-1.14955">
        <ele>8</ele>
        <time>2023-07-15T16:27:08.832+00:00</time>
      </trkpt>
      <trkpt lat="46.16203" lon="-1.14961">
        <ele>8</ele>
        <time>2023-07-15T16:27:17.867+00:00</time>
      </trkpt>
      <trkpt lat="46.162" lon="-1.14964">
        <ele>8</ele>
        <time>2023-07-15T16:27:22.885+00:00</time>
      </trkpt>
      <trkpt lat="46.16197" lon="-1.14967">
        <ele>8</ele>
        <time>2023-07-15T16:27:27.903+00:00</time>
      </trkpt>
      <trkpt lat="46.16194" lon="-1.1497">
        <ele>8</ele>
        <time>2023-07-15T16:27:32.921+00:00</time>
      </trkpt>
      <trkpt lat="46.16193" lon="-1.1497">
        <ele>8</ele>
        <time>2023-07-15T16:27:37.537+00:00</time>
      </trkpt>
      <trkpt lat="46.16194" lon="-1.14971">
        <ele>8</ele>
        <time>2023-07-15T16:27:42.056+00:00</time>
      </trkpt>
      <trkpt lat="46.1619" lon="-1.14975">
        <ele>8</ele>
        <time>2023-07-15T16:27:46.581+00:00</time>
      </trkpt>
      <trkpt lat="46.16185" lon="-1.14981">
        <ele>8</ele>
        <time>2023-07-15T16:27:50.595+00:00</time>
      </trkpt>
      <trkpt lat="46.16181" lon="-1.14984">
        <ele>8</ele>
        <time>2023-07-15T16:27:55.108+00:00</time>
      </trkpt>
      <trkpt lat="46.16178" lon="-1.14987">
        <ele>9</ele>
        <time>2023-07-15T16:27:59.304+00:00</time>
      </trkpt>
      <trkpt lat="46.16175" lon="-1.14992">
        <ele>9</ele>
        <time>2023-07-15T16:28:03.316+00:00</time>
      </trkpt>
      <trkpt lat="46.16172" lon="-1.14996">
        <ele>9</ele>
        <time>2023-07-15T16:28:07.320+00:00</time>
      </trkpt>
      <trkpt lat="46.16171" lon="-1.14999">
        <ele>9</ele>
        <time>2023-07-15T16:28:11.823+00:00</time>
      </trkpt>
      <trkpt lat="46.16169" lon="-1.15002">
        <ele>9</ele>
        <time>2023-07-15T16:28:16.026+00:00</time>
      </trkpt>
      <trkpt lat="46.16165" lon="-1.15004">
        <ele>9</ele>
        <time>2023-07-15T16:28:20.030+00:00</time>
      </trkpt>
      <trkpt lat="46.1616" lon="-1.15009">
        <ele>9</ele>
        <time>2023-07-15T16:28:24.033+00:00</time>
      </trkpt>
      <trkpt lat="46.16155" lon="-1.15013">
        <ele>9</ele>
        <time>2023-07-15T16:28:28.036+00:00</time>
      </trkpt>
      <trkpt lat="46.1615" lon="-1.15018">
        <ele>13</ele>
        <time>2023-07-15T16:28:32.618+00:00</time>
      </trkpt>
      <trkpt lat="46.16147" lon="-1.15022">
        <ele>13</ele>
        <time>2023-07-15T16:28:36.859+00:00</time>
      </trkpt>
      <trkpt lat="46.16143" lon="-1.15026">
        <ele>13</ele>
        <time>2023-07-15T16:28:41.364+00:00</time>
      </trkpt>
      <trkpt lat="46.16137" lon="-1.15027">
        <ele>13</ele>
        <time>2023-07-15T16:28:46.164+00:00</time>
      </trkpt>
      <trkpt lat="46.16139" lon="-1.15025">
        <ele>13</ele>
        <time>2023-07-15T16:28:51.186+00:00</time>
      </trkpt>
      <trkpt lat="46.16142" lon="-1.15033">
        <ele>13</ele>
        <time>2023-07-15T16:29:05.865+00:00</time>
      </trkpt>
      <trkpt lat="46.16144" lon="-1.15036">
        <ele>13</ele>
        <time>2023-07-15T16:29:12.203+00:00</time>
      </trkpt>
      <trkpt lat="46.16148" lon="-1.15025">
        <ele>13</ele>
        <time>2023-07-15T16:29:17.468+00:00</time>
      </trkpt>
      <trkpt lat="46.16144" lon="-1.15033">
        <ele>13</ele>
        <time>2023-07-15T16:29:22.506+00:00</time>
      </trkpt>
      <trkpt lat="46.16144" lon="-1.15031">
        <ele>13</ele>
        <time>2023-07-15T16:29:27.528+00:00</time>
      </trkpt>
      <trkpt lat="46.16144" lon="-1.15029">
        <ele>13</ele>
        <time>2023-07-15T16:31:46.211+00:00</time>
      </trkpt>
      <trkpt lat="46.16144" lon="-1.15027">
        <ele>13</ele>
        <time>2023-07-15T16:31:50.790+00:00</time>
      </trkpt>
      <trkpt lat="46.16138" lon="-1.15018">
        <ele>13</ele>
        <time>2023-07-15T16:31:54.828+00:00</time>
      </trkpt>
      <trkpt lat="46.16145" lon="-1.15028">
        <ele>13</ele>
        <time>2023-07-15T16:31:59.867+00:00</time>
      </trkpt>
      <trkpt lat="46.16143" lon="-1.15031">
        <ele>13</ele>
        <time>2023-07-15T16:32:04.218+00:00</time>
      </trkpt>
      <trkpt lat="46.1614" lon="-1.15032">
        <ele>13</ele>
        <time>2023-07-15T16:37:12.949+00:00</time>
      </trkpt>
      <trkpt lat="46.16138" lon="-1.15032">
        <ele>13</ele>
        <time>2023-07-15T16:37:19.071+00:00</time>
      </trkpt>
      <trkpt lat="46.16132" lon="-1.15033">
        <ele>13</ele>
        <time>2023-07-15T16:37:23.113+00:00</time>
      </trkpt>
      <trkpt lat="46.16128" lon="-1.15037">
        <ele>13</ele>
        <time>2023-07-15T16:37:27.716+00:00</time>
      </trkpt>
      <trkpt lat="46.16126" lon="-1.15038">
        <ele>13</ele>
        <time>2023-07-15T16:37:31.777+00:00</time>
      </trkpt>
      <trkpt lat="46.16125" lon="-1.1504">
        <ele>14</ele>
        <time>2023-07-15T16:37:35.939+00:00</time>
      </trkpt>
      <trkpt lat="46.1612" lon="-1.15045">
        <ele>14</ele>
        <time>2023-07-15T16:37:40.942+00:00</time>
      </trkpt>
      <trkpt lat="46.16115" lon="-1.15049">
        <ele>14</ele>
        <time>2023-07-15T16:37:44.984+00:00</time>
      </trkpt>
      <trkpt lat="46.16112" lon="-1.15048">
        <ele>14</ele>
        <time>2023-07-15T16:37:49.065+00:00</time>
      </trkpt>
      <trkpt lat="46.16106" lon="-1.15051">
        <ele>14</ele>
        <time>2023-07-15T16:37:53.567+00:00</time>
      </trkpt>
      <trkpt lat="46.16105" lon="-1.15054">
        <ele>14</ele>
        <time>2023-07-15T16:37:58.069+00:00</time>
      </trkpt>
      <trkpt lat="46.16103" lon="-1.15056">
        <ele>14</ele>
        <time>2023-07-15T16:38:02.271+00:00</time>
      </trkpt>
      <trkpt lat="46.16102" lon="-1.15057">
        <ele>14</ele>
        <time>2023-07-15T16:38:06.972+00:00</time>
      </trkpt>
      <trkpt lat="46.16099" lon="-1.1506">
        <ele>14</ele>
        <time>2023-07-15T16:38:11.535+00:00</time>
      </trkpt>
      <trkpt lat="46.16096" lon="-1.15062">
        <ele>14</ele>
        <time>2023-07-15T16:38:15.538+00:00</time>
      </trkpt>
      <trkpt lat="46.16093" lon="-1.15065">
        <ele>14</ele>
        <time>2023-07-15T16:38:20.080+00:00</time>
      </trkpt>
      <trkpt lat="46.16093" lon="-1.15067">
        <ele>14</ele>
        <time>2023-07-15T16:38:24.380+00:00</time>
      </trkpt>
      <trkpt lat="46.16093" lon="-1.15068">
        <ele>14</ele>
        <time>2023-07-15T16:38:28.660+00:00</time>
      </trkpt>
      <trkpt lat="46.16092" lon="-1.1507">
        <ele>15</ele>
        <time>2023-07-15T16:38:32.702+00:00</time>
      </trkpt>
      <trkpt lat="46.1609" lon="-1.1507">
        <ele>15</ele>
        <time>2023-07-15T16:38:37.706+00:00</time>
      </trkpt>
      <trkpt lat="46.16083" lon="-1.15069">
        <ele>14</ele>
        <time>2023-07-15T16:38:41.708+00:00</time>
      </trkpt>
      <trkpt lat="46.16088" lon="-1.1508">
        <ele>15</ele>
        <time>2023-07-15T16:38:45.771+00:00</time>
      </trkpt>
      <trkpt lat="46.16089" lon="-1.15081">
        <ele>15</ele>
        <time>2023-07-15T16:38:50.292+00:00</time>
      </trkpt>
      <trkpt lat="46.16089" lon="-1.15082">
        <ele>15</ele>
        <time>2023-07-15T16:41:06.721+00:00</time>
      </trkpt>
      <trkpt lat="46.1609" lon="-1.15083">
        <ele>15</ele>
        <time>2023-07-15T16:41:11.706+00:00</time>
      </trkpt>
      <trkpt lat="46.1609" lon="-1.15083">
        <ele>15</ele>
        <time>2023-07-15T16:41:16.761+00:00</time>
      </trkpt>
      <trkpt lat="46.16092" lon="-1.15088">
        <ele>15</ele>
        <time>2023-07-15T16:41:20.981+00:00</time>
      </trkpt>
      <trkpt lat="46.16091" lon="-1.15093">
        <ele>15</ele>
        <time>2023-07-15T16:41:25.761+00:00</time>
      </trkpt>
      <trkpt lat="46.16091" lon="-1.15094">
        <ele>15</ele>
        <time>2023-07-15T16:41:41.363+00:00</time>
      </trkpt>
      <trkpt lat="46.1609" lon="-1.15095">
        <ele>15</ele>
        <time>2023-07-15T16:41:46.784+00:00</time>
      </trkpt>
      <trkpt lat="46.16091" lon="-1.15096">
        <ele>15</ele>
        <time>2023-07-15T16:41:51.224+00:00</time>
      </trkpt>
      <trkpt lat="46.16087" lon="-1.151">
        <ele>15</ele>
        <time>2023-07-15T16:41:58.471+00:00</time>
      </trkpt>
      <trkpt lat="46.16087" lon="-1.15098">
        <ele>15</ele>
        <time>2023-07-15T16:42:03.508+00:00</time>
      </trkpt>
      <trkpt lat="46.16092" lon="-1.15091">
        <ele>15</ele>
        <time>2023-07-15T16:48:08.913+00:00</time>
      </trkpt>
      <trkpt lat="46.16088" lon="-1.15089">
        <ele>15</ele>
        <time>2023-07-15T16:48:13.971+00:00</time>
      </trkpt>
      <trkpt lat="46.16088" lon="-1.15082">
        <ele>15</ele>
        <time>2023-07-15T16:48:18.986+00:00</time>
      </trkpt>
      <trkpt lat="46.1608" lon="-1.15069">
        <ele>14</ele>
        <time>2023-07-15T16:48:24.006+00:00</time>
      </trkpt>
      <trkpt lat="46.16076" lon="-1.15077">
        <ele>15</ele>
        <time>2023-07-15T16:48:29.004+00:00</time>
      </trkpt>
      <trkpt lat="46.16075" lon="-1.15084">
        <ele>15</ele>
        <time>2023-07-15T16:52:11.185+00:00</time>
      </trkpt>
      <trkpt lat="46.16072" lon="-1.15084">
        <ele>15</ele>
        <time>2023-07-15T16:52:15.210+00:00</time>
      </trkpt>
      <trkpt lat="46.16067" lon="-1.1509">
        <ele>15</ele>
        <time>2023-07-15T16:52:19.219+00:00</time>
      </trkpt>
      <trkpt lat="46.16063" lon="-1.15093">
        <ele>15</ele>
        <time>2023-07-15T16:52:23.223+00:00</time>
      </trkpt>
      <trkpt lat="46.16058" lon="-1.15095">
        <ele>15</ele>
        <time>2023-07-15T16:52:27.800+00:00</time>
      </trkpt>
      <trkpt lat="46.16053" lon="-1.15098">
        <ele>15</ele>
        <time>2023-07-15T16:52:31.941+00:00</time>
      </trkpt>
      <trkpt lat="46.16049" lon="-1.15102">
        <ele>15</ele>
        <time>2023-07-15T16:52:35.820+00:00</time>
      </trkpt>
      <trkpt lat="46.16045" lon="-1.15104">
        <ele>15</ele>
        <time>2023-07-15T16:52:40.601+00:00</time>
      </trkpt>
      <trkpt lat="46.16041" lon="-1.15105">
        <ele>15</ele>
        <time>2023-07-15T16:52:44.762+00:00</time>
      </trkpt>
      <trkpt lat="46.16037" lon="-1.15108">
        <ele>15</ele>
        <time>2023-07-15T16:52:48.865+00:00</time>
      </trkpt>
      <trkpt lat="46.16032" lon="-1.15111">
        <ele>15</ele>
        <time>2023-07-15T16:52:53.488+00:00</time>
      </trkpt>
      <trkpt lat="46.16029" lon="-1.15114">
        <ele>15</ele>
        <time>2023-07-15T16:52:57.991+00:00</time>
      </trkpt>
      <trkpt lat="46.1603" lon="-1.15115">
        <ele>15</ele>
        <time>2023-07-15T16:53:02.266+00:00</time>
      </trkpt>
      <trkpt lat="46.16027" lon="-1.15116">
        <ele>15</ele>
        <time>2023-07-15T16:53:07.107+00:00</time>
      </trkpt>
      <trkpt lat="46.16022" lon="-1.15118">
        <ele>15</ele>
        <time>2023-07-15T16:53:10.932+00:00</time>
      </trkpt>
      <trkpt lat="46.16018" lon="-1.15121">
        <ele>15</ele>
        <time>2023-07-15T16:53:15.811+00:00</time>
      </trkpt>
      <trkpt lat="46.16013" lon="-1.15125">
        <ele>13</ele>
        <time>2023-07-15T16:53:19.771+00:00</time>
      </trkpt>
      <trkpt lat="46.16008" lon="-1.15128">
        <ele>13</ele>
        <time>2023-07-15T16:53:23.790+00:00</time>
      </trkpt>
      <trkpt lat="46.16008" lon="-1.1513">
        <ele>13</ele>
        <time>2023-07-15T16:53:27.709+00:00</time>
      </trkpt>
      <trkpt lat="46.15995" lon="-1.15133">
        <ele>13</ele>
        <time>2023-07-15T16:53:31.808+00:00</time>
      </trkpt>
      <trkpt lat="46.15992" lon="-1.15139">
        <ele>13</ele>
        <time>2023-07-15T16:53:35.068+00:00</time>
      </trkpt>
      <trkpt lat="46.15991" lon="-1.15141">
        <ele>13</ele>
        <time>2023-07-15T16:53:44.126+00:00</time>
      </trkpt>
      <trkpt lat="46.1599" lon="-1.15143">
        <ele>13</ele>
        <time>2023-07-15T16:53:53.151+00:00</time>
      </trkpt>
      <trkpt lat="46.1599" lon="-1.15145">
        <ele>13</ele>
        <time>2023-07-15T16:53:58.181+00:00</time>
      </trkpt>
      <trkpt lat="46.15991" lon="-1.15151">
        <ele>13</ele>
        <time>2023-07-15T16:54:02.192+00:00</time>
      </trkpt>
      <trkpt lat="46.15989" lon="-1.15161">
        <ele>12</ele>
        <time>2023-07-15T16:54:06.204+00:00</time>
      </trkpt>
      <trkpt lat="46.15984" lon="-1.15161">
        <ele>12</ele>
        <time>2023-07-15T16:54:10.718+00:00</time>
      </trkpt>
      <trkpt lat="46.15981" lon="-1.15159">
        <ele>12</ele>
        <time>2023-07-15T16:54:49.923+00:00</time>
      </trkpt>
      <trkpt lat="46.15977" lon="-1.15154">
        <ele>12</ele>
        <time>2023-07-15T16:54:54.942+00:00</time>
      </trkpt>
      <trkpt lat="46.15976" lon="-1.15152">
        <ele>12</ele>
        <time>2023-07-15T16:54:58.958+00:00</time>
      </trkpt>
      <trkpt lat="46.15973" lon="-1.15151">
        <ele>12</ele>
        <time>2023-07-15T16:55:03.480+00:00</time>
      </trkpt>
      <trkpt lat="46.15972" lon="-1.1515">
        <ele>12</ele>
        <time>2023-07-15T16:55:08.096+00:00</time>
      </trkpt>
      <trkpt lat="46.15968" lon="-1.15146">
        <ele>12</ele>
        <time>2023-07-15T16:55:37.919+00:00</time>
      </trkpt>
      <trkpt lat="46.15967" lon="-1.15144">
        <ele>12</ele>
        <time>2023-07-15T16:55:42.941+00:00</time>
      </trkpt>
      <trkpt lat="46.15967" lon="-1.15143">
        <ele>12</ele>
        <time>2023-07-15T16:55:47.460+00:00</time>
      </trkpt>
      <trkpt lat="46.15971" lon="-1.15135">
        <ele>12</ele>
        <time>2023-07-15T16:55:51.475+00:00</time>
      </trkpt>
      <trkpt lat="46.15976" lon="-1.15138">
        <ele>12</ele>
        <time>2023-07-15T16:55:56.093+00:00</time>
      </trkpt>
      <trkpt lat="46.15977" lon="-1.15139">
        <ele>12</ele>
        <time>2023-07-15T16:56:00.110+00:00</time>
      </trkpt>
      <trkpt lat="46.15979" lon="-1.15139">
        <ele>12</ele>
        <time>2023-07-15T16:56:05.131+00:00</time>
      </trkpt>
      <trkpt lat="46.15977" lon="-1.15149">
        <ele>12</ele>
        <time>2023-07-15T16:56:09.149+00:00</time>
      </trkpt>
      <trkpt lat="46.15979" lon="-1.15164">
        <ele>12</ele>
        <time>2023-07-15T16:56:13.165+00:00</time>
      </trkpt>
      <trkpt lat="46.15978" lon="-1.15162">
        <ele>12</ele>
        <time>2023-07-15T16:56:17.187+00:00</time>
      </trkpt>
      <trkpt lat="46.15972" lon="-1.15163">
        <ele>12</ele>
        <time>2023-07-15T16:56:35.362+00:00</time>
      </trkpt>
      <trkpt lat="46.15964" lon="-1.15163">
        <ele>12</ele>
        <time>2023-07-15T16:56:39.881+00:00</time>
      </trkpt>
      <trkpt lat="46.15956" lon="-1.15167">
        <ele>12</ele>
        <time>2023-07-15T16:56:45.001+00:00</time>
      </trkpt>
      <trkpt lat="46.15949" lon="-1.15168">
        <ele>12</ele>
        <time>2023-07-15T16:56:49.515+00:00</time>
      </trkpt>
      <trkpt lat="46.15943" lon="-1.1517">
        <ele>12</ele>
        <time>2023-07-15T16:56:54.029+00:00</time>
      </trkpt>
      <trkpt lat="46.15937" lon="-1.15171">
        <ele>12</ele>
        <time>2023-07-15T16:56:58.545+00:00</time>
      </trkpt>
      <trkpt lat="46.15931" lon="-1.15173">
        <ele>12</ele>
        <time>2023-07-15T16:57:03.056+00:00</time>
      </trkpt>
      <trkpt lat="46.15927" lon="-1.15176">
        <ele>13</ele>
        <time>2023-07-15T16:57:07.065+00:00</time>
      </trkpt>
      <trkpt lat="46.1592" lon="-1.15178">
        <ele>13</ele>
        <time>2023-07-15T16:57:11.075+00:00</time>
      </trkpt>
      <trkpt lat="46.15918" lon="-1.15178">
        <ele>13</ele>
        <time>2023-07-15T16:57:15.084+00:00</time>
      </trkpt>
      <trkpt lat="46.15914" lon="-1.15179">
        <ele>13</ele>
        <time>2023-07-15T16:57:19.592+00:00</time>
      </trkpt>
      <trkpt lat="46.1591" lon="-1.1518">
        <ele>13</ele>
        <time>2023-07-15T16:57:24.201+00:00</time>
      </trkpt>
      <trkpt lat="46.15905" lon="-1.15183">
        <ele>12</ele>
        <time>2023-07-15T16:57:28.208+00:00</time>
      </trkpt>
      <trkpt lat="46.15901" lon="-1.15187">
        <ele>13</ele>
        <time>2023-07-15T16:57:32.716+00:00</time>
      </trkpt>
      <trkpt lat="46.15898" lon="-1.15191">
        <ele>13</ele>
        <time>2023-07-15T16:57:36.723+00:00</time>
      </trkpt>
      <trkpt lat="46.15894" lon="-1.15196">
        <ele>13</ele>
        <time>2023-07-15T16:57:41.231+00:00</time>
      </trkpt>
      <trkpt lat="46.15891" lon="-1.15202">
        <ele>13</ele>
        <time>2023-07-15T16:57:45.838+00:00</time>
      </trkpt>
      <trkpt lat="46.15889" lon="-1.15209">
        <ele>14</ele>
        <time>2023-07-15T16:57:50.345+00:00</time>
      </trkpt>
      <trkpt lat="46.15885" lon="-1.15216">
        <ele>14</ele>
        <time>2023-07-15T16:57:54.350+00:00</time>
      </trkpt>
      <trkpt lat="46.15882" lon="-1.15222">
        <ele>14</ele>
        <time>2023-07-15T16:57:58.858+00:00</time>
      </trkpt>
      <trkpt lat="46.15879" lon="-1.15229">
        <ele>14</ele>
        <time>2023-07-15T16:58:02.964+00:00</time>
      </trkpt>
      <trkpt lat="46.15878" lon="-1.15236">
        <ele>14</ele>
        <time>2023-07-15T16:58:07.482+00:00</time>
      </trkpt>
      <trkpt lat="46.15876" lon="-1.15242">
        <ele>14</ele>
        <time>2023-07-15T16:58:11.572+00:00</time>
      </trkpt>
      <trkpt lat="46.15875" lon="-1.1525">
        <ele>12</ele>
        <time>2023-07-15T16:58:15.575+00:00</time>
      </trkpt>
      <trkpt lat="46.15873" lon="-1.15255">
        <ele>12</ele>
        <time>2023-07-15T16:58:20.079+00:00</time>
      </trkpt>
      <trkpt lat="46.15872" lon="-1.15261">
        <ele>12</ele>
        <time>2023-07-15T16:58:24.583+00:00</time>
      </trkpt>
      <trkpt lat="46.1587" lon="-1.15266">
        <ele>13</ele>
        <time>2023-07-15T16:58:28.686+00:00</time>
      </trkpt>
      <trkpt lat="46.15869" lon="-1.15272">
        <ele>13</ele>
        <time>2023-07-15T16:58:33.190+00:00</time>
      </trkpt>
      <trkpt lat="46.15868" lon="-1.15277">
        <ele>13</ele>
        <time>2023-07-15T16:58:37.695+00:00</time>
      </trkpt>
      <trkpt lat="46.15867" lon="-1.15284">
        <ele>13</ele>
        <time>2023-07-15T16:58:42.199+00:00</time>
      </trkpt>
      <trkpt lat="46.15865" lon="-1.15291">
        <ele>13</ele>
        <time>2023-07-15T16:58:46.203+00:00</time>
      </trkpt>
      <trkpt lat="46.15864" lon="-1.15298">
        <ele>12</ele>
        <time>2023-07-15T16:58:50.345+00:00</time>
      </trkpt>
      <trkpt lat="46.15862" lon="-1.15305">
        <ele>12</ele>
        <time>2023-07-15T16:58:54.850+00:00</time>
      </trkpt>
      <trkpt lat="46.1586" lon="-1.1531">
        <ele>12</ele>
        <time>2023-07-15T16:58:58.855+00:00</time>
      </trkpt>
      <trkpt lat="46.15859" lon="-1.15317">
        <ele>12</ele>
        <time>2023-07-15T16:59:03.357+00:00</time>
      </trkpt>
      <trkpt lat="46.15858" lon="-1.15323">
        <ele>12</ele>
        <time>2023-07-15T16:59:07.864+00:00</time>
      </trkpt>
      <trkpt lat="46.15855" lon="-1.15329">
        <ele>12</ele>
        <time>2023-07-15T16:59:11.464+00:00</time>
      </trkpt>
      <trkpt lat="46.15853" lon="-1.15335">
        <ele>12</ele>
        <time>2023-07-15T16:59:16.022+00:00</time>
      </trkpt>
      <trkpt lat="46.15852" lon="-1.15341">
        <ele>12</ele>
        <time>2023-07-15T16:59:20.071+00:00</time>
      </trkpt>
      <trkpt lat="46.15849" lon="-1.15347">
        <ele>12</ele>
        <time>2023-07-15T16:59:24.574+00:00</time>
      </trkpt>
      <trkpt lat="46.15848" lon="-1.15357">
        <ele>12</ele>
        <time>2023-07-15T16:59:29.077+00:00</time>
      </trkpt>
      <trkpt lat="46.15846" lon="-1.15362">
        <ele>10</ele>
        <time>2023-07-15T16:59:33.581+00:00</time>
      </trkpt>
      <trkpt lat="46.15845" lon="-1.15369">
        <ele>10</ele>
        <time>2023-07-15T16:59:38.084+00:00</time>
      </trkpt>
      <trkpt lat="46.15842" lon="-1.15382">
        <ele>11</ele>
        <time>2023-07-15T16:59:42.206+00:00</time>
      </trkpt>
      <trkpt lat="46.15842" lon="-1.15385">
        <ele>11</ele>
        <time>2023-07-15T16:59:46.207+00:00</time>
      </trkpt>
      <trkpt lat="46.15841" lon="-1.15386">
        <ele>11</ele>
        <time>2023-07-15T16:59:54.732+00:00</time>
      </trkpt>
      <trkpt lat="46.15841" lon="-1.15388">
        <ele>11</ele>
        <time>2023-07-15T16:59:58.793+00:00</time>
      </trkpt>
      <trkpt lat="46.15842" lon="-1.15398">
        <ele>11</ele>
        <time>2023-07-15T17:00:02.795+00:00</time>
      </trkpt>
      <trkpt lat="46.15836" lon="-1.15406">
        <ele>11</ele>
        <time>2023-07-15T17:00:07.397+00:00</time>
      </trkpt>
      <trkpt lat="46.15837" lon="-1.15414">
        <ele>11</ele>
        <time>2023-07-15T17:00:11.900+00:00</time>
      </trkpt>
      <trkpt lat="46.15833" lon="-1.15421">
        <ele>11</ele>
        <time>2023-07-15T17:00:16.007+00:00</time>
      </trkpt>
      <trkpt lat="46.15833" lon="-1.15424">
        <ele>11</ele>
        <time>2023-07-15T17:00:20.113+00:00</time>
      </trkpt>
      <trkpt lat="46.15832" lon="-1.15429">
        <ele>11</ele>
        <time>2023-07-15T17:00:25.122+00:00</time>
      </trkpt>
      <trkpt lat="46.15832" lon="-1.15436">
        <ele>10</ele>
        <time>2023-07-15T17:00:29.127+00:00</time>
      </trkpt>
      <trkpt lat="46.15834" lon="-1.15441">
        <ele>10</ele>
        <time>2023-07-15T17:00:33.133+00:00</time>
      </trkpt>
      <trkpt lat="46.15834" lon="-1.15444">
        <ele>10</ele>
        <time>2023-07-15T17:00:37.641+00:00</time>
      </trkpt>
      <trkpt lat="46.15834" lon="-1.1545">
        <ele>10</ele>
        <time>2023-07-15T17:00:41.748+00:00</time>
      </trkpt>
      <trkpt lat="46.15834" lon="-1.15456">
        <ele>10</ele>
        <time>2023-07-15T17:00:46.252+00:00</time>
      </trkpt>
      <trkpt lat="46.15835" lon="-1.15465">
        <ele>10</ele>
        <time>2023-07-15T17:00:50.320+00:00</time>
      </trkpt>
      <trkpt lat="46.15834" lon="-1.1547">
        <ele>10</ele>
        <time>2023-07-15T17:00:54.463+00:00</time>
      </trkpt>
      <trkpt lat="46.15833" lon="-1.15474">
        <ele>10</ele>
        <time>2023-07-15T17:00:58.469+00:00</time>
      </trkpt>
      <trkpt lat="46.15834" lon="-1.15478">
        <ele>10</ele>
        <time>2023-07-15T17:01:02.475+00:00</time>
      </trkpt>
      <trkpt lat="46.15834" lon="-1.15482">
        <ele>10</ele>
        <time>2023-07-15T17:01:06.981+00:00</time>
      </trkpt>
      <trkpt lat="46.15836" lon="-1.15491">
        <ele>10</ele>
        <time>2023-07-15T17:01:11.087+00:00</time>
      </trkpt>
      <trkpt lat="46.15836" lon="-1.155">
        <ele>10</ele>
        <time>2023-07-15T17:01:15.591+00:00</time>
      </trkpt>
      <trkpt lat="46.15836" lon="-1.15507">
        <ele>10</ele>
        <time>2023-07-15T17:01:20.096+00:00</time>
      </trkpt>
      <trkpt lat="46.15837" lon="-1.15514">
        <ele>10</ele>
        <time>2023-07-15T17:01:24.100+00:00</time>
      </trkpt>
      <trkpt lat="46.15837" lon="-1.15518">
        <ele>9</ele>
        <time>2023-07-15T17:01:28.103+00:00</time>
      </trkpt>
      <trkpt lat="46.15838" lon="-1.15526">
        <ele>9</ele>
        <time>2023-07-15T17:01:32.607+00:00</time>
      </trkpt>
      <trkpt lat="46.15839" lon="-1.15538">
        <ele>9</ele>
        <time>2023-07-15T17:01:37.113+00:00</time>
      </trkpt>
      <trkpt lat="46.1584" lon="-1.15548">
        <ele>9</ele>
        <time>2023-07-15T17:01:41.117+00:00</time>
      </trkpt>
      <trkpt lat="46.15842" lon="-1.15555">
        <ele>9</ele>
        <time>2023-07-15T17:01:45.767+00:00</time>
      </trkpt>
      <trkpt lat="46.15848" lon="-1.15565">
        <ele>7</ele>
        <time>2023-07-15T17:01:49.826+00:00</time>
      </trkpt>
      <trkpt lat="46.15843" lon="-1.1557">
        <ele>9</ele>
        <time>2023-07-15T17:01:53.828+00:00</time>
      </trkpt>
      <trkpt lat="46.15839" lon="-1.15576">
        <ele>9</ele>
        <time>2023-07-15T17:02:11.362+00:00</time>
      </trkpt>
      <trkpt lat="46.15831" lon="-1.15583">
        <ele>9</ele>
        <time>2023-07-15T17:02:15.865+00:00</time>
      </trkpt>
      <trkpt lat="46.15823" lon="-1.15584">
        <ele>9</ele>
        <time>2023-07-15T17:02:20.126+00:00</time>
      </trkpt>
      <trkpt lat="46.15822" lon="-1.15594">
        <ele>9</ele>
        <time>2023-07-15T17:02:24.304+00:00</time>
      </trkpt>
      <trkpt lat="46.15822" lon="-1.15599">
        <ele>9</ele>
        <time>2023-07-15T17:02:28.901+00:00</time>
      </trkpt>
      <trkpt lat="46.15818" lon="-1.15605">
        <ele>9</ele>
        <time>2023-07-15T17:02:33.110+00:00</time>
      </trkpt>
      <trkpt lat="46.1581" lon="-1.15616">
        <ele>9</ele>
        <time>2023-07-15T17:02:37.124+00:00</time>
      </trkpt>
      <trkpt lat="46.15813" lon="-1.1563">
        <ele>9</ele>
        <time>2023-07-15T17:02:41.644+00:00</time>
      </trkpt>
      <trkpt lat="46.15815" lon="-1.15641">
        <ele>9</ele>
        <time>2023-07-15T17:02:45.660+00:00</time>
      </trkpt>
      <trkpt lat="46.15817" lon="-1.15651">
        <ele>9</ele>
        <time>2023-07-15T17:02:49.687+00:00</time>
      </trkpt>
      <trkpt lat="46.15814" lon="-1.15657">
        <ele>8</ele>
        <time>2023-07-15T17:02:53.701+00:00</time>
      </trkpt>
      <trkpt lat="46.15808" lon="-1.15657">
        <ele>8</ele>
        <time>2023-07-15T17:02:58.316+00:00</time>
      </trkpt>
      <trkpt lat="46.15803" lon="-1.1566">
        <ele>8</ele>
        <time>2023-07-15T17:03:02.331+00:00</time>
      </trkpt>
      <trkpt lat="46.15797" lon="-1.15664">
        <ele>8</ele>
        <time>2023-07-15T17:03:06.844+00:00</time>
      </trkpt>
      <trkpt lat="46.1579" lon="-1.15666">
        <ele>9</ele>
        <time>2023-07-15T17:03:10.857+00:00</time>
      </trkpt>
      <trkpt lat="46.15784" lon="-1.15669">
        <ele>9</ele>
        <time>2023-07-15T17:03:15.369+00:00</time>
      </trkpt>
      <trkpt lat="46.15779" lon="-1.15673">
        <ele>9</ele>
        <time>2023-07-15T17:03:19.945+00:00</time>
      </trkpt>
      <trkpt lat="46.15775" lon="-1.15676">
        <ele>9</ele>
        <time>2023-07-15T17:03:24.127+00:00</time>
      </trkpt>
      <trkpt lat="46.1577" lon="-1.1568">
        <ele>9</ele>
        <time>2023-07-15T17:03:28.199+00:00</time>
      </trkpt>
      <trkpt lat="46.15764" lon="-1.15683">
        <ele>9</ele>
        <time>2023-07-15T17:03:32.208+00:00</time>
      </trkpt>
      <trkpt lat="46.15758" lon="-1.15685">
        <ele>8</ele>
        <time>2023-07-15T17:03:36.219+00:00</time>
      </trkpt>
      <trkpt lat="46.15752" lon="-1.15688">
        <ele>8</ele>
        <time>2023-07-15T17:03:40.747+00:00</time>
      </trkpt>
      <trkpt lat="46.15747" lon="-1.1569">
        <ele>8</ele>
        <time>2023-07-15T17:03:44.843+00:00</time>
      </trkpt>
      <trkpt lat="46.15742" lon="-1.15692">
        <ele>8</ele>
        <time>2023-07-15T17:03:48.853+00:00</time>
      </trkpt>
      <trkpt lat="46.15737" lon="-1.15694">
        <ele>8</ele>
        <time>2023-07-15T17:03:53.466+00:00</time>
      </trkpt>
      <trkpt lat="46.15732" lon="-1.15696">
        <ele>7</ele>
        <time>2023-07-15T17:03:57.477+00:00</time>
      </trkpt>
      <trkpt lat="46.15727" lon="-1.15695">
        <ele>7</ele>
        <time>2023-07-15T17:04:01.988+00:00</time>
      </trkpt>
      <trkpt lat="46.15721" lon="-1.15696">
        <ele>7</ele>
        <time>2023-07-15T17:04:05.997+00:00</time>
      </trkpt>
      <trkpt lat="46.15715" lon="-1.15699">
        <ele>7</ele>
        <time>2023-07-15T17:04:10.008+00:00</time>
      </trkpt>
      <trkpt lat="46.1571" lon="-1.15702">
        <ele>7</ele>
        <time>2023-07-15T17:04:14.621+00:00</time>
      </trkpt>
      <trkpt lat="46.15704" lon="-1.15705">
        <ele>7</ele>
        <time>2023-07-15T17:04:19.148+00:00</time>
      </trkpt>
      <trkpt lat="46.15698" lon="-1.15706">
        <ele>7</ele>
        <time>2023-07-15T17:04:23.665+00:00</time>
      </trkpt>
      <trkpt lat="46.15693" lon="-1.15709">
        <ele>8</ele>
        <time>2023-07-15T17:04:28.173+00:00</time>
      </trkpt>
      <trkpt lat="46.15688" lon="-1.15712">
        <ele>8</ele>
        <time>2023-07-15T17:04:32.677+00:00</time>
      </trkpt>
      <trkpt lat="46.15686" lon="-1.15718">
        <ele>8</ele>
        <time>2023-07-15T17:04:36.818+00:00</time>
      </trkpt>
      <trkpt lat="46.15682" lon="-1.15726">
        <ele>8</ele>
        <time>2023-07-15T17:04:40.820+00:00</time>
      </trkpt>
      <trkpt lat="46.15677" lon="-1.15732">
        <ele>9</ele>
        <time>2023-07-15T17:04:45.362+00:00</time>
      </trkpt>
      <trkpt lat="46.15671" lon="-1.15734">
        <ele>9</ele>
        <time>2023-07-15T17:04:49.544+00:00</time>
      </trkpt>
      <trkpt lat="46.15665" lon="-1.15734">
        <ele>9</ele>
        <time>2023-07-15T17:04:54.065+00:00</time>
      </trkpt>
      <trkpt lat="46.15659" lon="-1.15731">
        <ele>9</ele>
        <time>2023-07-15T17:04:58.186+00:00</time>
      </trkpt>
      <trkpt lat="46.15655" lon="-1.15731">
        <ele>9</ele>
        <time>2023-07-15T17:05:02.386+00:00</time>
      </trkpt>
      <trkpt lat="46.15649" lon="-1.15731">
        <ele>9</ele>
        <time>2023-07-15T17:05:06.388+00:00</time>
      </trkpt>
      <trkpt lat="46.1564" lon="-1.15731">
        <ele>9</ele>
        <time>2023-07-15T17:05:10.391+00:00</time>
      </trkpt>
      <trkpt lat="46.15634" lon="-1.15731">
        <ele>9</ele>
        <time>2023-07-15T17:05:15.170+00:00</time>
      </trkpt>
      <trkpt lat="46.15631" lon="-1.15727">
        <ele>9</ele>
        <time>2023-07-15T17:05:19.525+00:00</time>
      </trkpt>
      <trkpt lat="46.1563" lon="-1.1572">
        <ele>9</ele>
        <time>2023-07-15T17:05:23.954+00:00</time>
      </trkpt>
      <trkpt lat="46.1563" lon="-1.1571">
        <ele>9</ele>
        <time>2023-07-15T17:05:27.813+00:00</time>
      </trkpt>
      <trkpt lat="46.1563" lon="-1.15701">
        <ele>9</ele>
        <time>2023-07-15T17:05:32.429+00:00</time>
      </trkpt>
      <trkpt lat="46.15629" lon="-1.15694">
        <ele>9</ele>
        <time>2023-07-15T17:05:37.107+00:00</time>
      </trkpt>
      <trkpt lat="46.15628" lon="-1.15687">
        <ele>9</ele>
        <time>2023-07-15T17:05:41.459+00:00</time>
      </trkpt>
      <trkpt lat="46.15627" lon="-1.15681">
        <ele>9</ele>
        <time>2023-07-15T17:05:45.346+00:00</time>
      </trkpt>
      <trkpt lat="46.15626" lon="-1.15675">
        <ele>9</ele>
        <time>2023-07-15T17:05:49.904+00:00</time>
      </trkpt>
      <trkpt lat="46.15625" lon="-1.15669">
        <ele>9</ele>
        <time>2023-07-15T17:05:53.863+00:00</time>
      </trkpt>
      <trkpt lat="46.15625" lon="-1.15662">
        <ele>9</ele>
        <time>2023-07-15T17:05:58.402+00:00</time>
      </trkpt>
      <trkpt lat="46.15626" lon="-1.15658">
        <ele>9</ele>
        <time>2023-07-15T17:06:02.493+00:00</time>
      </trkpt>
      <trkpt lat="46.15625" lon="-1.15653">
        <ele>8</ele>
        <time>2023-07-15T17:06:06.940+00:00</time>
      </trkpt>
      <trkpt lat="46.15625" lon="-1.15646">
        <ele>10</ele>
        <time>2023-07-15T17:06:12.038+00:00</time>
      </trkpt>
      <trkpt lat="46.15625" lon="-1.15641">
        <ele>10</ele>
        <time>2023-07-15T17:06:16.216+00:00</time>
      </trkpt>
      <trkpt lat="46.15624" lon="-1.15636">
        <ele>10</ele>
        <time>2023-07-15T17:06:20.413+00:00</time>
      </trkpt>
      <trkpt lat="46.15623" lon="-1.15629">
        <ele>10</ele>
        <time>2023-07-15T17:06:24.369+00:00</time>
      </trkpt>
      <trkpt lat="46.15623" lon="-1.15625">
        <ele>10</ele>
        <time>2023-07-15T17:06:28.427+00:00</time>
      </trkpt>
      <trkpt lat="46.15623" lon="-1.15621">
        <ele>10</ele>
        <time>2023-07-15T17:06:32.606+00:00</time>
      </trkpt>
      <trkpt lat="46.15622" lon="-1.15617">
        <ele>10</ele>
        <time>2023-07-15T17:06:36.684+00:00</time>
      </trkpt>
      <trkpt lat="46.15621" lon="-1.15612">
        <ele>10</ele>
        <time>2023-07-15T17:06:41.206+00:00</time>
      </trkpt>
      <trkpt lat="46.15619" lon="-1.15606">
        <ele>10</ele>
        <time>2023-07-15T17:06:45.199+00:00</time>
      </trkpt>
      <trkpt lat="46.15618" lon="-1.15601">
        <ele>10</ele>
        <time>2023-07-15T17:06:49.157+00:00</time>
      </trkpt>
      <trkpt lat="46.15617" lon="-1.15594">
        <ele>9</ele>
        <time>2023-07-15T17:06:53.656+00:00</time>
      </trkpt>
      <trkpt lat="46.15617" lon="-1.1559">
        <ele>9</ele>
        <time>2023-07-15T17:06:58.194+00:00</time>
      </trkpt>
      <trkpt lat="46.15615" lon="-1.15585">
        <ele>9</ele>
        <time>2023-07-15T17:07:02.725+00:00</time>
      </trkpt>
      <trkpt lat="46.15615" lon="-1.15584">
        <ele>9</ele>
        <time>2023-07-15T17:07:06.651+00:00</time>
      </trkpt>
      <trkpt lat="46.15613" lon="-1.15583">
        <ele>9</ele>
        <time>2023-07-15T17:07:46.655+00:00</time>
      </trkpt>
      <trkpt lat="46.15606" lon="-1.15581">
        <ele>9</ele>
        <time>2023-07-15T17:07:51.004+00:00</time>
      </trkpt>
      <trkpt lat="46.15604" lon="-1.15581">
        <ele>9</ele>
        <time>2023-07-15T17:07:55.401+00:00</time>
      </trkpt>
    </trkseg>
  </trk>
</gpx>